<?xml version="1.0" encoding="UTF-8" standalone="no" ?>
<gpx xmlns="http://www.topografix.com/GPX/1/1" xmlns:xsi="http://www.w3.org/2001/XMLSchema-instance" xsi:schemaLocation="http://www.topografix.com/GPX/1/1 http://www.topografix.com/GPX/1/1/gpx.xsd" version="1.1" creator="VisuGPX - https://www.visugpx.com">
  <metadata>
    <name>ColDeCou-PlaineJoux</name>
    <desc><![CDATA[
34x23 dans col de cou depuis fessy]]></desc>
  </metadata>
  <trk>
    <name><![CDATA[ColDeCou-PlaineJoux]]></name>
    <desc><![CDATA[34x23 dans col de cou depuis fessy]]></desc>
    <trkseg>
      <trkpt lat="46.20017" lon="6.22539">
        <ele>430.60000610352</ele>
        <time>2020-08-05T07:57:13.000Z</time>
      </trkpt>
      <trkpt lat="46.20061" lon="6.22509">
        <ele>432</ele>
        <time>2020-08-05T07:57:22.000Z</time>
      </trkpt>
      <trkpt lat="46.20111" lon="6.22475">
        <ele>431.39999389648</ele>
        <time>2020-08-05T07:57:32.000Z</time>
      </trkpt>
      <trkpt lat="46.20141" lon="6.22453">
        <ele>431.20001220703</ele>
        <time>2020-08-05T07:57:38.000Z</time>
      </trkpt>
      <trkpt lat="46.20181" lon="6.22422">
        <ele>430.39999389648</ele>
        <time>2020-08-05T07:57:46.000Z</time>
      </trkpt>
      <trkpt lat="46.20217" lon="6.22395">
        <ele>427.60000610352</ele>
        <time>2020-08-05T07:57:53.000Z</time>
      </trkpt>
      <trkpt lat="46.20262" lon="6.22361">
        <ele>427.79998779297</ele>
        <time>2020-08-05T07:58:02.000Z</time>
      </trkpt>
      <trkpt lat="46.20294" lon="6.22336">
        <ele>427.39999389648</ele>
        <time>2020-08-05T07:58:08.000Z</time>
      </trkpt>
      <trkpt lat="46.20326" lon="6.22313">
        <ele>427</ele>
        <time>2020-08-05T07:58:14.000Z</time>
      </trkpt>
      <trkpt lat="46.20336" lon="6.22306">
        <ele>427.20001220703</ele>
        <time>2020-08-05T07:58:16.000Z</time>
      </trkpt>
      <trkpt lat="46.20346" lon="6.22299">
        <ele>427.39999389648</ele>
        <time>2020-08-05T07:58:18.000Z</time>
      </trkpt>
      <trkpt lat="46.20366" lon="6.22292">
        <ele>427.79998779297</ele>
        <time>2020-08-05T07:58:22.000Z</time>
      </trkpt>
      <trkpt lat="46.20375" lon="6.22287">
        <ele>427.79998779297</ele>
        <time>2020-08-05T07:58:24.000Z</time>
      </trkpt>
      <trkpt lat="46.20385" lon="6.22288">
        <ele>427.79998779297</ele>
        <time>2020-08-05T07:58:26.000Z</time>
      </trkpt>
      <trkpt lat="46.20391" lon="6.22301">
        <ele>427.39999389648</ele>
        <time>2020-08-05T07:58:28.000Z</time>
      </trkpt>
      <trkpt lat="46.20394" lon="6.22306">
        <ele>427.20001220703</ele>
        <time>2020-08-05T07:58:29.000Z</time>
      </trkpt>
      <trkpt lat="46.20414" lon="6.22345">
        <ele>427.20001220703</ele>
        <time>2020-08-05T07:58:36.000Z</time>
      </trkpt>
      <trkpt lat="46.20442" lon="6.22388">
        <ele>427.39999389648</ele>
        <time>2020-08-05T07:58:44.000Z</time>
      </trkpt>
      <trkpt lat="46.20476" lon="6.22439">
        <ele>427</ele>
        <time>2020-08-05T07:58:53.000Z</time>
      </trkpt>
      <trkpt lat="46.20513" lon="6.22476">
        <ele>427.39999389648</ele>
        <time>2020-08-05T07:59:01.000Z</time>
      </trkpt>
      <trkpt lat="46.20556" lon="6.22514">
        <ele>428</ele>
        <time>2020-08-05T07:59:10.000Z</time>
      </trkpt>
      <trkpt lat="46.20594" lon="6.22545">
        <ele>428</ele>
        <time>2020-08-05T07:59:18.000Z</time>
      </trkpt>
      <trkpt lat="46.20635" lon="6.22568">
        <ele>428</ele>
        <time>2020-08-05T07:59:26.000Z</time>
      </trkpt>
      <trkpt lat="46.20688" lon="6.22595">
        <ele>428.20001220703</ele>
        <time>2020-08-05T07:59:37.000Z</time>
      </trkpt>
      <trkpt lat="46.20727" lon="6.22614">
        <ele>428.39999389648</ele>
        <time>2020-08-05T07:59:45.000Z</time>
      </trkpt>
      <trkpt lat="46.20768" lon="6.22631">
        <ele>428.20001220703</ele>
        <time>2020-08-05T07:59:53.000Z</time>
      </trkpt>
      <trkpt lat="46.2081" lon="6.22649">
        <ele>428</ele>
        <time>2020-08-05T08:00:01.000Z</time>
      </trkpt>
      <trkpt lat="46.20859" lon="6.22669">
        <ele>428</ele>
        <time>2020-08-05T08:00:10.000Z</time>
      </trkpt>
      <trkpt lat="46.2091" lon="6.22693">
        <ele>427.79998779297</ele>
        <time>2020-08-05T08:00:19.000Z</time>
      </trkpt>
      <trkpt lat="46.20937" lon="6.22707">
        <ele>427.39999389648</ele>
        <time>2020-08-05T08:00:24.000Z</time>
      </trkpt>
      <trkpt lat="46.20947" lon="6.22713">
        <ele>427.39999389648</ele>
        <time>2020-08-05T08:00:26.000Z</time>
      </trkpt>
      <trkpt lat="46.20963" lon="6.22722">
        <ele>427.20001220703</ele>
        <time>2020-08-05T08:00:29.000Z</time>
      </trkpt>
      <trkpt lat="46.21004" lon="6.22745">
        <ele>427.60000610352</ele>
        <time>2020-08-05T08:00:37.000Z</time>
      </trkpt>
      <trkpt lat="46.21048" lon="6.22772">
        <ele>428.60000610352</ele>
        <time>2020-08-05T08:00:45.000Z</time>
      </trkpt>
      <trkpt lat="46.21078" lon="6.22795">
        <ele>429</ele>
        <time>2020-08-05T08:00:51.000Z</time>
      </trkpt>
      <trkpt lat="46.21105" lon="6.22816">
        <ele>429</ele>
        <time>2020-08-05T08:00:57.000Z</time>
      </trkpt>
      <trkpt lat="46.21124" lon="6.22831">
        <ele>429.39999389648</ele>
        <time>2020-08-05T08:01:01.000Z</time>
      </trkpt>
      <trkpt lat="46.21134" lon="6.22838">
        <ele>429.60000610352</ele>
        <time>2020-08-05T08:01:03.000Z</time>
      </trkpt>
      <trkpt lat="46.21148" lon="6.22849">
        <ele>429.79998779297</ele>
        <time>2020-08-05T08:01:06.000Z</time>
      </trkpt>
      <trkpt lat="46.21159" lon="6.22863">
        <ele>429.79998779297</ele>
        <time>2020-08-05T08:01:08.000Z</time>
      </trkpt>
      <trkpt lat="46.2116" lon="6.2287">
        <ele>429.79998779297</ele>
        <time>2020-08-05T08:01:09.000Z</time>
      </trkpt>
      <trkpt lat="46.21167" lon="6.22878">
        <ele>429.79998779297</ele>
        <time>2020-08-05T08:01:11.000Z</time>
      </trkpt>
      <trkpt lat="46.21176" lon="6.22886">
        <ele>429.60000610352</ele>
        <time>2020-08-05T08:01:13.000Z</time>
      </trkpt>
      <trkpt lat="46.21184" lon="6.22895">
        <ele>429.60000610352</ele>
        <time>2020-08-05T08:01:15.000Z</time>
      </trkpt>
      <trkpt lat="46.21214" lon="6.22931">
        <ele>429.79998779297</ele>
        <time>2020-08-05T08:01:22.000Z</time>
      </trkpt>
      <trkpt lat="46.21246" lon="6.22975">
        <ele>429.79998779297</ele>
        <time>2020-08-05T08:01:30.000Z</time>
      </trkpt>
      <trkpt lat="46.21272" lon="6.23014">
        <ele>429.60000610352</ele>
        <time>2020-08-05T08:01:37.000Z</time>
      </trkpt>
      <trkpt lat="46.21292" lon="6.23043">
        <ele>429.39999389648</ele>
        <time>2020-08-05T08:01:42.000Z</time>
      </trkpt>
      <trkpt lat="46.21316" lon="6.23085">
        <ele>429.20001220703</ele>
        <time>2020-08-05T08:01:49.000Z</time>
      </trkpt>
      <trkpt lat="46.21337" lon="6.23124">
        <ele>429.79998779297</ele>
        <time>2020-08-05T08:01:55.000Z</time>
      </trkpt>
      <trkpt lat="46.21354" lon="6.23154">
        <ele>430</ele>
        <time>2020-08-05T08:02:00.000Z</time>
      </trkpt>
      <trkpt lat="46.2136" lon="6.23169">
        <ele>429.79998779297</ele>
        <time>2020-08-05T08:02:02.000Z</time>
      </trkpt>
      <trkpt lat="46.21363" lon="6.23174">
        <ele>429.60000610352</ele>
        <time>2020-08-05T08:02:03.000Z</time>
      </trkpt>
      <trkpt lat="46.21364" lon="6.23177">
        <ele>429.60000610352</ele>
        <time>2020-08-05T08:02:04.000Z</time>
      </trkpt>
      <trkpt lat="46.21371" lon="6.23192">
        <ele>429.39999389648</ele>
        <time>2020-08-05T08:02:06.000Z</time>
      </trkpt>
      <trkpt lat="46.21373" lon="6.23198">
        <ele>429.39999389648</ele>
        <time>2020-08-05T08:02:07.000Z</time>
      </trkpt>
      <trkpt lat="46.21376" lon="6.23205">
        <ele>429.20001220703</ele>
        <time>2020-08-05T08:02:08.000Z</time>
      </trkpt>
      <trkpt lat="46.21385" lon="6.23222">
        <ele>429.20001220703</ele>
        <time>2020-08-05T08:02:11.000Z</time>
      </trkpt>
      <trkpt lat="46.2141" lon="6.23278">
        <ele>429</ele>
        <time>2020-08-05T08:02:18.000Z</time>
      </trkpt>
      <trkpt lat="46.21433" lon="6.23333">
        <ele>429.20001220703</ele>
        <time>2020-08-05T08:02:26.000Z</time>
      </trkpt>
      <trkpt lat="46.21453" lon="6.23381">
        <ele>429.60000610352</ele>
        <time>2020-08-05T08:02:33.000Z</time>
      </trkpt>
      <trkpt lat="46.21456" lon="6.23388">
        <ele>429.79998779297</ele>
        <time>2020-08-05T08:02:34.000Z</time>
      </trkpt>
      <trkpt lat="46.21465" lon="6.23406">
        <ele>429.79998779297</ele>
        <time>2020-08-05T08:02:37.000Z</time>
      </trkpt>
      <trkpt lat="46.21477" lon="6.23431">
        <ele>429.60000610352</ele>
        <time>2020-08-05T08:02:41.000Z</time>
      </trkpt>
      <trkpt lat="46.21495" lon="6.23467">
        <ele>429</ele>
        <time>2020-08-05T08:02:47.000Z</time>
      </trkpt>
      <trkpt lat="46.21519" lon="6.23516">
        <ele>429</ele>
        <time>2020-08-05T08:02:55.000Z</time>
      </trkpt>
      <trkpt lat="46.21544" lon="6.23556">
        <ele>428.79998779297</ele>
        <time>2020-08-05T08:03:02.000Z</time>
      </trkpt>
      <trkpt lat="46.21576" lon="6.23605">
        <ele>429</ele>
        <time>2020-08-05T08:03:11.000Z</time>
      </trkpt>
      <trkpt lat="46.21613" lon="6.23653">
        <ele>429</ele>
        <time>2020-08-05T08:03:20.000Z</time>
      </trkpt>
      <trkpt lat="46.21638" lon="6.2368">
        <ele>429.39999389648</ele>
        <time>2020-08-05T08:03:26.000Z</time>
      </trkpt>
      <trkpt lat="46.21658" lon="6.23702">
        <ele>429.60000610352</ele>
        <time>2020-08-05T08:03:31.000Z</time>
      </trkpt>
      <trkpt lat="46.21684" lon="6.23725">
        <ele>430</ele>
        <time>2020-08-05T08:03:37.000Z</time>
      </trkpt>
      <trkpt lat="46.21711" lon="6.23746">
        <ele>430</ele>
        <time>2020-08-05T08:03:43.000Z</time>
      </trkpt>
      <trkpt lat="46.21757" lon="6.23782">
        <ele>430</ele>
        <time>2020-08-05T08:03:52.000Z</time>
      </trkpt>
      <trkpt lat="46.21793" lon="6.23807">
        <ele>430</ele>
        <time>2020-08-05T08:03:59.000Z</time>
      </trkpt>
      <trkpt lat="46.2184" lon="6.23838">
        <ele>429.60000610352</ele>
        <time>2020-08-05T08:04:08.000Z</time>
      </trkpt>
      <trkpt lat="46.21876" lon="6.23863">
        <ele>429.39999389648</ele>
        <time>2020-08-05T08:04:15.000Z</time>
      </trkpt>
      <trkpt lat="46.2192" lon="6.23898">
        <ele>429.39999389648</ele>
        <time>2020-08-05T08:04:24.000Z</time>
      </trkpt>
      <trkpt lat="46.21952" lon="6.23924">
        <ele>430.60000610352</ele>
        <time>2020-08-05T08:04:31.000Z</time>
      </trkpt>
      <trkpt lat="46.21986" lon="6.23962">
        <ele>432.20001220703</ele>
        <time>2020-08-05T08:04:39.000Z</time>
      </trkpt>
      <trkpt lat="46.21997" lon="6.23975">
        <ele>432.39999389648</ele>
        <time>2020-08-05T08:04:42.000Z</time>
      </trkpt>
      <trkpt lat="46.22008" lon="6.23986">
        <ele>432.60000610352</ele>
        <time>2020-08-05T08:04:45.000Z</time>
      </trkpt>
      <trkpt lat="46.22014" lon="6.23993">
        <ele>432.60000610352</ele>
        <time>2020-08-05T08:04:47.000Z</time>
      </trkpt>
      <trkpt lat="46.22024" lon="6.24006">
        <ele>432.79998779297</ele>
        <time>2020-08-05T08:04:50.000Z</time>
      </trkpt>
      <trkpt lat="46.22034" lon="6.24022">
        <ele>433.20001220703</ele>
        <time>2020-08-05T08:04:53.000Z</time>
      </trkpt>
      <trkpt lat="46.22044" lon="6.24039">
        <ele>433.60000610352</ele>
        <time>2020-08-05T08:04:56.000Z</time>
      </trkpt>
      <trkpt lat="46.2206" lon="6.24068">
        <ele>434.60000610352</ele>
        <time>2020-08-05T08:05:01.000Z</time>
      </trkpt>
      <trkpt lat="46.22066" lon="6.24079">
        <ele>435</ele>
        <time>2020-08-05T08:05:03.000Z</time>
      </trkpt>
      <trkpt lat="46.22081" lon="6.24106">
        <ele>435.39999389648</ele>
        <time>2020-08-05T08:05:08.000Z</time>
      </trkpt>
      <trkpt lat="46.22101" lon="6.24141">
        <ele>435.79998779297</ele>
        <time>2020-08-05T08:05:15.000Z</time>
      </trkpt>
      <trkpt lat="46.22109" lon="6.24154">
        <ele>436</ele>
        <time>2020-08-05T08:05:18.000Z</time>
      </trkpt>
      <trkpt lat="46.2212" lon="6.24172">
        <ele>436.20001220703</ele>
        <time>2020-08-05T08:05:21.000Z</time>
      </trkpt>
      <trkpt lat="46.22142" lon="6.24208">
        <ele>436.60000610352</ele>
        <time>2020-08-05T08:05:28.000Z</time>
      </trkpt>
      <trkpt lat="46.22162" lon="6.24241">
        <ele>437.60000610352</ele>
        <time>2020-08-05T08:05:34.000Z</time>
      </trkpt>
      <trkpt lat="46.22183" lon="6.24273">
        <ele>437.60000610352</ele>
        <time>2020-08-05T08:05:40.000Z</time>
      </trkpt>
      <trkpt lat="46.22208" lon="6.24308">
        <ele>437.20001220703</ele>
        <time>2020-08-05T08:05:47.000Z</time>
      </trkpt>
      <trkpt lat="46.22222" lon="6.24322">
        <ele>437.20001220703</ele>
        <time>2020-08-05T08:05:51.000Z</time>
      </trkpt>
      <trkpt lat="46.22225" lon="6.24325">
        <ele>437.20001220703</ele>
        <time>2020-08-05T08:05:52.000Z</time>
      </trkpt>
      <trkpt lat="46.22245" lon="6.24344">
        <ele>437.79998779297</ele>
        <time>2020-08-05T08:05:57.000Z</time>
      </trkpt>
      <trkpt lat="46.22249" lon="6.24349">
        <ele>438</ele>
        <time>2020-08-05T08:05:58.000Z</time>
      </trkpt>
      <trkpt lat="46.22265" lon="6.24365">
        <ele>438.60000610352</ele>
        <time>2020-08-05T08:06:02.000Z</time>
      </trkpt>
      <trkpt lat="46.22294" lon="6.24392">
        <ele>439.60000610352</ele>
        <time>2020-08-05T08:06:09.000Z</time>
      </trkpt>
      <trkpt lat="46.22306" lon="6.24404">
        <ele>440</ele>
        <time>2020-08-05T08:06:12.000Z</time>
      </trkpt>
      <trkpt lat="46.22318" lon="6.24415">
        <ele>440.20001220703</ele>
        <time>2020-08-05T08:06:15.000Z</time>
      </trkpt>
      <trkpt lat="46.22346" lon="6.24441">
        <ele>439.39999389648</ele>
        <time>2020-08-05T08:06:22.000Z</time>
      </trkpt>
      <trkpt lat="46.22378" lon="6.24465">
        <ele>438.60000610352</ele>
        <time>2020-08-05T08:06:29.000Z</time>
      </trkpt>
      <trkpt lat="46.2241" lon="6.24489">
        <ele>438.20001220703</ele>
        <time>2020-08-05T08:06:36.000Z</time>
      </trkpt>
      <trkpt lat="46.2245" lon="6.24518">
        <ele>438.60000610352</ele>
        <time>2020-08-05T08:06:45.000Z</time>
      </trkpt>
      <trkpt lat="46.22499" lon="6.24552">
        <ele>439</ele>
        <time>2020-08-05T08:06:56.000Z</time>
      </trkpt>
      <trkpt lat="46.22543" lon="6.24575">
        <ele>439</ele>
        <time>2020-08-05T08:07:05.000Z</time>
      </trkpt>
      <trkpt lat="46.22597" lon="6.24602">
        <ele>438.60000610352</ele>
        <time>2020-08-05T08:07:16.000Z</time>
      </trkpt>
      <trkpt lat="46.22607" lon="6.24607">
        <ele>438.60000610352</ele>
        <time>2020-08-05T08:07:18.000Z</time>
      </trkpt>
      <trkpt lat="46.22659" lon="6.24637">
        <ele>439</ele>
        <time>2020-08-05T08:07:29.000Z</time>
      </trkpt>
      <trkpt lat="46.22684" lon="6.24653">
        <ele>439.60000610352</ele>
        <time>2020-08-05T08:07:34.000Z</time>
      </trkpt>
      <trkpt lat="46.22693" lon="6.24658">
        <ele>439.79998779297</ele>
        <time>2020-08-05T08:07:36.000Z</time>
      </trkpt>
      <trkpt lat="46.22696" lon="6.24668">
        <ele>440.20001220703</ele>
        <time>2020-08-05T08:07:37.000Z</time>
      </trkpt>
      <trkpt lat="46.22697" lon="6.24673">
        <ele>440.20001220703</ele>
        <time>2020-08-05T08:07:38.000Z</time>
      </trkpt>
      <trkpt lat="46.22707" lon="6.24679">
        <ele>440.60000610352</ele>
        <time>2020-08-05T08:07:40.000Z</time>
      </trkpt>
      <trkpt lat="46.22722" lon="6.24676">
        <ele>440.60000610352</ele>
        <time>2020-08-05T08:07:43.000Z</time>
      </trkpt>
      <trkpt lat="46.22727" lon="6.24679">
        <ele>440.79998779297</ele>
        <time>2020-08-05T08:07:44.000Z</time>
      </trkpt>
      <trkpt lat="46.2276" lon="6.24699">
        <ele>441.20001220703</ele>
        <time>2020-08-05T08:07:51.000Z</time>
      </trkpt>
      <trkpt lat="46.2281" lon="6.24729">
        <ele>442</ele>
        <time>2020-08-05T08:08:01.000Z</time>
      </trkpt>
      <trkpt lat="46.22859" lon="6.24757">
        <ele>442.20001220703</ele>
        <time>2020-08-05T08:08:11.000Z</time>
      </trkpt>
      <trkpt lat="46.22896" lon="6.24779">
        <ele>442.20001220703</ele>
        <time>2020-08-05T08:08:19.000Z</time>
      </trkpt>
      <trkpt lat="46.2294" lon="6.24805">
        <ele>442.20001220703</ele>
        <time>2020-08-05T08:08:28.000Z</time>
      </trkpt>
      <trkpt lat="46.22989" lon="6.24837">
        <ele>442</ele>
        <time>2020-08-05T08:08:39.000Z</time>
      </trkpt>
      <trkpt lat="46.23041" lon="6.24875">
        <ele>441.20001220703</ele>
        <time>2020-08-05T08:08:50.000Z</time>
      </trkpt>
      <trkpt lat="46.2309" lon="6.24911">
        <ele>441.20001220703</ele>
        <time>2020-08-05T08:09:00.000Z</time>
      </trkpt>
      <trkpt lat="46.23141" lon="6.24947">
        <ele>441.79998779297</ele>
        <time>2020-08-05T08:09:10.000Z</time>
      </trkpt>
      <trkpt lat="46.23188" lon="6.24977">
        <ele>443.39999389648</ele>
        <time>2020-08-05T08:09:19.000Z</time>
      </trkpt>
      <trkpt lat="46.23231" lon="6.25001">
        <ele>443.79998779297</ele>
        <time>2020-08-05T08:09:27.000Z</time>
      </trkpt>
      <trkpt lat="46.2328" lon="6.25028">
        <ele>442.79998779297</ele>
        <time>2020-08-05T08:09:36.000Z</time>
      </trkpt>
      <trkpt lat="46.23324" lon="6.25051">
        <ele>442.60000610352</ele>
        <time>2020-08-05T08:09:45.000Z</time>
      </trkpt>
      <trkpt lat="46.23366" lon="6.25073">
        <ele>444.79998779297</ele>
        <time>2020-08-05T08:09:54.000Z</time>
      </trkpt>
      <trkpt lat="46.23371" lon="6.25075">
        <ele>445</ele>
        <time>2020-08-05T08:09:55.000Z</time>
      </trkpt>
      <trkpt lat="46.23377" lon="6.25078">
        <ele>445.39999389648</ele>
        <time>2020-08-05T08:09:57.000Z</time>
      </trkpt>
      <trkpt lat="46.23376" lon="6.25091">
        <ele>445.39999389648</ele>
        <time>2020-08-05T08:09:58.000Z</time>
      </trkpt>
      <trkpt lat="46.23391" lon="6.25112">
        <ele>446.39999389648</ele>
        <time>2020-08-05T08:10:02.000Z</time>
      </trkpt>
      <trkpt lat="46.23393" lon="6.25123">
        <ele>446.60000610352</ele>
        <time>2020-08-05T08:10:04.000Z</time>
      </trkpt>
      <trkpt lat="46.23404" lon="6.25178">
        <ele>447.39999389648</ele>
        <time>2020-08-05T08:10:13.000Z</time>
      </trkpt>
      <trkpt lat="46.23417" lon="6.25239">
        <ele>447.79998779297</ele>
        <time>2020-08-05T08:10:22.000Z</time>
      </trkpt>
      <trkpt lat="46.23429" lon="6.25304">
        <ele>448.79998779297</ele>
        <time>2020-08-05T08:10:32.000Z</time>
      </trkpt>
      <trkpt lat="46.23436" lon="6.25361">
        <ele>450.79998779297</ele>
        <time>2020-08-05T08:10:41.000Z</time>
      </trkpt>
      <trkpt lat="46.23439" lon="6.25385">
        <ele>452.39999389648</ele>
        <time>2020-08-05T08:10:45.000Z</time>
      </trkpt>
      <trkpt lat="46.23442" lon="6.25402">
        <ele>453</ele>
        <time>2020-08-05T08:10:48.000Z</time>
      </trkpt>
      <trkpt lat="46.23447" lon="6.25446">
        <ele>453.60000610352</ele>
        <time>2020-08-05T08:10:55.000Z</time>
      </trkpt>
      <trkpt lat="46.23448" lon="6.25456">
        <ele>453.79998779297</ele>
        <time>2020-08-05T08:10:57.000Z</time>
      </trkpt>
      <trkpt lat="46.2345" lon="6.25468">
        <ele>454</ele>
        <time>2020-08-05T08:10:59.000Z</time>
      </trkpt>
      <trkpt lat="46.23451" lon="6.25474">
        <ele>454.20001220703</ele>
        <time>2020-08-05T08:11:00.000Z</time>
      </trkpt>
      <trkpt lat="46.23452" lon="6.25484">
        <ele>454.39999389648</ele>
        <time>2020-08-05T08:11:02.000Z</time>
      </trkpt>
      <trkpt lat="46.23453" lon="6.25492">
        <ele>454.60000610352</ele>
        <time>2020-08-05T08:11:03.000Z</time>
      </trkpt>
      <trkpt lat="46.23454" lon="6.25498">
        <ele>454.79998779297</ele>
        <time>2020-08-05T08:11:04.000Z</time>
      </trkpt>
      <trkpt lat="46.23459" lon="6.2553">
        <ele>455.39999389648</ele>
        <time>2020-08-05T08:11:09.000Z</time>
      </trkpt>
      <trkpt lat="46.23462" lon="6.25544">
        <ele>455.79998779297</ele>
        <time>2020-08-05T08:11:11.000Z</time>
      </trkpt>
      <trkpt lat="46.23466" lon="6.25555">
        <ele>455.79998779297</ele>
        <time>2020-08-05T08:11:13.000Z</time>
      </trkpt>
      <trkpt lat="46.23469" lon="6.25565">
        <ele>455.79998779297</ele>
        <time>2020-08-05T08:11:15.000Z</time>
      </trkpt>
      <trkpt lat="46.23484" lon="6.25609">
        <ele>458.79998779297</ele>
        <time>2020-08-05T08:11:23.000Z</time>
      </trkpt>
      <trkpt lat="46.23497" lon="6.25652">
        <ele>462.60000610352</ele>
        <time>2020-08-05T08:11:31.000Z</time>
      </trkpt>
      <trkpt lat="46.23505" lon="6.2569">
        <ele>465.39999389648</ele>
        <time>2020-08-05T08:11:38.000Z</time>
      </trkpt>
      <trkpt lat="46.23503" lon="6.25715">
        <ele>466</ele>
        <time>2020-08-05T08:11:43.000Z</time>
      </trkpt>
      <trkpt lat="46.23499" lon="6.25766">
        <ele>464.60000610352</ele>
        <time>2020-08-05T08:11:52.000Z</time>
      </trkpt>
      <trkpt lat="46.23499" lon="6.2578">
        <ele>464.39999389648</ele>
        <time>2020-08-05T08:11:55.000Z</time>
      </trkpt>
      <trkpt lat="46.23504" lon="6.25798">
        <ele>464.60000610352</ele>
        <time>2020-08-05T08:11:58.000Z</time>
      </trkpt>
      <trkpt lat="46.23515" lon="6.25842">
        <ele>463.39999389648</ele>
        <time>2020-08-05T08:12:05.000Z</time>
      </trkpt>
      <trkpt lat="46.2353" lon="6.25904">
        <ele>462.39999389648</ele>
        <time>2020-08-05T08:12:14.000Z</time>
      </trkpt>
      <trkpt lat="46.23534" lon="6.25929">
        <ele>462.20001220703</ele>
        <time>2020-08-05T08:12:17.000Z</time>
      </trkpt>
      <trkpt lat="46.23538" lon="6.2595">
        <ele>462.20001220703</ele>
        <time>2020-08-05T08:12:20.000Z</time>
      </trkpt>
      <trkpt lat="46.23539" lon="6.25957">
        <ele>462.20001220703</ele>
        <time>2020-08-05T08:12:21.000Z</time>
      </trkpt>
      <trkpt lat="46.23544" lon="6.2598">
        <ele>463</ele>
        <time>2020-08-05T08:12:24.000Z</time>
      </trkpt>
      <trkpt lat="46.23547" lon="6.26002">
        <ele>463.20001220703</ele>
        <time>2020-08-05T08:12:27.000Z</time>
      </trkpt>
      <trkpt lat="46.23547" lon="6.2601">
        <ele>463.39999389648</ele>
        <time>2020-08-05T08:12:28.000Z</time>
      </trkpt>
      <trkpt lat="46.23542" lon="6.26027">
        <ele>463.60000610352</ele>
        <time>2020-08-05T08:12:30.000Z</time>
      </trkpt>
      <trkpt lat="46.2354" lon="6.26035">
        <ele>463.60000610352</ele>
        <time>2020-08-05T08:12:31.000Z</time>
      </trkpt>
      <trkpt lat="46.23521" lon="6.26096">
        <ele>463.79998779297</ele>
        <time>2020-08-05T08:12:40.000Z</time>
      </trkpt>
      <trkpt lat="46.23507" lon="6.26143">
        <ele>464.60000610352</ele>
        <time>2020-08-05T08:12:48.000Z</time>
      </trkpt>
      <trkpt lat="46.23505" lon="6.26196">
        <ele>465.20001220703</ele>
        <time>2020-08-05T08:12:57.000Z</time>
      </trkpt>
      <trkpt lat="46.23505" lon="6.26242">
        <ele>465.60000610352</ele>
        <time>2020-08-05T08:13:04.000Z</time>
      </trkpt>
      <trkpt lat="46.23506" lon="6.26263">
        <ele>465.79998779297</ele>
        <time>2020-08-05T08:13:07.000Z</time>
      </trkpt>
      <trkpt lat="46.23509" lon="6.26281">
        <ele>466.39999389648</ele>
        <time>2020-08-05T08:13:10.000Z</time>
      </trkpt>
      <trkpt lat="46.23509" lon="6.2633">
        <ele>468</ele>
        <time>2020-08-05T08:13:17.000Z</time>
      </trkpt>
      <trkpt lat="46.23501" lon="6.26395">
        <ele>470.39999389648</ele>
        <time>2020-08-05T08:13:26.000Z</time>
      </trkpt>
      <trkpt lat="46.2349" lon="6.26451">
        <ele>471.79998779297</ele>
        <time>2020-08-05T08:13:34.000Z</time>
      </trkpt>
      <trkpt lat="46.23479" lon="6.26509">
        <ele>472.39999389648</ele>
        <time>2020-08-05T08:13:42.000Z</time>
      </trkpt>
      <trkpt lat="46.23477" lon="6.26523">
        <ele>472.39999389648</ele>
        <time>2020-08-05T08:13:44.000Z</time>
      </trkpt>
      <trkpt lat="46.23476" lon="6.26532">
        <ele>472.60000610352</ele>
        <time>2020-08-05T08:13:46.000Z</time>
      </trkpt>
      <trkpt lat="46.23487" lon="6.26544">
        <ele>473</ele>
        <time>2020-08-05T08:13:49.000Z</time>
      </trkpt>
      <trkpt lat="46.23511" lon="6.26569">
        <ele>473.79998779297</ele>
        <time>2020-08-05T08:13:55.000Z</time>
      </trkpt>
      <trkpt lat="46.23513" lon="6.2657">
        <ele>473.79998779297</ele>
        <time>2020-08-05T08:13:56.000Z</time>
      </trkpt>
      <trkpt lat="46.23517" lon="6.26584">
        <ele>474</ele>
        <time>2020-08-05T08:13:58.000Z</time>
      </trkpt>
      <trkpt lat="46.23525" lon="6.26605">
        <ele>474</ele>
        <time>2020-08-05T08:14:02.000Z</time>
      </trkpt>
      <trkpt lat="46.23535" lon="6.26635">
        <ele>474.20001220703</ele>
        <time>2020-08-05T08:14:07.000Z</time>
      </trkpt>
      <trkpt lat="46.2355" lon="6.26675">
        <ele>473.79998779297</ele>
        <time>2020-08-05T08:14:13.000Z</time>
      </trkpt>
      <trkpt lat="46.23553" lon="6.26682">
        <ele>473.79998779297</ele>
        <time>2020-08-05T08:14:14.000Z</time>
      </trkpt>
      <trkpt lat="46.23556" lon="6.26687">
        <ele>473.79998779297</ele>
        <time>2020-08-05T08:14:15.000Z</time>
      </trkpt>
      <trkpt lat="46.23569" lon="6.26711">
        <ele>473.20001220703</ele>
        <time>2020-08-05T08:14:19.000Z</time>
      </trkpt>
      <trkpt lat="46.23574" lon="6.26718">
        <ele>473</ele>
        <time>2020-08-05T08:14:20.000Z</time>
      </trkpt>
      <trkpt lat="46.23577" lon="6.26723">
        <ele>472.79998779297</ele>
        <time>2020-08-05T08:14:21.000Z</time>
      </trkpt>
      <trkpt lat="46.23596" lon="6.26749">
        <ele>472.20001220703</ele>
        <time>2020-08-05T08:14:26.000Z</time>
      </trkpt>
      <trkpt lat="46.23611" lon="6.26776">
        <ele>471.79998779297</ele>
        <time>2020-08-05T08:14:31.000Z</time>
      </trkpt>
      <trkpt lat="46.23614" lon="6.26782">
        <ele>471.79998779297</ele>
        <time>2020-08-05T08:14:32.000Z</time>
      </trkpt>
      <trkpt lat="46.2363" lon="6.26811">
        <ele>471.20001220703</ele>
        <time>2020-08-05T08:14:37.000Z</time>
      </trkpt>
      <trkpt lat="46.23656" lon="6.26872">
        <ele>473</ele>
        <time>2020-08-05T08:14:47.000Z</time>
      </trkpt>
      <trkpt lat="46.23673" lon="6.26915">
        <ele>474.60000610352</ele>
        <time>2020-08-05T08:14:54.000Z</time>
      </trkpt>
      <trkpt lat="46.23691" lon="6.26953">
        <ele>475.60000610352</ele>
        <time>2020-08-05T08:15:01.000Z</time>
      </trkpt>
      <trkpt lat="46.23712" lon="6.26999">
        <ele>477.20001220703</ele>
        <time>2020-08-05T08:15:09.000Z</time>
      </trkpt>
      <trkpt lat="46.23732" lon="6.27039">
        <ele>479.79998779297</ele>
        <time>2020-08-05T08:15:16.000Z</time>
      </trkpt>
      <trkpt lat="46.23744" lon="6.27074">
        <ele>480.79998779297</ele>
        <time>2020-08-05T08:15:22.000Z</time>
      </trkpt>
      <trkpt lat="46.23743" lon="6.27085">
        <ele>481</ele>
        <time>2020-08-05T08:15:24.000Z</time>
      </trkpt>
      <trkpt lat="46.23738" lon="6.27088">
        <ele>481.20001220703</ele>
        <time>2020-08-05T08:15:25.000Z</time>
      </trkpt>
      <trkpt lat="46.23735" lon="6.27091">
        <ele>481.39999389648</ele>
        <time>2020-08-05T08:15:26.000Z</time>
      </trkpt>
      <trkpt lat="46.23718" lon="6.27103">
        <ele>481.20001220703</ele>
        <time>2020-08-05T08:15:30.000Z</time>
      </trkpt>
      <trkpt lat="46.23694" lon="6.27121">
        <ele>480</ele>
        <time>2020-08-05T08:15:35.000Z</time>
      </trkpt>
      <trkpt lat="46.23672" lon="6.27138">
        <ele>478.60000610352</ele>
        <time>2020-08-05T08:15:40.000Z</time>
      </trkpt>
      <trkpt lat="46.23667" lon="6.27143">
        <ele>478.39999389648</ele>
        <time>2020-08-05T08:15:41.000Z</time>
      </trkpt>
      <trkpt lat="46.23662" lon="6.27153">
        <ele>478</ele>
        <time>2020-08-05T08:15:43.000Z</time>
      </trkpt>
      <trkpt lat="46.23657" lon="6.27163">
        <ele>477.39999389648</ele>
        <time>2020-08-05T08:15:45.000Z</time>
      </trkpt>
      <trkpt lat="46.23657" lon="6.2717">
        <ele>477.60000610352</ele>
        <time>2020-08-05T08:15:46.000Z</time>
      </trkpt>
      <trkpt lat="46.23657" lon="6.27176">
        <ele>477.60000610352</ele>
        <time>2020-08-05T08:15:47.000Z</time>
      </trkpt>
      <trkpt lat="46.23659" lon="6.27204">
        <ele>478</ele>
        <time>2020-08-05T08:15:51.000Z</time>
      </trkpt>
      <trkpt lat="46.23666" lon="6.27241">
        <ele>478.39999389648</ele>
        <time>2020-08-05T08:15:56.000Z</time>
      </trkpt>
      <trkpt lat="46.23669" lon="6.27254">
        <ele>478.60000610352</ele>
        <time>2020-08-05T08:15:58.000Z</time>
      </trkpt>
      <trkpt lat="46.23671" lon="6.27259">
        <ele>478.60000610352</ele>
        <time>2020-08-05T08:15:59.000Z</time>
      </trkpt>
      <trkpt lat="46.23689" lon="6.27304">
        <ele>479</ele>
        <time>2020-08-05T08:16:06.000Z</time>
      </trkpt>
      <trkpt lat="46.23711" lon="6.27328">
        <ele>480.20001220703</ele>
        <time>2020-08-05T08:16:12.000Z</time>
      </trkpt>
      <trkpt lat="46.23738" lon="6.2735">
        <ele>481</ele>
        <time>2020-08-05T08:16:19.000Z</time>
      </trkpt>
      <trkpt lat="46.23765" lon="6.27371">
        <ele>480.79998779297</ele>
        <time>2020-08-05T08:16:26.000Z</time>
      </trkpt>
      <trkpt lat="46.23769" lon="6.27375">
        <ele>480.79998779297</ele>
        <time>2020-08-05T08:16:27.000Z</time>
      </trkpt>
      <trkpt lat="46.23771" lon="6.27381">
        <ele>481</ele>
        <time>2020-08-05T08:16:28.000Z</time>
      </trkpt>
      <trkpt lat="46.23774" lon="6.27391">
        <ele>481.20001220703</ele>
        <time>2020-08-05T08:16:30.000Z</time>
      </trkpt>
      <trkpt lat="46.23775" lon="6.27399">
        <ele>481.39999389648</ele>
        <time>2020-08-05T08:16:31.000Z</time>
      </trkpt>
      <trkpt lat="46.23784" lon="6.27462">
        <ele>481.60000610352</ele>
        <time>2020-08-05T08:16:40.000Z</time>
      </trkpt>
      <trkpt lat="46.23783" lon="6.27521">
        <ele>481.20001220703</ele>
        <time>2020-08-05T08:16:48.000Z</time>
      </trkpt>
      <trkpt lat="46.23773" lon="6.27594">
        <ele>481.39999389648</ele>
        <time>2020-08-05T08:16:58.000Z</time>
      </trkpt>
      <trkpt lat="46.23771" lon="6.27654">
        <ele>481.20001220703</ele>
        <time>2020-08-05T08:17:06.000Z</time>
      </trkpt>
      <trkpt lat="46.23779" lon="6.27714">
        <ele>483</ele>
        <time>2020-08-05T08:17:14.000Z</time>
      </trkpt>
      <trkpt lat="46.23789" lon="6.27789">
        <ele>484</ele>
        <time>2020-08-05T08:17:24.000Z</time>
      </trkpt>
      <trkpt lat="46.23801" lon="6.27848">
        <ele>483.79998779297</ele>
        <time>2020-08-05T08:17:33.000Z</time>
      </trkpt>
      <trkpt lat="46.23817" lon="6.27901">
        <ele>484</ele>
        <time>2020-08-05T08:17:41.000Z</time>
      </trkpt>
      <trkpt lat="46.2383" lon="6.2794">
        <ele>483.39999389648</ele>
        <time>2020-08-05T08:17:47.000Z</time>
      </trkpt>
      <trkpt lat="46.2385" lon="6.27996">
        <ele>483.20001220703</ele>
        <time>2020-08-05T08:17:55.000Z</time>
      </trkpt>
      <trkpt lat="46.23866" lon="6.28048">
        <ele>483.79998779297</ele>
        <time>2020-08-05T08:18:03.000Z</time>
      </trkpt>
      <trkpt lat="46.23879" lon="6.28093">
        <ele>484.39999389648</ele>
        <time>2020-08-05T08:18:10.000Z</time>
      </trkpt>
      <trkpt lat="46.23893" lon="6.28143">
        <ele>485</ele>
        <time>2020-08-05T08:18:17.000Z</time>
      </trkpt>
      <trkpt lat="46.23909" lon="6.28198">
        <ele>485.39999389648</ele>
        <time>2020-08-05T08:18:25.000Z</time>
      </trkpt>
      <trkpt lat="46.23926" lon="6.28259">
        <ele>485.60000610352</ele>
        <time>2020-08-05T08:18:34.000Z</time>
      </trkpt>
      <trkpt lat="46.23944" lon="6.28322">
        <ele>486</ele>
        <time>2020-08-05T08:18:43.000Z</time>
      </trkpt>
      <trkpt lat="46.23956" lon="6.28366">
        <ele>486.20001220703</ele>
        <time>2020-08-05T08:18:50.000Z</time>
      </trkpt>
      <trkpt lat="46.23968" lon="6.28411">
        <ele>487</ele>
        <time>2020-08-05T08:18:57.000Z</time>
      </trkpt>
      <trkpt lat="46.23975" lon="6.28447">
        <ele>488.60000610352</ele>
        <time>2020-08-05T08:19:02.000Z</time>
      </trkpt>
      <trkpt lat="46.23977" lon="6.2846">
        <ele>489</ele>
        <time>2020-08-05T08:19:04.000Z</time>
      </trkpt>
      <trkpt lat="46.23979" lon="6.28531">
        <ele>493</ele>
        <time>2020-08-05T08:19:13.000Z</time>
      </trkpt>
      <trkpt lat="46.2398" lon="6.28611">
        <ele>496.20001220703</ele>
        <time>2020-08-05T08:19:23.000Z</time>
      </trkpt>
      <trkpt lat="46.23981" lon="6.28619">
        <ele>496.39999389648</ele>
        <time>2020-08-05T08:19:24.000Z</time>
      </trkpt>
      <trkpt lat="46.23981" lon="6.28674">
        <ele>497.39999389648</ele>
        <time>2020-08-05T08:19:31.000Z</time>
      </trkpt>
      <trkpt lat="46.23975" lon="6.28728">
        <ele>498</ele>
        <time>2020-08-05T08:19:38.000Z</time>
      </trkpt>
      <trkpt lat="46.23971" lon="6.28766">
        <ele>499.39999389648</ele>
        <time>2020-08-05T08:19:43.000Z</time>
      </trkpt>
      <trkpt lat="46.2397" lon="6.28773">
        <ele>499.60000610352</ele>
        <time>2020-08-05T08:19:44.000Z</time>
      </trkpt>
      <trkpt lat="46.23967" lon="6.28802">
        <ele>500.79998779297</ele>
        <time>2020-08-05T08:19:49.000Z</time>
      </trkpt>
      <trkpt lat="46.23961" lon="6.2885">
        <ele>500.39999389648</ele>
        <time>2020-08-05T08:19:55.000Z</time>
      </trkpt>
      <trkpt lat="46.23957" lon="6.28876">
        <ele>499.79998779297</ele>
        <time>2020-08-05T08:19:59.000Z</time>
      </trkpt>
      <trkpt lat="46.23955" lon="6.28894">
        <ele>499.60000610352</ele>
        <time>2020-08-05T08:20:02.000Z</time>
      </trkpt>
      <trkpt lat="46.23952" lon="6.28931">
        <ele>499.20001220703</ele>
        <time>2020-08-05T08:20:07.000Z</time>
      </trkpt>
      <trkpt lat="46.23953" lon="6.28938">
        <ele>499.20001220703</ele>
        <time>2020-08-05T08:20:08.000Z</time>
      </trkpt>
      <trkpt lat="46.23958" lon="6.28989">
        <ele>497.39999389648</ele>
        <time>2020-08-05T08:20:14.000Z</time>
      </trkpt>
      <trkpt lat="46.23975" lon="6.29036">
        <ele>497.20001220703</ele>
        <time>2020-08-05T08:20:20.000Z</time>
      </trkpt>
      <trkpt lat="46.23995" lon="6.2908">
        <ele>497.20001220703</ele>
        <time>2020-08-05T08:20:26.000Z</time>
      </trkpt>
      <trkpt lat="46.24014" lon="6.29132">
        <ele>499.39999389648</ele>
        <time>2020-08-05T08:20:33.000Z</time>
      </trkpt>
      <trkpt lat="46.24034" lon="6.2921">
        <ele>500.79998779297</ele>
        <time>2020-08-05T08:20:43.000Z</time>
      </trkpt>
      <trkpt lat="46.24052" lon="6.2929">
        <ele>501.20001220703</ele>
        <time>2020-08-05T08:20:53.000Z</time>
      </trkpt>
      <trkpt lat="46.24065" lon="6.29357">
        <ele>501</ele>
        <time>2020-08-05T08:21:01.000Z</time>
      </trkpt>
      <trkpt lat="46.24066" lon="6.29365">
        <ele>501</ele>
        <time>2020-08-05T08:21:02.000Z</time>
      </trkpt>
      <trkpt lat="46.24068" lon="6.29379">
        <ele>501</ele>
        <time>2020-08-05T08:21:04.000Z</time>
      </trkpt>
      <trkpt lat="46.24071" lon="6.29401">
        <ele>500.79998779297</ele>
        <time>2020-08-05T08:21:06.000Z</time>
      </trkpt>
      <trkpt lat="46.2408" lon="6.2946">
        <ele>500</ele>
        <time>2020-08-05T08:21:13.000Z</time>
      </trkpt>
      <trkpt lat="46.24087" lon="6.29502">
        <ele>499.79998779297</ele>
        <time>2020-08-05T08:21:18.000Z</time>
      </trkpt>
      <trkpt lat="46.24089" lon="6.29511">
        <ele>499.79998779297</ele>
        <time>2020-08-05T08:21:19.000Z</time>
      </trkpt>
      <trkpt lat="46.24113" lon="6.29558">
        <ele>500</ele>
        <time>2020-08-05T08:21:26.000Z</time>
      </trkpt>
      <trkpt lat="46.24147" lon="6.29623">
        <ele>497.60000610352</ele>
        <time>2020-08-05T08:21:35.000Z</time>
      </trkpt>
      <trkpt lat="46.24151" lon="6.29629">
        <ele>497.39999389648</ele>
        <time>2020-08-05T08:21:36.000Z</time>
      </trkpt>
      <trkpt lat="46.24175" lon="6.29664">
        <ele>497.60000610352</ele>
        <time>2020-08-05T08:21:42.000Z</time>
      </trkpt>
      <trkpt lat="46.24209" lon="6.29713">
        <ele>500</ele>
        <time>2020-08-05T08:21:50.000Z</time>
      </trkpt>
      <trkpt lat="46.24234" lon="6.2975">
        <ele>501</ele>
        <time>2020-08-05T08:21:56.000Z</time>
      </trkpt>
      <trkpt lat="46.24243" lon="6.29791">
        <ele>501</ele>
        <time>2020-08-05T08:22:01.000Z</time>
      </trkpt>
      <trkpt lat="46.24244" lon="6.29797">
        <ele>501</ele>
        <time>2020-08-05T08:22:02.000Z</time>
      </trkpt>
      <trkpt lat="46.24248" lon="6.29855">
        <ele>501.20001220703</ele>
        <time>2020-08-05T08:22:10.000Z</time>
      </trkpt>
      <trkpt lat="46.2425" lon="6.29905">
        <ele>502</ele>
        <time>2020-08-05T08:22:17.000Z</time>
      </trkpt>
      <trkpt lat="46.2425" lon="6.29958">
        <ele>500.79998779297</ele>
        <time>2020-08-05T08:22:25.000Z</time>
      </trkpt>
      <trkpt lat="46.2425" lon="6.2997">
        <ele>500.39999389648</ele>
        <time>2020-08-05T08:22:27.000Z</time>
      </trkpt>
      <trkpt lat="46.2425" lon="6.30003">
        <ele>500.39999389648</ele>
        <time>2020-08-05T08:22:32.000Z</time>
      </trkpt>
      <trkpt lat="46.2425" lon="6.30067">
        <ele>499.20001220703</ele>
        <time>2020-08-05T08:22:42.000Z</time>
      </trkpt>
      <trkpt lat="46.2425" lon="6.30121">
        <ele>501.39999389648</ele>
        <time>2020-08-05T08:22:50.000Z</time>
      </trkpt>
      <trkpt lat="46.2425" lon="6.30188">
        <ele>503.39999389648</ele>
        <time>2020-08-05T08:23:00.000Z</time>
      </trkpt>
      <trkpt lat="46.24246" lon="6.30238">
        <ele>504</ele>
        <time>2020-08-05T08:23:08.000Z</time>
      </trkpt>
      <trkpt lat="46.24241" lon="6.30302">
        <ele>506.39999389648</ele>
        <time>2020-08-05T08:23:18.000Z</time>
      </trkpt>
      <trkpt lat="46.24236" lon="6.30367">
        <ele>507.60000610352</ele>
        <time>2020-08-05T08:23:28.000Z</time>
      </trkpt>
      <trkpt lat="46.24232" lon="6.30423">
        <ele>508.39999389648</ele>
        <time>2020-08-05T08:23:37.000Z</time>
      </trkpt>
      <trkpt lat="46.24227" lon="6.3048">
        <ele>509</ele>
        <time>2020-08-05T08:23:46.000Z</time>
      </trkpt>
      <trkpt lat="46.24219" lon="6.3053">
        <ele>510.39999389648</ele>
        <time>2020-08-05T08:23:54.000Z</time>
      </trkpt>
      <trkpt lat="46.24209" lon="6.30586">
        <ele>511.20001220703</ele>
        <time>2020-08-05T08:24:02.000Z</time>
      </trkpt>
      <trkpt lat="46.24197" lon="6.30637">
        <ele>511.79998779297</ele>
        <time>2020-08-05T08:24:10.000Z</time>
      </trkpt>
      <trkpt lat="46.24178" lon="6.30694">
        <ele>512.59997558594</ele>
        <time>2020-08-05T08:24:19.000Z</time>
      </trkpt>
      <trkpt lat="46.24153" lon="6.3076">
        <ele>514</ele>
        <time>2020-08-05T08:24:29.000Z</time>
      </trkpt>
      <trkpt lat="46.2414" lon="6.308">
        <ele>515.59997558594</ele>
        <time>2020-08-05T08:24:36.000Z</time>
      </trkpt>
      <trkpt lat="46.24139" lon="6.30806">
        <ele>515.79998779297</ele>
        <time>2020-08-05T08:24:37.000Z</time>
      </trkpt>
      <trkpt lat="46.24138" lon="6.30813">
        <ele>516.20001220703</ele>
        <time>2020-08-05T08:24:38.000Z</time>
      </trkpt>
      <trkpt lat="46.24144" lon="6.30821">
        <ele>516.20001220703</ele>
        <time>2020-08-05T08:24:40.000Z</time>
      </trkpt>
      <trkpt lat="46.24151" lon="6.3083">
        <ele>516.20001220703</ele>
        <time>2020-08-05T08:24:42.000Z</time>
      </trkpt>
      <trkpt lat="46.24159" lon="6.30841">
        <ele>516.20001220703</ele>
        <time>2020-08-05T08:24:45.000Z</time>
      </trkpt>
      <trkpt lat="46.24173" lon="6.30862">
        <ele>516.20001220703</ele>
        <time>2020-08-05T08:24:51.000Z</time>
      </trkpt>
      <trkpt lat="46.24176" lon="6.30866">
        <ele>516.20001220703</ele>
        <time>2020-08-05T08:24:52.000Z</time>
      </trkpt>
      <trkpt lat="46.24184" lon="6.30872">
        <ele>516.20001220703</ele>
        <time>2020-08-05T08:24:54.000Z</time>
      </trkpt>
      <trkpt lat="46.24189" lon="6.30876">
        <ele>516.20001220703</ele>
        <time>2020-08-05T08:24:55.000Z</time>
      </trkpt>
      <trkpt lat="46.24226" lon="6.30905">
        <ele>516</ele>
        <time>2020-08-05T08:25:03.000Z</time>
      </trkpt>
      <trkpt lat="46.24269" lon="6.30945">
        <ele>514.40002441406</ele>
        <time>2020-08-05T08:25:12.000Z</time>
      </trkpt>
      <trkpt lat="46.24273" lon="6.30949">
        <ele>514.40002441406</ele>
        <time>2020-08-05T08:25:13.000Z</time>
      </trkpt>
      <trkpt lat="46.24287" lon="6.30958">
        <ele>513.79998779297</ele>
        <time>2020-08-05T08:25:16.000Z</time>
      </trkpt>
      <trkpt lat="46.24325" lon="6.30983">
        <ele>513</ele>
        <time>2020-08-05T08:25:23.000Z</time>
      </trkpt>
      <trkpt lat="46.24364" lon="6.31014">
        <ele>513.20001220703</ele>
        <time>2020-08-05T08:25:30.000Z</time>
      </trkpt>
      <trkpt lat="46.24392" lon="6.31046">
        <ele>513.59997558594</ele>
        <time>2020-08-05T08:25:36.000Z</time>
      </trkpt>
      <trkpt lat="46.24416" lon="6.31085">
        <ele>514.40002441406</ele>
        <time>2020-08-05T08:25:42.000Z</time>
      </trkpt>
      <trkpt lat="46.24443" lon="6.3113">
        <ele>515.40002441406</ele>
        <time>2020-08-05T08:25:50.000Z</time>
      </trkpt>
      <trkpt lat="46.24469" lon="6.31172">
        <ele>515.59997558594</ele>
        <time>2020-08-05T08:25:58.000Z</time>
      </trkpt>
      <trkpt lat="46.24483" lon="6.31195">
        <ele>515.59997558594</ele>
        <time>2020-08-05T08:26:02.000Z</time>
      </trkpt>
      <trkpt lat="46.24494" lon="6.31213">
        <ele>516</ele>
        <time>2020-08-05T08:26:05.000Z</time>
      </trkpt>
      <trkpt lat="46.24518" lon="6.31246">
        <ele>516.20001220703</ele>
        <time>2020-08-05T08:26:12.000Z</time>
      </trkpt>
      <trkpt lat="46.24529" lon="6.31254">
        <ele>516.20001220703</ele>
        <time>2020-08-05T08:26:15.000Z</time>
      </trkpt>
      <trkpt lat="46.24543" lon="6.31265">
        <ele>516.40002441406</ele>
        <time>2020-08-05T08:26:18.000Z</time>
      </trkpt>
      <trkpt lat="46.24546" lon="6.31267">
        <ele>516.40002441406</ele>
        <time>2020-08-05T08:26:19.000Z</time>
      </trkpt>
      <trkpt lat="46.24574" lon="6.31288">
        <ele>516.59997558594</ele>
        <time>2020-08-05T08:26:26.000Z</time>
      </trkpt>
      <trkpt lat="46.24603" lon="6.31317">
        <ele>516.40002441406</ele>
        <time>2020-08-05T08:26:32.000Z</time>
      </trkpt>
      <trkpt lat="46.24606" lon="6.31322">
        <ele>516.40002441406</ele>
        <time>2020-08-05T08:26:33.000Z</time>
      </trkpt>
      <trkpt lat="46.24643" lon="6.31379">
        <ele>516.40002441406</ele>
        <time>2020-08-05T08:26:42.000Z</time>
      </trkpt>
      <trkpt lat="46.24678" lon="6.31435">
        <ele>517.59997558594</ele>
        <time>2020-08-05T08:26:51.000Z</time>
      </trkpt>
      <trkpt lat="46.24689" lon="6.31452">
        <ele>518.20001220703</ele>
        <time>2020-08-05T08:26:54.000Z</time>
      </trkpt>
      <trkpt lat="46.24695" lon="6.31463">
        <ele>518.40002441406</ele>
        <time>2020-08-05T08:26:56.000Z</time>
      </trkpt>
      <trkpt lat="46.24734" lon="6.31525">
        <ele>519.79998779297</ele>
        <time>2020-08-05T08:27:06.000Z</time>
      </trkpt>
      <trkpt lat="46.24753" lon="6.31561">
        <ele>520</ele>
        <time>2020-08-05T08:27:12.000Z</time>
      </trkpt>
      <trkpt lat="46.24759" lon="6.31576">
        <ele>520.59997558594</ele>
        <time>2020-08-05T08:27:14.000Z</time>
      </trkpt>
      <trkpt lat="46.24779" lon="6.3163">
        <ele>522.40002441406</ele>
        <time>2020-08-05T08:27:23.000Z</time>
      </trkpt>
      <trkpt lat="46.24796" lon="6.31679">
        <ele>524.40002441406</ele>
        <time>2020-08-05T08:27:32.000Z</time>
      </trkpt>
      <trkpt lat="46.2481" lon="6.31719">
        <ele>526.59997558594</ele>
        <time>2020-08-05T08:27:39.000Z</time>
      </trkpt>
      <trkpt lat="46.24823" lon="6.31757">
        <ele>527.20001220703</ele>
        <time>2020-08-05T08:27:46.000Z</time>
      </trkpt>
      <trkpt lat="46.24841" lon="6.31806">
        <ele>527.59997558594</ele>
        <time>2020-08-05T08:27:55.000Z</time>
      </trkpt>
      <trkpt lat="46.24857" lon="6.31854">
        <ele>528.20001220703</ele>
        <time>2020-08-05T08:28:04.000Z</time>
      </trkpt>
      <trkpt lat="46.24876" lon="6.31915">
        <ele>528.79998779297</ele>
        <time>2020-08-05T08:28:14.000Z</time>
      </trkpt>
      <trkpt lat="46.2489" lon="6.31968">
        <ele>530.40002441406</ele>
        <time>2020-08-05T08:28:22.000Z</time>
      </trkpt>
      <trkpt lat="46.24909" lon="6.3204">
        <ele>530.40002441406</ele>
        <time>2020-08-05T08:28:32.000Z</time>
      </trkpt>
      <trkpt lat="46.24917" lon="6.32094">
        <ele>529.79998779297</ele>
        <time>2020-08-05T08:28:39.000Z</time>
      </trkpt>
      <trkpt lat="46.2492" lon="6.32164">
        <ele>529.20001220703</ele>
        <time>2020-08-05T08:28:47.000Z</time>
      </trkpt>
      <trkpt lat="46.24922" lon="6.32228">
        <ele>529.79998779297</ele>
        <time>2020-08-05T08:28:55.000Z</time>
      </trkpt>
      <trkpt lat="46.24924" lon="6.32248">
        <ele>530.59997558594</ele>
        <time>2020-08-05T08:28:58.000Z</time>
      </trkpt>
      <trkpt lat="46.24926" lon="6.32265">
        <ele>531.20001220703</ele>
        <time>2020-08-05T08:29:01.000Z</time>
      </trkpt>
      <trkpt lat="46.24941" lon="6.32312">
        <ele>531.79998779297</ele>
        <time>2020-08-05T08:29:09.000Z</time>
      </trkpt>
      <trkpt lat="46.24964" lon="6.32379">
        <ele>533.79998779297</ele>
        <time>2020-08-05T08:29:20.000Z</time>
      </trkpt>
      <trkpt lat="46.24981" lon="6.32431">
        <ele>533.59997558594</ele>
        <time>2020-08-05T08:29:28.000Z</time>
      </trkpt>
      <trkpt lat="46.24987" lon="6.32456">
        <ele>532.79998779297</ele>
        <time>2020-08-05T08:29:31.000Z</time>
      </trkpt>
      <trkpt lat="46.24989" lon="6.32477">
        <ele>532</ele>
        <time>2020-08-05T08:29:33.000Z</time>
      </trkpt>
      <trkpt lat="46.2499" lon="6.32488">
        <ele>531.79998779297</ele>
        <time>2020-08-05T08:29:34.000Z</time>
      </trkpt>
      <trkpt lat="46.24988" lon="6.32522">
        <ele>530.79998779297</ele>
        <time>2020-08-05T08:29:37.000Z</time>
      </trkpt>
      <trkpt lat="46.24976" lon="6.32585">
        <ele>528.79998779297</ele>
        <time>2020-08-05T08:29:42.000Z</time>
      </trkpt>
      <trkpt lat="46.24972" lon="6.32618">
        <ele>528.40002441406</ele>
        <time>2020-08-05T08:29:45.000Z</time>
      </trkpt>
      <trkpt lat="46.24974" lon="6.32632">
        <ele>528.59997558594</ele>
        <time>2020-08-05T08:29:46.000Z</time>
      </trkpt>
      <trkpt lat="46.24977" lon="6.32651">
        <ele>528.59997558594</ele>
        <time>2020-08-05T08:29:48.000Z</time>
      </trkpt>
      <trkpt lat="46.2498" lon="6.32669">
        <ele>528</ele>
        <time>2020-08-05T08:29:50.000Z</time>
      </trkpt>
      <trkpt lat="46.24989" lon="6.32688">
        <ele>527.79998779297</ele>
        <time>2020-08-05T08:29:53.000Z</time>
      </trkpt>
      <trkpt lat="46.24996" lon="6.327">
        <ele>527.59997558594</ele>
        <time>2020-08-05T08:29:55.000Z</time>
      </trkpt>
      <trkpt lat="46.25023" lon="6.32723">
        <ele>528.59997558594</ele>
        <time>2020-08-05T08:30:01.000Z</time>
      </trkpt>
      <trkpt lat="46.25058" lon="6.32749">
        <ele>529.40002441406</ele>
        <time>2020-08-05T08:30:08.000Z</time>
      </trkpt>
      <trkpt lat="46.251" lon="6.3277">
        <ele>528.59997558594</ele>
        <time>2020-08-05T08:30:16.000Z</time>
      </trkpt>
      <trkpt lat="46.25135" lon="6.32782">
        <ele>528.40002441406</ele>
        <time>2020-08-05T08:30:23.000Z</time>
      </trkpt>
      <trkpt lat="46.2514" lon="6.32782">
        <ele>528.59997558594</ele>
        <time>2020-08-05T08:30:24.000Z</time>
      </trkpt>
      <trkpt lat="46.25152" lon="6.32785">
        <ele>528.40002441406</ele>
        <time>2020-08-05T08:30:26.000Z</time>
      </trkpt>
      <trkpt lat="46.25156" lon="6.32782">
        <ele>528.59997558594</ele>
        <time>2020-08-05T08:30:27.000Z</time>
      </trkpt>
      <trkpt lat="46.2517" lon="6.32775">
        <ele>529.20001220703</ele>
        <time>2020-08-05T08:30:30.000Z</time>
      </trkpt>
      <trkpt lat="46.25184" lon="6.32767">
        <ele>529.79998779297</ele>
        <time>2020-08-05T08:30:33.000Z</time>
      </trkpt>
      <trkpt lat="46.25217" lon="6.3275">
        <ele>529.59997558594</ele>
        <time>2020-08-05T08:30:40.000Z</time>
      </trkpt>
      <trkpt lat="46.25245" lon="6.32727">
        <ele>530</ele>
        <time>2020-08-05T08:30:47.000Z</time>
      </trkpt>
      <trkpt lat="46.25278" lon="6.32699">
        <ele>531</ele>
        <time>2020-08-05T08:30:55.000Z</time>
      </trkpt>
      <trkpt lat="46.25315" lon="6.3267">
        <ele>530.79998779297</ele>
        <time>2020-08-05T08:31:04.000Z</time>
      </trkpt>
      <trkpt lat="46.25347" lon="6.32644">
        <ele>531</ele>
        <time>2020-08-05T08:31:12.000Z</time>
      </trkpt>
      <trkpt lat="46.25379" lon="6.32615">
        <ele>531.40002441406</ele>
        <time>2020-08-05T08:31:21.000Z</time>
      </trkpt>
      <trkpt lat="46.2539" lon="6.32597">
        <ele>532.20001220703</ele>
        <time>2020-08-05T08:31:25.000Z</time>
      </trkpt>
      <trkpt lat="46.25396" lon="6.32581">
        <ele>533</ele>
        <time>2020-08-05T08:31:28.000Z</time>
      </trkpt>
      <trkpt lat="46.25416" lon="6.32528">
        <ele>533.79998779297</ele>
        <time>2020-08-05T08:31:37.000Z</time>
      </trkpt>
      <trkpt lat="46.25424" lon="6.32511">
        <ele>534</ele>
        <time>2020-08-05T08:31:40.000Z</time>
      </trkpt>
      <trkpt lat="46.25429" lon="6.32501">
        <ele>534.59997558594</ele>
        <time>2020-08-05T08:31:42.000Z</time>
      </trkpt>
      <trkpt lat="46.25431" lon="6.32496">
        <ele>534.79998779297</ele>
        <time>2020-08-05T08:31:43.000Z</time>
      </trkpt>
      <trkpt lat="46.25436" lon="6.3249">
        <ele>535.40002441406</ele>
        <time>2020-08-05T08:31:44.000Z</time>
      </trkpt>
      <trkpt lat="46.25445" lon="6.32488">
        <ele>535.40002441406</ele>
        <time>2020-08-05T08:31:46.000Z</time>
      </trkpt>
      <trkpt lat="46.25455" lon="6.32486">
        <ele>535.59997558594</ele>
        <time>2020-08-05T08:31:48.000Z</time>
      </trkpt>
      <trkpt lat="46.25494" lon="6.32476">
        <ele>536.20001220703</ele>
        <time>2020-08-05T08:31:56.000Z</time>
      </trkpt>
      <trkpt lat="46.25509" lon="6.32471">
        <ele>536.20001220703</ele>
        <time>2020-08-05T08:31:59.000Z</time>
      </trkpt>
      <trkpt lat="46.2553" lon="6.32463">
        <ele>536.40002441406</ele>
        <time>2020-08-05T08:32:03.000Z</time>
      </trkpt>
      <trkpt lat="46.25544" lon="6.32457">
        <ele>536.59997558594</ele>
        <time>2020-08-05T08:32:06.000Z</time>
      </trkpt>
      <trkpt lat="46.25579" lon="6.3245">
        <ele>538</ele>
        <time>2020-08-05T08:32:13.000Z</time>
      </trkpt>
      <trkpt lat="46.25622" lon="6.32451">
        <ele>540.20001220703</ele>
        <time>2020-08-05T08:32:22.000Z</time>
      </trkpt>
      <trkpt lat="46.25662" lon="6.32465">
        <ele>540.59997558594</ele>
        <time>2020-08-05T08:32:30.000Z</time>
      </trkpt>
      <trkpt lat="46.2569" lon="6.32488">
        <ele>541.59997558594</ele>
        <time>2020-08-05T08:32:37.000Z</time>
      </trkpt>
      <trkpt lat="46.2572" lon="6.32525">
        <ele>543</ele>
        <time>2020-08-05T08:32:46.000Z</time>
      </trkpt>
      <trkpt lat="46.25746" lon="6.32562">
        <ele>544.40002441406</ele>
        <time>2020-08-05T08:32:54.000Z</time>
      </trkpt>
      <trkpt lat="46.25749" lon="6.32567">
        <ele>544.59997558594</ele>
        <time>2020-08-05T08:32:55.000Z</time>
      </trkpt>
      <trkpt lat="46.25753" lon="6.32573">
        <ele>545</ele>
        <time>2020-08-05T08:32:57.000Z</time>
      </trkpt>
      <trkpt lat="46.25754" lon="6.32586">
        <ele>545.59997558594</ele>
        <time>2020-08-05T08:32:59.000Z</time>
      </trkpt>
      <trkpt lat="46.2576" lon="6.32597">
        <ele>546.20001220703</ele>
        <time>2020-08-05T08:33:01.000Z</time>
      </trkpt>
      <trkpt lat="46.25771" lon="6.32609">
        <ele>547</ele>
        <time>2020-08-05T08:33:04.000Z</time>
      </trkpt>
      <trkpt lat="46.25802" lon="6.3264">
        <ele>549.20001220703</ele>
        <time>2020-08-05T08:33:13.000Z</time>
      </trkpt>
      <trkpt lat="46.2583" lon="6.32665">
        <ele>550</ele>
        <time>2020-08-05T08:33:21.000Z</time>
      </trkpt>
      <trkpt lat="46.25855" lon="6.32686">
        <ele>550</ele>
        <time>2020-08-05T08:33:28.000Z</time>
      </trkpt>
      <trkpt lat="46.25858" lon="6.32687">
        <ele>550</ele>
        <time>2020-08-05T08:33:29.000Z</time>
      </trkpt>
      <trkpt lat="46.25888" lon="6.32709">
        <ele>550</ele>
        <time>2020-08-05T08:33:37.000Z</time>
      </trkpt>
      <trkpt lat="46.25892" lon="6.32713">
        <ele>550</ele>
        <time>2020-08-05T08:33:38.000Z</time>
      </trkpt>
      <trkpt lat="46.25925" lon="6.32736">
        <ele>551.40002441406</ele>
        <time>2020-08-05T08:33:46.000Z</time>
      </trkpt>
      <trkpt lat="46.25943" lon="6.32749">
        <ele>552.40002441406</ele>
        <time>2020-08-05T08:33:51.000Z</time>
      </trkpt>
      <trkpt lat="46.25947" lon="6.32763">
        <ele>552.79998779297</ele>
        <time>2020-08-05T08:33:53.000Z</time>
      </trkpt>
      <trkpt lat="46.25952" lon="6.32791">
        <ele>553.40002441406</ele>
        <time>2020-08-05T08:33:58.000Z</time>
      </trkpt>
      <trkpt lat="46.25961" lon="6.32818">
        <ele>554</ele>
        <time>2020-08-05T08:34:03.000Z</time>
      </trkpt>
      <trkpt lat="46.25965" lon="6.32827">
        <ele>554.40002441406</ele>
        <time>2020-08-05T08:34:05.000Z</time>
      </trkpt>
      <trkpt lat="46.25973" lon="6.32842">
        <ele>554.59997558594</ele>
        <time>2020-08-05T08:34:08.000Z</time>
      </trkpt>
      <trkpt lat="46.25983" lon="6.32861">
        <ele>555.20001220703</ele>
        <time>2020-08-05T08:34:12.000Z</time>
      </trkpt>
      <trkpt lat="46.25988" lon="6.32869">
        <ele>555.40002441406</ele>
        <time>2020-08-05T08:34:14.000Z</time>
      </trkpt>
      <trkpt lat="46.25998" lon="6.32882">
        <ele>555.79998779297</ele>
        <time>2020-08-05T08:34:17.000Z</time>
      </trkpt>
      <trkpt lat="46.26016" lon="6.32902">
        <ele>556.59997558594</ele>
        <time>2020-08-05T08:34:23.000Z</time>
      </trkpt>
      <trkpt lat="46.26042" lon="6.32925">
        <ele>557</ele>
        <time>2020-08-05T08:34:31.000Z</time>
      </trkpt>
      <trkpt lat="46.26078" lon="6.32955">
        <ele>557.59997558594</ele>
        <time>2020-08-05T08:34:42.000Z</time>
      </trkpt>
      <trkpt lat="46.26107" lon="6.32973">
        <ele>558.40002441406</ele>
        <time>2020-08-05T08:34:51.000Z</time>
      </trkpt>
      <trkpt lat="46.26138" lon="6.32989">
        <ele>558.59997558594</ele>
        <time>2020-08-05T08:35:00.000Z</time>
      </trkpt>
      <trkpt lat="46.2617" lon="6.33004">
        <ele>560.20001220703</ele>
        <time>2020-08-05T08:35:08.000Z</time>
      </trkpt>
      <trkpt lat="46.26202" lon="6.33021">
        <ele>561.40002441406</ele>
        <time>2020-08-05T08:35:17.000Z</time>
      </trkpt>
      <trkpt lat="46.26236" lon="6.33037">
        <ele>562.79998779297</ele>
        <time>2020-08-05T08:35:27.000Z</time>
      </trkpt>
      <trkpt lat="46.26264" lon="6.33058">
        <ele>564.20001220703</ele>
        <time>2020-08-05T08:35:36.000Z</time>
      </trkpt>
      <trkpt lat="46.26289" lon="6.33079">
        <ele>565.20001220703</ele>
        <time>2020-08-05T08:35:44.000Z</time>
      </trkpt>
      <trkpt lat="46.26318" lon="6.33117">
        <ele>565.79998779297</ele>
        <time>2020-08-05T08:35:54.000Z</time>
      </trkpt>
      <trkpt lat="46.26347" lon="6.33155">
        <ele>566.20001220703</ele>
        <time>2020-08-05T08:36:03.000Z</time>
      </trkpt>
      <trkpt lat="46.26378" lon="6.33197">
        <ele>566.79998779297</ele>
        <time>2020-08-05T08:36:13.000Z</time>
      </trkpt>
      <trkpt lat="46.26417" lon="6.3325">
        <ele>568.20001220703</ele>
        <time>2020-08-05T08:36:24.000Z</time>
      </trkpt>
      <trkpt lat="46.26435" lon="6.33291">
        <ele>568</ele>
        <time>2020-08-05T08:36:31.000Z</time>
      </trkpt>
      <trkpt lat="46.26455" lon="6.33339">
        <ele>569</ele>
        <time>2020-08-05T08:36:39.000Z</time>
      </trkpt>
      <trkpt lat="46.2647" lon="6.33378">
        <ele>571</ele>
        <time>2020-08-05T08:36:46.000Z</time>
      </trkpt>
      <trkpt lat="46.26468" lon="6.33392">
        <ele>570.59997558594</ele>
        <time>2020-08-05T08:36:48.000Z</time>
      </trkpt>
      <trkpt lat="46.26466" lon="6.33406">
        <ele>570.20001220703</ele>
        <time>2020-08-05T08:36:50.000Z</time>
      </trkpt>
      <trkpt lat="46.26457" lon="6.33461">
        <ele>570</ele>
        <time>2020-08-05T08:36:58.000Z</time>
      </trkpt>
      <trkpt lat="46.26444" lon="6.33536">
        <ele>570</ele>
        <time>2020-08-05T08:37:09.000Z</time>
      </trkpt>
      <trkpt lat="46.26431" lon="6.33616">
        <ele>570.20001220703</ele>
        <time>2020-08-05T08:37:20.000Z</time>
      </trkpt>
      <trkpt lat="46.2643" lon="6.33621">
        <ele>570.20001220703</ele>
        <time>2020-08-05T08:37:21.000Z</time>
      </trkpt>
      <trkpt lat="46.26419" lon="6.33687">
        <ele>570.20001220703</ele>
        <time>2020-08-05T08:37:30.000Z</time>
      </trkpt>
      <trkpt lat="46.26405" lon="6.33769">
        <ele>572.59997558594</ele>
        <time>2020-08-05T08:37:41.000Z</time>
      </trkpt>
      <trkpt lat="46.26394" lon="6.33833">
        <ele>572.79998779297</ele>
        <time>2020-08-05T08:37:49.000Z</time>
      </trkpt>
      <trkpt lat="46.26385" lon="6.33889">
        <ele>572</ele>
        <time>2020-08-05T08:37:57.000Z</time>
      </trkpt>
      <trkpt lat="46.26385" lon="6.33896">
        <ele>572</ele>
        <time>2020-08-05T08:37:58.000Z</time>
      </trkpt>
      <trkpt lat="46.26383" lon="6.33915">
        <ele>572.20001220703</ele>
        <time>2020-08-05T08:38:01.000Z</time>
      </trkpt>
      <trkpt lat="46.26382" lon="6.33937">
        <ele>572.20001220703</ele>
        <time>2020-08-05T08:38:04.000Z</time>
      </trkpt>
      <trkpt lat="46.26383" lon="6.33941">
        <ele>572.40002441406</ele>
        <time>2020-08-05T08:38:05.000Z</time>
      </trkpt>
      <trkpt lat="46.26389" lon="6.33962">
        <ele>573.20001220703</ele>
        <time>2020-08-05T08:38:08.000Z</time>
      </trkpt>
      <trkpt lat="46.2639" lon="6.33967">
        <ele>573.40002441406</ele>
        <time>2020-08-05T08:38:09.000Z</time>
      </trkpt>
      <trkpt lat="46.26401" lon="6.33989">
        <ele>574</ele>
        <time>2020-08-05T08:38:13.000Z</time>
      </trkpt>
      <trkpt lat="46.26428" lon="6.34029">
        <ele>574.59997558594</ele>
        <time>2020-08-05T08:38:21.000Z</time>
      </trkpt>
      <trkpt lat="46.26459" lon="6.34075">
        <ele>575.20001220703</ele>
        <time>2020-08-05T08:38:31.000Z</time>
      </trkpt>
      <trkpt lat="46.26472" lon="6.34097">
        <ele>575.40002441406</ele>
        <time>2020-08-05T08:38:35.000Z</time>
      </trkpt>
      <trkpt lat="46.2648" lon="6.34113">
        <ele>575.40002441406</ele>
        <time>2020-08-05T08:38:38.000Z</time>
      </trkpt>
      <trkpt lat="46.26503" lon="6.3416">
        <ele>574.40002441406</ele>
        <time>2020-08-05T08:38:45.000Z</time>
      </trkpt>
      <trkpt lat="46.26516" lon="6.34183">
        <ele>574.20001220703</ele>
        <time>2020-08-05T08:38:49.000Z</time>
      </trkpt>
      <trkpt lat="46.26522" lon="6.34199">
        <ele>574</ele>
        <time>2020-08-05T08:38:51.000Z</time>
      </trkpt>
      <trkpt lat="46.26523" lon="6.34206">
        <ele>574</ele>
        <time>2020-08-05T08:38:52.000Z</time>
      </trkpt>
      <trkpt lat="46.26533" lon="6.34245">
        <ele>573.79998779297</ele>
        <time>2020-08-05T08:38:58.000Z</time>
      </trkpt>
      <trkpt lat="46.26539" lon="6.34266">
        <ele>573.59997558594</ele>
        <time>2020-08-05T08:39:00.000Z</time>
      </trkpt>
      <trkpt lat="46.26541" lon="6.34273">
        <ele>573.59997558594</ele>
        <time>2020-08-05T08:39:01.000Z</time>
      </trkpt>
      <trkpt lat="46.26549" lon="6.34295">
        <ele>573.40002441406</ele>
        <time>2020-08-05T08:39:04.000Z</time>
      </trkpt>
      <trkpt lat="46.26553" lon="6.34301">
        <ele>573.20001220703</ele>
        <time>2020-08-05T08:39:05.000Z</time>
      </trkpt>
      <trkpt lat="46.26578" lon="6.34335">
        <ele>572.59997558594</ele>
        <time>2020-08-05T08:39:11.000Z</time>
      </trkpt>
      <trkpt lat="46.26606" lon="6.34369">
        <ele>571.79998779297</ele>
        <time>2020-08-05T08:39:18.000Z</time>
      </trkpt>
      <trkpt lat="46.26629" lon="6.34408">
        <ele>570.79998779297</ele>
        <time>2020-08-05T08:39:24.000Z</time>
      </trkpt>
      <trkpt lat="46.2665" lon="6.3446">
        <ele>567.79998779297</ele>
        <time>2020-08-05T08:39:30.000Z</time>
      </trkpt>
      <trkpt lat="46.26668" lon="6.34503">
        <ele>565.40002441406</ele>
        <time>2020-08-05T08:39:35.000Z</time>
      </trkpt>
      <trkpt lat="46.26676" lon="6.34511">
        <ele>564.79998779297</ele>
        <time>2020-08-05T08:39:38.000Z</time>
      </trkpt>
      <trkpt lat="46.26672" lon="6.34524">
        <ele>564.20001220703</ele>
        <time>2020-08-05T08:39:42.000Z</time>
      </trkpt>
      <trkpt lat="46.26667" lon="6.34535">
        <ele>563.79998779297</ele>
        <time>2020-08-05T08:39:44.000Z</time>
      </trkpt>
      <trkpt lat="46.26662" lon="6.34552">
        <ele>563.20001220703</ele>
        <time>2020-08-05T08:39:46.000Z</time>
      </trkpt>
      <trkpt lat="46.26654" lon="6.34579">
        <ele>561.20001220703</ele>
        <time>2020-08-05T08:39:49.000Z</time>
      </trkpt>
      <trkpt lat="46.26651" lon="6.34589">
        <ele>559.79998779297</ele>
        <time>2020-08-05T08:39:50.000Z</time>
      </trkpt>
      <trkpt lat="46.26638" lon="6.34632">
        <ele>553.20001220703</ele>
        <time>2020-08-05T08:39:55.000Z</time>
      </trkpt>
      <trkpt lat="46.26635" lon="6.34642">
        <ele>551.59997558594</ele>
        <time>2020-08-05T08:39:56.000Z</time>
      </trkpt>
      <trkpt lat="46.26625" lon="6.34661">
        <ele>549.59997558594</ele>
        <time>2020-08-05T08:39:59.000Z</time>
      </trkpt>
      <trkpt lat="46.26613" lon="6.34686">
        <ele>547.40002441406</ele>
        <time>2020-08-05T08:40:04.000Z</time>
      </trkpt>
      <trkpt lat="46.26597" lon="6.34699">
        <ele>545.59997558594</ele>
        <time>2020-08-05T08:40:07.000Z</time>
      </trkpt>
      <trkpt lat="46.26591" lon="6.34702">
        <ele>545</ele>
        <time>2020-08-05T08:40:08.000Z</time>
      </trkpt>
      <trkpt lat="46.26587" lon="6.3471">
        <ele>544.59997558594</ele>
        <time>2020-08-05T08:40:09.000Z</time>
      </trkpt>
      <trkpt lat="46.26573" lon="6.34744">
        <ele>542.20001220703</ele>
        <time>2020-08-05T08:40:13.000Z</time>
      </trkpt>
      <trkpt lat="46.2657" lon="6.34754">
        <ele>542.20001220703</ele>
        <time>2020-08-05T08:40:14.000Z</time>
      </trkpt>
      <trkpt lat="46.26564" lon="6.34771">
        <ele>542.40002441406</ele>
        <time>2020-08-05T08:40:16.000Z</time>
      </trkpt>
      <trkpt lat="46.2656" lon="6.34783">
        <ele>542.59997558594</ele>
        <time>2020-08-05T08:40:17.000Z</time>
      </trkpt>
      <trkpt lat="46.2656" lon="6.34794">
        <ele>542.59997558594</ele>
        <time>2020-08-05T08:40:18.000Z</time>
      </trkpt>
      <trkpt lat="46.26559" lon="6.34815">
        <ele>542.79998779297</ele>
        <time>2020-08-05T08:40:20.000Z</time>
      </trkpt>
      <trkpt lat="46.26558" lon="6.34826">
        <ele>542.59997558594</ele>
        <time>2020-08-05T08:40:21.000Z</time>
      </trkpt>
      <trkpt lat="46.26557" lon="6.34867">
        <ele>542</ele>
        <time>2020-08-05T08:40:25.000Z</time>
      </trkpt>
      <trkpt lat="46.26556" lon="6.34875">
        <ele>541.79998779297</ele>
        <time>2020-08-05T08:40:26.000Z</time>
      </trkpt>
      <trkpt lat="46.26553" lon="6.34884">
        <ele>541.59997558594</ele>
        <time>2020-08-05T08:40:27.000Z</time>
      </trkpt>
      <trkpt lat="46.26544" lon="6.34915">
        <ele>541.59997558594</ele>
        <time>2020-08-05T08:40:31.000Z</time>
      </trkpt>
      <trkpt lat="46.26527" lon="6.34971">
        <ele>542.40002441406</ele>
        <time>2020-08-05T08:40:39.000Z</time>
      </trkpt>
      <trkpt lat="46.26513" lon="6.35021">
        <ele>544.40002441406</ele>
        <time>2020-08-05T08:40:47.000Z</time>
      </trkpt>
      <trkpt lat="46.26509" lon="6.35035">
        <ele>545.40002441406</ele>
        <time>2020-08-05T08:40:49.000Z</time>
      </trkpt>
      <trkpt lat="46.265" lon="6.35063">
        <ele>547.59997558594</ele>
        <time>2020-08-05T08:40:54.000Z</time>
      </trkpt>
      <trkpt lat="46.26491" lon="6.35092">
        <ele>551</ele>
        <time>2020-08-05T08:40:59.000Z</time>
      </trkpt>
      <trkpt lat="46.26487" lon="6.35103">
        <ele>551.59997558594</ele>
        <time>2020-08-05T08:41:01.000Z</time>
      </trkpt>
      <trkpt lat="46.2647" lon="6.3515">
        <ele>554.59997558594</ele>
        <time>2020-08-05T08:41:09.000Z</time>
      </trkpt>
      <trkpt lat="46.2645" lon="6.35176">
        <ele>558.79998779297</ele>
        <time>2020-08-05T08:41:16.000Z</time>
      </trkpt>
      <trkpt lat="46.26421" lon="6.35203">
        <ele>561.20001220703</ele>
        <time>2020-08-05T08:41:25.000Z</time>
      </trkpt>
      <trkpt lat="46.26392" lon="6.35227">
        <ele>562</ele>
        <time>2020-08-05T08:41:34.000Z</time>
      </trkpt>
      <trkpt lat="46.26373" lon="6.35244">
        <ele>563</ele>
        <time>2020-08-05T08:41:41.000Z</time>
      </trkpt>
      <trkpt lat="46.26353" lon="6.35266">
        <ele>564.79998779297</ele>
        <time>2020-08-05T08:41:48.000Z</time>
      </trkpt>
      <trkpt lat="46.26332" lon="6.35292">
        <ele>564.59997558594</ele>
        <time>2020-08-05T08:41:56.000Z</time>
      </trkpt>
      <trkpt lat="46.26313" lon="6.35317">
        <ele>564.40002441406</ele>
        <time>2020-08-05T08:42:04.000Z</time>
      </trkpt>
      <trkpt lat="46.263" lon="6.35335">
        <ele>566.59997558594</ele>
        <time>2020-08-05T08:42:10.000Z</time>
      </trkpt>
      <trkpt lat="46.26284" lon="6.35357">
        <ele>569.59997558594</ele>
        <time>2020-08-05T08:42:17.000Z</time>
      </trkpt>
      <trkpt lat="46.26265" lon="6.35387">
        <ele>571</ele>
        <time>2020-08-05T08:42:26.000Z</time>
      </trkpt>
      <trkpt lat="46.26255" lon="6.35421">
        <ele>573</ele>
        <time>2020-08-05T08:42:34.000Z</time>
      </trkpt>
      <trkpt lat="46.26246" lon="6.35451">
        <ele>572.79998779297</ele>
        <time>2020-08-05T08:42:41.000Z</time>
      </trkpt>
      <trkpt lat="46.26233" lon="6.35495">
        <ele>572</ele>
        <time>2020-08-05T08:42:51.000Z</time>
      </trkpt>
      <trkpt lat="46.26227" lon="6.35517">
        <ele>571.59997558594</ele>
        <time>2020-08-05T08:42:56.000Z</time>
      </trkpt>
      <trkpt lat="46.26214" lon="6.35561">
        <ele>572.40002441406</ele>
        <time>2020-08-05T08:43:06.000Z</time>
      </trkpt>
      <trkpt lat="46.26204" lon="6.35593">
        <ele>573</ele>
        <time>2020-08-05T08:43:13.000Z</time>
      </trkpt>
      <trkpt lat="46.26195" lon="6.3563">
        <ele>573.40002441406</ele>
        <time>2020-08-05T08:43:21.000Z</time>
      </trkpt>
      <trkpt lat="46.2619" lon="6.35652">
        <ele>573.40002441406</ele>
        <time>2020-08-05T08:43:27.000Z</time>
      </trkpt>
      <trkpt lat="46.26186" lon="6.35667">
        <ele>573.79998779297</ele>
        <time>2020-08-05T08:43:31.000Z</time>
      </trkpt>
      <trkpt lat="46.26183" lon="6.35679">
        <ele>574.20001220703</ele>
        <time>2020-08-05T08:43:34.000Z</time>
      </trkpt>
      <trkpt lat="46.26175" lon="6.35694">
        <ele>574.79998779297</ele>
        <time>2020-08-05T08:43:36.000Z</time>
      </trkpt>
      <trkpt lat="46.26161" lon="6.35717">
        <ele>575.20001220703</ele>
        <time>2020-08-05T08:43:41.000Z</time>
      </trkpt>
      <trkpt lat="46.2614" lon="6.35737">
        <ele>576.20001220703</ele>
        <time>2020-08-05T08:43:47.000Z</time>
      </trkpt>
      <trkpt lat="46.26123" lon="6.35754">
        <ele>577.20001220703</ele>
        <time>2020-08-05T08:43:53.000Z</time>
      </trkpt>
      <trkpt lat="46.26104" lon="6.35771">
        <ele>578</ele>
        <time>2020-08-05T08:43:59.000Z</time>
      </trkpt>
      <trkpt lat="46.26088" lon="6.35787">
        <ele>579.59997558594</ele>
        <time>2020-08-05T08:44:04.000Z</time>
      </trkpt>
      <trkpt lat="46.26066" lon="6.3582">
        <ele>581.79998779297</ele>
        <time>2020-08-05T08:44:12.000Z</time>
      </trkpt>
      <trkpt lat="46.26043" lon="6.35838">
        <ele>583.79998779297</ele>
        <time>2020-08-05T08:44:19.000Z</time>
      </trkpt>
      <trkpt lat="46.26021" lon="6.35853">
        <ele>585.40002441406</ele>
        <time>2020-08-05T08:44:26.000Z</time>
      </trkpt>
      <trkpt lat="46.25995" lon="6.35871">
        <ele>587</ele>
        <time>2020-08-05T08:44:34.000Z</time>
      </trkpt>
      <trkpt lat="46.25973" lon="6.35885">
        <ele>588.40002441406</ele>
        <time>2020-08-05T08:44:41.000Z</time>
      </trkpt>
      <trkpt lat="46.25966" lon="6.35891">
        <ele>589.20001220703</ele>
        <time>2020-08-05T08:44:43.000Z</time>
      </trkpt>
      <trkpt lat="46.25964" lon="6.35892">
        <ele>589.40002441406</ele>
        <time>2020-08-05T08:44:44.000Z</time>
      </trkpt>
      <trkpt lat="46.25968" lon="6.35908">
        <ele>589</ele>
        <time>2020-08-05T08:44:47.000Z</time>
      </trkpt>
      <trkpt lat="46.25972" lon="6.35919">
        <ele>588.40002441406</ele>
        <time>2020-08-05T08:44:49.000Z</time>
      </trkpt>
      <trkpt lat="46.25977" lon="6.35935">
        <ele>587.79998779297</ele>
        <time>2020-08-05T08:44:52.000Z</time>
      </trkpt>
      <trkpt lat="46.25994" lon="6.35986">
        <ele>586.40002441406</ele>
        <time>2020-08-05T08:45:00.000Z</time>
      </trkpt>
      <trkpt lat="46.2601" lon="6.36038">
        <ele>587.20001220703</ele>
        <time>2020-08-05T08:45:07.000Z</time>
      </trkpt>
      <trkpt lat="46.26033" lon="6.36109">
        <ele>587.79998779297</ele>
        <time>2020-08-05T08:45:17.000Z</time>
      </trkpt>
      <trkpt lat="46.26053" lon="6.36165">
        <ele>587.79998779297</ele>
        <time>2020-08-05T08:45:25.000Z</time>
      </trkpt>
      <trkpt lat="46.26076" lon="6.36208">
        <ele>587</ele>
        <time>2020-08-05T08:45:32.000Z</time>
      </trkpt>
      <trkpt lat="46.26103" lon="6.36259">
        <ele>587</ele>
        <time>2020-08-05T08:45:40.000Z</time>
      </trkpt>
      <trkpt lat="46.26124" lon="6.36299">
        <ele>587.40002441406</ele>
        <time>2020-08-05T08:45:46.000Z</time>
      </trkpt>
      <trkpt lat="46.26141" lon="6.3634">
        <ele>587</ele>
        <time>2020-08-05T08:45:52.000Z</time>
      </trkpt>
      <trkpt lat="46.26144" lon="6.36349">
        <ele>586.59997558594</ele>
        <time>2020-08-05T08:45:53.000Z</time>
      </trkpt>
      <trkpt lat="46.26153" lon="6.36372">
        <ele>585.79998779297</ele>
        <time>2020-08-05T08:45:56.000Z</time>
      </trkpt>
      <trkpt lat="46.26168" lon="6.36419">
        <ele>583.59997558594</ele>
        <time>2020-08-05T08:46:02.000Z</time>
      </trkpt>
      <trkpt lat="46.26175" lon="6.36459">
        <ele>582.79998779297</ele>
        <time>2020-08-05T08:46:07.000Z</time>
      </trkpt>
      <trkpt lat="46.26176" lon="6.36467">
        <ele>582.79998779297</ele>
        <time>2020-08-05T08:46:08.000Z</time>
      </trkpt>
      <trkpt lat="46.26176" lon="6.36475">
        <ele>582.79998779297</ele>
        <time>2020-08-05T08:46:09.000Z</time>
      </trkpt>
      <trkpt lat="46.26175" lon="6.36499">
        <ele>583.20001220703</ele>
        <time>2020-08-05T08:46:12.000Z</time>
      </trkpt>
      <trkpt lat="46.26174" lon="6.36508">
        <ele>583.20001220703</ele>
        <time>2020-08-05T08:46:13.000Z</time>
      </trkpt>
      <trkpt lat="46.26165" lon="6.36534">
        <ele>583.40002441406</ele>
        <time>2020-08-05T08:46:16.000Z</time>
      </trkpt>
      <trkpt lat="46.26146" lon="6.36588">
        <ele>583.79998779297</ele>
        <time>2020-08-05T08:46:23.000Z</time>
      </trkpt>
      <trkpt lat="46.26135" lon="6.36622">
        <ele>584.79998779297</ele>
        <time>2020-08-05T08:46:28.000Z</time>
      </trkpt>
      <trkpt lat="46.26137" lon="6.36635">
        <ele>584.40002441406</ele>
        <time>2020-08-05T08:46:30.000Z</time>
      </trkpt>
      <trkpt lat="46.26142" lon="6.36649">
        <ele>583.40002441406</ele>
        <time>2020-08-05T08:46:32.000Z</time>
      </trkpt>
      <trkpt lat="46.26147" lon="6.36664">
        <ele>583.40002441406</ele>
        <time>2020-08-05T08:46:34.000Z</time>
      </trkpt>
      <trkpt lat="46.26152" lon="6.36673">
        <ele>582.79998779297</ele>
        <time>2020-08-05T08:46:35.000Z</time>
      </trkpt>
      <trkpt lat="46.26158" lon="6.36677">
        <ele>582.20001220703</ele>
        <time>2020-08-05T08:46:36.000Z</time>
      </trkpt>
      <trkpt lat="46.2617" lon="6.36688">
        <ele>580.79998779297</ele>
        <time>2020-08-05T08:46:38.000Z</time>
      </trkpt>
      <trkpt lat="46.26186" lon="6.36701">
        <ele>579</ele>
        <time>2020-08-05T08:46:41.000Z</time>
      </trkpt>
      <trkpt lat="46.26191" lon="6.36709">
        <ele>578.59997558594</ele>
        <time>2020-08-05T08:46:42.000Z</time>
      </trkpt>
      <trkpt lat="46.26195" lon="6.36716">
        <ele>578.20001220703</ele>
        <time>2020-08-05T08:46:43.000Z</time>
      </trkpt>
      <trkpt lat="46.262" lon="6.36733">
        <ele>577.79998779297</ele>
        <time>2020-08-05T08:46:45.000Z</time>
      </trkpt>
      <trkpt lat="46.26203" lon="6.36753">
        <ele>577</ele>
        <time>2020-08-05T08:46:47.000Z</time>
      </trkpt>
      <trkpt lat="46.26203" lon="6.36764">
        <ele>576.59997558594</ele>
        <time>2020-08-05T08:46:48.000Z</time>
      </trkpt>
      <trkpt lat="46.26203" lon="6.36824">
        <ele>576</ele>
        <time>2020-08-05T08:46:53.000Z</time>
      </trkpt>
      <trkpt lat="46.26203" lon="6.36833">
        <ele>576</ele>
        <time>2020-08-05T08:46:54.000Z</time>
      </trkpt>
      <trkpt lat="46.26203" lon="6.36837">
        <ele>576</ele>
        <time>2020-08-05T08:46:55.000Z</time>
      </trkpt>
      <trkpt lat="46.2621" lon="6.36848">
        <ele>575</ele>
        <time>2020-08-05T08:46:57.000Z</time>
      </trkpt>
      <trkpt lat="46.26218" lon="6.36854">
        <ele>573.79998779297</ele>
        <time>2020-08-05T08:46:59.000Z</time>
      </trkpt>
      <trkpt lat="46.26222" lon="6.36857">
        <ele>573.20001220703</ele>
        <time>2020-08-05T08:47:00.000Z</time>
      </trkpt>
      <trkpt lat="46.26241" lon="6.36869">
        <ele>571.79998779297</ele>
        <time>2020-08-05T08:47:03.000Z</time>
      </trkpt>
      <trkpt lat="46.26251" lon="6.36875">
        <ele>571.40002441406</ele>
        <time>2020-08-05T08:47:05.000Z</time>
      </trkpt>
      <trkpt lat="46.26255" lon="6.36885">
        <ele>571.40002441406</ele>
        <time>2020-08-05T08:47:07.000Z</time>
      </trkpt>
      <trkpt lat="46.26255" lon="6.36893">
        <ele>571.40002441406</ele>
        <time>2020-08-05T08:47:08.000Z</time>
      </trkpt>
      <trkpt lat="46.26256" lon="6.36934">
        <ele>571.79998779297</ele>
        <time>2020-08-05T08:47:13.000Z</time>
      </trkpt>
      <trkpt lat="46.26257" lon="6.36944">
        <ele>572.20001220703</ele>
        <time>2020-08-05T08:47:15.000Z</time>
      </trkpt>
      <trkpt lat="46.26254" lon="6.36958">
        <ele>572.59997558594</ele>
        <time>2020-08-05T08:47:17.000Z</time>
      </trkpt>
      <trkpt lat="46.26253" lon="6.36962">
        <ele>572.59997558594</ele>
        <time>2020-08-05T08:47:18.000Z</time>
      </trkpt>
      <trkpt lat="46.26246" lon="6.36981">
        <ele>573.40002441406</ele>
        <time>2020-08-05T08:47:21.000Z</time>
      </trkpt>
      <trkpt lat="46.26241" lon="6.36997">
        <ele>573.40002441406</ele>
        <time>2020-08-05T08:47:24.000Z</time>
      </trkpt>
      <trkpt lat="46.2624" lon="6.37003">
        <ele>573.40002441406</ele>
        <time>2020-08-05T08:47:25.000Z</time>
      </trkpt>
      <trkpt lat="46.26239" lon="6.3702">
        <ele>573.59997558594</ele>
        <time>2020-08-05T08:47:28.000Z</time>
      </trkpt>
      <trkpt lat="46.26242" lon="6.37042">
        <ele>573.40002441406</ele>
        <time>2020-08-05T08:47:31.000Z</time>
      </trkpt>
      <trkpt lat="46.26248" lon="6.37076">
        <ele>573.20001220703</ele>
        <time>2020-08-05T08:47:36.000Z</time>
      </trkpt>
      <trkpt lat="46.2625" lon="6.37086">
        <ele>573.20001220703</ele>
        <time>2020-08-05T08:47:38.000Z</time>
      </trkpt>
      <trkpt lat="46.26254" lon="6.37105">
        <ele>573.40002441406</ele>
        <time>2020-08-05T08:47:42.000Z</time>
      </trkpt>
      <trkpt lat="46.26259" lon="6.37122">
        <ele>573.59997558594</ele>
        <time>2020-08-05T08:47:46.000Z</time>
      </trkpt>
      <trkpt lat="46.26262" lon="6.37129">
        <ele>573.59997558594</ele>
        <time>2020-08-05T08:47:47.000Z</time>
      </trkpt>
      <trkpt lat="46.26276" lon="6.37165">
        <ele>573.40002441406</ele>
        <time>2020-08-05T08:47:52.000Z</time>
      </trkpt>
      <trkpt lat="46.26282" lon="6.3718">
        <ele>573.20001220703</ele>
        <time>2020-08-05T08:47:54.000Z</time>
      </trkpt>
      <trkpt lat="46.26291" lon="6.37202">
        <ele>573</ele>
        <time>2020-08-05T08:47:57.000Z</time>
      </trkpt>
      <trkpt lat="46.26304" lon="6.37235">
        <ele>572.79998779297</ele>
        <time>2020-08-05T08:48:02.000Z</time>
      </trkpt>
      <trkpt lat="46.26312" lon="6.37257">
        <ele>572</ele>
        <time>2020-08-05T08:48:05.000Z</time>
      </trkpt>
      <trkpt lat="46.26316" lon="6.37271">
        <ele>572</ele>
        <time>2020-08-05T08:48:07.000Z</time>
      </trkpt>
      <trkpt lat="46.26323" lon="6.3729">
        <ele>571.79998779297</ele>
        <time>2020-08-05T08:48:10.000Z</time>
      </trkpt>
      <trkpt lat="46.26327" lon="6.37303">
        <ele>571.79998779297</ele>
        <time>2020-08-05T08:48:12.000Z</time>
      </trkpt>
      <trkpt lat="46.26336" lon="6.37319">
        <ele>571.79998779297</ele>
        <time>2020-08-05T08:48:14.000Z</time>
      </trkpt>
      <trkpt lat="46.26339" lon="6.37325">
        <ele>572</ele>
        <time>2020-08-05T08:48:15.000Z</time>
      </trkpt>
      <trkpt lat="46.26355" lon="6.37364">
        <ele>573.20001220703</ele>
        <time>2020-08-05T08:48:20.000Z</time>
      </trkpt>
      <trkpt lat="46.26369" lon="6.37411">
        <ele>574.20001220703</ele>
        <time>2020-08-05T08:48:27.000Z</time>
      </trkpt>
      <trkpt lat="46.2638" lon="6.37466">
        <ele>573.40002441406</ele>
        <time>2020-08-05T08:48:35.000Z</time>
      </trkpt>
      <trkpt lat="46.26389" lon="6.37504">
        <ele>574</ele>
        <time>2020-08-05T08:48:40.000Z</time>
      </trkpt>
      <trkpt lat="46.26392" lon="6.37519">
        <ele>574.20001220703</ele>
        <time>2020-08-05T08:48:42.000Z</time>
      </trkpt>
      <trkpt lat="46.26402" lon="6.37568">
        <ele>574.79998779297</ele>
        <time>2020-08-05T08:48:49.000Z</time>
      </trkpt>
      <trkpt lat="46.26404" lon="6.37577">
        <ele>574.79998779297</ele>
        <time>2020-08-05T08:48:50.000Z</time>
      </trkpt>
      <trkpt lat="46.26412" lon="6.37617">
        <ele>574.20001220703</ele>
        <time>2020-08-05T08:48:55.000Z</time>
      </trkpt>
      <trkpt lat="46.26418" lon="6.37678">
        <ele>573.59997558594</ele>
        <time>2020-08-05T08:49:02.000Z</time>
      </trkpt>
      <trkpt lat="46.26423" lon="6.37736">
        <ele>573.79998779297</ele>
        <time>2020-08-05T08:49:09.000Z</time>
      </trkpt>
      <trkpt lat="46.2643" lon="6.37811">
        <ele>571</ele>
        <time>2020-08-05T08:49:18.000Z</time>
      </trkpt>
      <trkpt lat="46.26434" lon="6.37872">
        <ele>569.59997558594</ele>
        <time>2020-08-05T08:49:25.000Z</time>
      </trkpt>
      <trkpt lat="46.26436" lon="6.37946">
        <ele>569.20001220703</ele>
        <time>2020-08-05T08:49:34.000Z</time>
      </trkpt>
      <trkpt lat="46.26439" lon="6.38025">
        <ele>570.40002441406</ele>
        <time>2020-08-05T08:49:44.000Z</time>
      </trkpt>
      <trkpt lat="46.2645" lon="6.38073">
        <ele>568.59997558594</ele>
        <time>2020-08-05T08:49:50.000Z</time>
      </trkpt>
      <trkpt lat="46.26461" lon="6.38119">
        <ele>566.79998779297</ele>
        <time>2020-08-05T08:49:56.000Z</time>
      </trkpt>
      <trkpt lat="46.26459" lon="6.38135">
        <ele>566.79998779297</ele>
        <time>2020-08-05T08:49:58.000Z</time>
      </trkpt>
      <trkpt lat="46.26455" lon="6.3815">
        <ele>567.40002441406</ele>
        <time>2020-08-05T08:50:00.000Z</time>
      </trkpt>
      <trkpt lat="46.26438" lon="6.38193">
        <ele>568.40002441406</ele>
        <time>2020-08-05T08:50:06.000Z</time>
      </trkpt>
      <trkpt lat="46.26413" lon="6.38253">
        <ele>570</ele>
        <time>2020-08-05T08:50:15.000Z</time>
      </trkpt>
      <trkpt lat="46.26396" lon="6.38293">
        <ele>572.40002441406</ele>
        <time>2020-08-05T08:50:22.000Z</time>
      </trkpt>
      <trkpt lat="46.26392" lon="6.38313">
        <ele>573.40002441406</ele>
        <time>2020-08-05T08:50:25.000Z</time>
      </trkpt>
      <trkpt lat="46.26388" lon="6.38334">
        <ele>573.40002441406</ele>
        <time>2020-08-05T08:50:28.000Z</time>
      </trkpt>
      <trkpt lat="46.26384" lon="6.38359">
        <ele>573.59997558594</ele>
        <time>2020-08-05T08:50:32.000Z</time>
      </trkpt>
      <trkpt lat="46.26378" lon="6.38369">
        <ele>573.79998779297</ele>
        <time>2020-08-05T08:50:34.000Z</time>
      </trkpt>
      <trkpt lat="46.26368" lon="6.38383">
        <ele>574.59997558594</ele>
        <time>2020-08-05T08:50:37.000Z</time>
      </trkpt>
      <trkpt lat="46.26361" lon="6.38387">
        <ele>575</ele>
        <time>2020-08-05T08:50:39.000Z</time>
      </trkpt>
      <trkpt lat="46.26342" lon="6.38398">
        <ele>576.59997558594</ele>
        <time>2020-08-05T08:50:45.000Z</time>
      </trkpt>
      <trkpt lat="46.26325" lon="6.38407">
        <ele>578.20001220703</ele>
        <time>2020-08-05T08:50:51.000Z</time>
      </trkpt>
      <trkpt lat="46.26308" lon="6.38417">
        <ele>579.20001220703</ele>
        <time>2020-08-05T08:50:57.000Z</time>
      </trkpt>
      <trkpt lat="46.26293" lon="6.38427">
        <ele>580.20001220703</ele>
        <time>2020-08-05T08:51:02.000Z</time>
      </trkpt>
      <trkpt lat="46.26278" lon="6.38444">
        <ele>581</ele>
        <time>2020-08-05T08:51:08.000Z</time>
      </trkpt>
      <trkpt lat="46.26268" lon="6.38456">
        <ele>582.20001220703</ele>
        <time>2020-08-05T08:51:12.000Z</time>
      </trkpt>
      <trkpt lat="46.26251" lon="6.38475">
        <ele>584</ele>
        <time>2020-08-05T08:51:18.000Z</time>
      </trkpt>
      <trkpt lat="46.26247" lon="6.38491">
        <ele>584.59997558594</ele>
        <time>2020-08-05T08:51:20.000Z</time>
      </trkpt>
      <trkpt lat="46.26246" lon="6.38506">
        <ele>584.79998779297</ele>
        <time>2020-08-05T08:51:22.000Z</time>
      </trkpt>
      <trkpt lat="46.26252" lon="6.38562">
        <ele>584.40002441406</ele>
        <time>2020-08-05T08:51:31.000Z</time>
      </trkpt>
      <trkpt lat="46.26253" lon="6.38568">
        <ele>584.40002441406</ele>
        <time>2020-08-05T08:51:32.000Z</time>
      </trkpt>
      <trkpt lat="46.26251" lon="6.38584">
        <ele>585</ele>
        <time>2020-08-05T08:51:35.000Z</time>
      </trkpt>
      <trkpt lat="46.26249" lon="6.38587">
        <ele>585</ele>
        <time>2020-08-05T08:51:36.000Z</time>
      </trkpt>
      <trkpt lat="46.26246" lon="6.38596">
        <ele>585.59997558594</ele>
        <time>2020-08-05T08:51:37.000Z</time>
      </trkpt>
      <trkpt lat="46.26242" lon="6.38608">
        <ele>586</ele>
        <time>2020-08-05T08:51:39.000Z</time>
      </trkpt>
      <trkpt lat="46.26238" lon="6.38619">
        <ele>586.59997558594</ele>
        <time>2020-08-05T08:51:41.000Z</time>
      </trkpt>
      <trkpt lat="46.26233" lon="6.38635">
        <ele>587.40002441406</ele>
        <time>2020-08-05T08:51:44.000Z</time>
      </trkpt>
      <trkpt lat="46.26227" lon="6.38653">
        <ele>588.20001220703</ele>
        <time>2020-08-05T08:51:47.000Z</time>
      </trkpt>
      <trkpt lat="46.26213" lon="6.38686">
        <ele>589.40002441406</ele>
        <time>2020-08-05T08:51:54.000Z</time>
      </trkpt>
      <trkpt lat="46.26201" lon="6.38713">
        <ele>590.59997558594</ele>
        <time>2020-08-05T08:52:00.000Z</time>
      </trkpt>
      <trkpt lat="46.2619" lon="6.38736">
        <ele>592</ele>
        <time>2020-08-05T08:52:06.000Z</time>
      </trkpt>
      <trkpt lat="46.26181" lon="6.38755">
        <ele>593.20001220703</ele>
        <time>2020-08-05T08:52:12.000Z</time>
      </trkpt>
      <trkpt lat="46.26179" lon="6.38759">
        <ele>593.59997558594</ele>
        <time>2020-08-05T08:52:13.000Z</time>
      </trkpt>
      <trkpt lat="46.26179" lon="6.38768">
        <ele>594</ele>
        <time>2020-08-05T08:52:15.000Z</time>
      </trkpt>
      <trkpt lat="46.26184" lon="6.38808">
        <ele>595.40002441406</ele>
        <time>2020-08-05T08:52:23.000Z</time>
      </trkpt>
      <trkpt lat="46.26187" lon="6.38832">
        <ele>595.79998779297</ele>
        <time>2020-08-05T08:52:28.000Z</time>
      </trkpt>
      <trkpt lat="46.26188" lon="6.38834">
        <ele>595.79998779297</ele>
        <time>2020-08-05T08:52:29.000Z</time>
      </trkpt>
      <trkpt lat="46.26188" lon="6.38839">
        <ele>595.79998779297</ele>
        <time>2020-08-05T08:52:31.000Z</time>
      </trkpt>
      <trkpt lat="46.26188" lon="6.3884">
        <ele>595.79998779297</ele>
        <time>2020-08-05T08:52:32.000Z</time>
      </trkpt>
      <trkpt lat="46.26201" lon="6.38842">
        <ele>594.79998779297</ele>
        <time>2020-08-05T08:52:35.000Z</time>
      </trkpt>
      <trkpt lat="46.26222" lon="6.38865">
        <ele>593.20001220703</ele>
        <time>2020-08-05T08:52:41.000Z</time>
      </trkpt>
      <trkpt lat="46.26235" lon="6.38866">
        <ele>592.40002441406</ele>
        <time>2020-08-05T08:52:43.000Z</time>
      </trkpt>
      <trkpt lat="46.26246" lon="6.38865">
        <ele>591.79998779297</ele>
        <time>2020-08-05T08:52:45.000Z</time>
      </trkpt>
      <trkpt lat="46.26258" lon="6.38863">
        <ele>591.20001220703</ele>
        <time>2020-08-05T08:52:47.000Z</time>
      </trkpt>
      <trkpt lat="46.2627" lon="6.38861">
        <ele>590.59997558594</ele>
        <time>2020-08-05T08:52:49.000Z</time>
      </trkpt>
      <trkpt lat="46.26281" lon="6.38873">
        <ele>590.20001220703</ele>
        <time>2020-08-05T08:52:51.000Z</time>
      </trkpt>
      <trkpt lat="46.26285" lon="6.3888">
        <ele>590</ele>
        <time>2020-08-05T08:52:52.000Z</time>
      </trkpt>
      <trkpt lat="46.2632" lon="6.38929">
        <ele>589.40002441406</ele>
        <time>2020-08-05T08:52:59.000Z</time>
      </trkpt>
      <trkpt lat="46.26343" lon="6.38962">
        <ele>589</ele>
        <time>2020-08-05T08:53:04.000Z</time>
      </trkpt>
      <trkpt lat="46.26345" lon="6.38968">
        <ele>589</ele>
        <time>2020-08-05T08:53:05.000Z</time>
      </trkpt>
      <trkpt lat="46.2635" lon="6.38978">
        <ele>589.20001220703</ele>
        <time>2020-08-05T08:53:06.000Z</time>
      </trkpt>
      <trkpt lat="46.26354" lon="6.38995">
        <ele>589.20001220703</ele>
        <time>2020-08-05T08:53:08.000Z</time>
      </trkpt>
      <trkpt lat="46.26358" lon="6.39026">
        <ele>589.40002441406</ele>
        <time>2020-08-05T08:53:11.000Z</time>
      </trkpt>
      <trkpt lat="46.26359" lon="6.39036">
        <ele>589.59997558594</ele>
        <time>2020-08-05T08:53:12.000Z</time>
      </trkpt>
      <trkpt lat="46.26361" lon="6.39052">
        <ele>589.79998779297</ele>
        <time>2020-08-05T08:53:14.000Z</time>
      </trkpt>
      <trkpt lat="46.26365" lon="6.39066">
        <ele>589.79998779297</ele>
        <time>2020-08-05T08:53:16.000Z</time>
      </trkpt>
      <trkpt lat="46.26369" lon="6.39072">
        <ele>590</ele>
        <time>2020-08-05T08:53:17.000Z</time>
      </trkpt>
      <trkpt lat="46.26381" lon="6.39095">
        <ele>590</ele>
        <time>2020-08-05T08:53:21.000Z</time>
      </trkpt>
      <trkpt lat="46.26383" lon="6.39098">
        <ele>590</ele>
        <time>2020-08-05T08:53:22.000Z</time>
      </trkpt>
      <trkpt lat="46.26386" lon="6.39105">
        <ele>590</ele>
        <time>2020-08-05T08:53:23.000Z</time>
      </trkpt>
      <trkpt lat="46.26393" lon="6.39112">
        <ele>589.79998779297</ele>
        <time>2020-08-05T08:53:25.000Z</time>
      </trkpt>
      <trkpt lat="46.26396" lon="6.39114">
        <ele>589.79998779297</ele>
        <time>2020-08-05T08:53:26.000Z</time>
      </trkpt>
      <trkpt lat="46.26399" lon="6.39116">
        <ele>589.59997558594</ele>
        <time>2020-08-05T08:53:27.000Z</time>
      </trkpt>
      <trkpt lat="46.26411" lon="6.39114">
        <ele>588.79998779297</ele>
        <time>2020-08-05T08:53:29.000Z</time>
      </trkpt>
      <trkpt lat="46.26424" lon="6.39096">
        <ele>587.40002441406</ele>
        <time>2020-08-05T08:53:32.000Z</time>
      </trkpt>
      <trkpt lat="46.26428" lon="6.39091">
        <ele>587.20001220703</ele>
        <time>2020-08-05T08:53:33.000Z</time>
      </trkpt>
      <trkpt lat="46.26461" lon="6.39045">
        <ele>584.59997558594</ele>
        <time>2020-08-05T08:53:39.000Z</time>
      </trkpt>
      <trkpt lat="46.26471" lon="6.39032">
        <ele>583.79998779297</ele>
        <time>2020-08-05T08:53:41.000Z</time>
      </trkpt>
      <trkpt lat="46.2648" lon="6.39028">
        <ele>583</ele>
        <time>2020-08-05T08:53:43.000Z</time>
      </trkpt>
      <trkpt lat="46.26489" lon="6.39032">
        <ele>582.79998779297</ele>
        <time>2020-08-05T08:53:45.000Z</time>
      </trkpt>
      <trkpt lat="46.26494" lon="6.39038">
        <ele>582.79998779297</ele>
        <time>2020-08-05T08:53:46.000Z</time>
      </trkpt>
      <trkpt lat="46.26518" lon="6.39067">
        <ele>582.59997558594</ele>
        <time>2020-08-05T08:53:52.000Z</time>
      </trkpt>
      <trkpt lat="46.26524" lon="6.39074">
        <ele>582.79998779297</ele>
        <time>2020-08-05T08:53:55.000Z</time>
      </trkpt>
      <trkpt lat="46.26542" lon="6.39073">
        <ele>582</ele>
        <time>2020-08-05T08:53:57.000Z</time>
      </trkpt>
      <trkpt lat="46.26553" lon="6.39072">
        <ele>581.59997558594</ele>
        <time>2020-08-05T08:53:59.000Z</time>
      </trkpt>
      <trkpt lat="46.26563" lon="6.39072">
        <ele>581.20001220703</ele>
        <time>2020-08-05T08:54:01.000Z</time>
      </trkpt>
      <trkpt lat="46.26569" lon="6.39071">
        <ele>581.20001220703</ele>
        <time>2020-08-05T08:54:02.000Z</time>
      </trkpt>
      <trkpt lat="46.2658" lon="6.39071">
        <ele>580.79998779297</ele>
        <time>2020-08-05T08:54:04.000Z</time>
      </trkpt>
      <trkpt lat="46.26593" lon="6.39086">
        <ele>581.20001220703</ele>
        <time>2020-08-05T08:54:08.000Z</time>
      </trkpt>
      <trkpt lat="46.26631" lon="6.39141">
        <ele>583</ele>
        <time>2020-08-05T08:54:19.000Z</time>
      </trkpt>
      <trkpt lat="46.26665" lon="6.39193">
        <ele>583</ele>
        <time>2020-08-05T08:54:29.000Z</time>
      </trkpt>
      <trkpt lat="46.26687" lon="6.39245">
        <ele>582.59997558594</ele>
        <time>2020-08-05T08:54:36.000Z</time>
      </trkpt>
      <trkpt lat="46.26704" lon="6.39296">
        <ele>580.79998779297</ele>
        <time>2020-08-05T08:54:42.000Z</time>
      </trkpt>
      <trkpt lat="46.26728" lon="6.39369">
        <ele>579.40002441406</ele>
        <time>2020-08-05T08:54:50.000Z</time>
      </trkpt>
      <trkpt lat="46.2673" lon="6.39377">
        <ele>579.20001220703</ele>
        <time>2020-08-05T08:54:51.000Z</time>
      </trkpt>
      <trkpt lat="46.26762" lon="6.39448">
        <ele>578.59997558594</ele>
        <time>2020-08-05T08:55:00.000Z</time>
      </trkpt>
      <trkpt lat="46.26776" lon="6.39511">
        <ele>579.40002441406</ele>
        <time>2020-08-05T08:55:08.000Z</time>
      </trkpt>
      <trkpt lat="46.2678" lon="6.39534">
        <ele>579.79998779297</ele>
        <time>2020-08-05T08:55:11.000Z</time>
      </trkpt>
      <trkpt lat="46.26785" lon="6.39555">
        <ele>580.20001220703</ele>
        <time>2020-08-05T08:55:14.000Z</time>
      </trkpt>
      <trkpt lat="46.26791" lon="6.39583">
        <ele>580</ele>
        <time>2020-08-05T08:55:18.000Z</time>
      </trkpt>
      <trkpt lat="46.26796" lon="6.39603">
        <ele>579.79998779297</ele>
        <time>2020-08-05T08:55:21.000Z</time>
      </trkpt>
      <trkpt lat="46.26813" lon="6.39646">
        <ele>579</ele>
        <time>2020-08-05T08:55:27.000Z</time>
      </trkpt>
      <trkpt lat="46.26832" lon="6.39697">
        <ele>580</ele>
        <time>2020-08-05T08:55:34.000Z</time>
      </trkpt>
      <trkpt lat="46.26852" lon="6.39749">
        <ele>580.79998779297</ele>
        <time>2020-08-05T08:55:42.000Z</time>
      </trkpt>
      <trkpt lat="46.26876" lon="6.39797">
        <ele>581</ele>
        <time>2020-08-05T08:55:49.000Z</time>
      </trkpt>
      <trkpt lat="46.26901" lon="6.39823">
        <ele>580</ele>
        <time>2020-08-05T08:55:54.000Z</time>
      </trkpt>
      <trkpt lat="46.26932" lon="6.39843">
        <ele>578.40002441406</ele>
        <time>2020-08-05T08:55:59.000Z</time>
      </trkpt>
      <trkpt lat="46.26939" lon="6.39848">
        <ele>578</ele>
        <time>2020-08-05T08:56:00.000Z</time>
      </trkpt>
      <trkpt lat="46.26949" lon="6.3986">
        <ele>577.59997558594</ele>
        <time>2020-08-05T08:56:02.000Z</time>
      </trkpt>
      <trkpt lat="46.26954" lon="6.39866">
        <ele>577.40002441406</ele>
        <time>2020-08-05T08:56:03.000Z</time>
      </trkpt>
      <trkpt lat="46.2697" lon="6.39904">
        <ele>577</ele>
        <time>2020-08-05T08:56:08.000Z</time>
      </trkpt>
      <trkpt lat="46.26999" lon="6.39973">
        <ele>577</ele>
        <time>2020-08-05T08:56:17.000Z</time>
      </trkpt>
      <trkpt lat="46.27002" lon="6.39981">
        <ele>577.20001220703</ele>
        <time>2020-08-05T08:56:18.000Z</time>
      </trkpt>
      <trkpt lat="46.27027" lon="6.40046">
        <ele>577.79998779297</ele>
        <time>2020-08-05T08:56:26.000Z</time>
      </trkpt>
      <trkpt lat="46.27056" lon="6.40119">
        <ele>577.20001220703</ele>
        <time>2020-08-05T08:56:35.000Z</time>
      </trkpt>
      <trkpt lat="46.27059" lon="6.40127">
        <ele>577</ele>
        <time>2020-08-05T08:56:36.000Z</time>
      </trkpt>
      <trkpt lat="46.27086" lon="6.40194">
        <ele>577.20001220703</ele>
        <time>2020-08-05T08:56:45.000Z</time>
      </trkpt>
      <trkpt lat="46.27116" lon="6.40271">
        <ele>577.59997558594</ele>
        <time>2020-08-05T08:56:55.000Z</time>
      </trkpt>
      <trkpt lat="46.27145" lon="6.40334">
        <ele>577.59997558594</ele>
        <time>2020-08-05T08:57:04.000Z</time>
      </trkpt>
      <trkpt lat="46.2717" lon="6.40389">
        <ele>577.59997558594</ele>
        <time>2020-08-05T08:57:11.000Z</time>
      </trkpt>
      <trkpt lat="46.27201" lon="6.40446">
        <ele>576.40002441406</ele>
        <time>2020-08-05T08:57:18.000Z</time>
      </trkpt>
      <trkpt lat="46.27225" lon="6.40498">
        <ele>575.59997558594</ele>
        <time>2020-08-05T08:57:25.000Z</time>
      </trkpt>
      <trkpt lat="46.27254" lon="6.40573">
        <ele>576.40002441406</ele>
        <time>2020-08-05T08:57:35.000Z</time>
      </trkpt>
      <trkpt lat="46.27257" lon="6.40581">
        <ele>576.59997558594</ele>
        <time>2020-08-05T08:57:36.000Z</time>
      </trkpt>
      <trkpt lat="46.27289" lon="6.40639">
        <ele>577.20001220703</ele>
        <time>2020-08-05T08:57:45.000Z</time>
      </trkpt>
      <trkpt lat="46.27316" lon="6.40693">
        <ele>577.59997558594</ele>
        <time>2020-08-05T08:57:54.000Z</time>
      </trkpt>
      <trkpt lat="46.27329" lon="6.40738">
        <ele>578.20001220703</ele>
        <time>2020-08-05T08:58:01.000Z</time>
      </trkpt>
      <trkpt lat="46.27337" lon="6.4077">
        <ele>579</ele>
        <time>2020-08-05T08:58:06.000Z</time>
      </trkpt>
      <trkpt lat="46.27345" lon="6.40798">
        <ele>580</ele>
        <time>2020-08-05T08:58:10.000Z</time>
      </trkpt>
      <trkpt lat="46.27358" lon="6.40846">
        <ele>582</ele>
        <time>2020-08-05T08:58:18.000Z</time>
      </trkpt>
      <trkpt lat="46.27379" lon="6.40903">
        <ele>583.79998779297</ele>
        <time>2020-08-05T08:58:27.000Z</time>
      </trkpt>
      <trkpt lat="46.27404" lon="6.40967">
        <ele>584</ele>
        <time>2020-08-05T08:58:37.000Z</time>
      </trkpt>
      <trkpt lat="46.27429" lon="6.41032">
        <ele>583.59997558594</ele>
        <time>2020-08-05T08:58:47.000Z</time>
      </trkpt>
      <trkpt lat="46.27446" lon="6.41075">
        <ele>583.40002441406</ele>
        <time>2020-08-05T08:58:53.000Z</time>
      </trkpt>
      <trkpt lat="46.27463" lon="6.4112">
        <ele>583.20001220703</ele>
        <time>2020-08-05T08:59:00.000Z</time>
      </trkpt>
      <trkpt lat="46.2747" lon="6.4115">
        <ele>583</ele>
        <time>2020-08-05T08:59:05.000Z</time>
      </trkpt>
      <trkpt lat="46.2747" lon="6.4115">
        <ele>583</ele>
        <time>2020-08-05T08:59:07.000Z</time>
      </trkpt>
      <trkpt lat="46.27464" lon="6.41154">
        <ele>583</ele>
        <time>2020-08-05T08:59:09.000Z</time>
      </trkpt>
      <trkpt lat="46.27447" lon="6.41168">
        <ele>582.59997558594</ele>
        <time>2020-08-05T08:59:15.000Z</time>
      </trkpt>
      <trkpt lat="46.27438" lon="6.41175">
        <ele>582.59997558594</ele>
        <time>2020-08-05T08:59:18.000Z</time>
      </trkpt>
      <trkpt lat="46.27429" lon="6.41182">
        <ele>582.40002441406</ele>
        <time>2020-08-05T08:59:20.000Z</time>
      </trkpt>
      <trkpt lat="46.27422" lon="6.41188">
        <ele>583.20001220703</ele>
        <time>2020-08-05T08:59:22.000Z</time>
      </trkpt>
      <trkpt lat="46.274" lon="6.41202">
        <ele>585</ele>
        <time>2020-08-05T08:59:28.000Z</time>
      </trkpt>
      <trkpt lat="46.27366" lon="6.41224">
        <ele>587.59997558594</ele>
        <time>2020-08-05T08:59:37.000Z</time>
      </trkpt>
      <trkpt lat="46.27354" lon="6.41243">
        <ele>589</ele>
        <time>2020-08-05T08:59:43.000Z</time>
      </trkpt>
      <trkpt lat="46.27343" lon="6.41265">
        <ele>590.40002441406</ele>
        <time>2020-08-05T08:59:49.000Z</time>
      </trkpt>
      <trkpt lat="46.27327" lon="6.41298">
        <ele>592.59997558594</ele>
        <time>2020-08-05T08:59:57.000Z</time>
      </trkpt>
      <trkpt lat="46.27313" lon="6.41329">
        <ele>594.79998779297</ele>
        <time>2020-08-05T09:00:05.000Z</time>
      </trkpt>
      <trkpt lat="46.27299" lon="6.41357">
        <ele>597.40002441406</ele>
        <time>2020-08-05T09:00:14.000Z</time>
      </trkpt>
      <trkpt lat="46.27286" lon="6.41384">
        <ele>600</ele>
        <time>2020-08-05T09:00:23.000Z</time>
      </trkpt>
      <trkpt lat="46.27274" lon="6.41409">
        <ele>602.20001220703</ele>
        <time>2020-08-05T09:00:32.000Z</time>
      </trkpt>
      <trkpt lat="46.27265" lon="6.41425">
        <ele>603.40002441406</ele>
        <time>2020-08-05T09:00:39.000Z</time>
      </trkpt>
      <trkpt lat="46.27254" lon="6.4144">
        <ele>605</ele>
        <time>2020-08-05T09:00:46.000Z</time>
      </trkpt>
      <trkpt lat="46.27242" lon="6.41449">
        <ele>606.40002441406</ele>
        <time>2020-08-05T09:00:53.000Z</time>
      </trkpt>
      <trkpt lat="46.27227" lon="6.4146">
        <ele>608.20001220703</ele>
        <time>2020-08-05T09:01:01.000Z</time>
      </trkpt>
      <trkpt lat="46.27214" lon="6.4147">
        <ele>610</ele>
        <time>2020-08-05T09:01:09.000Z</time>
      </trkpt>
      <trkpt lat="46.27195" lon="6.41484">
        <ele>613.59997558594</ele>
        <time>2020-08-05T09:01:20.000Z</time>
      </trkpt>
      <trkpt lat="46.27179" lon="6.41486">
        <ele>616</ele>
        <time>2020-08-05T09:01:28.000Z</time>
      </trkpt>
      <trkpt lat="46.27164" lon="6.41473">
        <ele>616.79998779297</ele>
        <time>2020-08-05T09:01:36.000Z</time>
      </trkpt>
      <trkpt lat="46.27152" lon="6.41456">
        <ele>616.79998779297</ele>
        <time>2020-08-05T09:01:44.000Z</time>
      </trkpt>
      <trkpt lat="46.27137" lon="6.41435">
        <ele>618.20001220703</ele>
        <time>2020-08-05T09:01:54.000Z</time>
      </trkpt>
      <trkpt lat="46.27124" lon="6.41417">
        <ele>620.20001220703</ele>
        <time>2020-08-05T09:02:02.000Z</time>
      </trkpt>
      <trkpt lat="46.27113" lon="6.41402">
        <ele>622</ele>
        <time>2020-08-05T09:02:10.000Z</time>
      </trkpt>
      <trkpt lat="46.27101" lon="6.41387">
        <ele>622.79998779297</ele>
        <time>2020-08-05T09:02:17.000Z</time>
      </trkpt>
      <trkpt lat="46.27087" lon="6.41377">
        <ele>625.20001220703</ele>
        <time>2020-08-05T09:02:24.000Z</time>
      </trkpt>
      <trkpt lat="46.27072" lon="6.41368">
        <ele>627.79998779297</ele>
        <time>2020-08-05T09:02:31.000Z</time>
      </trkpt>
      <trkpt lat="46.27063" lon="6.41363">
        <ele>629.40002441406</ele>
        <time>2020-08-05T09:02:36.000Z</time>
      </trkpt>
      <trkpt lat="46.27048" lon="6.41356">
        <ele>631</ele>
        <time>2020-08-05T09:02:42.000Z</time>
      </trkpt>
      <trkpt lat="46.27029" lon="6.41349">
        <ele>633.20001220703</ele>
        <time>2020-08-05T09:02:50.000Z</time>
      </trkpt>
      <trkpt lat="46.27015" lon="6.41341">
        <ele>634.40002441406</ele>
        <time>2020-08-05T09:02:57.000Z</time>
      </trkpt>
      <trkpt lat="46.27008" lon="6.41332">
        <ele>633.79998779297</ele>
        <time>2020-08-05T09:03:02.000Z</time>
      </trkpt>
      <trkpt lat="46.26994" lon="6.41314">
        <ele>633.20001220703</ele>
        <time>2020-08-05T09:03:10.000Z</time>
      </trkpt>
      <trkpt lat="46.26978" lon="6.41292">
        <ele>634.59997558594</ele>
        <time>2020-08-05T09:03:20.000Z</time>
      </trkpt>
      <trkpt lat="46.26967" lon="6.41276">
        <ele>635.40002441406</ele>
        <time>2020-08-05T09:03:27.000Z</time>
      </trkpt>
      <trkpt lat="46.26953" lon="6.41261">
        <ele>636.79998779297</ele>
        <time>2020-08-05T09:03:35.000Z</time>
      </trkpt>
      <trkpt lat="46.26934" lon="6.41251">
        <ele>639.59997558594</ele>
        <time>2020-08-05T09:03:44.000Z</time>
      </trkpt>
      <trkpt lat="46.26915" lon="6.41241">
        <ele>642.40002441406</ele>
        <time>2020-08-05T09:03:53.000Z</time>
      </trkpt>
      <trkpt lat="46.26897" lon="6.41232">
        <ele>644.79998779297</ele>
        <time>2020-08-05T09:04:02.000Z</time>
      </trkpt>
      <trkpt lat="46.2689" lon="6.41228">
        <ele>645.79998779297</ele>
        <time>2020-08-05T09:04:05.000Z</time>
      </trkpt>
      <trkpt lat="46.26874" lon="6.4122">
        <ele>647.59997558594</ele>
        <time>2020-08-05T09:04:13.000Z</time>
      </trkpt>
      <trkpt lat="46.26856" lon="6.41205">
        <ele>649</ele>
        <time>2020-08-05T09:04:23.000Z</time>
      </trkpt>
      <trkpt lat="46.26842" lon="6.41193">
        <ele>650</ele>
        <time>2020-08-05T09:04:30.000Z</time>
      </trkpt>
      <trkpt lat="46.26826" lon="6.41179">
        <ele>651.20001220703</ele>
        <time>2020-08-05T09:04:38.000Z</time>
      </trkpt>
      <trkpt lat="46.2681" lon="6.41173">
        <ele>653.40002441406</ele>
        <time>2020-08-05T09:04:46.000Z</time>
      </trkpt>
      <trkpt lat="46.26795" lon="6.41169">
        <ele>655</ele>
        <time>2020-08-05T09:04:53.000Z</time>
      </trkpt>
      <trkpt lat="46.26777" lon="6.41168">
        <ele>657.40002441406</ele>
        <time>2020-08-05T09:05:02.000Z</time>
      </trkpt>
      <trkpt lat="46.26762" lon="6.41167">
        <ele>659.59997558594</ele>
        <time>2020-08-05T09:05:09.000Z</time>
      </trkpt>
      <trkpt lat="46.26746" lon="6.41166">
        <ele>661.79998779297</ele>
        <time>2020-08-05T09:05:17.000Z</time>
      </trkpt>
      <trkpt lat="46.26729" lon="6.41165">
        <ele>665.20001220703</ele>
        <time>2020-08-05T09:05:25.000Z</time>
      </trkpt>
      <trkpt lat="46.26712" lon="6.41164">
        <ele>666.79998779297</ele>
        <time>2020-08-05T09:05:33.000Z</time>
      </trkpt>
      <trkpt lat="46.26694" lon="6.41163">
        <ele>668.20001220703</ele>
        <time>2020-08-05T09:05:42.000Z</time>
      </trkpt>
      <trkpt lat="46.26673" lon="6.41162">
        <ele>670</ele>
        <time>2020-08-05T09:05:52.000Z</time>
      </trkpt>
      <trkpt lat="46.26655" lon="6.41157">
        <ele>670.79998779297</ele>
        <time>2020-08-05T09:06:00.000Z</time>
      </trkpt>
      <trkpt lat="46.26641" lon="6.4115">
        <ele>671</ele>
        <time>2020-08-05T09:06:08.000Z</time>
      </trkpt>
      <trkpt lat="46.26629" lon="6.41145">
        <ele>671.59997558594</ele>
        <time>2020-08-05T09:06:16.000Z</time>
      </trkpt>
      <trkpt lat="46.26622" lon="6.41158">
        <ele>675.20001220703</ele>
        <time>2020-08-05T09:06:22.000Z</time>
      </trkpt>
      <trkpt lat="46.26624" lon="6.41175">
        <ele>678.40002441406</ele>
        <time>2020-08-05T09:06:27.000Z</time>
      </trkpt>
      <trkpt lat="46.2663" lon="6.41197">
        <ele>682</ele>
        <time>2020-08-05T09:06:34.000Z</time>
      </trkpt>
      <trkpt lat="46.26639" lon="6.41211">
        <ele>683.59997558594</ele>
        <time>2020-08-05T09:06:41.000Z</time>
      </trkpt>
      <trkpt lat="46.26653" lon="6.41222">
        <ele>684.20001220703</ele>
        <time>2020-08-05T09:06:48.000Z</time>
      </trkpt>
      <trkpt lat="46.26666" lon="6.41232">
        <ele>684.79998779297</ele>
        <time>2020-08-05T09:06:55.000Z</time>
      </trkpt>
      <trkpt lat="46.26679" lon="6.41249">
        <ele>687.79998779297</ele>
        <time>2020-08-05T09:07:03.000Z</time>
      </trkpt>
      <trkpt lat="46.2669" lon="6.41267">
        <ele>691</ele>
        <time>2020-08-05T09:07:11.000Z</time>
      </trkpt>
      <trkpt lat="46.26699" lon="6.41281">
        <ele>693.59997558594</ele>
        <time>2020-08-05T09:07:18.000Z</time>
      </trkpt>
      <trkpt lat="46.26704" lon="6.41287">
        <ele>694.59997558594</ele>
        <time>2020-08-05T09:07:22.000Z</time>
      </trkpt>
      <trkpt lat="46.26715" lon="6.41298">
        <ele>696.20001220703</ele>
        <time>2020-08-05T09:07:29.000Z</time>
      </trkpt>
      <trkpt lat="46.26726" lon="6.41309">
        <ele>697.79998779297</ele>
        <time>2020-08-05T09:07:35.000Z</time>
      </trkpt>
      <trkpt lat="46.26728" lon="6.41311">
        <ele>698</ele>
        <time>2020-08-05T09:07:36.000Z</time>
      </trkpt>
      <trkpt lat="46.26736" lon="6.41322">
        <ele>698.79998779297</ele>
        <time>2020-08-05T09:07:40.000Z</time>
      </trkpt>
      <trkpt lat="46.26738" lon="6.41327">
        <ele>699.20001220703</ele>
        <time>2020-08-05T09:07:42.000Z</time>
      </trkpt>
      <trkpt lat="46.26741" lon="6.41335">
        <ele>699.79998779297</ele>
        <time>2020-08-05T09:07:45.000Z</time>
      </trkpt>
      <trkpt lat="46.26748" lon="6.41351">
        <ele>701.20001220703</ele>
        <time>2020-08-05T09:07:52.000Z</time>
      </trkpt>
      <trkpt lat="46.26754" lon="6.41367">
        <ele>702.59997558594</ele>
        <time>2020-08-05T09:07:58.000Z</time>
      </trkpt>
      <trkpt lat="46.26761" lon="6.41383">
        <ele>704</ele>
        <time>2020-08-05T09:08:05.000Z</time>
      </trkpt>
      <trkpt lat="46.26767" lon="6.41398">
        <ele>705.40002441406</ele>
        <time>2020-08-05T09:08:11.000Z</time>
      </trkpt>
      <trkpt lat="46.26769" lon="6.41402">
        <ele>705.40002441406</ele>
        <time>2020-08-05T09:08:13.000Z</time>
      </trkpt>
      <trkpt lat="46.26772" lon="6.41409">
        <ele>705.20001220703</ele>
        <time>2020-08-05T09:08:16.000Z</time>
      </trkpt>
      <trkpt lat="46.26774" lon="6.41413">
        <ele>705.20001220703</ele>
        <time>2020-08-05T09:08:18.000Z</time>
      </trkpt>
      <trkpt lat="46.26776" lon="6.4142">
        <ele>705.40002441406</ele>
        <time>2020-08-05T09:08:21.000Z</time>
      </trkpt>
      <trkpt lat="46.26776" lon="6.41423">
        <ele>705.40002441406</ele>
        <time>2020-08-05T09:08:22.000Z</time>
      </trkpt>
      <trkpt lat="46.26777" lon="6.41431">
        <ele>706.20001220703</ele>
        <time>2020-08-05T09:08:26.000Z</time>
      </trkpt>
      <trkpt lat="46.26777" lon="6.41434">
        <ele>706.40002441406</ele>
        <time>2020-08-05T09:08:28.000Z</time>
      </trkpt>
      <trkpt lat="46.26778" lon="6.41444">
        <ele>707.20001220703</ele>
        <time>2020-08-05T09:08:32.000Z</time>
      </trkpt>
      <trkpt lat="46.26778" lon="6.41449">
        <ele>707.59997558594</ele>
        <time>2020-08-05T09:08:34.000Z</time>
      </trkpt>
      <trkpt lat="46.26779" lon="6.41456">
        <ele>708.20001220703</ele>
        <time>2020-08-05T09:08:37.000Z</time>
      </trkpt>
      <trkpt lat="46.26779" lon="6.41458">
        <ele>708.40002441406</ele>
        <time>2020-08-05T09:08:38.000Z</time>
      </trkpt>
      <trkpt lat="46.26779" lon="6.41465">
        <ele>709</ele>
        <time>2020-08-05T09:08:40.000Z</time>
      </trkpt>
      <trkpt lat="46.2678" lon="6.41474">
        <ele>709.79998779297</ele>
        <time>2020-08-05T09:08:43.000Z</time>
      </trkpt>
      <trkpt lat="46.26781" lon="6.41483">
        <ele>710.59997558594</ele>
        <time>2020-08-05T09:08:46.000Z</time>
      </trkpt>
      <trkpt lat="46.26782" lon="6.415">
        <ele>713.20001220703</ele>
        <time>2020-08-05T09:08:52.000Z</time>
      </trkpt>
      <trkpt lat="46.26782" lon="6.41506">
        <ele>714.20001220703</ele>
        <time>2020-08-05T09:08:55.000Z</time>
      </trkpt>
      <trkpt lat="46.26783" lon="6.41512">
        <ele>715</ele>
        <time>2020-08-05T09:08:57.000Z</time>
      </trkpt>
      <trkpt lat="46.26784" lon="6.41527">
        <ele>717.40002441406</ele>
        <time>2020-08-05T09:09:03.000Z</time>
      </trkpt>
      <trkpt lat="46.26786" lon="6.41551">
        <ele>719.79998779297</ele>
        <time>2020-08-05T09:09:09.000Z</time>
      </trkpt>
      <trkpt lat="46.26789" lon="6.41565">
        <ele>720.40002441406</ele>
        <time>2020-08-05T09:09:14.000Z</time>
      </trkpt>
      <trkpt lat="46.26799" lon="6.41581">
        <ele>721</ele>
        <time>2020-08-05T09:09:20.000Z</time>
      </trkpt>
      <trkpt lat="46.26806" lon="6.41592">
        <ele>721.20001220703</ele>
        <time>2020-08-05T09:09:25.000Z</time>
      </trkpt>
      <trkpt lat="46.26813" lon="6.41603">
        <ele>721.20001220703</ele>
        <time>2020-08-05T09:09:29.000Z</time>
      </trkpt>
      <trkpt lat="46.26814" lon="6.41604">
        <ele>721.20001220703</ele>
        <time>2020-08-05T09:09:30.000Z</time>
      </trkpt>
      <trkpt lat="46.26818" lon="6.4161">
        <ele>720.59997558594</ele>
        <time>2020-08-05T09:09:32.000Z</time>
      </trkpt>
      <trkpt lat="46.26819" lon="6.41612">
        <ele>720.40002441406</ele>
        <time>2020-08-05T09:09:33.000Z</time>
      </trkpt>
      <trkpt lat="46.26825" lon="6.41621">
        <ele>719.59997558594</ele>
        <time>2020-08-05T09:09:38.000Z</time>
      </trkpt>
      <trkpt lat="46.26826" lon="6.41623">
        <ele>719.59997558594</ele>
        <time>2020-08-05T09:09:39.000Z</time>
      </trkpt>
      <trkpt lat="46.26829" lon="6.41626">
        <ele>719.20001220703</ele>
        <time>2020-08-05T09:09:41.000Z</time>
      </trkpt>
      <trkpt lat="46.26831" lon="6.41629">
        <ele>719</ele>
        <time>2020-08-05T09:09:43.000Z</time>
      </trkpt>
      <trkpt lat="46.26832" lon="6.4163">
        <ele>718.79998779297</ele>
        <time>2020-08-05T09:09:44.000Z</time>
      </trkpt>
      <trkpt lat="46.26835" lon="6.41648">
        <ele>720.20001220703</ele>
        <time>2020-08-05T09:09:48.000Z</time>
      </trkpt>
      <trkpt lat="46.26835" lon="6.41651">
        <ele>720.40002441406</ele>
        <time>2020-08-05T09:09:49.000Z</time>
      </trkpt>
      <trkpt lat="46.26836" lon="6.41658">
        <ele>720.59997558594</ele>
        <time>2020-08-05T09:09:51.000Z</time>
      </trkpt>
      <trkpt lat="46.26836" lon="6.41666">
        <ele>721.20001220703</ele>
        <time>2020-08-05T09:09:53.000Z</time>
      </trkpt>
      <trkpt lat="46.26835" lon="6.41677">
        <ele>721.79998779297</ele>
        <time>2020-08-05T09:09:58.000Z</time>
      </trkpt>
      <trkpt lat="46.26834" lon="6.41688">
        <ele>722</ele>
        <time>2020-08-05T09:10:01.000Z</time>
      </trkpt>
      <trkpt lat="46.26834" lon="6.41694">
        <ele>722</ele>
        <time>2020-08-05T09:10:03.000Z</time>
      </trkpt>
      <trkpt lat="46.26833" lon="6.41702">
        <ele>722</ele>
        <time>2020-08-05T09:10:08.000Z</time>
      </trkpt>
      <trkpt lat="46.26833" lon="6.41703">
        <ele>722</ele>
        <time>2020-08-05T09:10:09.000Z</time>
      </trkpt>
      <trkpt lat="46.26832" lon="6.41715">
        <ele>722.20001220703</ele>
        <time>2020-08-05T09:10:13.000Z</time>
      </trkpt>
      <trkpt lat="46.26832" lon="6.41718">
        <ele>722.20001220703</ele>
        <time>2020-08-05T09:10:14.000Z</time>
      </trkpt>
      <trkpt lat="46.26831" lon="6.41725">
        <ele>722.20001220703</ele>
        <time>2020-08-05T09:10:17.000Z</time>
      </trkpt>
      <trkpt lat="46.2683" lon="6.41736">
        <ele>722.40002441406</ele>
        <time>2020-08-05T09:10:21.000Z</time>
      </trkpt>
      <trkpt lat="46.26829" lon="6.41746">
        <ele>722.40002441406</ele>
        <time>2020-08-05T09:10:26.000Z</time>
      </trkpt>
      <trkpt lat="46.26828" lon="6.41766">
        <ele>722.79998779297</ele>
        <time>2020-08-05T09:10:33.000Z</time>
      </trkpt>
      <trkpt lat="46.26818" lon="6.41787">
        <ele>725.59997558594</ele>
        <time>2020-08-05T09:10:39.000Z</time>
      </trkpt>
      <trkpt lat="46.26811" lon="6.41802">
        <ele>727.59997558594</ele>
        <time>2020-08-05T09:10:42.000Z</time>
      </trkpt>
      <trkpt lat="46.26807" lon="6.41809">
        <ele>728.59997558594</ele>
        <time>2020-08-05T09:10:44.000Z</time>
      </trkpt>
      <trkpt lat="46.26798" lon="6.4183">
        <ele>732</ele>
        <time>2020-08-05T09:10:50.000Z</time>
      </trkpt>
      <trkpt lat="46.26797" lon="6.41843">
        <ele>732.79998779297</ele>
        <time>2020-08-05T09:10:54.000Z</time>
      </trkpt>
      <trkpt lat="46.26797" lon="6.41846">
        <ele>733</ele>
        <time>2020-08-05T09:10:55.000Z</time>
      </trkpt>
      <trkpt lat="46.26796" lon="6.41858">
        <ele>733.79998779297</ele>
        <time>2020-08-05T09:10:59.000Z</time>
      </trkpt>
      <trkpt lat="46.26795" lon="6.41871">
        <ele>734.59997558594</ele>
        <time>2020-08-05T09:11:04.000Z</time>
      </trkpt>
      <trkpt lat="46.26795" lon="6.41878">
        <ele>735</ele>
        <time>2020-08-05T09:11:08.000Z</time>
      </trkpt>
      <trkpt lat="46.26793" lon="6.41883">
        <ele>735.40002441406</ele>
        <time>2020-08-05T09:11:12.000Z</time>
      </trkpt>
      <trkpt lat="46.26789" lon="6.41893">
        <ele>736.59997558594</ele>
        <time>2020-08-05T09:11:17.000Z</time>
      </trkpt>
      <trkpt lat="46.26784" lon="6.41906">
        <ele>737.59997558594</ele>
        <time>2020-08-05T09:11:22.000Z</time>
      </trkpt>
      <trkpt lat="46.26778" lon="6.41922">
        <ele>738.40002441406</ele>
        <time>2020-08-05T09:11:28.000Z</time>
      </trkpt>
      <trkpt lat="46.26773" lon="6.41943">
        <ele>738.40002441406</ele>
        <time>2020-08-05T09:11:33.000Z</time>
      </trkpt>
      <trkpt lat="46.26772" lon="6.41963">
        <ele>738.59997558594</ele>
        <time>2020-08-05T09:11:38.000Z</time>
      </trkpt>
      <trkpt lat="46.2677" lon="6.4198">
        <ele>738.79998779297</ele>
        <time>2020-08-05T09:11:43.000Z</time>
      </trkpt>
      <trkpt lat="46.26768" lon="6.41993">
        <ele>739.40002441406</ele>
        <time>2020-08-05T09:11:46.000Z</time>
      </trkpt>
      <trkpt lat="46.26746" lon="6.41996">
        <ele>746.20001220703</ele>
        <time>2020-08-05T09:11:48.000Z</time>
      </trkpt>
      <trkpt lat="46.26746" lon="6.41982">
        <ele>746.79998779297</ele>
        <time>2020-08-05T09:11:53.000Z</time>
      </trkpt>
      <trkpt lat="46.26746" lon="6.41968">
        <ele>746.79998779297</ele>
        <time>2020-08-05T09:11:58.000Z</time>
      </trkpt>
      <trkpt lat="46.26745" lon="6.41954">
        <ele>747.20001220703</ele>
        <time>2020-08-05T09:12:03.000Z</time>
      </trkpt>
      <trkpt lat="46.26743" lon="6.41936">
        <ele>748.20001220703</ele>
        <time>2020-08-05T09:12:09.000Z</time>
      </trkpt>
      <trkpt lat="46.2674" lon="6.41918">
        <ele>749.20001220703</ele>
        <time>2020-08-05T09:12:15.000Z</time>
      </trkpt>
      <trkpt lat="46.26739" lon="6.41907">
        <ele>749.79998779297</ele>
        <time>2020-08-05T09:12:19.000Z</time>
      </trkpt>
      <trkpt lat="46.26737" lon="6.41895">
        <ele>750.79998779297</ele>
        <time>2020-08-05T09:12:23.000Z</time>
      </trkpt>
      <trkpt lat="46.26735" lon="6.41877">
        <ele>751.40002441406</ele>
        <time>2020-08-05T09:12:29.000Z</time>
      </trkpt>
      <trkpt lat="46.26733" lon="6.41859">
        <ele>752</ele>
        <time>2020-08-05T09:12:35.000Z</time>
      </trkpt>
      <trkpt lat="46.26731" lon="6.41843">
        <ele>752.59997558594</ele>
        <time>2020-08-05T09:12:40.000Z</time>
      </trkpt>
      <trkpt lat="46.2673" lon="6.41837">
        <ele>752.79998779297</ele>
        <time>2020-08-05T09:12:42.000Z</time>
      </trkpt>
      <trkpt lat="46.26729" lon="6.41831">
        <ele>753</ele>
        <time>2020-08-05T09:12:44.000Z</time>
      </trkpt>
      <trkpt lat="46.26724" lon="6.41816">
        <ele>754.59997558594</ele>
        <time>2020-08-05T09:12:49.000Z</time>
      </trkpt>
      <trkpt lat="46.26721" lon="6.41807">
        <ele>755</ele>
        <time>2020-08-05T09:12:54.000Z</time>
      </trkpt>
      <trkpt lat="46.26715" lon="6.41792">
        <ele>756</ele>
        <time>2020-08-05T09:12:59.000Z</time>
      </trkpt>
      <trkpt lat="46.2671" lon="6.41779">
        <ele>757.20001220703</ele>
        <time>2020-08-05T09:13:04.000Z</time>
      </trkpt>
      <trkpt lat="46.26702" lon="6.4177">
        <ele>758.79998779297</ele>
        <time>2020-08-05T09:13:09.000Z</time>
      </trkpt>
      <trkpt lat="46.26694" lon="6.41759">
        <ele>760.59997558594</ele>
        <time>2020-08-05T09:13:15.000Z</time>
      </trkpt>
      <trkpt lat="46.26682" lon="6.41745">
        <ele>763.20001220703</ele>
        <time>2020-08-05T09:13:22.000Z</time>
      </trkpt>
      <trkpt lat="46.26672" lon="6.41732">
        <ele>765.40002441406</ele>
        <time>2020-08-05T09:13:28.000Z</time>
      </trkpt>
      <trkpt lat="46.26659" lon="6.41715">
        <ele>765</ele>
        <time>2020-08-05T09:13:35.000Z</time>
      </trkpt>
      <trkpt lat="46.26646" lon="6.41696">
        <ele>763.79998779297</ele>
        <time>2020-08-05T09:13:42.000Z</time>
      </trkpt>
      <trkpt lat="46.26634" lon="6.41675">
        <ele>762.20001220703</ele>
        <time>2020-08-05T09:13:50.000Z</time>
      </trkpt>
      <trkpt lat="46.26621" lon="6.41659">
        <ele>761.59997558594</ele>
        <time>2020-08-05T09:13:57.000Z</time>
      </trkpt>
      <trkpt lat="46.2661" lon="6.41653">
        <ele>763</ele>
        <time>2020-08-05T09:14:02.000Z</time>
      </trkpt>
      <trkpt lat="46.26591" lon="6.4165">
        <ele>767.20001220703</ele>
        <time>2020-08-05T09:14:11.000Z</time>
      </trkpt>
      <trkpt lat="46.26577" lon="6.41647">
        <ele>770.20001220703</ele>
        <time>2020-08-05T09:14:18.000Z</time>
      </trkpt>
      <trkpt lat="46.26563" lon="6.41645">
        <ele>773.20001220703</ele>
        <time>2020-08-05T09:14:24.000Z</time>
      </trkpt>
      <trkpt lat="46.26553" lon="6.41643">
        <ele>774.40002441406</ele>
        <time>2020-08-05T09:14:29.000Z</time>
      </trkpt>
      <trkpt lat="46.26539" lon="6.41635">
        <ele>775</ele>
        <time>2020-08-05T09:14:35.000Z</time>
      </trkpt>
      <trkpt lat="46.26524" lon="6.41622">
        <ele>774.79998779297</ele>
        <time>2020-08-05T09:14:43.000Z</time>
      </trkpt>
      <trkpt lat="46.26512" lon="6.41611">
        <ele>774.59997558594</ele>
        <time>2020-08-05T09:14:50.000Z</time>
      </trkpt>
      <trkpt lat="46.26495" lon="6.41605">
        <ele>775.79998779297</ele>
        <time>2020-08-05T09:14:58.000Z</time>
      </trkpt>
      <trkpt lat="46.26476" lon="6.41602">
        <ele>778</ele>
        <time>2020-08-05T09:15:07.000Z</time>
      </trkpt>
      <trkpt lat="46.26457" lon="6.416">
        <ele>779.59997558594</ele>
        <time>2020-08-05T09:15:16.000Z</time>
      </trkpt>
      <trkpt lat="46.26442" lon="6.41598">
        <ele>781</ele>
        <time>2020-08-05T09:15:23.000Z</time>
      </trkpt>
      <trkpt lat="46.26427" lon="6.41601">
        <ele>783.20001220703</ele>
        <time>2020-08-05T09:15:30.000Z</time>
      </trkpt>
      <trkpt lat="46.2641" lon="6.41608">
        <ele>787.20001220703</ele>
        <time>2020-08-05T09:15:38.000Z</time>
      </trkpt>
      <trkpt lat="46.26401" lon="6.41612">
        <ele>789.40002441406</ele>
        <time>2020-08-05T09:15:43.000Z</time>
      </trkpt>
      <trkpt lat="46.26391" lon="6.41617">
        <ele>792.59997558594</ele>
        <time>2020-08-05T09:15:48.000Z</time>
      </trkpt>
      <trkpt lat="46.26376" lon="6.41624">
        <ele>798.20001220703</ele>
        <time>2020-08-05T09:15:55.000Z</time>
      </trkpt>
      <trkpt lat="46.26362" lon="6.4163">
        <ele>801.59997558594</ele>
        <time>2020-08-05T09:16:02.000Z</time>
      </trkpt>
      <trkpt lat="46.26344" lon="6.41638">
        <ele>805.20001220703</ele>
        <time>2020-08-05T09:16:11.000Z</time>
      </trkpt>
      <trkpt lat="46.26334" lon="6.41646">
        <ele>807.59997558594</ele>
        <time>2020-08-05T09:16:17.000Z</time>
      </trkpt>
      <trkpt lat="46.26327" lon="6.41657">
        <ele>810</ele>
        <time>2020-08-05T09:16:22.000Z</time>
      </trkpt>
      <trkpt lat="46.26331" lon="6.41669">
        <ele>811.40002441406</ele>
        <time>2020-08-05T09:16:27.000Z</time>
      </trkpt>
      <trkpt lat="46.26344" lon="6.41675">
        <ele>810.20001220703</ele>
        <time>2020-08-05T09:16:32.000Z</time>
      </trkpt>
      <trkpt lat="46.2636" lon="6.41681">
        <ele>808.59997558594</ele>
        <time>2020-08-05T09:16:39.000Z</time>
      </trkpt>
      <trkpt lat="46.26374" lon="6.41691">
        <ele>808</ele>
        <time>2020-08-05T09:16:46.000Z</time>
      </trkpt>
      <trkpt lat="46.26386" lon="6.417">
        <ele>807.59997558594</ele>
        <time>2020-08-05T09:16:53.000Z</time>
      </trkpt>
      <trkpt lat="46.26399" lon="6.4171">
        <ele>807.20001220703</ele>
        <time>2020-08-05T09:17:00.000Z</time>
      </trkpt>
      <trkpt lat="46.2641" lon="6.41718">
        <ele>806.79998779297</ele>
        <time>2020-08-05T09:17:05.000Z</time>
      </trkpt>
      <trkpt lat="46.26423" lon="6.41728">
        <ele>806.59997558594</ele>
        <time>2020-08-05T09:17:12.000Z</time>
      </trkpt>
      <trkpt lat="46.26436" lon="6.41738">
        <ele>806</ele>
        <time>2020-08-05T09:17:19.000Z</time>
      </trkpt>
      <trkpt lat="46.26452" lon="6.4175">
        <ele>805.40002441406</ele>
        <time>2020-08-05T09:17:27.000Z</time>
      </trkpt>
      <trkpt lat="46.26463" lon="6.41759">
        <ele>804.79998779297</ele>
        <time>2020-08-05T09:17:33.000Z</time>
      </trkpt>
      <trkpt lat="46.26471" lon="6.41777">
        <ele>806.20001220703</ele>
        <time>2020-08-05T09:17:39.000Z</time>
      </trkpt>
      <trkpt lat="46.26473" lon="6.41802">
        <ele>809.20001220703</ele>
        <time>2020-08-05T09:17:47.000Z</time>
      </trkpt>
      <trkpt lat="46.26479" lon="6.41819">
        <ele>810.40002441406</ele>
        <time>2020-08-05T09:17:53.000Z</time>
      </trkpt>
      <trkpt lat="46.26493" lon="6.41848">
        <ele>810.59997558594</ele>
        <time>2020-08-05T09:18:04.000Z</time>
      </trkpt>
      <trkpt lat="46.265" lon="6.41864">
        <ele>810.79998779297</ele>
        <time>2020-08-05T09:18:10.000Z</time>
      </trkpt>
      <trkpt lat="46.26511" lon="6.41888">
        <ele>811</ele>
        <time>2020-08-05T09:18:19.000Z</time>
      </trkpt>
      <trkpt lat="46.26518" lon="6.41912">
        <ele>812.20001220703</ele>
        <time>2020-08-05T09:18:27.000Z</time>
      </trkpt>
      <trkpt lat="46.26519" lon="6.41941">
        <ele>815.20001220703</ele>
        <time>2020-08-05T09:18:36.000Z</time>
      </trkpt>
      <trkpt lat="46.26519" lon="6.41957">
        <ele>817.40002441406</ele>
        <time>2020-08-05T09:18:41.000Z</time>
      </trkpt>
      <trkpt lat="46.26515" lon="6.41973">
        <ele>821</ele>
        <time>2020-08-05T09:18:46.000Z</time>
      </trkpt>
      <trkpt lat="46.26506" lon="6.41971">
        <ele>822.59997558594</ele>
        <time>2020-08-05T09:18:49.000Z</time>
      </trkpt>
      <trkpt lat="46.26504" lon="6.41967">
        <ele>822.59997558594</ele>
        <time>2020-08-05T09:18:51.000Z</time>
      </trkpt>
      <trkpt lat="46.26496" lon="6.41955">
        <ele>823</ele>
        <time>2020-08-05T09:18:57.000Z</time>
      </trkpt>
      <trkpt lat="46.26484" lon="6.41941">
        <ele>823.79998779297</ele>
        <time>2020-08-05T09:19:04.000Z</time>
      </trkpt>
      <trkpt lat="46.26471" lon="6.41938">
        <ele>825.59997558594</ele>
        <time>2020-08-05T09:19:10.000Z</time>
      </trkpt>
      <trkpt lat="46.26453" lon="6.41948">
        <ele>829</ele>
        <time>2020-08-05T09:19:19.000Z</time>
      </trkpt>
      <trkpt lat="46.26437" lon="6.41956">
        <ele>831.79998779297</ele>
        <time>2020-08-05T09:19:27.000Z</time>
      </trkpt>
      <trkpt lat="46.26422" lon="6.41963">
        <ele>834.59997558594</ele>
        <time>2020-08-05T09:19:34.000Z</time>
      </trkpt>
      <trkpt lat="46.26407" lon="6.41967">
        <ele>836.79998779297</ele>
        <time>2020-08-05T09:19:41.000Z</time>
      </trkpt>
      <trkpt lat="46.26391" lon="6.41967">
        <ele>838.59997558594</ele>
        <time>2020-08-05T09:19:49.000Z</time>
      </trkpt>
      <trkpt lat="46.26376" lon="6.4196">
        <ele>839.59997558594</ele>
        <time>2020-08-05T09:19:56.000Z</time>
      </trkpt>
      <trkpt lat="46.26363" lon="6.41955">
        <ele>841</ele>
        <time>2020-08-05T09:20:03.000Z</time>
      </trkpt>
      <trkpt lat="46.26351" lon="6.41952">
        <ele>842.40002441406</ele>
        <time>2020-08-05T09:20:09.000Z</time>
      </trkpt>
      <trkpt lat="46.26332" lon="6.41948">
        <ele>844.79998779297</ele>
        <time>2020-08-05T09:20:17.000Z</time>
      </trkpt>
      <trkpt lat="46.26318" lon="6.41945">
        <ele>846.40002441406</ele>
        <time>2020-08-05T09:20:25.000Z</time>
      </trkpt>
      <trkpt lat="46.26312" lon="6.41953">
        <ele>848.79998779297</ele>
        <time>2020-08-05T09:20:31.000Z</time>
      </trkpt>
      <trkpt lat="46.2631" lon="6.41964">
        <ele>850.79998779297</ele>
        <time>2020-08-05T09:20:36.000Z</time>
      </trkpt>
      <trkpt lat="46.26318" lon="6.41985">
        <ele>852.59997558594</ele>
        <time>2020-08-05T09:20:44.000Z</time>
      </trkpt>
      <trkpt lat="46.26327" lon="6.41995">
        <ele>852.40002441406</ele>
        <time>2020-08-05T09:20:49.000Z</time>
      </trkpt>
      <trkpt lat="46.26338" lon="6.42006">
        <ele>852</ele>
        <time>2020-08-05T09:20:55.000Z</time>
      </trkpt>
      <trkpt lat="46.26347" lon="6.4202">
        <ele>852</ele>
        <time>2020-08-05T09:21:01.000Z</time>
      </trkpt>
      <trkpt lat="46.2635" lon="6.4204">
        <ele>853.20001220703</ele>
        <time>2020-08-05T09:21:07.000Z</time>
      </trkpt>
      <trkpt lat="46.26343" lon="6.42058">
        <ele>855.20001220703</ele>
        <time>2020-08-05T09:21:13.000Z</time>
      </trkpt>
      <trkpt lat="46.26334" lon="6.42079">
        <ele>858.59997558594</ele>
        <time>2020-08-05T09:21:21.000Z</time>
      </trkpt>
      <trkpt lat="46.26332" lon="6.421">
        <ele>861.40002441406</ele>
        <time>2020-08-05T09:21:27.000Z</time>
      </trkpt>
      <trkpt lat="46.26337" lon="6.42117">
        <ele>862.79998779297</ele>
        <time>2020-08-05T09:21:33.000Z</time>
      </trkpt>
      <trkpt lat="46.26341" lon="6.42133">
        <ele>864.40002441406</ele>
        <time>2020-08-05T09:21:39.000Z</time>
      </trkpt>
      <trkpt lat="46.26348" lon="6.42154">
        <ele>866.59997558594</ele>
        <time>2020-08-05T09:21:47.000Z</time>
      </trkpt>
      <trkpt lat="46.26356" lon="6.4218">
        <ele>869.79998779297</ele>
        <time>2020-08-05T09:21:56.000Z</time>
      </trkpt>
      <trkpt lat="46.2636" lon="6.42193">
        <ele>871.40002441406</ele>
        <time>2020-08-05T09:22:01.000Z</time>
      </trkpt>
      <trkpt lat="46.26367" lon="6.42217">
        <ele>873.20001220703</ele>
        <time>2020-08-05T09:22:09.000Z</time>
      </trkpt>
      <trkpt lat="46.26375" lon="6.42243">
        <ele>877</ele>
        <time>2020-08-05T09:22:16.000Z</time>
      </trkpt>
      <trkpt lat="46.2638" lon="6.4226">
        <ele>881</ele>
        <time>2020-08-05T09:22:22.000Z</time>
      </trkpt>
      <trkpt lat="46.26388" lon="6.42269">
        <ele>883</ele>
        <time>2020-08-05T09:22:27.000Z</time>
      </trkpt>
      <trkpt lat="46.26403" lon="6.42278">
        <ele>884.40002441406</ele>
        <time>2020-08-05T09:22:33.000Z</time>
      </trkpt>
      <trkpt lat="46.26417" lon="6.42272">
        <ele>881.79998779297</ele>
        <time>2020-08-05T09:22:39.000Z</time>
      </trkpt>
      <trkpt lat="46.26434" lon="6.42264">
        <ele>879.20001220703</ele>
        <time>2020-08-05T09:22:46.000Z</time>
      </trkpt>
      <trkpt lat="46.26451" lon="6.42256">
        <ele>878.79998779297</ele>
        <time>2020-08-05T09:22:54.000Z</time>
      </trkpt>
      <trkpt lat="46.26465" lon="6.4225">
        <ele>878.59997558594</ele>
        <time>2020-08-05T09:23:01.000Z</time>
      </trkpt>
      <trkpt lat="46.26471" lon="6.42247">
        <ele>878.40002441406</ele>
        <time>2020-08-05T09:23:07.000Z</time>
      </trkpt>
      <trkpt lat="46.26473" lon="6.42246">
        <ele>878.40002441406</ele>
        <time>2020-08-05T09:23:10.000Z</time>
      </trkpt>
      <trkpt lat="46.26475" lon="6.42249">
        <ele>878.79998779297</ele>
        <time>2020-08-05T09:23:12.000Z</time>
      </trkpt>
      <trkpt lat="46.26476" lon="6.4225">
        <ele>879</ele>
        <time>2020-08-05T09:23:13.000Z</time>
      </trkpt>
      <trkpt lat="46.2648" lon="6.42256">
        <ele>879.59997558594</ele>
        <time>2020-08-05T09:23:16.000Z</time>
      </trkpt>
      <trkpt lat="46.26481" lon="6.42258">
        <ele>879.79998779297</ele>
        <time>2020-08-05T09:23:17.000Z</time>
      </trkpt>
      <trkpt lat="46.26483" lon="6.42266">
        <ele>879.79998779297</ele>
        <time>2020-08-05T09:23:20.000Z</time>
      </trkpt>
      <trkpt lat="46.26489" lon="6.42285">
        <ele>880</ele>
        <time>2020-08-05T09:23:27.000Z</time>
      </trkpt>
      <trkpt lat="46.26492" lon="6.42297">
        <ele>880.20001220703</ele>
        <time>2020-08-05T09:23:32.000Z</time>
      </trkpt>
      <trkpt lat="46.26493" lon="6.423">
        <ele>880.20001220703</ele>
        <time>2020-08-05T09:23:33.000Z</time>
      </trkpt>
      <trkpt lat="46.26499" lon="6.42319">
        <ele>880</ele>
        <time>2020-08-05T09:23:40.000Z</time>
      </trkpt>
      <trkpt lat="46.265" lon="6.42321">
        <ele>879.79998779297</ele>
        <time>2020-08-05T09:23:41.000Z</time>
      </trkpt>
      <trkpt lat="46.26501" lon="6.42327">
        <ele>879.20001220703</ele>
        <time>2020-08-05T09:23:43.000Z</time>
      </trkpt>
      <trkpt lat="46.26507" lon="6.42346">
        <ele>877.59997558594</ele>
        <time>2020-08-05T09:23:49.000Z</time>
      </trkpt>
      <trkpt lat="46.26511" lon="6.42358">
        <ele>877</ele>
        <time>2020-08-05T09:23:54.000Z</time>
      </trkpt>
      <trkpt lat="46.26506" lon="6.42389">
        <ele>881</ele>
        <time>2020-08-05T09:24:01.000Z</time>
      </trkpt>
      <trkpt lat="46.26496" lon="6.42398">
        <ele>886</ele>
        <time>2020-08-05T09:24:08.000Z</time>
      </trkpt>
      <trkpt lat="46.26489" lon="6.42411">
        <ele>890.59997558594</ele>
        <time>2020-08-05T09:24:14.000Z</time>
      </trkpt>
      <trkpt lat="46.26482" lon="6.42429">
        <ele>894</ele>
        <time>2020-08-05T09:24:20.000Z</time>
      </trkpt>
      <trkpt lat="46.26474" lon="6.42448">
        <ele>897.20001220703</ele>
        <time>2020-08-05T09:24:27.000Z</time>
      </trkpt>
      <trkpt lat="46.26466" lon="6.42469">
        <ele>900</ele>
        <time>2020-08-05T09:24:34.000Z</time>
      </trkpt>
      <trkpt lat="46.2646" lon="6.42484">
        <ele>904</ele>
        <time>2020-08-05T09:24:39.000Z</time>
      </trkpt>
      <trkpt lat="46.26453" lon="6.42506">
        <ele>909</ele>
        <time>2020-08-05T09:24:45.000Z</time>
      </trkpt>
      <trkpt lat="46.26454" lon="6.42523">
        <ele>911</ele>
        <time>2020-08-05T09:24:51.000Z</time>
      </trkpt>
      <trkpt lat="46.26455" lon="6.42541">
        <ele>913.20001220703</ele>
        <time>2020-08-05T09:24:57.000Z</time>
      </trkpt>
      <trkpt lat="46.26456" lon="6.42561">
        <ele>914.40002441406</ele>
        <time>2020-08-05T09:25:04.000Z</time>
      </trkpt>
      <trkpt lat="46.26456" lon="6.42567">
        <ele>914.79998779297</ele>
        <time>2020-08-05T09:25:06.000Z</time>
      </trkpt>
      <trkpt lat="46.26456" lon="6.42574">
        <ele>916</ele>
        <time>2020-08-05T09:25:09.000Z</time>
      </trkpt>
      <trkpt lat="46.26456" lon="6.42578">
        <ele>916.59997558594</ele>
        <time>2020-08-05T09:25:11.000Z</time>
      </trkpt>
      <trkpt lat="46.26457" lon="6.42589">
        <ele>918.20001220703</ele>
        <time>2020-08-05T09:25:14.000Z</time>
      </trkpt>
      <trkpt lat="46.26457" lon="6.42605">
        <ele>920.40002441406</ele>
        <time>2020-08-05T09:25:18.000Z</time>
      </trkpt>
      <trkpt lat="46.26466" lon="6.42622">
        <ele>921.20001220703</ele>
        <time>2020-08-05T09:25:25.000Z</time>
      </trkpt>
      <trkpt lat="46.26475" lon="6.42642">
        <ele>922</ele>
        <time>2020-08-05T09:25:34.000Z</time>
      </trkpt>
      <trkpt lat="46.26478" lon="6.42656">
        <ele>923</ele>
        <time>2020-08-05T09:25:40.000Z</time>
      </trkpt>
      <trkpt lat="46.26478" lon="6.42674">
        <ele>924.59997558594</ele>
        <time>2020-08-05T09:25:46.000Z</time>
      </trkpt>
      <trkpt lat="46.26478" lon="6.42695">
        <ele>926.40002441406</ele>
        <time>2020-08-05T09:25:54.000Z</time>
      </trkpt>
      <trkpt lat="46.26477" lon="6.42716">
        <ele>928</ele>
        <time>2020-08-05T09:26:01.000Z</time>
      </trkpt>
      <trkpt lat="46.26477" lon="6.42733">
        <ele>929.59997558594</ele>
        <time>2020-08-05T09:26:07.000Z</time>
      </trkpt>
      <trkpt lat="46.26477" lon="6.42747">
        <ele>930.20001220703</ele>
        <time>2020-08-05T09:26:13.000Z</time>
      </trkpt>
      <trkpt lat="46.26477" lon="6.42765">
        <ele>931.20001220703</ele>
        <time>2020-08-05T09:26:19.000Z</time>
      </trkpt>
      <trkpt lat="46.26477" lon="6.42767">
        <ele>931.20001220703</ele>
        <time>2020-08-05T09:26:20.000Z</time>
      </trkpt>
      <trkpt lat="46.26477" lon="6.42779">
        <ele>931.79998779297</ele>
        <time>2020-08-05T09:26:24.000Z</time>
      </trkpt>
      <trkpt lat="46.26477" lon="6.42795">
        <ele>932.59997558594</ele>
        <time>2020-08-05T09:26:29.000Z</time>
      </trkpt>
      <trkpt lat="46.26477" lon="6.42814">
        <ele>933.59997558594</ele>
        <time>2020-08-05T09:26:36.000Z</time>
      </trkpt>
      <trkpt lat="46.26476" lon="6.42833">
        <ele>934.59997558594</ele>
        <time>2020-08-05T09:26:43.000Z</time>
      </trkpt>
      <trkpt lat="46.26476" lon="6.42848">
        <ele>935.20001220703</ele>
        <time>2020-08-05T09:26:49.000Z</time>
      </trkpt>
      <trkpt lat="46.26476" lon="6.42863">
        <ele>936</ele>
        <time>2020-08-05T09:26:55.000Z</time>
      </trkpt>
      <trkpt lat="46.26476" lon="6.42881">
        <ele>937</ele>
        <time>2020-08-05T09:27:02.000Z</time>
      </trkpt>
      <trkpt lat="46.26476" lon="6.42899">
        <ele>937.79998779297</ele>
        <time>2020-08-05T09:27:08.000Z</time>
      </trkpt>
      <trkpt lat="46.26471" lon="6.42921">
        <ele>938.59997558594</ele>
        <time>2020-08-05T09:27:14.000Z</time>
      </trkpt>
      <trkpt lat="46.26465" lon="6.42948">
        <ele>939.59997558594</ele>
        <time>2020-08-05T09:27:21.000Z</time>
      </trkpt>
      <trkpt lat="46.26458" lon="6.42978">
        <ele>940.40002441406</ele>
        <time>2020-08-05T09:27:29.000Z</time>
      </trkpt>
      <trkpt lat="46.26452" lon="6.43003">
        <ele>941.59997558594</ele>
        <time>2020-08-05T09:27:36.000Z</time>
      </trkpt>
      <trkpt lat="46.26447" lon="6.43028">
        <ele>942.59997558594</ele>
        <time>2020-08-05T09:27:42.000Z</time>
      </trkpt>
      <trkpt lat="46.2644" lon="6.43056">
        <ele>943.20001220703</ele>
        <time>2020-08-05T09:27:48.000Z</time>
      </trkpt>
      <trkpt lat="46.26438" lon="6.43084">
        <ele>943.40002441406</ele>
        <time>2020-08-05T09:27:53.000Z</time>
      </trkpt>
      <trkpt lat="46.26438" lon="6.4309">
        <ele>943.59997558594</ele>
        <time>2020-08-05T09:27:54.000Z</time>
      </trkpt>
      <trkpt lat="46.26437" lon="6.43103">
        <ele>943.79998779297</ele>
        <time>2020-08-05T09:27:56.000Z</time>
      </trkpt>
      <trkpt lat="46.26436" lon="6.4311">
        <ele>943.59997558594</ele>
        <time>2020-08-05T09:27:57.000Z</time>
      </trkpt>
      <trkpt lat="46.26433" lon="6.43154">
        <ele>942.79998779297</ele>
        <time>2020-08-05T09:28:02.000Z</time>
      </trkpt>
      <trkpt lat="46.26432" lon="6.43163">
        <ele>942.79998779297</ele>
        <time>2020-08-05T09:28:03.000Z</time>
      </trkpt>
      <trkpt lat="46.26427" lon="6.43185">
        <ele>943.40002441406</ele>
        <time>2020-08-05T09:28:06.000Z</time>
      </trkpt>
      <trkpt lat="46.26416" lon="6.43211">
        <ele>944.20001220703</ele>
        <time>2020-08-05T09:28:11.000Z</time>
      </trkpt>
      <trkpt lat="46.2641" lon="6.43225">
        <ele>944.40002441406</ele>
        <time>2020-08-05T09:28:15.000Z</time>
      </trkpt>
      <trkpt lat="46.26409" lon="6.43228">
        <ele>944.59997558594</ele>
        <time>2020-08-05T09:28:16.000Z</time>
      </trkpt>
      <trkpt lat="46.26403" lon="6.43243">
        <ele>944.59997558594</ele>
        <time>2020-08-05T09:28:22.000Z</time>
      </trkpt>
      <trkpt lat="46.26399" lon="6.43253">
        <ele>945</ele>
        <time>2020-08-05T09:28:26.000Z</time>
      </trkpt>
      <trkpt lat="46.26397" lon="6.43257">
        <ele>945.20001220703</ele>
        <time>2020-08-05T09:28:28.000Z</time>
      </trkpt>
      <trkpt lat="46.26392" lon="6.43269">
        <ele>947.40002441406</ele>
        <time>2020-08-05T09:28:33.000Z</time>
      </trkpt>
      <trkpt lat="46.2639" lon="6.43275">
        <ele>948.59997558594</ele>
        <time>2020-08-05T09:28:36.000Z</time>
      </trkpt>
      <trkpt lat="46.26388" lon="6.4328">
        <ele>949.59997558594</ele>
        <time>2020-08-05T09:28:38.000Z</time>
      </trkpt>
      <trkpt lat="46.2638" lon="6.43297">
        <ele>953.20001220703</ele>
        <time>2020-08-05T09:28:44.000Z</time>
      </trkpt>
      <trkpt lat="46.26373" lon="6.43321">
        <ele>958.59997558594</ele>
        <time>2020-08-05T09:28:51.000Z</time>
      </trkpt>
      <trkpt lat="46.26369" lon="6.4334">
        <ele>961.40002441406</ele>
        <time>2020-08-05T09:28:57.000Z</time>
      </trkpt>
      <trkpt lat="46.26367" lon="6.43356">
        <ele>963.79998779297</ele>
        <time>2020-08-05T09:29:02.000Z</time>
      </trkpt>
      <trkpt lat="46.26363" lon="6.43378">
        <ele>965.20001220703</ele>
        <time>2020-08-05T09:29:09.000Z</time>
      </trkpt>
      <trkpt lat="46.2636" lon="6.43398">
        <ele>964.59997558594</ele>
        <time>2020-08-05T09:29:15.000Z</time>
      </trkpt>
      <trkpt lat="46.26357" lon="6.4342">
        <ele>966.20001220703</ele>
        <time>2020-08-05T09:29:21.000Z</time>
      </trkpt>
      <trkpt lat="46.26353" lon="6.4344">
        <ele>968</ele>
        <time>2020-08-05T09:29:27.000Z</time>
      </trkpt>
      <trkpt lat="46.26353" lon="6.43458">
        <ele>967.59997558594</ele>
        <time>2020-08-05T09:29:32.000Z</time>
      </trkpt>
      <trkpt lat="46.26353" lon="6.43477">
        <ele>966.79998779297</ele>
        <time>2020-08-05T09:29:38.000Z</time>
      </trkpt>
      <trkpt lat="46.26355" lon="6.43498">
        <ele>967</ele>
        <time>2020-08-05T09:29:44.000Z</time>
      </trkpt>
      <trkpt lat="46.2636" lon="6.43515">
        <ele>966</ele>
        <time>2020-08-05T09:29:50.000Z</time>
      </trkpt>
      <trkpt lat="46.26366" lon="6.43533">
        <ele>964.79998779297</ele>
        <time>2020-08-05T09:29:55.000Z</time>
      </trkpt>
      <trkpt lat="46.26373" lon="6.43553">
        <ele>963.20001220703</ele>
        <time>2020-08-05T09:30:03.000Z</time>
      </trkpt>
      <trkpt lat="46.26376" lon="6.43563">
        <ele>962.20001220703</ele>
        <time>2020-08-05T09:30:09.000Z</time>
      </trkpt>
      <trkpt lat="46.26384" lon="6.43585">
        <ele>961.20001220703</ele>
        <time>2020-08-05T09:30:17.000Z</time>
      </trkpt>
      <trkpt lat="46.26389" lon="6.43606">
        <ele>961.20001220703</ele>
        <time>2020-08-05T09:30:24.000Z</time>
      </trkpt>
      <trkpt lat="46.26391" lon="6.4363">
        <ele>962.40002441406</ele>
        <time>2020-08-05T09:30:32.000Z</time>
      </trkpt>
      <trkpt lat="46.26389" lon="6.43655">
        <ele>966.59997558594</ele>
        <time>2020-08-05T09:30:40.000Z</time>
      </trkpt>
      <trkpt lat="46.26387" lon="6.43676">
        <ele>972.59997558594</ele>
        <time>2020-08-05T09:30:48.000Z</time>
      </trkpt>
      <trkpt lat="46.26388" lon="6.4369">
        <ele>975.79998779297</ele>
        <time>2020-08-05T09:30:54.000Z</time>
      </trkpt>
      <trkpt lat="46.26397" lon="6.43712">
        <ele>977.59997558594</ele>
        <time>2020-08-05T09:31:02.000Z</time>
      </trkpt>
      <trkpt lat="46.26407" lon="6.43728">
        <ele>978.79998779297</ele>
        <time>2020-08-05T09:31:09.000Z</time>
      </trkpt>
      <trkpt lat="46.26417" lon="6.43743">
        <ele>981.40002441406</ele>
        <time>2020-08-05T09:31:16.000Z</time>
      </trkpt>
      <trkpt lat="46.26426" lon="6.43758">
        <ele>984.79998779297</ele>
        <time>2020-08-05T09:31:23.000Z</time>
      </trkpt>
      <trkpt lat="46.26434" lon="6.4377">
        <ele>987.59997558594</ele>
        <time>2020-08-05T09:31:29.000Z</time>
      </trkpt>
      <trkpt lat="46.26444" lon="6.43784">
        <ele>990.40002441406</ele>
        <time>2020-08-05T09:31:36.000Z</time>
      </trkpt>
      <trkpt lat="46.2646" lon="6.43804">
        <ele>994.40002441406</ele>
        <time>2020-08-05T09:31:44.000Z</time>
      </trkpt>
      <trkpt lat="46.26473" lon="6.43821">
        <ele>997</ele>
        <time>2020-08-05T09:31:52.000Z</time>
      </trkpt>
      <trkpt lat="46.26486" lon="6.43839">
        <ele>998.40002441406</ele>
        <time>2020-08-05T09:32:00.000Z</time>
      </trkpt>
      <trkpt lat="46.26498" lon="6.43854">
        <ele>999.79998779297</ele>
        <time>2020-08-05T09:32:07.000Z</time>
      </trkpt>
      <trkpt lat="46.26505" lon="6.43864">
        <ele>1000.799987793</ele>
        <time>2020-08-05T09:32:13.000Z</time>
      </trkpt>
      <trkpt lat="46.26514" lon="6.43875">
        <ele>1001.799987793</ele>
        <time>2020-08-05T09:32:19.000Z</time>
      </trkpt>
      <trkpt lat="46.26516" lon="6.43878">
        <ele>1002</ele>
        <time>2020-08-05T09:32:20.000Z</time>
      </trkpt>
      <trkpt lat="46.26523" lon="6.43887">
        <ele>1003</ele>
        <time>2020-08-05T09:32:24.000Z</time>
      </trkpt>
      <trkpt lat="46.26536" lon="6.43903">
        <ele>1004.4000244141</ele>
        <time>2020-08-05T09:32:31.000Z</time>
      </trkpt>
      <trkpt lat="46.26543" lon="6.43913">
        <ele>1005.200012207</ele>
        <time>2020-08-05T09:32:35.000Z</time>
      </trkpt>
      <trkpt lat="46.26545" lon="6.43915">
        <ele>1005.4000244141</ele>
        <time>2020-08-05T09:32:36.000Z</time>
      </trkpt>
      <trkpt lat="46.2656" lon="6.43927">
        <ele>1004.5999755859</ele>
        <time>2020-08-05T09:32:43.000Z</time>
      </trkpt>
      <trkpt lat="46.26569" lon="6.43929">
        <ele>1003.4000244141</ele>
        <time>2020-08-05T09:32:48.000Z</time>
      </trkpt>
      <trkpt lat="46.26584" lon="6.43934">
        <ele>1002.200012207</ele>
        <time>2020-08-05T09:32:55.000Z</time>
      </trkpt>
      <trkpt lat="46.26596" lon="6.43937">
        <ele>1001.200012207</ele>
        <time>2020-08-05T09:33:01.000Z</time>
      </trkpt>
      <trkpt lat="46.26612" lon="6.43942">
        <ele>1000.200012207</ele>
        <time>2020-08-05T09:33:09.000Z</time>
      </trkpt>
      <trkpt lat="46.2662" lon="6.43944">
        <ele>999.59997558594</ele>
        <time>2020-08-05T09:33:14.000Z</time>
      </trkpt>
      <trkpt lat="46.26635" lon="6.43952">
        <ele>999.59997558594</ele>
        <time>2020-08-05T09:33:21.000Z</time>
      </trkpt>
      <trkpt lat="46.26649" lon="6.43968">
        <ele>1002</ele>
        <time>2020-08-05T09:33:28.000Z</time>
      </trkpt>
      <trkpt lat="46.26659" lon="6.43986">
        <ele>1004</ele>
        <time>2020-08-05T09:33:34.000Z</time>
      </trkpt>
      <trkpt lat="46.26663" lon="6.43997">
        <ele>1004.200012207</ele>
        <time>2020-08-05T09:33:38.000Z</time>
      </trkpt>
      <trkpt lat="46.26664" lon="6.44">
        <ele>1004.4000244141</ele>
        <time>2020-08-05T09:33:39.000Z</time>
      </trkpt>
      <trkpt lat="46.26664" lon="6.44003">
        <ele>1004.5999755859</ele>
        <time>2020-08-05T09:33:40.000Z</time>
      </trkpt>
      <trkpt lat="46.26667" lon="6.44009">
        <ele>1005.200012207</ele>
        <time>2020-08-05T09:33:43.000Z</time>
      </trkpt>
      <trkpt lat="46.26671" lon="6.44028">
        <ele>1007.799987793</ele>
        <time>2020-08-05T09:33:50.000Z</time>
      </trkpt>
      <trkpt lat="46.26674" lon="6.44043">
        <ele>1010.4000244141</ele>
        <time>2020-08-05T09:33:56.000Z</time>
      </trkpt>
      <trkpt lat="46.26676" lon="6.44059">
        <ele>1013</ele>
        <time>2020-08-05T09:34:02.000Z</time>
      </trkpt>
      <trkpt lat="46.26679" lon="6.44076">
        <ele>1013.799987793</ele>
        <time>2020-08-05T09:34:08.000Z</time>
      </trkpt>
      <trkpt lat="46.26683" lon="6.44097">
        <ele>1013.4000244141</ele>
        <time>2020-08-05T09:34:15.000Z</time>
      </trkpt>
      <trkpt lat="46.26687" lon="6.44119">
        <ele>1013.200012207</ele>
        <time>2020-08-05T09:34:22.000Z</time>
      </trkpt>
      <trkpt lat="46.2669" lon="6.44142">
        <ele>1013</ele>
        <time>2020-08-05T09:34:29.000Z</time>
      </trkpt>
      <trkpt lat="46.26691" lon="6.44168">
        <ele>1014.5999755859</ele>
        <time>2020-08-05T09:34:37.000Z</time>
      </trkpt>
      <trkpt lat="46.26691" lon="6.44191">
        <ele>1016</ele>
        <time>2020-08-05T09:34:44.000Z</time>
      </trkpt>
      <trkpt lat="46.26689" lon="6.44213">
        <ele>1016.200012207</ele>
        <time>2020-08-05T09:34:51.000Z</time>
      </trkpt>
      <trkpt lat="46.26685" lon="6.44241">
        <ele>1016.200012207</ele>
        <time>2020-08-05T09:35:00.000Z</time>
      </trkpt>
      <trkpt lat="46.26679" lon="6.44261">
        <ele>1017.4000244141</ele>
        <time>2020-08-05T09:35:06.000Z</time>
      </trkpt>
      <trkpt lat="46.26676" lon="6.44268">
        <ele>1017.4000244141</ele>
        <time>2020-08-05T09:35:08.000Z</time>
      </trkpt>
      <trkpt lat="46.26674" lon="6.44274">
        <ele>1017</ele>
        <time>2020-08-05T09:35:10.000Z</time>
      </trkpt>
      <trkpt lat="46.26662" lon="6.44293">
        <ele>1016.799987793</ele>
        <time>2020-08-05T09:35:17.000Z</time>
      </trkpt>
      <trkpt lat="46.26648" lon="6.44301">
        <ele>1018.4000244141</ele>
        <time>2020-08-05T09:35:24.000Z</time>
      </trkpt>
      <trkpt lat="46.26635" lon="6.44309">
        <ele>1022</ele>
        <time>2020-08-05T09:35:31.000Z</time>
      </trkpt>
      <trkpt lat="46.26622" lon="6.44317">
        <ele>1026</ele>
        <time>2020-08-05T09:35:37.000Z</time>
      </trkpt>
      <trkpt lat="46.2661" lon="6.44329">
        <ele>1029.5999755859</ele>
        <time>2020-08-05T09:35:44.000Z</time>
      </trkpt>
      <trkpt lat="46.26599" lon="6.44348">
        <ele>1032</ele>
        <time>2020-08-05T09:35:51.000Z</time>
      </trkpt>
      <trkpt lat="46.26585" lon="6.44373">
        <ele>1032</ele>
        <time>2020-08-05T09:35:59.000Z</time>
      </trkpt>
      <trkpt lat="46.2657" lon="6.44391">
        <ele>1033.1999511719</ele>
        <time>2020-08-05T09:36:06.000Z</time>
      </trkpt>
      <trkpt lat="46.26552" lon="6.44408">
        <ele>1036</ele>
        <time>2020-08-05T09:36:14.000Z</time>
      </trkpt>
      <trkpt lat="46.26537" lon="6.44422">
        <ele>1038.4000244141</ele>
        <time>2020-08-05T09:36:21.000Z</time>
      </trkpt>
      <trkpt lat="46.2652" lon="6.44438">
        <ele>1041.1999511719</ele>
        <time>2020-08-05T09:36:29.000Z</time>
      </trkpt>
      <trkpt lat="46.26509" lon="6.44451">
        <ele>1040.4000244141</ele>
        <time>2020-08-05T09:36:35.000Z</time>
      </trkpt>
      <trkpt lat="46.26507" lon="6.44454">
        <ele>1040.1999511719</ele>
        <time>2020-08-05T09:36:37.000Z</time>
      </trkpt>
      <trkpt lat="46.26503" lon="6.44459">
        <ele>1039.8000488281</ele>
        <time>2020-08-05T09:36:39.000Z</time>
      </trkpt>
      <trkpt lat="46.26491" lon="6.44476">
        <ele>1038.4000244141</ele>
        <time>2020-08-05T09:36:44.000Z</time>
      </trkpt>
      <trkpt lat="46.26481" lon="6.445">
        <ele>1038.8000488281</ele>
        <time>2020-08-05T09:36:50.000Z</time>
      </trkpt>
      <trkpt lat="46.26475" lon="6.44526">
        <ele>1039.8000488281</ele>
        <time>2020-08-05T09:36:57.000Z</time>
      </trkpt>
      <trkpt lat="46.2647" lon="6.44549">
        <ele>1040.8000488281</ele>
        <time>2020-08-05T09:37:04.000Z</time>
      </trkpt>
      <trkpt lat="46.26464" lon="6.44573">
        <ele>1041.5999755859</ele>
        <time>2020-08-05T09:37:11.000Z</time>
      </trkpt>
      <trkpt lat="46.26459" lon="6.44597">
        <ele>1042</ele>
        <time>2020-08-05T09:37:18.000Z</time>
      </trkpt>
      <trkpt lat="46.26453" lon="6.44622">
        <ele>1042.4000244141</ele>
        <time>2020-08-05T09:37:25.000Z</time>
      </trkpt>
      <trkpt lat="46.26442" lon="6.44649">
        <ele>1044.1999511719</ele>
        <time>2020-08-05T09:37:34.000Z</time>
      </trkpt>
      <trkpt lat="46.26431" lon="6.44664">
        <ele>1045</ele>
        <time>2020-08-05T09:37:40.000Z</time>
      </trkpt>
      <trkpt lat="46.26418" lon="6.44679">
        <ele>1046.4000244141</ele>
        <time>2020-08-05T09:37:47.000Z</time>
      </trkpt>
      <trkpt lat="46.26402" lon="6.4469">
        <ele>1048.8000488281</ele>
        <time>2020-08-05T09:37:55.000Z</time>
      </trkpt>
      <trkpt lat="46.2639" lon="6.44699">
        <ele>1050.4000244141</ele>
        <time>2020-08-05T09:38:01.000Z</time>
      </trkpt>
      <trkpt lat="46.26378" lon="6.44707">
        <ele>1051.8000488281</ele>
        <time>2020-08-05T09:38:06.000Z</time>
      </trkpt>
      <trkpt lat="46.26368" lon="6.44715">
        <ele>1053.5999755859</ele>
        <time>2020-08-05T09:38:12.000Z</time>
      </trkpt>
      <trkpt lat="46.26359" lon="6.44721">
        <ele>1055.1999511719</ele>
        <time>2020-08-05T09:38:17.000Z</time>
      </trkpt>
      <trkpt lat="46.26357" lon="6.44722">
        <ele>1055.5999755859</ele>
        <time>2020-08-05T09:38:18.000Z</time>
      </trkpt>
      <trkpt lat="46.26346" lon="6.4473">
        <ele>1057.8000488281</ele>
        <time>2020-08-05T09:38:24.000Z</time>
      </trkpt>
      <trkpt lat="46.26339" lon="6.44734">
        <ele>1059.1999511719</ele>
        <time>2020-08-05T09:38:28.000Z</time>
      </trkpt>
      <trkpt lat="46.26336" lon="6.44735">
        <ele>1059.8000488281</ele>
        <time>2020-08-05T09:38:30.000Z</time>
      </trkpt>
      <trkpt lat="46.26325" lon="6.4474">
        <ele>1062</ele>
        <time>2020-08-05T09:38:38.000Z</time>
      </trkpt>
      <trkpt lat="46.26312" lon="6.44746">
        <ele>1064.4000244141</ele>
        <time>2020-08-05T09:38:45.000Z</time>
      </trkpt>
      <trkpt lat="46.26298" lon="6.44753">
        <ele>1065.5999755859</ele>
        <time>2020-08-05T09:38:52.000Z</time>
      </trkpt>
      <trkpt lat="46.26282" lon="6.4476">
        <ele>1067</ele>
        <time>2020-08-05T09:38:59.000Z</time>
      </trkpt>
      <trkpt lat="46.26264" lon="6.44768">
        <ele>1068.5999755859</ele>
        <time>2020-08-05T09:39:05.000Z</time>
      </trkpt>
      <trkpt lat="46.26259" lon="6.44776">
        <ele>1068.8000488281</ele>
        <time>2020-08-05T09:39:08.000Z</time>
      </trkpt>
      <trkpt lat="46.26256" lon="6.4478">
        <ele>1068.8000488281</ele>
        <time>2020-08-05T09:39:10.000Z</time>
      </trkpt>
      <trkpt lat="46.26246" lon="6.44795">
        <ele>1069.1999511719</ele>
        <time>2020-08-05T09:39:16.000Z</time>
      </trkpt>
      <trkpt lat="46.26232" lon="6.44828">
        <ele>1069.4000244141</ele>
        <time>2020-08-05T09:39:24.000Z</time>
      </trkpt>
      <trkpt lat="46.26224" lon="6.4486">
        <ele>1070.1999511719</ele>
        <time>2020-08-05T09:39:32.000Z</time>
      </trkpt>
      <trkpt lat="46.26215" lon="6.44876">
        <ele>1071.4000244141</ele>
        <time>2020-08-05T09:39:37.000Z</time>
      </trkpt>
      <trkpt lat="46.26211" lon="6.44879">
        <ele>1072.1999511719</ele>
        <time>2020-08-05T09:39:39.000Z</time>
      </trkpt>
      <trkpt lat="46.26203" lon="6.44873">
        <ele>1073.4000244141</ele>
        <time>2020-08-05T09:39:41.000Z</time>
      </trkpt>
      <trkpt lat="46.26202" lon="6.44859">
        <ele>1073.8000488281</ele>
        <time>2020-08-05T09:39:45.000Z</time>
      </trkpt>
      <trkpt lat="46.26199" lon="6.44832">
        <ele>1074.5999755859</ele>
        <time>2020-08-05T09:39:52.000Z</time>
      </trkpt>
      <trkpt lat="46.262" lon="6.44816">
        <ele>1074.5999755859</ele>
        <time>2020-08-05T09:39:57.000Z</time>
      </trkpt>
      <trkpt lat="46.26201" lon="6.44813">
        <ele>1074.5999755859</ele>
        <time>2020-08-05T09:39:58.000Z</time>
      </trkpt>
      <trkpt lat="46.26207" lon="6.44795">
        <ele>1074</ele>
        <time>2020-08-05T09:40:04.000Z</time>
      </trkpt>
      <trkpt lat="46.26209" lon="6.44788">
        <ele>1074</ele>
        <time>2020-08-05T09:40:06.000Z</time>
      </trkpt>
      <trkpt lat="46.26211" lon="6.44784">
        <ele>1074</ele>
        <time>2020-08-05T09:40:08.000Z</time>
      </trkpt>
      <trkpt lat="46.26215" lon="6.44769">
        <ele>1074.1999511719</ele>
        <time>2020-08-05T09:40:13.000Z</time>
      </trkpt>
      <trkpt lat="46.26218" lon="6.44742">
        <ele>1075</ele>
        <time>2020-08-05T09:40:18.000Z</time>
      </trkpt>
      <trkpt lat="46.26213" lon="6.44709">
        <ele>1077.1999511719</ele>
        <time>2020-08-05T09:40:25.000Z</time>
      </trkpt>
      <trkpt lat="46.26203" lon="6.44692">
        <ele>1079.1999511719</ele>
        <time>2020-08-05T09:40:31.000Z</time>
      </trkpt>
      <trkpt lat="46.26189" lon="6.44672">
        <ele>1081.8000488281</ele>
        <time>2020-08-05T09:40:39.000Z</time>
      </trkpt>
      <trkpt lat="46.26173" lon="6.44674">
        <ele>1083.5999755859</ele>
        <time>2020-08-05T09:40:46.000Z</time>
      </trkpt>
      <trkpt lat="46.26158" lon="6.44677">
        <ele>1085.4000244141</ele>
        <time>2020-08-05T09:40:54.000Z</time>
      </trkpt>
      <trkpt lat="46.26143" lon="6.4469">
        <ele>1087</ele>
        <time>2020-08-05T09:41:00.000Z</time>
      </trkpt>
      <trkpt lat="46.26125" lon="6.4471">
        <ele>1088.8000488281</ele>
        <time>2020-08-05T09:41:08.000Z</time>
      </trkpt>
      <trkpt lat="46.26114" lon="6.44722">
        <ele>1088.5999755859</ele>
        <time>2020-08-05T09:41:13.000Z</time>
      </trkpt>
      <trkpt lat="46.261" lon="6.44738">
        <ele>1088.8000488281</ele>
        <time>2020-08-05T09:41:20.000Z</time>
      </trkpt>
      <trkpt lat="46.2609" lon="6.44749">
        <ele>1089.4000244141</ele>
        <time>2020-08-05T09:41:25.000Z</time>
      </trkpt>
      <trkpt lat="46.26075" lon="6.44764">
        <ele>1090.1999511719</ele>
        <time>2020-08-05T09:41:32.000Z</time>
      </trkpt>
      <trkpt lat="46.26064" lon="6.44787">
        <ele>1090.5999755859</ele>
        <time>2020-08-05T09:41:39.000Z</time>
      </trkpt>
      <trkpt lat="46.26056" lon="6.44814">
        <ele>1091.5999755859</ele>
        <time>2020-08-05T09:41:46.000Z</time>
      </trkpt>
      <trkpt lat="46.26053" lon="6.44847">
        <ele>1093.4000244141</ele>
        <time>2020-08-05T09:41:54.000Z</time>
      </trkpt>
      <trkpt lat="46.2605" lon="6.44873">
        <ele>1095</ele>
        <time>2020-08-05T09:42:00.000Z</time>
      </trkpt>
      <trkpt lat="46.26047" lon="6.44899">
        <ele>1096.4000244141</ele>
        <time>2020-08-05T09:42:07.000Z</time>
      </trkpt>
      <trkpt lat="46.26046" lon="6.44914">
        <ele>1098.1999511719</ele>
        <time>2020-08-05T09:42:11.000Z</time>
      </trkpt>
      <trkpt lat="46.26045" lon="6.44918">
        <ele>1098.8000488281</ele>
        <time>2020-08-05T09:42:12.000Z</time>
      </trkpt>
      <trkpt lat="46.26043" lon="6.44942">
        <ele>1102</ele>
        <time>2020-08-05T09:42:19.000Z</time>
      </trkpt>
      <trkpt lat="46.26042" lon="6.44964">
        <ele>1104.5999755859</ele>
        <time>2020-08-05T09:42:25.000Z</time>
      </trkpt>
      <trkpt lat="46.26046" lon="6.4499">
        <ele>1109</ele>
        <time>2020-08-05T09:42:32.000Z</time>
      </trkpt>
      <trkpt lat="46.26053" lon="6.45008">
        <ele>1110.8000488281</ele>
        <time>2020-08-05T09:42:37.000Z</time>
      </trkpt>
      <trkpt lat="46.26061" lon="6.45028">
        <ele>1112.4000244141</ele>
        <time>2020-08-05T09:42:43.000Z</time>
      </trkpt>
      <trkpt lat="46.26067" lon="6.45044">
        <ele>1114</ele>
        <time>2020-08-05T09:42:49.000Z</time>
      </trkpt>
      <trkpt lat="46.26071" lon="6.45054">
        <ele>1115</ele>
        <time>2020-08-05T09:42:54.000Z</time>
      </trkpt>
      <trkpt lat="46.26073" lon="6.45058">
        <ele>1115.4000244141</ele>
        <time>2020-08-05T09:42:56.000Z</time>
      </trkpt>
      <trkpt lat="46.26079" lon="6.45071">
        <ele>1116.8000488281</ele>
        <time>2020-08-05T09:43:02.000Z</time>
      </trkpt>
      <trkpt lat="46.2609" lon="6.45089">
        <ele>1118</ele>
        <time>2020-08-05T09:43:09.000Z</time>
      </trkpt>
      <trkpt lat="46.26098" lon="6.45102">
        <ele>1118.8000488281</ele>
        <time>2020-08-05T09:43:14.000Z</time>
      </trkpt>
      <trkpt lat="46.26104" lon="6.45111">
        <ele>1119.5999755859</ele>
        <time>2020-08-05T09:43:17.000Z</time>
      </trkpt>
      <trkpt lat="46.26108" lon="6.45117">
        <ele>1120</ele>
        <time>2020-08-05T09:43:19.000Z</time>
      </trkpt>
      <trkpt lat="46.26118" lon="6.45133">
        <ele>1121.4000244141</ele>
        <time>2020-08-05T09:43:24.000Z</time>
      </trkpt>
      <trkpt lat="46.26129" lon="6.45151">
        <ele>1122.8000488281</ele>
        <time>2020-08-05T09:43:30.000Z</time>
      </trkpt>
      <trkpt lat="46.26136" lon="6.45162">
        <ele>1122.8000488281</ele>
        <time>2020-08-05T09:43:36.000Z</time>
      </trkpt>
      <trkpt lat="46.26143" lon="6.45172">
        <ele>1123</ele>
        <time>2020-08-05T09:43:42.000Z</time>
      </trkpt>
      <trkpt lat="46.26151" lon="6.45184">
        <ele>1123.4000244141</ele>
        <time>2020-08-05T09:43:47.000Z</time>
      </trkpt>
      <trkpt lat="46.26167" lon="6.45202">
        <ele>1123.4000244141</ele>
        <time>2020-08-05T09:43:53.000Z</time>
      </trkpt>
      <trkpt lat="46.26179" lon="6.45215">
        <ele>1123.4000244141</ele>
        <time>2020-08-05T09:43:58.000Z</time>
      </trkpt>
      <trkpt lat="46.26192" lon="6.4523">
        <ele>1123.4000244141</ele>
        <time>2020-08-05T09:44:03.000Z</time>
      </trkpt>
      <trkpt lat="46.26209" lon="6.45254">
        <ele>1120.8000488281</ele>
        <time>2020-08-05T09:44:11.000Z</time>
      </trkpt>
      <trkpt lat="46.26228" lon="6.45283">
        <ele>1117.8000488281</ele>
        <time>2020-08-05T09:44:20.000Z</time>
      </trkpt>
      <trkpt lat="46.26239" lon="6.45303">
        <ele>1118.4000244141</ele>
        <time>2020-08-05T09:44:26.000Z</time>
      </trkpt>
      <trkpt lat="46.26246" lon="6.45337">
        <ele>1121.4000244141</ele>
        <time>2020-08-05T09:44:34.000Z</time>
      </trkpt>
      <trkpt lat="46.26245" lon="6.45372">
        <ele>1122.1999511719</ele>
        <time>2020-08-05T09:44:42.000Z</time>
      </trkpt>
      <trkpt lat="46.26239" lon="6.45406">
        <ele>1122.8000488281</ele>
        <time>2020-08-05T09:44:50.000Z</time>
      </trkpt>
      <trkpt lat="46.26238" lon="6.45415">
        <ele>1122.4000244141</ele>
        <time>2020-08-05T09:44:54.000Z</time>
      </trkpt>
      <trkpt lat="46.26235" lon="6.45427">
        <ele>1121.1999511719</ele>
        <time>2020-08-05T09:48:15.000Z</time>
      </trkpt>
      <trkpt lat="46.26234" lon="6.45432">
        <ele>1120.5999755859</ele>
        <time>2020-08-05T09:48:17.000Z</time>
      </trkpt>
      <trkpt lat="46.2623" lon="6.45451">
        <ele>1118.5999755859</ele>
        <time>2020-08-05T09:48:23.000Z</time>
      </trkpt>
      <trkpt lat="46.2622" lon="6.45492">
        <ele>1117</ele>
        <time>2020-08-05T09:48:29.000Z</time>
      </trkpt>
      <trkpt lat="46.26211" lon="6.45542">
        <ele>1113.4000244141</ele>
        <time>2020-08-05T09:48:36.000Z</time>
      </trkpt>
      <trkpt lat="46.26206" lon="6.45572">
        <ele>1111.4000244141</ele>
        <time>2020-08-05T09:48:40.000Z</time>
      </trkpt>
      <trkpt lat="46.26205" lon="6.45589">
        <ele>1110.5999755859</ele>
        <time>2020-08-05T09:48:43.000Z</time>
      </trkpt>
      <trkpt lat="46.26209" lon="6.45631">
        <ele>1108.1999511719</ele>
        <time>2020-08-05T09:48:48.000Z</time>
      </trkpt>
      <trkpt lat="46.2621" lon="6.45643">
        <ele>1106.8000488281</ele>
        <time>2020-08-05T09:48:49.000Z</time>
      </trkpt>
      <trkpt lat="46.26226" lon="6.45683">
        <ele>1103.1999511719</ele>
        <time>2020-08-05T09:48:55.000Z</time>
      </trkpt>
      <trkpt lat="46.26252" lon="6.45724">
        <ele>1101.4000244141</ele>
        <time>2020-08-05T09:49:00.000Z</time>
      </trkpt>
      <trkpt lat="46.26283" lon="6.4575">
        <ele>1099.8000488281</ele>
        <time>2020-08-05T09:49:05.000Z</time>
      </trkpt>
      <trkpt lat="46.26333" lon="6.45792">
        <ele>1097.8000488281</ele>
        <time>2020-08-05T09:49:13.000Z</time>
      </trkpt>
      <trkpt lat="46.26375" lon="6.45833">
        <ele>1097.5999755859</ele>
        <time>2020-08-05T09:49:20.000Z</time>
      </trkpt>
      <trkpt lat="46.26417" lon="6.45882">
        <ele>1096.4000244141</ele>
        <time>2020-08-05T09:49:27.000Z</time>
      </trkpt>
      <trkpt lat="46.2643" lon="6.45896">
        <ele>1096.4000244141</ele>
        <time>2020-08-05T09:49:29.000Z</time>
      </trkpt>
      <trkpt lat="46.26464" lon="6.4594">
        <ele>1093.1999511719</ele>
        <time>2020-08-05T09:49:35.000Z</time>
      </trkpt>
      <trkpt lat="46.26504" lon="6.46007">
        <ele>1086.4000244141</ele>
        <time>2020-08-05T09:49:43.000Z</time>
      </trkpt>
      <trkpt lat="46.26509" lon="6.46015">
        <ele>1086</ele>
        <time>2020-08-05T09:49:44.000Z</time>
      </trkpt>
      <trkpt lat="46.26536" lon="6.46069">
        <ele>1082.1999511719</ele>
        <time>2020-08-05T09:49:50.000Z</time>
      </trkpt>
      <trkpt lat="46.26562" lon="6.46129">
        <ele>1080</ele>
        <time>2020-08-05T09:49:56.000Z</time>
      </trkpt>
      <trkpt lat="46.26584" lon="6.46176">
        <ele>1076.1999511719</ele>
        <time>2020-08-05T09:50:01.000Z</time>
      </trkpt>
      <trkpt lat="46.26624" lon="6.46226">
        <ele>1073.1999511719</ele>
        <time>2020-08-05T09:50:08.000Z</time>
      </trkpt>
      <trkpt lat="46.26664" lon="6.46274">
        <ele>1072.5999755859</ele>
        <time>2020-08-05T09:50:15.000Z</time>
      </trkpt>
      <trkpt lat="46.26664" lon="6.46274">
        <ele>1072.5999755859</ele>
        <time>2020-08-05T09:50:16.000Z</time>
      </trkpt>
      <trkpt lat="46.267" lon="6.46346">
        <ele>1070</ele>
        <time>2020-08-05T09:50:23.000Z</time>
      </trkpt>
      <trkpt lat="46.26736" lon="6.46416">
        <ele>1068.5999755859</ele>
        <time>2020-08-05T09:50:31.000Z</time>
      </trkpt>
      <trkpt lat="46.26764" lon="6.46475">
        <ele>1068.5999755859</ele>
        <time>2020-08-05T09:50:38.000Z</time>
      </trkpt>
      <trkpt lat="46.26778" lon="6.46513">
        <ele>1068.5999755859</ele>
        <time>2020-08-05T09:50:42.000Z</time>
      </trkpt>
      <trkpt lat="46.26779" lon="6.46523">
        <ele>1068.1999511719</ele>
        <time>2020-08-05T09:50:43.000Z</time>
      </trkpt>
      <trkpt lat="46.26781" lon="6.46544">
        <ele>1067.4000244141</ele>
        <time>2020-08-05T09:50:45.000Z</time>
      </trkpt>
      <trkpt lat="46.26782" lon="6.46564">
        <ele>1066.1999511719</ele>
        <time>2020-08-05T09:50:47.000Z</time>
      </trkpt>
      <trkpt lat="46.26779" lon="6.46594">
        <ele>1065.4000244141</ele>
        <time>2020-08-05T09:50:50.000Z</time>
      </trkpt>
      <trkpt lat="46.26773" lon="6.46612">
        <ele>1064.4000244141</ele>
        <time>2020-08-05T09:50:52.000Z</time>
      </trkpt>
      <trkpt lat="46.26757" lon="6.46651">
        <ele>1062</ele>
        <time>2020-08-05T09:50:57.000Z</time>
      </trkpt>
      <trkpt lat="46.26727" lon="6.46703">
        <ele>1059.1999511719</ele>
        <time>2020-08-05T09:51:04.000Z</time>
      </trkpt>
      <trkpt lat="46.26691" lon="6.46765">
        <ele>1061.1999511719</ele>
        <time>2020-08-05T09:51:11.000Z</time>
      </trkpt>
      <trkpt lat="46.26656" lon="6.46828">
        <ele>1058</ele>
        <time>2020-08-05T09:51:18.000Z</time>
      </trkpt>
      <trkpt lat="46.26651" lon="6.46838">
        <ele>1056.5999755859</ele>
        <time>2020-08-05T09:51:19.000Z</time>
      </trkpt>
      <trkpt lat="46.26618" lon="6.46888">
        <ele>1053.4000244141</ele>
        <time>2020-08-05T09:51:26.000Z</time>
      </trkpt>
      <trkpt lat="46.26571" lon="6.46952">
        <ele>1052</ele>
        <time>2020-08-05T09:51:33.000Z</time>
      </trkpt>
      <trkpt lat="46.26553" lon="6.46978">
        <ele>1050.1999511719</ele>
        <time>2020-08-05T09:51:36.000Z</time>
      </trkpt>
      <trkpt lat="46.26509" lon="6.47038">
        <ele>1050.4000244141</ele>
        <time>2020-08-05T09:51:43.000Z</time>
      </trkpt>
      <trkpt lat="46.26503" lon="6.47046">
        <ele>1049.8000488281</ele>
        <time>2020-08-05T09:51:44.000Z</time>
      </trkpt>
      <trkpt lat="46.2647" lon="6.47086">
        <ele>1047</ele>
        <time>2020-08-05T09:51:49.000Z</time>
      </trkpt>
      <trkpt lat="46.26463" lon="6.47093">
        <ele>1046.8000488281</ele>
        <time>2020-08-05T09:51:50.000Z</time>
      </trkpt>
      <trkpt lat="46.26411" lon="6.47145">
        <ele>1042</ele>
        <time>2020-08-05T09:51:57.000Z</time>
      </trkpt>
      <trkpt lat="46.26396" lon="6.4716">
        <ele>1040.1999511719</ele>
        <time>2020-08-05T09:51:59.000Z</time>
      </trkpt>
      <trkpt lat="46.2635" lon="6.47206">
        <ele>1037</ele>
        <time>2020-08-05T09:52:05.000Z</time>
      </trkpt>
      <trkpt lat="46.26343" lon="6.47214">
        <ele>1036.1999511719</ele>
        <time>2020-08-05T09:52:06.000Z</time>
      </trkpt>
      <trkpt lat="46.26301" lon="6.47253">
        <ele>1032</ele>
        <time>2020-08-05T09:52:12.000Z</time>
      </trkpt>
      <trkpt lat="46.26272" lon="6.47291">
        <ele>1030.8000488281</ele>
        <time>2020-08-05T09:52:17.000Z</time>
      </trkpt>
      <trkpt lat="46.26266" lon="6.473">
        <ele>1030.4000244141</ele>
        <time>2020-08-05T09:52:18.000Z</time>
      </trkpt>
      <trkpt lat="46.26261" lon="6.4731">
        <ele>1030.1999511719</ele>
        <time>2020-08-05T09:52:19.000Z</time>
      </trkpt>
      <trkpt lat="46.2625" lon="6.47343">
        <ele>1030.1999511719</ele>
        <time>2020-08-05T09:52:22.000Z</time>
      </trkpt>
      <trkpt lat="46.26246" lon="6.47354">
        <ele>1030.5999755859</ele>
        <time>2020-08-05T09:52:23.000Z</time>
      </trkpt>
      <trkpt lat="46.26237" lon="6.47378">
        <ele>1031.1999511719</ele>
        <time>2020-08-05T09:52:25.000Z</time>
      </trkpt>
      <trkpt lat="46.26222" lon="6.47383">
        <ele>1029.8000488281</ele>
        <time>2020-08-05T09:52:27.000Z</time>
      </trkpt>
      <trkpt lat="46.26214" lon="6.47386">
        <ele>1029</ele>
        <time>2020-08-05T09:52:28.000Z</time>
      </trkpt>
      <trkpt lat="46.26158" lon="6.47408">
        <ele>1024.1999511719</ele>
        <time>2020-08-05T09:52:35.000Z</time>
      </trkpt>
      <trkpt lat="46.26111" lon="6.47435">
        <ele>1020</ele>
        <time>2020-08-05T09:52:41.000Z</time>
      </trkpt>
      <trkpt lat="46.26055" lon="6.47469">
        <ele>1015.5999755859</ele>
        <time>2020-08-05T09:52:48.000Z</time>
      </trkpt>
      <trkpt lat="46.26047" lon="6.47474">
        <ele>1014.799987793</ele>
        <time>2020-08-05T09:52:49.000Z</time>
      </trkpt>
      <trkpt lat="46.26033" lon="6.4749">
        <ele>1014.200012207</ele>
        <time>2020-08-05T09:52:51.000Z</time>
      </trkpt>
      <trkpt lat="46.2602" lon="6.47507">
        <ele>1013.799987793</ele>
        <time>2020-08-05T09:52:53.000Z</time>
      </trkpt>
      <trkpt lat="46.25976" lon="6.47567">
        <ele>1011.799987793</ele>
        <time>2020-08-05T09:53:00.000Z</time>
      </trkpt>
      <trkpt lat="46.2597" lon="6.47575">
        <ele>1012</ele>
        <time>2020-08-05T09:53:01.000Z</time>
      </trkpt>
      <trkpt lat="46.25956" lon="6.47579">
        <ele>1011.5999755859</ele>
        <time>2020-08-05T09:53:03.000Z</time>
      </trkpt>
      <trkpt lat="46.25941" lon="6.47581">
        <ele>1010.5999755859</ele>
        <time>2020-08-05T09:53:05.000Z</time>
      </trkpt>
      <trkpt lat="46.25933" lon="6.47577">
        <ele>1010</ele>
        <time>2020-08-05T09:53:06.000Z</time>
      </trkpt>
      <trkpt lat="46.25926" lon="6.47571">
        <ele>1009.200012207</ele>
        <time>2020-08-05T09:53:07.000Z</time>
      </trkpt>
      <trkpt lat="46.25913" lon="6.47554">
        <ele>1007.200012207</ele>
        <time>2020-08-05T09:53:09.000Z</time>
      </trkpt>
      <trkpt lat="46.25906" lon="6.47519">
        <ele>1004.200012207</ele>
        <time>2020-08-05T09:53:12.000Z</time>
      </trkpt>
      <trkpt lat="46.25904" lon="6.47508">
        <ele>1003.200012207</ele>
        <time>2020-08-05T09:53:13.000Z</time>
      </trkpt>
      <trkpt lat="46.25887" lon="6.47424">
        <ele>998.40002441406</ele>
        <time>2020-08-05T09:53:20.000Z</time>
      </trkpt>
      <trkpt lat="46.25885" lon="6.47412">
        <ele>997.79998779297</ele>
        <time>2020-08-05T09:53:21.000Z</time>
      </trkpt>
      <trkpt lat="46.25862" lon="6.47344">
        <ele>996.40002441406</ele>
        <time>2020-08-05T09:53:27.000Z</time>
      </trkpt>
      <trkpt lat="46.25831" lon="6.47263">
        <ele>994.59997558594</ele>
        <time>2020-08-05T09:53:34.000Z</time>
      </trkpt>
      <trkpt lat="46.25827" lon="6.47252">
        <ele>994.40002441406</ele>
        <time>2020-08-05T09:53:35.000Z</time>
      </trkpt>
      <trkpt lat="46.25805" lon="6.47212">
        <ele>992.59997558594</ele>
        <time>2020-08-05T09:53:39.000Z</time>
      </trkpt>
      <trkpt lat="46.25794" lon="6.47193">
        <ele>991.20001220703</ele>
        <time>2020-08-05T09:53:41.000Z</time>
      </trkpt>
      <trkpt lat="46.25781" lon="6.47175">
        <ele>989.59997558594</ele>
        <time>2020-08-05T09:53:43.000Z</time>
      </trkpt>
      <trkpt lat="46.25765" lon="6.47165">
        <ele>988.40002441406</ele>
        <time>2020-08-05T09:53:45.000Z</time>
      </trkpt>
      <trkpt lat="46.25724" lon="6.47141">
        <ele>985</ele>
        <time>2020-08-05T09:53:50.000Z</time>
      </trkpt>
      <trkpt lat="46.25707" lon="6.47139">
        <ele>983.79998779297</ele>
        <time>2020-08-05T09:53:52.000Z</time>
      </trkpt>
      <trkpt lat="46.25688" lon="6.4714">
        <ele>982.79998779297</ele>
        <time>2020-08-05T09:53:54.000Z</time>
      </trkpt>
      <trkpt lat="46.25632" lon="6.47152">
        <ele>980.79998779297</ele>
        <time>2020-08-05T09:54:00.000Z</time>
      </trkpt>
      <trkpt lat="46.25605" lon="6.47157">
        <ele>980.20001220703</ele>
        <time>2020-08-05T09:54:03.000Z</time>
      </trkpt>
      <trkpt lat="46.25547" lon="6.47166">
        <ele>978.79998779297</ele>
        <time>2020-08-05T09:54:10.000Z</time>
      </trkpt>
      <trkpt lat="46.25489" lon="6.47175">
        <ele>978.40002441406</ele>
        <time>2020-08-05T09:54:18.000Z</time>
      </trkpt>
      <trkpt lat="46.25441" lon="6.47183">
        <ele>977.20001220703</ele>
        <time>2020-08-05T09:54:26.000Z</time>
      </trkpt>
      <trkpt lat="46.25398" lon="6.47192">
        <ele>977.59997558594</ele>
        <time>2020-08-05T09:54:32.000Z</time>
      </trkpt>
      <trkpt lat="46.25339" lon="6.47204">
        <ele>976.79998779297</ele>
        <time>2020-08-05T09:54:39.000Z</time>
      </trkpt>
      <trkpt lat="46.25285" lon="6.47215">
        <ele>975.59997558594</ele>
        <time>2020-08-05T09:54:46.000Z</time>
      </trkpt>
      <trkpt lat="46.25277" lon="6.47216">
        <ele>975.40002441406</ele>
        <time>2020-08-05T09:54:47.000Z</time>
      </trkpt>
      <trkpt lat="46.25223" lon="6.47227">
        <ele>974</ele>
        <time>2020-08-05T09:54:54.000Z</time>
      </trkpt>
      <trkpt lat="46.25168" lon="6.47238">
        <ele>972.40002441406</ele>
        <time>2020-08-05T09:55:01.000Z</time>
      </trkpt>
      <trkpt lat="46.25128" lon="6.47246">
        <ele>971.20001220703</ele>
        <time>2020-08-05T09:55:06.000Z</time>
      </trkpt>
      <trkpt lat="46.25085" lon="6.47252">
        <ele>969.20001220703</ele>
        <time>2020-08-05T09:55:12.000Z</time>
      </trkpt>
      <trkpt lat="46.25052" lon="6.47255">
        <ele>967.79998779297</ele>
        <time>2020-08-05T09:55:17.000Z</time>
      </trkpt>
      <trkpt lat="46.25012" lon="6.47255">
        <ele>967</ele>
        <time>2020-08-05T09:55:23.000Z</time>
      </trkpt>
      <trkpt lat="46.25005" lon="6.47255">
        <ele>966.79998779297</ele>
        <time>2020-08-05T09:55:24.000Z</time>
      </trkpt>
      <trkpt lat="46.24989" lon="6.47255">
        <ele>966</ele>
        <time>2020-08-05T09:55:26.000Z</time>
      </trkpt>
      <trkpt lat="46.24978" lon="6.47256">
        <ele>965.59997558594</ele>
        <time>2020-08-05T09:55:29.000Z</time>
      </trkpt>
      <trkpt lat="46.24967" lon="6.47264">
        <ele>965.20001220703</ele>
        <time>2020-08-05T09:55:30.000Z</time>
      </trkpt>
      <trkpt lat="46.24937" lon="6.47287">
        <ele>964.20001220703</ele>
        <time>2020-08-05T09:55:35.000Z</time>
      </trkpt>
      <trkpt lat="46.24901" lon="6.47316">
        <ele>962.59997558594</ele>
        <time>2020-08-05T09:55:42.000Z</time>
      </trkpt>
      <trkpt lat="46.24861" lon="6.47336">
        <ele>961.20001220703</ele>
        <time>2020-08-05T09:55:48.000Z</time>
      </trkpt>
      <trkpt lat="46.24857" lon="6.47338">
        <ele>961.20001220703</ele>
        <time>2020-08-05T09:55:49.000Z</time>
      </trkpt>
      <trkpt lat="46.24848" lon="6.47348">
        <ele>961.20001220703</ele>
        <time>2020-08-05T09:55:51.000Z</time>
      </trkpt>
      <trkpt lat="46.24846" lon="6.47354">
        <ele>961.59997558594</ele>
        <time>2020-08-05T09:55:52.000Z</time>
      </trkpt>
      <trkpt lat="46.24845" lon="6.47359">
        <ele>961.79998779297</ele>
        <time>2020-08-05T09:55:53.000Z</time>
      </trkpt>
      <trkpt lat="46.24841" lon="6.47368">
        <ele>962.40002441406</ele>
        <time>2020-08-05T09:55:55.000Z</time>
      </trkpt>
      <trkpt lat="46.24833" lon="6.47391">
        <ele>963.79998779297</ele>
        <time>2020-08-05T09:56:01.000Z</time>
      </trkpt>
      <trkpt lat="46.24824" lon="6.47418">
        <ele>966.59997558594</ele>
        <time>2020-08-05T09:56:08.000Z</time>
      </trkpt>
      <trkpt lat="46.2481" lon="6.47445">
        <ele>966.59997558594</ele>
        <time>2020-08-05T09:56:16.000Z</time>
      </trkpt>
      <trkpt lat="46.24797" lon="6.47472">
        <ele>967.59997558594</ele>
        <time>2020-08-05T09:56:24.000Z</time>
      </trkpt>
      <trkpt lat="46.24778" lon="6.47508">
        <ele>971</ele>
        <time>2020-08-05T09:56:35.000Z</time>
      </trkpt>
      <trkpt lat="46.24763" lon="6.47525">
        <ele>973.20001220703</ele>
        <time>2020-08-05T09:56:42.000Z</time>
      </trkpt>
      <trkpt lat="46.2474" lon="6.47541">
        <ele>974.79998779297</ele>
        <time>2020-08-05T09:56:51.000Z</time>
      </trkpt>
      <trkpt lat="46.24712" lon="6.47549">
        <ele>976.20001220703</ele>
        <time>2020-08-05T09:57:01.000Z</time>
      </trkpt>
      <trkpt lat="46.24688" lon="6.47556">
        <ele>976.59997558594</ele>
        <time>2020-08-05T09:57:10.000Z</time>
      </trkpt>
      <trkpt lat="46.2467" lon="6.47561">
        <ele>977</ele>
        <time>2020-08-05T09:57:17.000Z</time>
      </trkpt>
      <trkpt lat="46.24653" lon="6.47569">
        <ele>977.79998779297</ele>
        <time>2020-08-05T09:57:24.000Z</time>
      </trkpt>
      <trkpt lat="46.24633" lon="6.47587">
        <ele>980.40002441406</ele>
        <time>2020-08-05T09:57:33.000Z</time>
      </trkpt>
      <trkpt lat="46.24616" lon="6.47606">
        <ele>983.79998779297</ele>
        <time>2020-08-05T09:57:41.000Z</time>
      </trkpt>
      <trkpt lat="46.246" lon="6.47634">
        <ele>984.79998779297</ele>
        <time>2020-08-05T09:57:50.000Z</time>
      </trkpt>
      <trkpt lat="46.24586" lon="6.47658">
        <ele>985.59997558594</ele>
        <time>2020-08-05T09:57:58.000Z</time>
      </trkpt>
      <trkpt lat="46.24572" lon="6.47683">
        <ele>987.20001220703</ele>
        <time>2020-08-05T09:58:06.000Z</time>
      </trkpt>
      <trkpt lat="46.24556" lon="6.47711">
        <ele>989</ele>
        <time>2020-08-05T09:58:15.000Z</time>
      </trkpt>
      <trkpt lat="46.24542" lon="6.47735">
        <ele>991.20001220703</ele>
        <time>2020-08-05T09:58:23.000Z</time>
      </trkpt>
      <trkpt lat="46.2453" lon="6.47756">
        <ele>995</ele>
        <time>2020-08-05T09:58:30.000Z</time>
      </trkpt>
      <trkpt lat="46.24517" lon="6.47774">
        <ele>998.20001220703</ele>
        <time>2020-08-05T09:58:37.000Z</time>
      </trkpt>
      <trkpt lat="46.24502" lon="6.47774">
        <ele>997</ele>
        <time>2020-08-05T09:58:42.000Z</time>
      </trkpt>
      <trkpt lat="46.24488" lon="6.47761">
        <ele>994.20001220703</ele>
        <time>2020-08-05T09:58:48.000Z</time>
      </trkpt>
      <trkpt lat="46.24472" lon="6.4774">
        <ele>991.40002441406</ele>
        <time>2020-08-05T09:58:55.000Z</time>
      </trkpt>
      <trkpt lat="46.24453" lon="6.47711">
        <ele>991.59997558594</ele>
        <time>2020-08-05T09:59:04.000Z</time>
      </trkpt>
      <trkpt lat="46.24432" lon="6.47678">
        <ele>992.59997558594</ele>
        <time>2020-08-05T09:59:14.000Z</time>
      </trkpt>
      <trkpt lat="46.24405" lon="6.47636">
        <ele>993.20001220703</ele>
        <time>2020-08-05T09:59:25.000Z</time>
      </trkpt>
      <trkpt lat="46.24383" lon="6.47607">
        <ele>993.40002441406</ele>
        <time>2020-08-05T09:59:34.000Z</time>
      </trkpt>
      <trkpt lat="46.2436" lon="6.47584">
        <ele>994.59997558594</ele>
        <time>2020-08-05T09:59:43.000Z</time>
      </trkpt>
      <trkpt lat="46.24346" lon="6.47579">
        <ele>996</ele>
        <time>2020-08-05T09:59:48.000Z</time>
      </trkpt>
      <trkpt lat="46.24319" lon="6.47571">
        <ele>998.59997558594</ele>
        <time>2020-08-05T09:59:57.000Z</time>
      </trkpt>
      <trkpt lat="46.24302" lon="6.47553">
        <ele>1000.799987793</ele>
        <time>2020-08-05T10:00:04.000Z</time>
      </trkpt>
      <trkpt lat="46.24286" lon="6.47527">
        <ele>1003.4000244141</ele>
        <time>2020-08-05T10:00:12.000Z</time>
      </trkpt>
      <trkpt lat="46.24275" lon="6.47498">
        <ele>1004.5999755859</ele>
        <time>2020-08-05T10:00:20.000Z</time>
      </trkpt>
      <trkpt lat="46.24262" lon="6.47458">
        <ele>1008.4000244141</ele>
        <time>2020-08-05T10:00:30.000Z</time>
      </trkpt>
      <trkpt lat="46.24251" lon="6.47415">
        <ele>1012.5999755859</ele>
        <time>2020-08-05T10:00:41.000Z</time>
      </trkpt>
      <trkpt lat="46.24248" lon="6.47388">
        <ele>1013</ele>
        <time>2020-08-05T10:00:47.000Z</time>
      </trkpt>
      <trkpt lat="46.24246" lon="6.47358">
        <ele>1012.4000244141</ele>
        <time>2020-08-05T10:00:54.000Z</time>
      </trkpt>
      <trkpt lat="46.24245" lon="6.47327">
        <ele>1011.5999755859</ele>
        <time>2020-08-05T10:01:01.000Z</time>
      </trkpt>
      <trkpt lat="46.24243" lon="6.47291">
        <ele>1009.5999755859</ele>
        <time>2020-08-05T10:01:09.000Z</time>
      </trkpt>
      <trkpt lat="46.24239" lon="6.47255">
        <ele>1008</ele>
        <time>2020-08-05T10:01:17.000Z</time>
      </trkpt>
      <trkpt lat="46.24228" lon="6.47247">
        <ele>1010.5999755859</ele>
        <time>2020-08-05T10:01:21.000Z</time>
      </trkpt>
      <trkpt lat="46.2422" lon="6.47252">
        <ele>1012.799987793</ele>
        <time>2020-08-05T10:01:25.000Z</time>
      </trkpt>
      <trkpt lat="46.24214" lon="6.47268">
        <ele>1015.5999755859</ele>
        <time>2020-08-05T10:01:29.000Z</time>
      </trkpt>
      <trkpt lat="46.24215" lon="6.47286">
        <ele>1017.200012207</ele>
        <time>2020-08-05T10:01:34.000Z</time>
      </trkpt>
      <trkpt lat="46.24217" lon="6.4731">
        <ele>1019.5999755859</ele>
        <time>2020-08-05T10:01:40.000Z</time>
      </trkpt>
      <trkpt lat="46.2422" lon="6.47341">
        <ele>1020.5999755859</ele>
        <time>2020-08-05T10:01:47.000Z</time>
      </trkpt>
      <trkpt lat="46.24221" lon="6.47361">
        <ele>1020.5999755859</ele>
        <time>2020-08-05T10:01:52.000Z</time>
      </trkpt>
      <trkpt lat="46.24223" lon="6.47382">
        <ele>1020.5999755859</ele>
        <time>2020-08-05T10:01:57.000Z</time>
      </trkpt>
      <trkpt lat="46.24225" lon="6.47405">
        <ele>1020.5999755859</ele>
        <time>2020-08-05T10:02:03.000Z</time>
      </trkpt>
      <trkpt lat="46.24228" lon="6.47431">
        <ele>1017.799987793</ele>
        <time>2020-08-05T10:02:09.000Z</time>
      </trkpt>
      <trkpt lat="46.24222" lon="6.47455">
        <ele>1019.5999755859</ele>
        <time>2020-08-05T10:02:15.000Z</time>
      </trkpt>
      <trkpt lat="46.24216" lon="6.47471">
        <ele>1021.799987793</ele>
        <time>2020-08-05T10:02:19.000Z</time>
      </trkpt>
      <trkpt lat="46.24206" lon="6.47498">
        <ele>1025.5999755859</ele>
        <time>2020-08-05T10:02:26.000Z</time>
      </trkpt>
      <trkpt lat="46.24196" lon="6.47527">
        <ele>1030.4000244141</ele>
        <time>2020-08-05T10:02:34.000Z</time>
      </trkpt>
      <trkpt lat="46.24187" lon="6.47552">
        <ele>1032</ele>
        <time>2020-08-05T10:02:41.000Z</time>
      </trkpt>
      <trkpt lat="46.24185" lon="6.4757">
        <ele>1031.4000244141</ele>
        <time>2020-08-05T10:02:46.000Z</time>
      </trkpt>
      <trkpt lat="46.24184" lon="6.47593">
        <ele>1032.4000244141</ele>
        <time>2020-08-05T10:02:52.000Z</time>
      </trkpt>
      <trkpt lat="46.2418" lon="6.47621">
        <ele>1030.4000244141</ele>
        <time>2020-08-05T10:02:59.000Z</time>
      </trkpt>
      <trkpt lat="46.24169" lon="6.47637">
        <ele>1030.4000244141</ele>
        <time>2020-08-05T10:03:05.000Z</time>
      </trkpt>
      <trkpt lat="46.24149" lon="6.47653">
        <ele>1033.4000244141</ele>
        <time>2020-08-05T10:03:14.000Z</time>
      </trkpt>
      <trkpt lat="46.24135" lon="6.47665">
        <ele>1037</ele>
        <time>2020-08-05T10:03:20.000Z</time>
      </trkpt>
      <trkpt lat="46.24126" lon="6.47682">
        <ele>1039.4000244141</ele>
        <time>2020-08-05T10:03:26.000Z</time>
      </trkpt>
      <trkpt lat="46.24124" lon="6.47701">
        <ele>1040.5999755859</ele>
        <time>2020-08-05T10:03:31.000Z</time>
      </trkpt>
      <trkpt lat="46.24129" lon="6.47726">
        <ele>1038.8000488281</ele>
        <time>2020-08-05T10:03:38.000Z</time>
      </trkpt>
      <trkpt lat="46.24134" lon="6.47754">
        <ele>1040.4000244141</ele>
        <time>2020-08-05T10:03:46.000Z</time>
      </trkpt>
      <trkpt lat="46.24139" lon="6.47779">
        <ele>1043</ele>
        <time>2020-08-05T10:03:53.000Z</time>
      </trkpt>
      <trkpt lat="46.24143" lon="6.47809">
        <ele>1046.4000244141</ele>
        <time>2020-08-05T10:04:01.000Z</time>
      </trkpt>
      <trkpt lat="46.24142" lon="6.47842">
        <ele>1046.5999755859</ele>
        <time>2020-08-05T10:04:10.000Z</time>
      </trkpt>
      <trkpt lat="46.24142" lon="6.47863">
        <ele>1045.8000488281</ele>
        <time>2020-08-05T10:04:16.000Z</time>
      </trkpt>
      <trkpt lat="46.24141" lon="6.47884">
        <ele>1045.1999511719</ele>
        <time>2020-08-05T10:04:22.000Z</time>
      </trkpt>
      <trkpt lat="46.2414" lon="6.47906">
        <ele>1046</ele>
        <time>2020-08-05T10:04:29.000Z</time>
      </trkpt>
      <trkpt lat="46.2414" lon="6.47929">
        <ele>1047.5999755859</ele>
        <time>2020-08-05T10:04:35.000Z</time>
      </trkpt>
      <trkpt lat="46.24139" lon="6.47962">
        <ele>1050</ele>
        <time>2020-08-05T10:04:43.000Z</time>
      </trkpt>
      <trkpt lat="46.24138" lon="6.47996">
        <ele>1053.8000488281</ele>
        <time>2020-08-05T10:04:51.000Z</time>
      </trkpt>
      <trkpt lat="46.24138" lon="6.4803">
        <ele>1059.4000244141</ele>
        <time>2020-08-05T10:04:59.000Z</time>
      </trkpt>
      <trkpt lat="46.24147" lon="6.48057">
        <ele>1061.1999511719</ele>
        <time>2020-08-05T10:05:07.000Z</time>
      </trkpt>
      <trkpt lat="46.24154" lon="6.48076">
        <ele>1062.8000488281</ele>
        <time>2020-08-05T10:05:12.000Z</time>
      </trkpt>
      <trkpt lat="46.24165" lon="6.481">
        <ele>1065.1999511719</ele>
        <time>2020-08-05T10:05:18.000Z</time>
      </trkpt>
      <trkpt lat="46.24168" lon="6.48106">
        <ele>1065.1999511719</ele>
        <time>2020-08-05T10:05:20.000Z</time>
      </trkpt>
      <trkpt lat="46.24172" lon="6.4811">
        <ele>1065.1999511719</ele>
        <time>2020-08-05T10:05:22.000Z</time>
      </trkpt>
      <trkpt lat="46.24187" lon="6.4813">
        <ele>1065</ele>
        <time>2020-08-05T10:05:30.000Z</time>
      </trkpt>
      <trkpt lat="46.24196" lon="6.48142">
        <ele>1065</ele>
        <time>2020-08-05T10:05:35.000Z</time>
      </trkpt>
      <trkpt lat="46.24205" lon="6.48155">
        <ele>1064.5999755859</ele>
        <time>2020-08-05T10:05:40.000Z</time>
      </trkpt>
      <trkpt lat="46.24212" lon="6.48163">
        <ele>1064.4000244141</ele>
        <time>2020-08-05T10:05:44.000Z</time>
      </trkpt>
      <trkpt lat="46.24213" lon="6.48165">
        <ele>1064.1999511719</ele>
        <time>2020-08-05T10:05:45.000Z</time>
      </trkpt>
      <trkpt lat="46.24222" lon="6.48178">
        <ele>1063.8000488281</ele>
        <time>2020-08-05T10:05:50.000Z</time>
      </trkpt>
      <trkpt lat="46.24238" lon="6.48199">
        <ele>1065.4000244141</ele>
        <time>2020-08-05T10:05:58.000Z</time>
      </trkpt>
      <trkpt lat="46.24254" lon="6.4821">
        <ele>1067</ele>
        <time>2020-08-05T10:06:05.000Z</time>
      </trkpt>
      <trkpt lat="46.24274" lon="6.48223">
        <ele>1068.4000244141</ele>
        <time>2020-08-05T10:06:13.000Z</time>
      </trkpt>
      <trkpt lat="46.24293" lon="6.48238">
        <ele>1070</ele>
        <time>2020-08-05T10:06:21.000Z</time>
      </trkpt>
      <trkpt lat="46.2431" lon="6.48258">
        <ele>1071.1999511719</ele>
        <time>2020-08-05T10:06:29.000Z</time>
      </trkpt>
      <trkpt lat="46.24325" lon="6.48278">
        <ele>1072.4000244141</ele>
        <time>2020-08-05T10:06:37.000Z</time>
      </trkpt>
      <trkpt lat="46.24338" lon="6.48297">
        <ele>1073.4000244141</ele>
        <time>2020-08-05T10:06:44.000Z</time>
      </trkpt>
      <trkpt lat="46.24354" lon="6.4832">
        <ele>1074.8000488281</ele>
        <time>2020-08-05T10:06:52.000Z</time>
      </trkpt>
      <trkpt lat="46.24365" lon="6.48343">
        <ele>1075.8000488281</ele>
        <time>2020-08-05T10:06:59.000Z</time>
      </trkpt>
      <trkpt lat="46.24373" lon="6.48372">
        <ele>1077.5999755859</ele>
        <time>2020-08-05T10:07:07.000Z</time>
      </trkpt>
      <trkpt lat="46.24378" lon="6.48403">
        <ele>1079.4000244141</ele>
        <time>2020-08-05T10:07:15.000Z</time>
      </trkpt>
      <trkpt lat="46.24382" lon="6.48442">
        <ele>1081</ele>
        <time>2020-08-05T10:07:25.000Z</time>
      </trkpt>
      <trkpt lat="46.24386" lon="6.48473">
        <ele>1082.1999511719</ele>
        <time>2020-08-05T10:07:33.000Z</time>
      </trkpt>
      <trkpt lat="46.24389" lon="6.48503">
        <ele>1084.1999511719</ele>
        <time>2020-08-05T10:07:40.000Z</time>
      </trkpt>
      <trkpt lat="46.24397" lon="6.48535">
        <ele>1086.1999511719</ele>
        <time>2020-08-05T10:07:48.000Z</time>
      </trkpt>
      <trkpt lat="46.24407" lon="6.4855">
        <ele>1086.8000488281</ele>
        <time>2020-08-05T10:07:53.000Z</time>
      </trkpt>
      <trkpt lat="46.24417" lon="6.48565">
        <ele>1087.4000244141</ele>
        <time>2020-08-05T10:07:58.000Z</time>
      </trkpt>
      <trkpt lat="46.24434" lon="6.48589">
        <ele>1088</ele>
        <time>2020-08-05T10:08:04.000Z</time>
      </trkpt>
      <trkpt lat="46.24451" lon="6.48615">
        <ele>1088.5999755859</ele>
        <time>2020-08-05T10:08:11.000Z</time>
      </trkpt>
      <trkpt lat="46.24472" lon="6.48646">
        <ele>1089.8000488281</ele>
        <time>2020-08-05T10:08:20.000Z</time>
      </trkpt>
      <trkpt lat="46.24485" lon="6.48666">
        <ele>1090</ele>
        <time>2020-08-05T10:08:26.000Z</time>
      </trkpt>
      <trkpt lat="46.24501" lon="6.48689">
        <ele>1090.5999755859</ele>
        <time>2020-08-05T10:08:33.000Z</time>
      </trkpt>
      <trkpt lat="46.24517" lon="6.48713">
        <ele>1091.4000244141</ele>
        <time>2020-08-05T10:08:40.000Z</time>
      </trkpt>
      <trkpt lat="46.24533" lon="6.4875">
        <ele>1092.5999755859</ele>
        <time>2020-08-05T10:08:49.000Z</time>
      </trkpt>
      <trkpt lat="46.24548" lon="6.48785">
        <ele>1092.8000488281</ele>
        <time>2020-08-05T10:08:58.000Z</time>
      </trkpt>
      <trkpt lat="46.24559" lon="6.48812">
        <ele>1093</ele>
        <time>2020-08-05T10:09:05.000Z</time>
      </trkpt>
      <trkpt lat="46.2457" lon="6.48836">
        <ele>1093.8000488281</ele>
        <time>2020-08-05T10:09:11.000Z</time>
      </trkpt>
      <trkpt lat="46.24582" lon="6.48864">
        <ele>1094.8000488281</ele>
        <time>2020-08-05T10:09:18.000Z</time>
      </trkpt>
      <trkpt lat="46.24595" lon="6.48897">
        <ele>1095.8000488281</ele>
        <time>2020-08-05T10:09:25.000Z</time>
      </trkpt>
      <trkpt lat="46.24617" lon="6.4895">
        <ele>1096</ele>
        <time>2020-08-05T10:09:35.000Z</time>
      </trkpt>
      <trkpt lat="46.24638" lon="6.48984">
        <ele>1096.5999755859</ele>
        <time>2020-08-05T10:09:42.000Z</time>
      </trkpt>
      <trkpt lat="46.2466" lon="6.49011">
        <ele>1096</ele>
        <time>2020-08-05T10:09:48.000Z</time>
      </trkpt>
      <trkpt lat="46.24686" lon="6.49042">
        <ele>1096.4000244141</ele>
        <time>2020-08-05T10:09:55.000Z</time>
      </trkpt>
      <trkpt lat="46.24705" lon="6.4907">
        <ele>1096.5999755859</ele>
        <time>2020-08-05T10:10:01.000Z</time>
      </trkpt>
      <trkpt lat="46.24708" lon="6.49076">
        <ele>1096.1999511719</ele>
        <time>2020-08-05T10:10:02.000Z</time>
      </trkpt>
      <trkpt lat="46.24736" lon="6.49123">
        <ele>1095</ele>
        <time>2020-08-05T10:10:10.000Z</time>
      </trkpt>
      <trkpt lat="46.24767" lon="6.49175">
        <ele>1097.1999511719</ele>
        <time>2020-08-05T10:10:18.000Z</time>
      </trkpt>
      <trkpt lat="46.24797" lon="6.4923">
        <ele>1099.5999755859</ele>
        <time>2020-08-05T10:10:27.000Z</time>
      </trkpt>
      <trkpt lat="46.24826" lon="6.49289">
        <ele>1097.4000244141</ele>
        <time>2020-08-05T10:10:36.000Z</time>
      </trkpt>
      <trkpt lat="46.24855" lon="6.49349">
        <ele>1097.1999511719</ele>
        <time>2020-08-05T10:10:45.000Z</time>
      </trkpt>
      <trkpt lat="46.24886" lon="6.49411">
        <ele>1097.5999755859</ele>
        <time>2020-08-05T10:10:54.000Z</time>
      </trkpt>
      <trkpt lat="46.24916" lon="6.49477">
        <ele>1095.8000488281</ele>
        <time>2020-08-05T10:11:03.000Z</time>
      </trkpt>
      <trkpt lat="46.24919" lon="6.49485">
        <ele>1095.5999755859</ele>
        <time>2020-08-05T10:11:04.000Z</time>
      </trkpt>
      <trkpt lat="46.24948" lon="6.49552">
        <ele>1093.1999511719</ele>
        <time>2020-08-05T10:11:13.000Z</time>
      </trkpt>
      <trkpt lat="46.24951" lon="6.49559">
        <ele>1093.4000244141</ele>
        <time>2020-08-05T10:11:14.000Z</time>
      </trkpt>
      <trkpt lat="46.24981" lon="6.49626">
        <ele>1092.4000244141</ele>
        <time>2020-08-05T10:11:23.000Z</time>
      </trkpt>
      <trkpt lat="46.25011" lon="6.49679">
        <ele>1092.5999755859</ele>
        <time>2020-08-05T10:11:31.000Z</time>
      </trkpt>
      <trkpt lat="46.25034" lon="6.49732">
        <ele>1093.4000244141</ele>
        <time>2020-08-05T10:11:39.000Z</time>
      </trkpt>
      <trkpt lat="46.25061" lon="6.4977">
        <ele>1089.5999755859</ele>
        <time>2020-08-05T10:11:45.000Z</time>
      </trkpt>
      <trkpt lat="46.25073" lon="6.49792">
        <ele>1088</ele>
        <time>2020-08-05T10:11:48.000Z</time>
      </trkpt>
      <trkpt lat="46.25079" lon="6.49809">
        <ele>1086.4000244141</ele>
        <time>2020-08-05T10:11:50.000Z</time>
      </trkpt>
      <trkpt lat="46.25087" lon="6.49834">
        <ele>1084.5999755859</ele>
        <time>2020-08-05T10:11:53.000Z</time>
      </trkpt>
      <trkpt lat="46.2509" lon="6.49841">
        <ele>1084</ele>
        <time>2020-08-05T10:11:54.000Z</time>
      </trkpt>
      <trkpt lat="46.25088" lon="6.49862">
        <ele>1084.1999511719</ele>
        <time>2020-08-05T10:11:56.000Z</time>
      </trkpt>
      <trkpt lat="46.25088" lon="6.49878">
        <ele>1084.5999755859</ele>
        <time>2020-08-05T10:11:58.000Z</time>
      </trkpt>
      <trkpt lat="46.25099" lon="6.49907">
        <ele>1084.5999755859</ele>
        <time>2020-08-05T10:12:02.000Z</time>
      </trkpt>
      <trkpt lat="46.25102" lon="6.49914">
        <ele>1084.5999755859</ele>
        <time>2020-08-05T10:12:03.000Z</time>
      </trkpt>
      <trkpt lat="46.25107" lon="6.49942">
        <ele>1084.4000244141</ele>
        <time>2020-08-05T10:12:07.000Z</time>
      </trkpt>
      <trkpt lat="46.25114" lon="6.49979">
        <ele>1088</ele>
        <time>2020-08-05T10:12:13.000Z</time>
      </trkpt>
      <trkpt lat="46.25116" lon="6.49985">
        <ele>1088.5999755859</ele>
        <time>2020-08-05T10:12:14.000Z</time>
      </trkpt>
      <trkpt lat="46.25124" lon="6.50026">
        <ele>1089.5999755859</ele>
        <time>2020-08-05T10:12:22.000Z</time>
      </trkpt>
      <trkpt lat="46.25136" lon="6.50061">
        <ele>1090</ele>
        <time>2020-08-05T10:12:30.000Z</time>
      </trkpt>
      <trkpt lat="46.25148" lon="6.5009">
        <ele>1090.1999511719</ele>
        <time>2020-08-05T10:12:37.000Z</time>
      </trkpt>
      <trkpt lat="46.2516" lon="6.50116">
        <ele>1090.4000244141</ele>
        <time>2020-08-05T10:12:44.000Z</time>
      </trkpt>
      <trkpt lat="46.25175" lon="6.50151">
        <ele>1090.4000244141</ele>
        <time>2020-08-05T10:12:53.000Z</time>
      </trkpt>
      <trkpt lat="46.25186" lon="6.50188">
        <ele>1089.1999511719</ele>
        <time>2020-08-05T10:13:02.000Z</time>
      </trkpt>
      <trkpt lat="46.25189" lon="6.50221">
        <ele>1091.5999755859</ele>
        <time>2020-08-05T10:13:10.000Z</time>
      </trkpt>
      <trkpt lat="46.25192" lon="6.5026">
        <ele>1093.8000488281</ele>
        <time>2020-08-05T10:13:19.000Z</time>
      </trkpt>
      <trkpt lat="46.25195" lon="6.50289">
        <ele>1095.4000244141</ele>
        <time>2020-08-05T10:13:26.000Z</time>
      </trkpt>
      <trkpt lat="46.25202" lon="6.50324">
        <ele>1097</ele>
        <time>2020-08-05T10:13:35.000Z</time>
      </trkpt>
      <trkpt lat="46.25212" lon="6.50363">
        <ele>1098.5999755859</ele>
        <time>2020-08-05T10:13:45.000Z</time>
      </trkpt>
      <trkpt lat="46.25218" lon="6.5039">
        <ele>1099.5999755859</ele>
        <time>2020-08-05T10:13:52.000Z</time>
      </trkpt>
      <trkpt lat="46.25226" lon="6.50422">
        <ele>1100.4000244141</ele>
        <time>2020-08-05T10:14:00.000Z</time>
      </trkpt>
      <trkpt lat="46.25233" lon="6.5045">
        <ele>1101.4000244141</ele>
        <time>2020-08-05T10:14:07.000Z</time>
      </trkpt>
      <trkpt lat="46.25234" lon="6.50474">
        <ele>1104</ele>
        <time>2020-08-05T10:14:13.000Z</time>
      </trkpt>
      <trkpt lat="46.25228" lon="6.50492">
        <ele>1107.1999511719</ele>
        <time>2020-08-05T10:14:18.000Z</time>
      </trkpt>
      <trkpt lat="46.25207" lon="6.5051">
        <ele>1110.5999755859</ele>
        <time>2020-08-05T10:14:26.000Z</time>
      </trkpt>
      <trkpt lat="46.25189" lon="6.50527">
        <ele>1113.1999511719</ele>
        <time>2020-08-05T10:14:33.000Z</time>
      </trkpt>
      <trkpt lat="46.2518" lon="6.50552">
        <ele>1113</ele>
        <time>2020-08-05T10:14:39.000Z</time>
      </trkpt>
      <trkpt lat="46.25183" lon="6.5058">
        <ele>1111.8000488281</ele>
        <time>2020-08-05T10:14:44.000Z</time>
      </trkpt>
      <trkpt lat="46.25196" lon="6.50625">
        <ele>1110.5999755859</ele>
        <time>2020-08-05T10:14:52.000Z</time>
      </trkpt>
      <trkpt lat="46.2521" lon="6.50678">
        <ele>1112</ele>
        <time>2020-08-05T10:15:01.000Z</time>
      </trkpt>
      <trkpt lat="46.25225" lon="6.50722">
        <ele>1113.5999755859</ele>
        <time>2020-08-05T10:15:09.000Z</time>
      </trkpt>
      <trkpt lat="46.25237" lon="6.50749">
        <ele>1114.1999511719</ele>
        <time>2020-08-05T10:15:15.000Z</time>
      </trkpt>
      <trkpt lat="46.25248" lon="6.50775">
        <ele>1114.8000488281</ele>
        <time>2020-08-05T10:15:20.000Z</time>
      </trkpt>
      <trkpt lat="46.2525" lon="6.5078">
        <ele>1114.8000488281</ele>
        <time>2020-08-05T10:15:21.000Z</time>
      </trkpt>
      <trkpt lat="46.25263" lon="6.50808">
        <ele>1115.4000244141</ele>
        <time>2020-08-05T10:15:27.000Z</time>
      </trkpt>
      <trkpt lat="46.25281" lon="6.50843">
        <ele>1112.4000244141</ele>
        <time>2020-08-05T10:15:34.000Z</time>
      </trkpt>
      <trkpt lat="46.25287" lon="6.50853">
        <ele>1111.4000244141</ele>
        <time>2020-08-05T10:15:36.000Z</time>
      </trkpt>
      <trkpt lat="46.25297" lon="6.50873">
        <ele>1109.4000244141</ele>
        <time>2020-08-05T10:15:40.000Z</time>
      </trkpt>
      <trkpt lat="46.25316" lon="6.50928">
        <ele>1107.5999755859</ele>
        <time>2020-08-05T10:15:49.000Z</time>
      </trkpt>
      <trkpt lat="46.2533" lon="6.50967">
        <ele>1108.1999511719</ele>
        <time>2020-08-05T10:15:55.000Z</time>
      </trkpt>
      <trkpt lat="46.25337" lon="6.50978">
        <ele>1107.5999755859</ele>
        <time>2020-08-05T10:15:57.000Z</time>
      </trkpt>
      <trkpt lat="46.25347" lon="6.50993">
        <ele>1106.5999755859</ele>
        <time>2020-08-05T10:16:00.000Z</time>
      </trkpt>
      <trkpt lat="46.25351" lon="6.50998">
        <ele>1106.1999511719</ele>
        <time>2020-08-05T10:16:01.000Z</time>
      </trkpt>
      <trkpt lat="46.2538" lon="6.5104">
        <ele>1103.4000244141</ele>
        <time>2020-08-05T10:16:09.000Z</time>
      </trkpt>
      <trkpt lat="46.25384" lon="6.51053">
        <ele>1103.4000244141</ele>
        <time>2020-08-05T10:16:11.000Z</time>
      </trkpt>
      <trkpt lat="46.2539" lon="6.51075">
        <ele>1103.5999755859</ele>
        <time>2020-08-05T10:16:14.000Z</time>
      </trkpt>
      <trkpt lat="46.25392" lon="6.51112">
        <ele>1104</ele>
        <time>2020-08-05T10:16:19.000Z</time>
      </trkpt>
      <trkpt lat="46.25386" lon="6.51192">
        <ele>1106.8000488281</ele>
        <time>2020-08-05T10:16:29.000Z</time>
      </trkpt>
      <trkpt lat="46.25381" lon="6.51268">
        <ele>1107</ele>
        <time>2020-08-05T10:16:38.000Z</time>
      </trkpt>
      <trkpt lat="46.25378" lon="6.51276">
        <ele>1107</ele>
        <time>2020-08-05T10:16:39.000Z</time>
      </trkpt>
      <trkpt lat="46.25372" lon="6.51289">
        <ele>1107.1999511719</ele>
        <time>2020-08-05T10:16:41.000Z</time>
      </trkpt>
      <trkpt lat="46.25362" lon="6.51294">
        <ele>1106.8000488281</ele>
        <time>2020-08-05T10:16:43.000Z</time>
      </trkpt>
      <trkpt lat="46.25356" lon="6.51295">
        <ele>1106.8000488281</ele>
        <time>2020-08-05T10:16:44.000Z</time>
      </trkpt>
      <trkpt lat="46.25351" lon="6.51296">
        <ele>1106.8000488281</ele>
        <time>2020-08-05T10:16:45.000Z</time>
      </trkpt>
      <trkpt lat="46.25332" lon="6.51294">
        <ele>1107</ele>
        <time>2020-08-05T10:16:48.000Z</time>
      </trkpt>
      <trkpt lat="46.25277" lon="6.51288">
        <ele>1108.4000244141</ele>
        <time>2020-08-05T10:16:57.000Z</time>
      </trkpt>
      <trkpt lat="46.25219" lon="6.51281">
        <ele>1110.8000488281</ele>
        <time>2020-08-05T10:17:07.000Z</time>
      </trkpt>
      <trkpt lat="46.25174" lon="6.51274">
        <ele>1112.4000244141</ele>
        <time>2020-08-05T10:17:15.000Z</time>
      </trkpt>
      <trkpt lat="46.25129" lon="6.51267">
        <ele>1113</ele>
        <time>2020-08-05T10:17:23.000Z</time>
      </trkpt>
      <trkpt lat="46.25081" lon="6.5126">
        <ele>1112.1999511719</ele>
        <time>2020-08-05T10:17:32.000Z</time>
      </trkpt>
      <trkpt lat="46.25027" lon="6.51252">
        <ele>1112.5999755859</ele>
        <time>2020-08-05T10:17:42.000Z</time>
      </trkpt>
      <trkpt lat="46.24977" lon="6.51244">
        <ele>1112.8000488281</ele>
        <time>2020-08-05T10:17:51.000Z</time>
      </trkpt>
      <trkpt lat="46.24943" lon="6.51246">
        <ele>1110.8000488281</ele>
        <time>2020-08-05T10:17:57.000Z</time>
      </trkpt>
      <trkpt lat="46.24937" lon="6.51247">
        <ele>1110.4000244141</ele>
        <time>2020-08-05T10:17:58.000Z</time>
      </trkpt>
      <trkpt lat="46.24931" lon="6.51248">
        <ele>1110</ele>
        <time>2020-08-05T10:17:59.000Z</time>
      </trkpt>
      <trkpt lat="46.2492" lon="6.51255">
        <ele>1109.1999511719</ele>
        <time>2020-08-05T10:18:01.000Z</time>
      </trkpt>
      <trkpt lat="46.24914" lon="6.5126">
        <ele>1108.8000488281</ele>
        <time>2020-08-05T10:18:02.000Z</time>
      </trkpt>
      <trkpt lat="46.24886" lon="6.51289">
        <ele>1107</ele>
        <time>2020-08-05T10:18:07.000Z</time>
      </trkpt>
      <trkpt lat="46.24865" lon="6.5131">
        <ele>1106</ele>
        <time>2020-08-05T10:18:12.000Z</time>
      </trkpt>
      <trkpt lat="46.24846" lon="6.51321">
        <ele>1105.1999511719</ele>
        <time>2020-08-05T10:18:16.000Z</time>
      </trkpt>
      <trkpt lat="46.2484" lon="6.51322">
        <ele>1105.1999511719</ele>
        <time>2020-08-05T10:18:17.000Z</time>
      </trkpt>
      <trkpt lat="46.24823" lon="6.51325">
        <ele>1104.5999755859</ele>
        <time>2020-08-05T10:18:20.000Z</time>
      </trkpt>
      <trkpt lat="46.24812" lon="6.51324">
        <ele>1104.4000244141</ele>
        <time>2020-08-05T10:18:22.000Z</time>
      </trkpt>
      <trkpt lat="46.24776" lon="6.51322">
        <ele>1102</ele>
        <time>2020-08-05T10:18:28.000Z</time>
      </trkpt>
      <trkpt lat="46.24746" lon="6.51322">
        <ele>1100.1999511719</ele>
        <time>2020-08-05T10:18:34.000Z</time>
      </trkpt>
      <trkpt lat="46.24741" lon="6.51325">
        <ele>1100</ele>
        <time>2020-08-05T10:18:35.000Z</time>
      </trkpt>
      <trkpt lat="46.24724" lon="6.51336">
        <ele>1099.1999511719</ele>
        <time>2020-08-05T10:18:38.000Z</time>
      </trkpt>
      <trkpt lat="46.24682" lon="6.51363">
        <ele>1094.8000488281</ele>
        <time>2020-08-05T10:18:44.000Z</time>
      </trkpt>
      <trkpt lat="46.24632" lon="6.51392">
        <ele>1088.5999755859</ele>
        <time>2020-08-05T10:18:51.000Z</time>
      </trkpt>
      <trkpt lat="46.24617" lon="6.51394">
        <ele>1087.4000244141</ele>
        <time>2020-08-05T10:18:53.000Z</time>
      </trkpt>
      <trkpt lat="46.24603" lon="6.51396">
        <ele>1086.1999511719</ele>
        <time>2020-08-05T10:18:55.000Z</time>
      </trkpt>
      <trkpt lat="46.24595" lon="6.51396">
        <ele>1085.5999755859</ele>
        <time>2020-08-05T10:18:56.000Z</time>
      </trkpt>
      <trkpt lat="46.24581" lon="6.51401">
        <ele>1084.5999755859</ele>
        <time>2020-08-05T10:18:58.000Z</time>
      </trkpt>
      <trkpt lat="46.24567" lon="6.5141">
        <ele>1085.1999511719</ele>
        <time>2020-08-05T10:19:00.000Z</time>
      </trkpt>
      <trkpt lat="46.2456" lon="6.51415">
        <ele>1085.1999511719</ele>
        <time>2020-08-05T10:19:01.000Z</time>
      </trkpt>
      <trkpt lat="46.24546" lon="6.51424">
        <ele>1085</ele>
        <time>2020-08-05T10:19:03.000Z</time>
      </trkpt>
      <trkpt lat="46.2453" lon="6.51433">
        <ele>1084.1999511719</ele>
        <time>2020-08-05T10:19:05.000Z</time>
      </trkpt>
      <trkpt lat="46.24478" lon="6.51442">
        <ele>1081.5999755859</ele>
        <time>2020-08-05T10:19:11.000Z</time>
      </trkpt>
      <trkpt lat="46.24424" lon="6.51452">
        <ele>1078.4000244141</ele>
        <time>2020-08-05T10:19:17.000Z</time>
      </trkpt>
      <trkpt lat="46.24398" lon="6.51457">
        <ele>1075.8000488281</ele>
        <time>2020-08-05T10:19:20.000Z</time>
      </trkpt>
      <trkpt lat="46.24344" lon="6.51472">
        <ele>1068.8000488281</ele>
        <time>2020-08-05T10:19:26.000Z</time>
      </trkpt>
      <trkpt lat="46.24287" lon="6.515">
        <ele>1063.1999511719</ele>
        <time>2020-08-05T10:19:32.000Z</time>
      </trkpt>
      <trkpt lat="46.24268" lon="6.51509">
        <ele>1062</ele>
        <time>2020-08-05T10:19:34.000Z</time>
      </trkpt>
      <trkpt lat="46.24211" lon="6.51536">
        <ele>1065.4000244141</ele>
        <time>2020-08-05T10:19:40.000Z</time>
      </trkpt>
      <trkpt lat="46.24193" lon="6.51545">
        <ele>1065.1999511719</ele>
        <time>2020-08-05T10:19:42.000Z</time>
      </trkpt>
      <trkpt lat="46.24141" lon="6.5157">
        <ele>1060.1999511719</ele>
        <time>2020-08-05T10:19:48.000Z</time>
      </trkpt>
      <trkpt lat="46.24123" lon="6.51576">
        <ele>1059.1999511719</ele>
        <time>2020-08-05T10:19:50.000Z</time>
      </trkpt>
      <trkpt lat="46.24073" lon="6.51594">
        <ele>1056.1999511719</ele>
        <time>2020-08-05T10:19:56.000Z</time>
      </trkpt>
      <trkpt lat="46.24048" lon="6.51597">
        <ele>1054.1999511719</ele>
        <time>2020-08-05T10:19:59.000Z</time>
      </trkpt>
      <trkpt lat="46.2404" lon="6.51598">
        <ele>1054</ele>
        <time>2020-08-05T10:20:00.000Z</time>
      </trkpt>
      <trkpt lat="46.24025" lon="6.51599">
        <ele>1053.5999755859</ele>
        <time>2020-08-05T10:20:02.000Z</time>
      </trkpt>
      <trkpt lat="46.2401" lon="6.51602">
        <ele>1053.4000244141</ele>
        <time>2020-08-05T10:20:04.000Z</time>
      </trkpt>
      <trkpt lat="46.23979" lon="6.51621">
        <ele>1052.8000488281</ele>
        <time>2020-08-05T10:20:08.000Z</time>
      </trkpt>
      <trkpt lat="46.23953" lon="6.51629">
        <ele>1052.8000488281</ele>
        <time>2020-08-05T10:20:11.000Z</time>
      </trkpt>
      <trkpt lat="46.23944" lon="6.5163">
        <ele>1051.5999755859</ele>
        <time>2020-08-05T10:20:12.000Z</time>
      </trkpt>
      <trkpt lat="46.23884" lon="6.51638">
        <ele>1044.1999511719</ele>
        <time>2020-08-05T10:20:19.000Z</time>
      </trkpt>
      <trkpt lat="46.23869" lon="6.51649">
        <ele>1044</ele>
        <time>2020-08-05T10:20:21.000Z</time>
      </trkpt>
      <trkpt lat="46.23862" lon="6.51657">
        <ele>1045</ele>
        <time>2020-08-05T10:20:22.000Z</time>
      </trkpt>
      <trkpt lat="46.23829" lon="6.51699">
        <ele>1049.4000244141</ele>
        <time>2020-08-05T10:20:27.000Z</time>
      </trkpt>
      <trkpt lat="46.23822" lon="6.51707">
        <ele>1049.5999755859</ele>
        <time>2020-08-05T10:20:28.000Z</time>
      </trkpt>
      <trkpt lat="46.238" lon="6.51722">
        <ele>1048</ele>
        <time>2020-08-05T10:20:31.000Z</time>
      </trkpt>
      <trkpt lat="46.23764" lon="6.51747">
        <ele>1044.5999755859</ele>
        <time>2020-08-05T10:20:37.000Z</time>
      </trkpt>
      <trkpt lat="46.23733" lon="6.51781">
        <ele>1043.5999755859</ele>
        <time>2020-08-05T10:20:43.000Z</time>
      </trkpt>
      <trkpt lat="46.23705" lon="6.51816">
        <ele>1043.5999755859</ele>
        <time>2020-08-05T10:20:48.000Z</time>
      </trkpt>
      <trkpt lat="46.237" lon="6.51836">
        <ele>1044.1999511719</ele>
        <time>2020-08-05T10:20:50.000Z</time>
      </trkpt>
      <trkpt lat="46.23697" lon="6.51858">
        <ele>1045.5999755859</ele>
        <time>2020-08-05T10:20:52.000Z</time>
      </trkpt>
      <trkpt lat="46.23694" lon="6.5188">
        <ele>1046.4000244141</ele>
        <time>2020-08-05T10:20:54.000Z</time>
      </trkpt>
      <trkpt lat="46.2369" lon="6.51901">
        <ele>1046.8000488281</ele>
        <time>2020-08-05T10:20:56.000Z</time>
      </trkpt>
      <trkpt lat="46.2368" lon="6.51919">
        <ele>1049</ele>
        <time>2020-08-05T10:20:58.000Z</time>
      </trkpt>
      <trkpt lat="46.23668" lon="6.51933">
        <ele>1049</ele>
        <time>2020-08-05T10:21:00.000Z</time>
      </trkpt>
      <trkpt lat="46.23655" lon="6.51944">
        <ele>1047.1999511719</ele>
        <time>2020-08-05T10:21:02.000Z</time>
      </trkpt>
      <trkpt lat="46.23647" lon="6.51947">
        <ele>1045.5999755859</ele>
        <time>2020-08-05T10:21:03.000Z</time>
      </trkpt>
      <trkpt lat="46.23603" lon="6.51966">
        <ele>1044</ele>
        <time>2020-08-05T10:21:09.000Z</time>
      </trkpt>
      <trkpt lat="46.23557" lon="6.51985">
        <ele>1039.1999511719</ele>
        <time>2020-08-05T10:21:16.000Z</time>
      </trkpt>
      <trkpt lat="46.23528" lon="6.51997">
        <ele>1039.5999755859</ele>
        <time>2020-08-05T10:21:21.000Z</time>
      </trkpt>
      <trkpt lat="46.23523" lon="6.51998">
        <ele>1039.5999755859</ele>
        <time>2020-08-05T10:21:22.000Z</time>
      </trkpt>
      <trkpt lat="46.23506" lon="6.51994">
        <ele>1040.1999511719</ele>
        <time>2020-08-05T10:21:24.000Z</time>
      </trkpt>
      <trkpt lat="46.23506" lon="6.51993">
        <ele>1040.1999511719</ele>
        <time>2020-08-05T10:21:25.000Z</time>
      </trkpt>
      <trkpt lat="46.23502" lon="6.51988">
        <ele>1040.4000244141</ele>
        <time>2020-08-05T10:21:26.000Z</time>
      </trkpt>
      <trkpt lat="46.2349" lon="6.5197">
        <ele>1040.1999511719</ele>
        <time>2020-08-05T10:21:29.000Z</time>
      </trkpt>
      <trkpt lat="46.23465" lon="6.51934">
        <ele>1040.5999755859</ele>
        <time>2020-08-05T10:21:34.000Z</time>
      </trkpt>
      <trkpt lat="46.23453" lon="6.51924">
        <ele>1041.5999755859</ele>
        <time>2020-08-05T10:21:36.000Z</time>
      </trkpt>
      <trkpt lat="46.23445" lon="6.51917">
        <ele>1042.4000244141</ele>
        <time>2020-08-05T10:21:38.000Z</time>
      </trkpt>
      <trkpt lat="46.23438" lon="6.51912">
        <ele>1042.8000488281</ele>
        <time>2020-08-05T10:21:41.000Z</time>
      </trkpt>
      <trkpt lat="46.23436" lon="6.51909">
        <ele>1043.1999511719</ele>
        <time>2020-08-05T10:21:43.000Z</time>
      </trkpt>
      <trkpt lat="46.23435" lon="6.51909">
        <ele>1043.1999511719</ele>
        <time>2020-08-05T10:21:45.000Z</time>
      </trkpt>
      <trkpt lat="46.23431" lon="6.51905">
        <ele>1043.5999755859</ele>
        <time>2020-08-05T10:23:02.000Z</time>
      </trkpt>
      <trkpt lat="46.23426" lon="6.51901">
        <ele>1044</ele>
        <time>2020-08-05T10:23:04.000Z</time>
      </trkpt>
      <trkpt lat="46.23415" lon="6.51891">
        <ele>1042.8000488281</ele>
        <time>2020-08-05T10:23:07.000Z</time>
      </trkpt>
      <trkpt lat="46.2341" lon="6.51888">
        <ele>1042.1999511719</ele>
        <time>2020-08-05T10:23:08.000Z</time>
      </trkpt>
      <trkpt lat="46.23384" lon="6.51866">
        <ele>1040.5999755859</ele>
        <time>2020-08-05T10:23:13.000Z</time>
      </trkpt>
      <trkpt lat="46.23364" lon="6.51849">
        <ele>1041</ele>
        <time>2020-08-05T10:23:17.000Z</time>
      </trkpt>
      <trkpt lat="46.23353" lon="6.5184">
        <ele>1041.4000244141</ele>
        <time>2020-08-05T10:23:19.000Z</time>
      </trkpt>
      <trkpt lat="46.23337" lon="6.51826">
        <ele>1041.8000488281</ele>
        <time>2020-08-05T10:23:22.000Z</time>
      </trkpt>
      <trkpt lat="46.23332" lon="6.51822">
        <ele>1041.8000488281</ele>
        <time>2020-08-05T10:23:23.000Z</time>
      </trkpt>
      <trkpt lat="46.23305" lon="6.51799">
        <ele>1038.8000488281</ele>
        <time>2020-08-05T10:23:28.000Z</time>
      </trkpt>
      <trkpt lat="46.23286" lon="6.51787">
        <ele>1037.4000244141</ele>
        <time>2020-08-05T10:23:31.000Z</time>
      </trkpt>
      <trkpt lat="46.23279" lon="6.51783">
        <ele>1037.1999511719</ele>
        <time>2020-08-05T10:23:32.000Z</time>
      </trkpt>
      <trkpt lat="46.23257" lon="6.51769">
        <ele>1035.4000244141</ele>
        <time>2020-08-05T10:23:35.000Z</time>
      </trkpt>
      <trkpt lat="46.23244" lon="6.51758">
        <ele>1033.4000244141</ele>
        <time>2020-08-05T10:23:37.000Z</time>
      </trkpt>
      <trkpt lat="46.23229" lon="6.51747">
        <ele>1031.1999511719</ele>
        <time>2020-08-05T10:23:39.000Z</time>
      </trkpt>
      <trkpt lat="46.23196" lon="6.51721">
        <ele>1029.5999755859</ele>
        <time>2020-08-05T10:23:44.000Z</time>
      </trkpt>
      <trkpt lat="46.23163" lon="6.51696">
        <ele>1026.1999511719</ele>
        <time>2020-08-05T10:23:49.000Z</time>
      </trkpt>
      <trkpt lat="46.23143" lon="6.5168">
        <ele>1024.4000244141</ele>
        <time>2020-08-05T10:23:52.000Z</time>
      </trkpt>
      <trkpt lat="46.23129" lon="6.5167">
        <ele>1025</ele>
        <time>2020-08-05T10:23:54.000Z</time>
      </trkpt>
      <trkpt lat="46.23108" lon="6.51653">
        <ele>1025.8000488281</ele>
        <time>2020-08-05T10:23:57.000Z</time>
      </trkpt>
      <trkpt lat="46.23094" lon="6.51643">
        <ele>1026.1999511719</ele>
        <time>2020-08-05T10:23:59.000Z</time>
      </trkpt>
      <trkpt lat="46.23081" lon="6.51633">
        <ele>1026.4000244141</ele>
        <time>2020-08-05T10:24:01.000Z</time>
      </trkpt>
      <trkpt lat="46.2307" lon="6.51624">
        <ele>1026.4000244141</ele>
        <time>2020-08-05T10:24:03.000Z</time>
      </trkpt>
      <trkpt lat="46.23063" lon="6.51619">
        <ele>1026.5999755859</ele>
        <time>2020-08-05T10:24:04.000Z</time>
      </trkpt>
      <trkpt lat="46.23049" lon="6.51608">
        <ele>1024</ele>
        <time>2020-08-05T10:24:06.000Z</time>
      </trkpt>
      <trkpt lat="46.23012" lon="6.51586">
        <ele>1020.799987793</ele>
        <time>2020-08-05T10:24:11.000Z</time>
      </trkpt>
      <trkpt lat="46.22987" lon="6.51573">
        <ele>1019.4000244141</ele>
        <time>2020-08-05T10:24:14.000Z</time>
      </trkpt>
      <trkpt lat="46.22971" lon="6.51564">
        <ele>1018</ele>
        <time>2020-08-05T10:24:16.000Z</time>
      </trkpt>
      <trkpt lat="46.22947" lon="6.51551">
        <ele>1015.5999755859</ele>
        <time>2020-08-05T10:24:19.000Z</time>
      </trkpt>
      <trkpt lat="46.22933" lon="6.51543">
        <ele>1014.200012207</ele>
        <time>2020-08-05T10:24:21.000Z</time>
      </trkpt>
      <trkpt lat="46.22918" lon="6.51539">
        <ele>1015.200012207</ele>
        <time>2020-08-05T10:24:23.000Z</time>
      </trkpt>
      <trkpt lat="46.22903" lon="6.51541">
        <ele>1019</ele>
        <time>2020-08-05T10:24:25.000Z</time>
      </trkpt>
      <trkpt lat="46.22889" lon="6.51542">
        <ele>1022.799987793</ele>
        <time>2020-08-05T10:24:27.000Z</time>
      </trkpt>
      <trkpt lat="46.22882" lon="6.51543">
        <ele>1024.5999755859</ele>
        <time>2020-08-05T10:24:28.000Z</time>
      </trkpt>
      <trkpt lat="46.22868" lon="6.51539">
        <ele>1024.8000488281</ele>
        <time>2020-08-05T10:24:30.000Z</time>
      </trkpt>
      <trkpt lat="46.22855" lon="6.51529">
        <ele>1021.4000244141</ele>
        <time>2020-08-05T10:24:32.000Z</time>
      </trkpt>
      <trkpt lat="46.22821" lon="6.51501">
        <ele>1012.200012207</ele>
        <time>2020-08-05T10:24:37.000Z</time>
      </trkpt>
      <trkpt lat="46.22812" lon="6.51497">
        <ele>1011.4000244141</ele>
        <time>2020-08-05T10:24:38.000Z</time>
      </trkpt>
      <trkpt lat="46.22794" lon="6.51493">
        <ele>1012.5999755859</ele>
        <time>2020-08-05T10:24:40.000Z</time>
      </trkpt>
      <trkpt lat="46.22786" lon="6.51491">
        <ele>1013</ele>
        <time>2020-08-05T10:24:41.000Z</time>
      </trkpt>
      <trkpt lat="46.22772" lon="6.51484">
        <ele>1011.799987793</ele>
        <time>2020-08-05T10:24:43.000Z</time>
      </trkpt>
      <trkpt lat="46.22758" lon="6.51475">
        <ele>1010</ele>
        <time>2020-08-05T10:24:45.000Z</time>
      </trkpt>
      <trkpt lat="46.22752" lon="6.51471">
        <ele>1009</ele>
        <time>2020-08-05T10:24:46.000Z</time>
      </trkpt>
      <trkpt lat="46.2273" lon="6.51458">
        <ele>1006</ele>
        <time>2020-08-05T10:24:49.000Z</time>
      </trkpt>
      <trkpt lat="46.22685" lon="6.51429">
        <ele>999.79998779297</ele>
        <time>2020-08-05T10:24:55.000Z</time>
      </trkpt>
      <trkpt lat="46.22648" lon="6.51398">
        <ele>991.40002441406</ele>
        <time>2020-08-05T10:25:00.000Z</time>
      </trkpt>
      <trkpt lat="46.2261" lon="6.51367">
        <ele>986.40002441406</ele>
        <time>2020-08-05T10:25:05.000Z</time>
      </trkpt>
      <trkpt lat="46.2255" lon="6.51333">
        <ele>986.40002441406</ele>
        <time>2020-08-05T10:25:12.000Z</time>
      </trkpt>
      <trkpt lat="46.22541" lon="6.51328">
        <ele>986.40002441406</ele>
        <time>2020-08-05T10:25:13.000Z</time>
      </trkpt>
      <trkpt lat="46.22517" lon="6.51315">
        <ele>986.59997558594</ele>
        <time>2020-08-05T10:25:16.000Z</time>
      </trkpt>
      <trkpt lat="46.22509" lon="6.5131">
        <ele>987</ele>
        <time>2020-08-05T10:25:17.000Z</time>
      </trkpt>
      <trkpt lat="46.22501" lon="6.51306">
        <ele>987.40002441406</ele>
        <time>2020-08-05T10:25:18.000Z</time>
      </trkpt>
      <trkpt lat="46.22487" lon="6.51287">
        <ele>983.20001220703</ele>
        <time>2020-08-05T10:25:20.000Z</time>
      </trkpt>
      <trkpt lat="46.22463" lon="6.51252">
        <ele>976.20001220703</ele>
        <time>2020-08-05T10:25:24.000Z</time>
      </trkpt>
      <trkpt lat="46.22458" lon="6.51243">
        <ele>974.79998779297</ele>
        <time>2020-08-05T10:25:25.000Z</time>
      </trkpt>
      <trkpt lat="46.22418" lon="6.51207">
        <ele>972.79998779297</ele>
        <time>2020-08-05T10:25:30.000Z</time>
      </trkpt>
      <trkpt lat="46.22389" lon="6.51183">
        <ele>972</ele>
        <time>2020-08-05T10:25:34.000Z</time>
      </trkpt>
      <trkpt lat="46.22382" lon="6.51178">
        <ele>971.59997558594</ele>
        <time>2020-08-05T10:25:35.000Z</time>
      </trkpt>
      <trkpt lat="46.22375" lon="6.51172">
        <ele>971</ele>
        <time>2020-08-05T10:25:36.000Z</time>
      </trkpt>
      <trkpt lat="46.22351" lon="6.51161">
        <ele>974</ele>
        <time>2020-08-05T10:25:39.000Z</time>
      </trkpt>
      <trkpt lat="46.22342" lon="6.51158">
        <ele>975.20001220703</ele>
        <time>2020-08-05T10:25:40.000Z</time>
      </trkpt>
      <trkpt lat="46.22334" lon="6.51155">
        <ele>976.20001220703</ele>
        <time>2020-08-05T10:25:41.000Z</time>
      </trkpt>
      <trkpt lat="46.2231" lon="6.51134">
        <ele>974</ele>
        <time>2020-08-05T10:25:44.000Z</time>
      </trkpt>
      <trkpt lat="46.22272" lon="6.51094">
        <ele>968.79998779297</ele>
        <time>2020-08-05T10:25:49.000Z</time>
      </trkpt>
      <trkpt lat="46.22222" lon="6.51056">
        <ele>967.59997558594</ele>
        <time>2020-08-05T10:25:55.000Z</time>
      </trkpt>
      <trkpt lat="46.22213" lon="6.5105">
        <ele>967.20001220703</ele>
        <time>2020-08-05T10:25:56.000Z</time>
      </trkpt>
      <trkpt lat="46.22163" lon="6.5101">
        <ele>963.59997558594</ele>
        <time>2020-08-05T10:26:02.000Z</time>
      </trkpt>
      <trkpt lat="46.22116" lon="6.50966">
        <ele>957.79998779297</ele>
        <time>2020-08-05T10:26:08.000Z</time>
      </trkpt>
      <trkpt lat="46.22078" lon="6.50933">
        <ele>955.40002441406</ele>
        <time>2020-08-05T10:26:13.000Z</time>
      </trkpt>
      <trkpt lat="46.22046" lon="6.50908">
        <ele>954.20001220703</ele>
        <time>2020-08-05T10:26:17.000Z</time>
      </trkpt>
      <trkpt lat="46.22038" lon="6.50901">
        <ele>953.59997558594</ele>
        <time>2020-08-05T10:26:18.000Z</time>
      </trkpt>
      <trkpt lat="46.2199" lon="6.50864">
        <ele>955.40002441406</ele>
        <time>2020-08-05T10:26:24.000Z</time>
      </trkpt>
      <trkpt lat="46.21944" lon="6.50823">
        <ele>950</ele>
        <time>2020-08-05T10:26:30.000Z</time>
      </trkpt>
      <trkpt lat="46.21898" lon="6.50775">
        <ele>941.79998779297</ele>
        <time>2020-08-05T10:26:36.000Z</time>
      </trkpt>
      <trkpt lat="46.21883" lon="6.5076">
        <ele>941.59997558594</ele>
        <time>2020-08-05T10:26:38.000Z</time>
      </trkpt>
      <trkpt lat="46.21834" lon="6.50707">
        <ele>942.59997558594</ele>
        <time>2020-08-05T10:26:45.000Z</time>
      </trkpt>
      <trkpt lat="46.21795" lon="6.50659">
        <ele>939.59997558594</ele>
        <time>2020-08-05T10:26:51.000Z</time>
      </trkpt>
      <trkpt lat="46.21758" lon="6.50611">
        <ele>936.20001220703</ele>
        <time>2020-08-05T10:26:57.000Z</time>
      </trkpt>
      <trkpt lat="46.21724" lon="6.50571">
        <ele>935.20001220703</ele>
        <time>2020-08-05T10:27:02.000Z</time>
      </trkpt>
      <trkpt lat="46.21676" lon="6.50515">
        <ele>924.79998779297</ele>
        <time>2020-08-05T10:27:09.000Z</time>
      </trkpt>
      <trkpt lat="46.21627" lon="6.50458">
        <ele>918</ele>
        <time>2020-08-05T10:27:16.000Z</time>
      </trkpt>
      <trkpt lat="46.2158" lon="6.50403">
        <ele>914</ele>
        <time>2020-08-05T10:27:23.000Z</time>
      </trkpt>
      <trkpt lat="46.21573" lon="6.50395">
        <ele>913.79998779297</ele>
        <time>2020-08-05T10:27:24.000Z</time>
      </trkpt>
      <trkpt lat="46.21529" lon="6.50343">
        <ele>912.40002441406</ele>
        <time>2020-08-05T10:27:31.000Z</time>
      </trkpt>
      <trkpt lat="46.21522" lon="6.50337">
        <ele>912.20001220703</ele>
        <time>2020-08-05T10:27:32.000Z</time>
      </trkpt>
      <trkpt lat="46.21516" lon="6.5033">
        <ele>912</ele>
        <time>2020-08-05T10:27:33.000Z</time>
      </trkpt>
      <trkpt lat="46.21465" lon="6.50296">
        <ele>910.59997558594</ele>
        <time>2020-08-05T10:27:40.000Z</time>
      </trkpt>
      <trkpt lat="46.21415" lon="6.50279">
        <ele>909.40002441406</ele>
        <time>2020-08-05T10:27:46.000Z</time>
      </trkpt>
      <trkpt lat="46.21354" lon="6.50258">
        <ele>906.20001220703</ele>
        <time>2020-08-05T10:27:53.000Z</time>
      </trkpt>
      <trkpt lat="46.21329" lon="6.5025">
        <ele>904.59997558594</ele>
        <time>2020-08-05T10:27:56.000Z</time>
      </trkpt>
      <trkpt lat="46.21273" lon="6.50231">
        <ele>903</ele>
        <time>2020-08-05T10:28:03.000Z</time>
      </trkpt>
      <trkpt lat="46.21256" lon="6.50225">
        <ele>903</ele>
        <time>2020-08-05T10:28:05.000Z</time>
      </trkpt>
      <trkpt lat="46.21197" lon="6.50205">
        <ele>900.59997558594</ele>
        <time>2020-08-05T10:28:12.000Z</time>
      </trkpt>
      <trkpt lat="46.21162" lon="6.50193">
        <ele>898.59997558594</ele>
        <time>2020-08-05T10:28:16.000Z</time>
      </trkpt>
      <trkpt lat="46.21102" lon="6.50173">
        <ele>896.59997558594</ele>
        <time>2020-08-05T10:28:23.000Z</time>
      </trkpt>
      <trkpt lat="46.21076" lon="6.50165">
        <ele>895.79998779297</ele>
        <time>2020-08-05T10:28:26.000Z</time>
      </trkpt>
      <trkpt lat="46.21024" lon="6.50147">
        <ele>893.59997558594</ele>
        <time>2020-08-05T10:28:32.000Z</time>
      </trkpt>
      <trkpt lat="46.20989" lon="6.50136">
        <ele>892.20001220703</ele>
        <time>2020-08-05T10:28:36.000Z</time>
      </trkpt>
      <trkpt lat="46.20933" lon="6.50117">
        <ele>891.79998779297</ele>
        <time>2020-08-05T10:28:43.000Z</time>
      </trkpt>
      <trkpt lat="46.20918" lon="6.50112">
        <ele>891.79998779297</ele>
        <time>2020-08-05T10:28:45.000Z</time>
      </trkpt>
      <trkpt lat="46.20863" lon="6.50094">
        <ele>890.79998779297</ele>
        <time>2020-08-05T10:28:52.000Z</time>
      </trkpt>
      <trkpt lat="46.20824" lon="6.50081">
        <ele>889.79998779297</ele>
        <time>2020-08-05T10:28:57.000Z</time>
      </trkpt>
      <trkpt lat="46.20771" lon="6.50063">
        <ele>889</ele>
        <time>2020-08-05T10:29:04.000Z</time>
      </trkpt>
      <trkpt lat="46.20749" lon="6.50056">
        <ele>889</ele>
        <time>2020-08-05T10:29:07.000Z</time>
      </trkpt>
      <trkpt lat="46.20697" lon="6.50039">
        <ele>888.59997558594</ele>
        <time>2020-08-05T10:29:14.000Z</time>
      </trkpt>
      <trkpt lat="46.20682" lon="6.50034">
        <ele>888.40002441406</ele>
        <time>2020-08-05T10:29:16.000Z</time>
      </trkpt>
      <trkpt lat="46.20628" lon="6.50016">
        <ele>887.20001220703</ele>
        <time>2020-08-05T10:29:23.000Z</time>
      </trkpt>
      <trkpt lat="46.20612" lon="6.50011">
        <ele>886.40002441406</ele>
        <time>2020-08-05T10:29:25.000Z</time>
      </trkpt>
      <trkpt lat="46.20558" lon="6.49993">
        <ele>884.59997558594</ele>
        <time>2020-08-05T10:29:32.000Z</time>
      </trkpt>
      <trkpt lat="46.20536" lon="6.49986">
        <ele>885.40002441406</ele>
        <time>2020-08-05T10:29:35.000Z</time>
      </trkpt>
      <trkpt lat="46.20479" lon="6.49967">
        <ele>887.79998779297</ele>
        <time>2020-08-05T10:29:43.000Z</time>
      </trkpt>
      <trkpt lat="46.20472" lon="6.49964">
        <ele>887.79998779297</ele>
        <time>2020-08-05T10:29:44.000Z</time>
      </trkpt>
      <trkpt lat="46.20417" lon="6.49946">
        <ele>888</ele>
        <time>2020-08-05T10:29:52.000Z</time>
      </trkpt>
      <trkpt lat="46.2041" lon="6.49944">
        <ele>888</ele>
        <time>2020-08-05T10:29:53.000Z</time>
      </trkpt>
      <trkpt lat="46.20354" lon="6.49925">
        <ele>888</ele>
        <time>2020-08-05T10:30:01.000Z</time>
      </trkpt>
      <trkpt lat="46.20347" lon="6.49923">
        <ele>888</ele>
        <time>2020-08-05T10:30:02.000Z</time>
      </trkpt>
      <trkpt lat="46.20293" lon="6.49905">
        <ele>887</ele>
        <time>2020-08-05T10:30:10.000Z</time>
      </trkpt>
      <trkpt lat="46.20254" lon="6.49892">
        <ele>885.79998779297</ele>
        <time>2020-08-05T10:30:16.000Z</time>
      </trkpt>
      <trkpt lat="46.20203" lon="6.49875">
        <ele>885.59997558594</ele>
        <time>2020-08-05T10:30:24.000Z</time>
      </trkpt>
      <trkpt lat="46.20152" lon="6.49859">
        <ele>886.40002441406</ele>
        <time>2020-08-05T10:30:32.000Z</time>
      </trkpt>
      <trkpt lat="46.20095" lon="6.4984">
        <ele>885.79998779297</ele>
        <time>2020-08-05T10:30:41.000Z</time>
      </trkpt>
      <trkpt lat="46.20082" lon="6.49836">
        <ele>885.59997558594</ele>
        <time>2020-08-05T10:30:43.000Z</time>
      </trkpt>
      <trkpt lat="46.2004" lon="6.49822">
        <ele>885.79998779297</ele>
        <time>2020-08-05T10:30:50.000Z</time>
      </trkpt>
      <trkpt lat="46.19995" lon="6.49811">
        <ele>886.20001220703</ele>
        <time>2020-08-05T10:30:58.000Z</time>
      </trkpt>
      <trkpt lat="46.19961" lon="6.49795">
        <ele>887.59997558594</ele>
        <time>2020-08-05T10:31:04.000Z</time>
      </trkpt>
      <trkpt lat="46.19918" lon="6.4978">
        <ele>889</ele>
        <time>2020-08-05T10:31:12.000Z</time>
      </trkpt>
      <trkpt lat="46.19913" lon="6.49778">
        <ele>889.20001220703</ele>
        <time>2020-08-05T10:31:13.000Z</time>
      </trkpt>
      <trkpt lat="46.19898" lon="6.49773">
        <ele>889.59997558594</ele>
        <time>2020-08-05T10:31:16.000Z</time>
      </trkpt>
      <trkpt lat="46.19857" lon="6.49759">
        <ele>888</ele>
        <time>2020-08-05T10:31:24.000Z</time>
      </trkpt>
      <trkpt lat="46.19825" lon="6.49749">
        <ele>886.59997558594</ele>
        <time>2020-08-05T10:31:30.000Z</time>
      </trkpt>
      <trkpt lat="46.19792" lon="6.49738">
        <ele>885.59997558594</ele>
        <time>2020-08-05T10:31:36.000Z</time>
      </trkpt>
      <trkpt lat="46.19746" lon="6.49718">
        <ele>885.20001220703</ele>
        <time>2020-08-05T10:31:44.000Z</time>
      </trkpt>
      <trkpt lat="46.19697" lon="6.49698">
        <ele>884.59997558594</ele>
        <time>2020-08-05T10:31:52.000Z</time>
      </trkpt>
      <trkpt lat="46.19642" lon="6.49674">
        <ele>883.20001220703</ele>
        <time>2020-08-05T10:32:01.000Z</time>
      </trkpt>
      <trkpt lat="46.19587" lon="6.4965">
        <ele>881.79998779297</ele>
        <time>2020-08-05T10:32:10.000Z</time>
      </trkpt>
      <trkpt lat="46.19568" lon="6.49642">
        <ele>881.59997558594</ele>
        <time>2020-08-05T10:32:13.000Z</time>
      </trkpt>
      <trkpt lat="46.19514" lon="6.49619">
        <ele>883.20001220703</ele>
        <time>2020-08-05T10:32:22.000Z</time>
      </trkpt>
      <trkpt lat="46.19508" lon="6.49617">
        <ele>883.40002441406</ele>
        <time>2020-08-05T10:32:23.000Z</time>
      </trkpt>
      <trkpt lat="46.19466" lon="6.49599">
        <ele>884.79998779297</ele>
        <time>2020-08-05T10:32:30.000Z</time>
      </trkpt>
      <trkpt lat="46.19412" lon="6.49573">
        <ele>886.59997558594</ele>
        <time>2020-08-05T10:32:39.000Z</time>
      </trkpt>
      <trkpt lat="46.19371" lon="6.4954">
        <ele>886.59997558594</ele>
        <time>2020-08-05T10:32:46.000Z</time>
      </trkpt>
      <trkpt lat="46.19329" lon="6.49504">
        <ele>885.20001220703</ele>
        <time>2020-08-05T10:32:53.000Z</time>
      </trkpt>
      <trkpt lat="46.19292" lon="6.4948">
        <ele>884.20001220703</ele>
        <time>2020-08-05T10:32:59.000Z</time>
      </trkpt>
      <trkpt lat="46.19249" lon="6.49468">
        <ele>883</ele>
        <time>2020-08-05T10:33:06.000Z</time>
      </trkpt>
      <trkpt lat="46.19196" lon="6.49462">
        <ele>880.59997558594</ele>
        <time>2020-08-05T10:33:14.000Z</time>
      </trkpt>
      <trkpt lat="46.19169" lon="6.4946">
        <ele>878.59997558594</ele>
        <time>2020-08-05T10:33:18.000Z</time>
      </trkpt>
      <trkpt lat="46.19156" lon="6.4945">
        <ele>878.59997558594</ele>
        <time>2020-08-05T10:33:20.000Z</time>
      </trkpt>
      <trkpt lat="46.19125" lon="6.49423">
        <ele>878.20001220703</ele>
        <time>2020-08-05T10:33:25.000Z</time>
      </trkpt>
      <trkpt lat="46.19081" lon="6.49386">
        <ele>877.40002441406</ele>
        <time>2020-08-05T10:33:32.000Z</time>
      </trkpt>
      <trkpt lat="46.19039" lon="6.49366">
        <ele>876.59997558594</ele>
        <time>2020-08-05T10:33:38.000Z</time>
      </trkpt>
      <trkpt lat="46.19009" lon="6.49355">
        <ele>876.59997558594</ele>
        <time>2020-08-05T10:33:42.000Z</time>
      </trkpt>
      <trkpt lat="46.18994" lon="6.49357">
        <ele>875.79998779297</ele>
        <time>2020-08-05T10:33:44.000Z</time>
      </trkpt>
      <trkpt lat="46.18979" lon="6.49363">
        <ele>874.40002441406</ele>
        <time>2020-08-05T10:33:46.000Z</time>
      </trkpt>
      <trkpt lat="46.18972" lon="6.49369">
        <ele>873.59997558594</ele>
        <time>2020-08-05T10:33:47.000Z</time>
      </trkpt>
      <trkpt lat="46.18966" lon="6.49375">
        <ele>872.59997558594</ele>
        <time>2020-08-05T10:33:48.000Z</time>
      </trkpt>
      <trkpt lat="46.18949" lon="6.494">
        <ele>871.40002441406</ele>
        <time>2020-08-05T10:33:51.000Z</time>
      </trkpt>
      <trkpt lat="46.18906" lon="6.49457">
        <ele>868</ele>
        <time>2020-08-05T10:33:58.000Z</time>
      </trkpt>
      <trkpt lat="46.18892" lon="6.49468">
        <ele>867.40002441406</ele>
        <time>2020-08-05T10:34:00.000Z</time>
      </trkpt>
      <trkpt lat="46.18885" lon="6.4947">
        <ele>867</ele>
        <time>2020-08-05T10:34:01.000Z</time>
      </trkpt>
      <trkpt lat="46.18877" lon="6.49469">
        <ele>867</ele>
        <time>2020-08-05T10:34:02.000Z</time>
      </trkpt>
      <trkpt lat="46.18862" lon="6.49465">
        <ele>867.20001220703</ele>
        <time>2020-08-05T10:34:04.000Z</time>
      </trkpt>
      <trkpt lat="46.18816" lon="6.49446">
        <ele>868.59997558594</ele>
        <time>2020-08-05T10:34:10.000Z</time>
      </trkpt>
      <trkpt lat="46.188" lon="6.49449">
        <ele>868.59997558594</ele>
        <time>2020-08-05T10:34:12.000Z</time>
      </trkpt>
      <trkpt lat="46.18792" lon="6.4945">
        <ele>868.59997558594</ele>
        <time>2020-08-05T10:34:13.000Z</time>
      </trkpt>
      <trkpt lat="46.18786" lon="6.49457">
        <ele>868.20001220703</ele>
        <time>2020-08-05T10:34:14.000Z</time>
      </trkpt>
      <trkpt lat="46.18772" lon="6.49469">
        <ele>866.79998779297</ele>
        <time>2020-08-05T10:34:16.000Z</time>
      </trkpt>
      <trkpt lat="46.18745" lon="6.49512">
        <ele>863</ele>
        <time>2020-08-05T10:34:21.000Z</time>
      </trkpt>
      <trkpt lat="46.18708" lon="6.49573">
        <ele>864.20001220703</ele>
        <time>2020-08-05T10:34:28.000Z</time>
      </trkpt>
      <trkpt lat="46.18701" lon="6.49578">
        <ele>866</ele>
        <time>2020-08-05T10:34:29.000Z</time>
      </trkpt>
      <trkpt lat="46.1868" lon="6.49593">
        <ele>871.20001220703</ele>
        <time>2020-08-05T10:34:32.000Z</time>
      </trkpt>
      <trkpt lat="46.18673" lon="6.49597">
        <ele>872.59997558594</ele>
        <time>2020-08-05T10:34:33.000Z</time>
      </trkpt>
      <trkpt lat="46.18653" lon="6.49611">
        <ele>873.59997558594</ele>
        <time>2020-08-05T10:34:36.000Z</time>
      </trkpt>
      <trkpt lat="46.18633" lon="6.49626">
        <ele>877.79998779297</ele>
        <time>2020-08-05T10:34:39.000Z</time>
      </trkpt>
      <trkpt lat="46.18615" lon="6.49655">
        <ele>879.79998779297</ele>
        <time>2020-08-05T10:34:43.000Z</time>
      </trkpt>
      <trkpt lat="46.18606" lon="6.49668">
        <ele>884.59997558594</ele>
        <time>2020-08-05T10:34:45.000Z</time>
      </trkpt>
      <trkpt lat="46.18601" lon="6.49676">
        <ele>887.40002441406</ele>
        <time>2020-08-05T10:34:46.000Z</time>
      </trkpt>
      <trkpt lat="46.18586" lon="6.49699">
        <ele>885.40002441406</ele>
        <time>2020-08-05T10:34:49.000Z</time>
      </trkpt>
      <trkpt lat="46.18539" lon="6.49759">
        <ele>884.40002441406</ele>
        <time>2020-08-05T10:34:57.000Z</time>
      </trkpt>
      <trkpt lat="46.18501" lon="6.49797">
        <ele>883.20001220703</ele>
        <time>2020-08-05T10:35:03.000Z</time>
      </trkpt>
      <trkpt lat="46.18477" lon="6.4982">
        <ele>874</ele>
        <time>2020-08-05T10:35:07.000Z</time>
      </trkpt>
      <trkpt lat="46.18464" lon="6.49825">
        <ele>875.79998779297</ele>
        <time>2020-08-05T10:35:09.000Z</time>
      </trkpt>
      <trkpt lat="46.18429" lon="6.49839">
        <ele>880.79998779297</ele>
        <time>2020-08-05T10:35:14.000Z</time>
      </trkpt>
      <trkpt lat="46.18422" lon="6.49843">
        <ele>881.59997558594</ele>
        <time>2020-08-05T10:35:15.000Z</time>
      </trkpt>
      <trkpt lat="46.18404" lon="6.49856">
        <ele>875</ele>
        <time>2020-08-05T10:35:18.000Z</time>
      </trkpt>
      <trkpt lat="46.18385" lon="6.4987">
        <ele>871.20001220703</ele>
        <time>2020-08-05T10:35:21.000Z</time>
      </trkpt>
      <trkpt lat="46.18378" lon="6.49876">
        <ele>870.79998779297</ele>
        <time>2020-08-05T10:35:22.000Z</time>
      </trkpt>
      <trkpt lat="46.18373" lon="6.49884">
        <ele>868.59997558594</ele>
        <time>2020-08-05T10:35:23.000Z</time>
      </trkpt>
      <trkpt lat="46.18364" lon="6.499">
        <ele>862.59997558594</ele>
        <time>2020-08-05T10:35:25.000Z</time>
      </trkpt>
      <trkpt lat="46.1836" lon="6.49908">
        <ele>862.59997558594</ele>
        <time>2020-08-05T10:35:26.000Z</time>
      </trkpt>
      <trkpt lat="46.18335" lon="6.49946">
        <ele>858.59997558594</ele>
        <time>2020-08-05T10:35:31.000Z</time>
      </trkpt>
      <trkpt lat="46.18314" lon="6.49971">
        <ele>849.79998779297</ele>
        <time>2020-08-05T10:35:35.000Z</time>
      </trkpt>
      <trkpt lat="46.18289" lon="6.49994">
        <ele>840.79998779297</ele>
        <time>2020-08-05T10:35:39.000Z</time>
      </trkpt>
      <trkpt lat="46.18274" lon="6.49998">
        <ele>837.59997558594</ele>
        <time>2020-08-05T10:35:41.000Z</time>
      </trkpt>
      <trkpt lat="46.18266" lon="6.49996">
        <ele>836.59997558594</ele>
        <time>2020-08-05T10:35:42.000Z</time>
      </trkpt>
      <trkpt lat="46.18261" lon="6.49992">
        <ele>836.79998779297</ele>
        <time>2020-08-05T10:35:43.000Z</time>
      </trkpt>
      <trkpt lat="46.18251" lon="6.49981">
        <ele>837.40002441406</ele>
        <time>2020-08-05T10:35:45.000Z</time>
      </trkpt>
      <trkpt lat="46.18242" lon="6.49955">
        <ele>847.20001220703</ele>
        <time>2020-08-05T10:35:48.000Z</time>
      </trkpt>
      <trkpt lat="46.18229" lon="6.4991">
        <ele>863.79998779297</ele>
        <time>2020-08-05T10:35:53.000Z</time>
      </trkpt>
      <trkpt lat="46.18226" lon="6.49901">
        <ele>866.20001220703</ele>
        <time>2020-08-05T10:35:54.000Z</time>
      </trkpt>
      <trkpt lat="46.18221" lon="6.49884">
        <ele>874</ele>
        <time>2020-08-05T10:35:56.000Z</time>
      </trkpt>
      <trkpt lat="46.18208" lon="6.49875">
        <ele>873.59997558594</ele>
        <time>2020-08-05T10:35:58.000Z</time>
      </trkpt>
      <trkpt lat="46.18201" lon="6.49872">
        <ele>872.79998779297</ele>
        <time>2020-08-05T10:35:59.000Z</time>
      </trkpt>
      <trkpt lat="46.18181" lon="6.49861">
        <ele>869.40002441406</ele>
        <time>2020-08-05T10:36:02.000Z</time>
      </trkpt>
      <trkpt lat="46.18168" lon="6.49853">
        <ele>867</ele>
        <time>2020-08-05T10:36:04.000Z</time>
      </trkpt>
      <trkpt lat="46.18162" lon="6.4985">
        <ele>865.79998779297</ele>
        <time>2020-08-05T10:36:05.000Z</time>
      </trkpt>
      <trkpt lat="46.18148" lon="6.49842">
        <ele>863.20001220703</ele>
        <time>2020-08-05T10:36:07.000Z</time>
      </trkpt>
      <trkpt lat="46.18135" lon="6.49834">
        <ele>859.59997558594</ele>
        <time>2020-08-05T10:36:09.000Z</time>
      </trkpt>
      <trkpt lat="46.18121" lon="6.49827">
        <ele>855.59997558594</ele>
        <time>2020-08-05T10:36:11.000Z</time>
      </trkpt>
      <trkpt lat="46.18114" lon="6.49815">
        <ele>858.40002441406</ele>
        <time>2020-08-05T10:36:13.000Z</time>
      </trkpt>
      <trkpt lat="46.18109" lon="6.49808">
        <ele>859</ele>
        <time>2020-08-05T10:36:14.000Z</time>
      </trkpt>
      <trkpt lat="46.18105" lon="6.498">
        <ele>859.79998779297</ele>
        <time>2020-08-05T10:36:15.000Z</time>
      </trkpt>
      <trkpt lat="46.18091" lon="6.49778">
        <ele>861.59997558594</ele>
        <time>2020-08-05T10:36:18.000Z</time>
      </trkpt>
      <trkpt lat="46.18087" lon="6.49771">
        <ele>862.40002441406</ele>
        <time>2020-08-05T10:36:19.000Z</time>
      </trkpt>
      <trkpt lat="46.18077" lon="6.49746">
        <ele>867.40002441406</ele>
        <time>2020-08-05T10:36:22.000Z</time>
      </trkpt>
      <trkpt lat="46.1807" lon="6.49728">
        <ele>870.20001220703</ele>
        <time>2020-08-05T10:36:24.000Z</time>
      </trkpt>
      <trkpt lat="46.18062" lon="6.49709">
        <ele>871.20001220703</ele>
        <time>2020-08-05T10:36:26.000Z</time>
      </trkpt>
      <trkpt lat="46.18054" lon="6.49693">
        <ele>871.40002441406</ele>
        <time>2020-08-05T10:36:28.000Z</time>
      </trkpt>
      <trkpt lat="46.18037" lon="6.49675">
        <ele>866.40002441406</ele>
        <time>2020-08-05T10:36:31.000Z</time>
      </trkpt>
      <trkpt lat="46.18007" lon="6.49643">
        <ele>858.40002441406</ele>
        <time>2020-08-05T10:36:36.000Z</time>
      </trkpt>
      <trkpt lat="46.17965" lon="6.496">
        <ele>853.40002441406</ele>
        <time>2020-08-05T10:36:43.000Z</time>
      </trkpt>
      <trkpt lat="46.17934" lon="6.49581">
        <ele>849.20001220703</ele>
        <time>2020-08-05T10:36:48.000Z</time>
      </trkpt>
      <trkpt lat="46.17896" lon="6.49568">
        <ele>840</ele>
        <time>2020-08-05T10:36:53.000Z</time>
      </trkpt>
      <trkpt lat="46.17865" lon="6.49557">
        <ele>833.59997558594</ele>
        <time>2020-08-05T10:36:57.000Z</time>
      </trkpt>
      <trkpt lat="46.17859" lon="6.49548">
        <ele>833.79998779297</ele>
        <time>2020-08-05T10:36:58.000Z</time>
      </trkpt>
      <trkpt lat="46.17854" lon="6.49539">
        <ele>834</ele>
        <time>2020-08-05T10:36:59.000Z</time>
      </trkpt>
      <trkpt lat="46.17844" lon="6.49519">
        <ele>834.59997558594</ele>
        <time>2020-08-05T10:37:01.000Z</time>
      </trkpt>
      <trkpt lat="46.17839" lon="6.49509">
        <ele>835</ele>
        <time>2020-08-05T10:37:02.000Z</time>
      </trkpt>
      <trkpt lat="46.17804" lon="6.49436">
        <ele>833.59997558594</ele>
        <time>2020-08-05T10:37:09.000Z</time>
      </trkpt>
      <trkpt lat="46.17777" lon="6.49359">
        <ele>833.40002441406</ele>
        <time>2020-08-05T10:37:16.000Z</time>
      </trkpt>
      <trkpt lat="46.17755" lon="6.49281">
        <ele>836.20001220703</ele>
        <time>2020-08-05T10:37:23.000Z</time>
      </trkpt>
      <trkpt lat="46.17753" lon="6.49269">
        <ele>836.59997558594</ele>
        <time>2020-08-05T10:37:24.000Z</time>
      </trkpt>
      <trkpt lat="46.17748" lon="6.49235">
        <ele>839.79998779297</ele>
        <time>2020-08-05T10:37:27.000Z</time>
      </trkpt>
      <trkpt lat="46.17742" lon="6.49193">
        <ele>841</ele>
        <time>2020-08-05T10:37:31.000Z</time>
      </trkpt>
      <trkpt lat="46.1774" lon="6.49183">
        <ele>841.40002441406</ele>
        <time>2020-08-05T10:37:32.000Z</time>
      </trkpt>
      <trkpt lat="46.17735" lon="6.49149">
        <ele>842.59997558594</ele>
        <time>2020-08-05T10:37:35.000Z</time>
      </trkpt>
      <trkpt lat="46.17712" lon="6.49072">
        <ele>844.20001220703</ele>
        <time>2020-08-05T10:37:42.000Z</time>
      </trkpt>
      <trkpt lat="46.17687" lon="6.48995">
        <ele>845.20001220703</ele>
        <time>2020-08-05T10:37:49.000Z</time>
      </trkpt>
      <trkpt lat="46.17683" lon="6.48985">
        <ele>845.59997558594</ele>
        <time>2020-08-05T10:37:50.000Z</time>
      </trkpt>
      <trkpt lat="46.17671" lon="6.48968">
        <ele>842.59997558594</ele>
        <time>2020-08-05T10:37:52.000Z</time>
      </trkpt>
      <trkpt lat="46.17639" lon="6.48927">
        <ele>834.20001220703</ele>
        <time>2020-08-05T10:37:57.000Z</time>
      </trkpt>
      <trkpt lat="46.1761" lon="6.48884">
        <ele>829.20001220703</ele>
        <time>2020-08-05T10:38:02.000Z</time>
      </trkpt>
      <trkpt lat="46.17593" lon="6.48844">
        <ele>827.79998779297</ele>
        <time>2020-08-05T10:38:06.000Z</time>
      </trkpt>
      <trkpt lat="46.17588" lon="6.48822">
        <ele>830.79998779297</ele>
        <time>2020-08-05T10:38:08.000Z</time>
      </trkpt>
      <trkpt lat="46.17586" lon="6.4881">
        <ele>831.59997558594</ele>
        <time>2020-08-05T10:38:09.000Z</time>
      </trkpt>
      <trkpt lat="46.17584" lon="6.48799">
        <ele>831.79998779297</ele>
        <time>2020-08-05T10:38:10.000Z</time>
      </trkpt>
      <trkpt lat="46.17581" lon="6.48776">
        <ele>832</ele>
        <time>2020-08-05T10:38:12.000Z</time>
      </trkpt>
      <trkpt lat="46.17572" lon="6.48743">
        <ele>830.59997558594</ele>
        <time>2020-08-05T10:38:15.000Z</time>
      </trkpt>
      <trkpt lat="46.17566" lon="6.48722">
        <ele>828.40002441406</ele>
        <time>2020-08-05T10:38:17.000Z</time>
      </trkpt>
      <trkpt lat="46.17542" lon="6.48648">
        <ele>822.59997558594</ele>
        <time>2020-08-05T10:38:24.000Z</time>
      </trkpt>
      <trkpt lat="46.17523" lon="6.48617">
        <ele>817</ele>
        <time>2020-08-05T10:38:28.000Z</time>
      </trkpt>
      <trkpt lat="46.17518" lon="6.4861">
        <ele>815.59997558594</ele>
        <time>2020-08-05T10:38:29.000Z</time>
      </trkpt>
      <trkpt lat="46.17487" lon="6.48576">
        <ele>805.79998779297</ele>
        <time>2020-08-05T10:38:35.000Z</time>
      </trkpt>
      <trkpt lat="46.17458" lon="6.48543">
        <ele>802</ele>
        <time>2020-08-05T10:38:41.000Z</time>
      </trkpt>
      <trkpt lat="46.17439" lon="6.48517">
        <ele>801.20001220703</ele>
        <time>2020-08-05T10:38:45.000Z</time>
      </trkpt>
      <trkpt lat="46.17432" lon="6.48503">
        <ele>801</ele>
        <time>2020-08-05T10:38:47.000Z</time>
      </trkpt>
      <trkpt lat="46.174" lon="6.48439">
        <ele>799.40002441406</ele>
        <time>2020-08-05T10:38:55.000Z</time>
      </trkpt>
      <trkpt lat="46.17396" lon="6.48432">
        <ele>799</ele>
        <time>2020-08-05T10:38:56.000Z</time>
      </trkpt>
      <trkpt lat="46.17377" lon="6.48393">
        <ele>797.40002441406</ele>
        <time>2020-08-05T10:39:01.000Z</time>
      </trkpt>
      <trkpt lat="46.17369" lon="6.48378">
        <ele>797</ele>
        <time>2020-08-05T10:39:03.000Z</time>
      </trkpt>
      <trkpt lat="46.17344" lon="6.48329">
        <ele>795.40002441406</ele>
        <time>2020-08-05T10:39:09.000Z</time>
      </trkpt>
      <trkpt lat="46.17323" lon="6.48289">
        <ele>794.40002441406</ele>
        <time>2020-08-05T10:39:14.000Z</time>
      </trkpt>
      <trkpt lat="46.17304" lon="6.48253">
        <ele>794</ele>
        <time>2020-08-05T10:39:19.000Z</time>
      </trkpt>
      <trkpt lat="46.17289" lon="6.48228">
        <ele>793.59997558594</ele>
        <time>2020-08-05T10:39:24.000Z</time>
      </trkpt>
      <trkpt lat="46.17265" lon="6.48196">
        <ele>793</ele>
        <time>2020-08-05T10:39:32.000Z</time>
      </trkpt>
      <trkpt lat="46.17252" lon="6.48178">
        <ele>792.59997558594</ele>
        <time>2020-08-05T10:39:38.000Z</time>
      </trkpt>
      <trkpt lat="46.17251" lon="6.48167">
        <ele>793.20001220703</ele>
        <time>2020-08-05T10:39:41.000Z</time>
      </trkpt>
      <trkpt lat="46.17253" lon="6.48165">
        <ele>793.59997558594</ele>
        <time>2020-08-05T10:39:42.000Z</time>
      </trkpt>
      <trkpt lat="46.17261" lon="6.48159">
        <ele>795</ele>
        <time>2020-08-05T10:39:47.000Z</time>
      </trkpt>
      <trkpt lat="46.17266" lon="6.48158">
        <ele>795.40002441406</ele>
        <time>2020-08-05T10:39:51.000Z</time>
      </trkpt>
      <trkpt lat="46.17266" lon="6.48158">
        <ele>795.40002441406</ele>
        <time>2020-08-05T10:40:04.000Z</time>
      </trkpt>
      <trkpt lat="46.17266" lon="6.48158">
        <ele>795.40002441406</ele>
        <time>2020-08-05T10:40:05.000Z</time>
      </trkpt>
      <trkpt lat="46.17266" lon="6.48158">
        <ele>795.40002441406</ele>
        <time>2020-08-05T10:41:59.000Z</time>
      </trkpt>
      <trkpt lat="46.17276" lon="6.48157">
        <ele>796.59997558594</ele>
        <time>2020-08-05T10:42:02.000Z</time>
      </trkpt>
      <trkpt lat="46.17285" lon="6.48158">
        <ele>797.59997558594</ele>
        <time>2020-08-05T10:42:07.000Z</time>
      </trkpt>
      <trkpt lat="46.17297" lon="6.48161">
        <ele>798.59997558594</ele>
        <time>2020-08-05T10:42:14.000Z</time>
      </trkpt>
      <trkpt lat="46.17314" lon="6.48165">
        <ele>800.20001220703</ele>
        <time>2020-08-05T10:42:22.000Z</time>
      </trkpt>
      <trkpt lat="46.17331" lon="6.48169">
        <ele>801.79998779297</ele>
        <time>2020-08-05T10:42:30.000Z</time>
      </trkpt>
      <trkpt lat="46.17351" lon="6.48173">
        <ele>803.59997558594</ele>
        <time>2020-08-05T10:42:39.000Z</time>
      </trkpt>
      <trkpt lat="46.17366" lon="6.48178">
        <ele>805</ele>
        <time>2020-08-05T10:42:46.000Z</time>
      </trkpt>
      <trkpt lat="46.1738" lon="6.48183">
        <ele>806</ele>
        <time>2020-08-05T10:42:53.000Z</time>
      </trkpt>
      <trkpt lat="46.17386" lon="6.48186">
        <ele>806.40002441406</ele>
        <time>2020-08-05T10:42:56.000Z</time>
      </trkpt>
      <trkpt lat="46.1739" lon="6.48188">
        <ele>806.79998779297</ele>
        <time>2020-08-05T10:42:59.000Z</time>
      </trkpt>
      <trkpt lat="46.17404" lon="6.48193">
        <ele>808.20001220703</ele>
        <time>2020-08-05T10:43:06.000Z</time>
      </trkpt>
      <trkpt lat="46.17418" lon="6.482">
        <ele>809.59997558594</ele>
        <time>2020-08-05T10:43:12.000Z</time>
      </trkpt>
      <trkpt lat="46.17436" lon="6.48209">
        <ele>811.20001220703</ele>
        <time>2020-08-05T10:43:20.000Z</time>
      </trkpt>
      <trkpt lat="46.17448" lon="6.48214">
        <ele>812.40002441406</ele>
        <time>2020-08-05T10:43:26.000Z</time>
      </trkpt>
      <trkpt lat="46.17466" lon="6.48228">
        <ele>813.79998779297</ele>
        <time>2020-08-05T10:43:34.000Z</time>
      </trkpt>
      <trkpt lat="46.1748" lon="6.4824">
        <ele>815.20001220703</ele>
        <time>2020-08-05T10:43:41.000Z</time>
      </trkpt>
      <trkpt lat="46.17492" lon="6.48251">
        <ele>820</ele>
        <time>2020-08-05T10:43:48.000Z</time>
      </trkpt>
      <trkpt lat="46.17505" lon="6.48248">
        <ele>825.20001220703</ele>
        <time>2020-08-05T10:43:55.000Z</time>
      </trkpt>
      <trkpt lat="46.17515" lon="6.48241">
        <ele>829.59997558594</ele>
        <time>2020-08-05T10:44:01.000Z</time>
      </trkpt>
      <trkpt lat="46.17521" lon="6.48224">
        <ele>832.79998779297</ele>
        <time>2020-08-05T10:44:07.000Z</time>
      </trkpt>
      <trkpt lat="46.17519" lon="6.48209">
        <ele>832.79998779297</ele>
        <time>2020-08-05T10:44:12.000Z</time>
      </trkpt>
      <trkpt lat="46.17513" lon="6.48185">
        <ele>832.40002441406</ele>
        <time>2020-08-05T10:44:19.000Z</time>
      </trkpt>
      <trkpt lat="46.17507" lon="6.48158">
        <ele>830.79998779297</ele>
        <time>2020-08-05T10:44:27.000Z</time>
      </trkpt>
      <trkpt lat="46.17502" lon="6.48135">
        <ele>830.79998779297</ele>
        <time>2020-08-05T10:44:34.000Z</time>
      </trkpt>
      <trkpt lat="46.17497" lon="6.48112">
        <ele>831.59997558594</ele>
        <time>2020-08-05T10:44:41.000Z</time>
      </trkpt>
      <trkpt lat="46.17493" lon="6.48085">
        <ele>833</ele>
        <time>2020-08-05T10:44:49.000Z</time>
      </trkpt>
      <trkpt lat="46.17491" lon="6.48061">
        <ele>835</ele>
        <time>2020-08-05T10:44:57.000Z</time>
      </trkpt>
      <trkpt lat="46.17489" lon="6.48033">
        <ele>837.59997558594</ele>
        <time>2020-08-05T10:45:06.000Z</time>
      </trkpt>
      <trkpt lat="46.17484" lon="6.48009">
        <ele>839</ele>
        <time>2020-08-05T10:45:14.000Z</time>
      </trkpt>
      <trkpt lat="46.17476" lon="6.47989">
        <ele>838.79998779297</ele>
        <time>2020-08-05T10:45:21.000Z</time>
      </trkpt>
      <trkpt lat="46.17468" lon="6.47971">
        <ele>839.79998779297</ele>
        <time>2020-08-05T10:45:28.000Z</time>
      </trkpt>
      <trkpt lat="46.17461" lon="6.47955">
        <ele>840.59997558594</ele>
        <time>2020-08-05T10:45:34.000Z</time>
      </trkpt>
      <trkpt lat="46.17453" lon="6.47937">
        <ele>841.59997558594</ele>
        <time>2020-08-05T10:45:41.000Z</time>
      </trkpt>
      <trkpt lat="46.17445" lon="6.47918">
        <ele>842.59997558594</ele>
        <time>2020-08-05T10:45:48.000Z</time>
      </trkpt>
      <trkpt lat="46.17436" lon="6.47898">
        <ele>843.59997558594</ele>
        <time>2020-08-05T10:45:56.000Z</time>
      </trkpt>
      <trkpt lat="46.17428" lon="6.47879">
        <ele>844.20001220703</ele>
        <time>2020-08-05T10:46:04.000Z</time>
      </trkpt>
      <trkpt lat="46.17419" lon="6.47859">
        <ele>844.79998779297</ele>
        <time>2020-08-05T10:46:12.000Z</time>
      </trkpt>
      <trkpt lat="46.17415" lon="6.47835">
        <ele>846.40002441406</ele>
        <time>2020-08-05T10:46:21.000Z</time>
      </trkpt>
      <trkpt lat="46.17413" lon="6.47821">
        <ele>847.79998779297</ele>
        <time>2020-08-05T10:46:26.000Z</time>
      </trkpt>
      <trkpt lat="46.17414" lon="6.47811">
        <ele>848.79998779297</ele>
        <time>2020-08-05T10:46:30.000Z</time>
      </trkpt>
      <trkpt lat="46.17416" lon="6.47792">
        <ele>850</ele>
        <time>2020-08-05T10:46:36.000Z</time>
      </trkpt>
      <trkpt lat="46.17419" lon="6.47764">
        <ele>851.79998779297</ele>
        <time>2020-08-05T10:46:45.000Z</time>
      </trkpt>
      <trkpt lat="46.17422" lon="6.47744">
        <ele>854.20001220703</ele>
        <time>2020-08-05T10:46:52.000Z</time>
      </trkpt>
      <trkpt lat="46.17427" lon="6.47725">
        <ele>857</ele>
        <time>2020-08-05T10:46:59.000Z</time>
      </trkpt>
      <trkpt lat="46.17431" lon="6.47712">
        <ele>858.59997558594</ele>
        <time>2020-08-05T10:47:04.000Z</time>
      </trkpt>
      <trkpt lat="46.17435" lon="6.47689">
        <ele>860.79998779297</ele>
        <time>2020-08-05T10:47:12.000Z</time>
      </trkpt>
      <trkpt lat="46.17435" lon="6.47668">
        <ele>861.59997558594</ele>
        <time>2020-08-05T10:47:18.000Z</time>
      </trkpt>
      <trkpt lat="46.17438" lon="6.47649">
        <ele>863</ele>
        <time>2020-08-05T10:47:25.000Z</time>
      </trkpt>
      <trkpt lat="46.1745" lon="6.4764">
        <ele>866</ele>
        <time>2020-08-05T10:47:31.000Z</time>
      </trkpt>
      <trkpt lat="46.17455" lon="6.47643">
        <ele>867</ele>
        <time>2020-08-05T10:47:34.000Z</time>
      </trkpt>
      <trkpt lat="46.17458" lon="6.47649">
        <ele>867</ele>
        <time>2020-08-05T10:47:36.000Z</time>
      </trkpt>
      <trkpt lat="46.17466" lon="6.47674">
        <ele>867.59997558594</ele>
        <time>2020-08-05T10:47:45.000Z</time>
      </trkpt>
      <trkpt lat="46.17474" lon="6.4769">
        <ele>868.79998779297</ele>
        <time>2020-08-05T10:47:52.000Z</time>
      </trkpt>
      <trkpt lat="46.17485" lon="6.47705">
        <ele>870.59997558594</ele>
        <time>2020-08-05T10:47:59.000Z</time>
      </trkpt>
      <trkpt lat="46.17495" lon="6.4772">
        <ele>872.40002441406</ele>
        <time>2020-08-05T10:48:06.000Z</time>
      </trkpt>
      <trkpt lat="46.17506" lon="6.47737">
        <ele>874.40002441406</ele>
        <time>2020-08-05T10:48:14.000Z</time>
      </trkpt>
      <trkpt lat="46.17518" lon="6.47755">
        <ele>875.40002441406</ele>
        <time>2020-08-05T10:48:22.000Z</time>
      </trkpt>
      <trkpt lat="46.17533" lon="6.47769">
        <ele>877.40002441406</ele>
        <time>2020-08-05T10:48:30.000Z</time>
      </trkpt>
      <trkpt lat="46.17545" lon="6.4778">
        <ele>879</ele>
        <time>2020-08-05T10:48:37.000Z</time>
      </trkpt>
      <trkpt lat="46.17558" lon="6.47792">
        <ele>880.79998779297</ele>
        <time>2020-08-05T10:48:44.000Z</time>
      </trkpt>
      <trkpt lat="46.17571" lon="6.47804">
        <ele>884</ele>
        <time>2020-08-05T10:48:51.000Z</time>
      </trkpt>
      <trkpt lat="46.17582" lon="6.47815">
        <ele>886.59997558594</ele>
        <time>2020-08-05T10:48:57.000Z</time>
      </trkpt>
      <trkpt lat="46.17595" lon="6.47825">
        <ele>891</ele>
        <time>2020-08-05T10:49:04.000Z</time>
      </trkpt>
      <trkpt lat="46.17607" lon="6.47833">
        <ele>895.40002441406</ele>
        <time>2020-08-05T10:49:10.000Z</time>
      </trkpt>
      <trkpt lat="46.17618" lon="6.47841">
        <ele>899.20001220703</ele>
        <time>2020-08-05T10:49:16.000Z</time>
      </trkpt>
      <trkpt lat="46.17628" lon="6.47847">
        <ele>902.59997558594</ele>
        <time>2020-08-05T10:49:20.000Z</time>
      </trkpt>
      <trkpt lat="46.1764" lon="6.47855">
        <ele>906.79998779297</ele>
        <time>2020-08-05T10:49:26.000Z</time>
      </trkpt>
      <trkpt lat="46.17646" lon="6.47853">
        <ele>909.40002441406</ele>
        <time>2020-08-05T10:49:31.000Z</time>
      </trkpt>
      <trkpt lat="46.17649" lon="6.47843">
        <ele>912.40002441406</ele>
        <time>2020-08-05T10:49:37.000Z</time>
      </trkpt>
      <trkpt lat="46.17649" lon="6.47841">
        <ele>912.79998779297</ele>
        <time>2020-08-05T10:49:40.000Z</time>
      </trkpt>
      <trkpt lat="46.17647" lon="6.47835">
        <ele>910.79998779297</ele>
        <time>2020-08-05T10:49:43.000Z</time>
      </trkpt>
      <trkpt lat="46.17641" lon="6.47817">
        <ele>907.59997558594</ele>
        <time>2020-08-05T10:49:48.000Z</time>
      </trkpt>
      <trkpt lat="46.17633" lon="6.47796">
        <ele>906</ele>
        <time>2020-08-05T10:49:54.000Z</time>
      </trkpt>
      <trkpt lat="46.17622" lon="6.47765">
        <ele>903</ele>
        <time>2020-08-05T10:50:04.000Z</time>
      </trkpt>
      <trkpt lat="46.17617" lon="6.47741">
        <ele>901.59997558594</ele>
        <time>2020-08-05T10:50:12.000Z</time>
      </trkpt>
      <trkpt lat="46.17616" lon="6.47721">
        <ele>902</ele>
        <time>2020-08-05T10:50:19.000Z</time>
      </trkpt>
      <trkpt lat="46.17615" lon="6.47701">
        <ele>902.79998779297</ele>
        <time>2020-08-05T10:50:26.000Z</time>
      </trkpt>
      <trkpt lat="46.17615" lon="6.47698">
        <ele>903</ele>
        <time>2020-08-05T10:50:27.000Z</time>
      </trkpt>
      <trkpt lat="46.17615" lon="6.4769">
        <ele>903.40002441406</ele>
        <time>2020-08-05T10:50:30.000Z</time>
      </trkpt>
      <trkpt lat="46.17613" lon="6.47668">
        <ele>904.79998779297</ele>
        <time>2020-08-05T10:50:37.000Z</time>
      </trkpt>
      <trkpt lat="46.17612" lon="6.47645">
        <ele>906</ele>
        <time>2020-08-05T10:50:44.000Z</time>
      </trkpt>
      <trkpt lat="46.17611" lon="6.4762">
        <ele>907.20001220703</ele>
        <time>2020-08-05T10:50:52.000Z</time>
      </trkpt>
      <trkpt lat="46.17608" lon="6.47594">
        <ele>908.79998779297</ele>
        <time>2020-08-05T10:51:00.000Z</time>
      </trkpt>
      <trkpt lat="46.17602" lon="6.47573">
        <ele>909</ele>
        <time>2020-08-05T10:51:07.000Z</time>
      </trkpt>
      <trkpt lat="46.17595" lon="6.47548">
        <ele>909.59997558594</ele>
        <time>2020-08-05T10:51:15.000Z</time>
      </trkpt>
      <trkpt lat="46.17587" lon="6.4752">
        <ele>910.20001220703</ele>
        <time>2020-08-05T10:51:24.000Z</time>
      </trkpt>
      <trkpt lat="46.17585" lon="6.47504">
        <ele>911.59997558594</ele>
        <time>2020-08-05T10:51:30.000Z</time>
      </trkpt>
      <trkpt lat="46.17587" lon="6.47474">
        <ele>913.59997558594</ele>
        <time>2020-08-05T10:51:40.000Z</time>
      </trkpt>
      <trkpt lat="46.17588" lon="6.47453">
        <ele>915</ele>
        <time>2020-08-05T10:51:47.000Z</time>
      </trkpt>
      <trkpt lat="46.17593" lon="6.47439">
        <ele>916.79998779297</ele>
        <time>2020-08-05T10:51:53.000Z</time>
      </trkpt>
      <trkpt lat="46.17599" lon="6.47421">
        <ele>919.40002441406</ele>
        <time>2020-08-05T10:52:00.000Z</time>
      </trkpt>
      <trkpt lat="46.17603" lon="6.47404">
        <ele>921.79998779297</ele>
        <time>2020-08-05T10:52:06.000Z</time>
      </trkpt>
      <trkpt lat="46.17606" lon="6.47377">
        <ele>924.40002441406</ele>
        <time>2020-08-05T10:52:14.000Z</time>
      </trkpt>
      <trkpt lat="46.17607" lon="6.47355">
        <ele>926</ele>
        <time>2020-08-05T10:52:21.000Z</time>
      </trkpt>
      <trkpt lat="46.17609" lon="6.47338">
        <ele>926.40002441406</ele>
        <time>2020-08-05T10:52:27.000Z</time>
      </trkpt>
      <trkpt lat="46.17612" lon="6.47324">
        <ele>927.20001220703</ele>
        <time>2020-08-05T10:52:32.000Z</time>
      </trkpt>
      <trkpt lat="46.17617" lon="6.47311">
        <ele>928.79998779297</ele>
        <time>2020-08-05T10:52:38.000Z</time>
      </trkpt>
      <trkpt lat="46.1762" lon="6.47305">
        <ele>929.59997558594</ele>
        <time>2020-08-05T10:52:40.000Z</time>
      </trkpt>
      <trkpt lat="46.17624" lon="6.47295">
        <ele>931</ele>
        <time>2020-08-05T10:52:43.000Z</time>
      </trkpt>
      <trkpt lat="46.17629" lon="6.47282">
        <ele>932.79998779297</ele>
        <time>2020-08-05T10:52:48.000Z</time>
      </trkpt>
      <trkpt lat="46.17632" lon="6.47265">
        <ele>934.40002441406</ele>
        <time>2020-08-05T10:52:54.000Z</time>
      </trkpt>
      <trkpt lat="46.17631" lon="6.47246">
        <ele>935.40002441406</ele>
        <time>2020-08-05T10:53:01.000Z</time>
      </trkpt>
      <trkpt lat="46.17631" lon="6.47244">
        <ele>935.59997558594</ele>
        <time>2020-08-05T10:53:02.000Z</time>
      </trkpt>
      <trkpt lat="46.17631" lon="6.47232">
        <ele>936.20001220703</ele>
        <time>2020-08-05T10:53:06.000Z</time>
      </trkpt>
      <trkpt lat="46.17626" lon="6.472">
        <ele>938</ele>
        <time>2020-08-05T10:53:15.000Z</time>
      </trkpt>
      <trkpt lat="46.17621" lon="6.47177">
        <ele>939.40002441406</ele>
        <time>2020-08-05T10:53:23.000Z</time>
      </trkpt>
      <trkpt lat="46.17618" lon="6.47155">
        <ele>940.59997558594</ele>
        <time>2020-08-05T10:53:30.000Z</time>
      </trkpt>
      <trkpt lat="46.17618" lon="6.47134">
        <ele>943.40002441406</ele>
        <time>2020-08-05T10:53:37.000Z</time>
      </trkpt>
      <trkpt lat="46.17618" lon="6.47118">
        <ele>946</ele>
        <time>2020-08-05T10:53:42.000Z</time>
      </trkpt>
      <trkpt lat="46.17615" lon="6.47099">
        <ele>948.79998779297</ele>
        <time>2020-08-05T10:53:49.000Z</time>
      </trkpt>
      <trkpt lat="46.17607" lon="6.47082">
        <ele>949.79998779297</ele>
        <time>2020-08-05T10:53:55.000Z</time>
      </trkpt>
      <trkpt lat="46.17593" lon="6.47065">
        <ele>949.59997558594</ele>
        <time>2020-08-05T10:54:02.000Z</time>
      </trkpt>
      <trkpt lat="46.17581" lon="6.47052">
        <ele>949.40002441406</ele>
        <time>2020-08-05T10:54:09.000Z</time>
      </trkpt>
      <trkpt lat="46.1757" lon="6.4704">
        <ele>949.20001220703</ele>
        <time>2020-08-05T10:54:15.000Z</time>
      </trkpt>
      <trkpt lat="46.17557" lon="6.47027">
        <ele>949.40002441406</ele>
        <time>2020-08-05T10:54:22.000Z</time>
      </trkpt>
      <trkpt lat="46.17547" lon="6.47016">
        <ele>950.20001220703</ele>
        <time>2020-08-05T10:54:28.000Z</time>
      </trkpt>
      <trkpt lat="46.17536" lon="6.47003">
        <ele>951.40002441406</ele>
        <time>2020-08-05T10:54:35.000Z</time>
      </trkpt>
      <trkpt lat="46.17522" lon="6.46987">
        <ele>953</ele>
        <time>2020-08-05T10:54:43.000Z</time>
      </trkpt>
      <trkpt lat="46.17516" lon="6.46975">
        <ele>954.40002441406</ele>
        <time>2020-08-05T10:54:48.000Z</time>
      </trkpt>
      <trkpt lat="46.17509" lon="6.46956">
        <ele>956.20001220703</ele>
        <time>2020-08-05T10:54:55.000Z</time>
      </trkpt>
      <trkpt lat="46.17503" lon="6.4694">
        <ele>958</ele>
        <time>2020-08-05T10:55:01.000Z</time>
      </trkpt>
      <trkpt lat="46.17496" lon="6.46921">
        <ele>960.20001220703</ele>
        <time>2020-08-05T10:55:08.000Z</time>
      </trkpt>
      <trkpt lat="46.17485" lon="6.46906">
        <ele>961</ele>
        <time>2020-08-05T10:55:15.000Z</time>
      </trkpt>
      <trkpt lat="46.17473" lon="6.46895">
        <ele>960.79998779297</ele>
        <time>2020-08-05T10:55:22.000Z</time>
      </trkpt>
      <trkpt lat="46.1746" lon="6.46883">
        <ele>960</ele>
        <time>2020-08-05T10:55:29.000Z</time>
      </trkpt>
      <trkpt lat="46.17452" lon="6.46864">
        <ele>960.79998779297</ele>
        <time>2020-08-05T10:55:37.000Z</time>
      </trkpt>
      <trkpt lat="46.17447" lon="6.46845">
        <ele>962.40002441406</ele>
        <time>2020-08-05T10:55:44.000Z</time>
      </trkpt>
      <trkpt lat="46.17444" lon="6.4683">
        <ele>963.79998779297</ele>
        <time>2020-08-05T10:55:49.000Z</time>
      </trkpt>
      <trkpt lat="46.17441" lon="6.46806">
        <ele>966.20001220703</ele>
        <time>2020-08-05T10:55:57.000Z</time>
      </trkpt>
      <trkpt lat="46.17438" lon="6.46781">
        <ele>969</ele>
        <time>2020-08-05T10:56:05.000Z</time>
      </trkpt>
      <trkpt lat="46.17435" lon="6.46759">
        <ele>971.20001220703</ele>
        <time>2020-08-05T10:56:12.000Z</time>
      </trkpt>
      <trkpt lat="46.17432" lon="6.46736">
        <ele>973.40002441406</ele>
        <time>2020-08-05T10:56:19.000Z</time>
      </trkpt>
      <trkpt lat="46.1743" lon="6.46715">
        <ele>975</ele>
        <time>2020-08-05T10:56:26.000Z</time>
      </trkpt>
      <trkpt lat="46.17434" lon="6.467">
        <ele>976.79998779297</ele>
        <time>2020-08-05T10:56:32.000Z</time>
      </trkpt>
      <trkpt lat="46.17446" lon="6.46688">
        <ele>980.20001220703</ele>
        <time>2020-08-05T10:56:39.000Z</time>
      </trkpt>
      <trkpt lat="46.17458" lon="6.46686">
        <ele>982.59997558594</ele>
        <time>2020-08-05T10:56:45.000Z</time>
      </trkpt>
      <trkpt lat="46.1747" lon="6.46697">
        <ele>983.79998779297</ele>
        <time>2020-08-05T10:56:51.000Z</time>
      </trkpt>
      <trkpt lat="46.17485" lon="6.46718">
        <ele>985</ele>
        <time>2020-08-05T10:57:00.000Z</time>
      </trkpt>
      <trkpt lat="46.175" lon="6.46739">
        <ele>986.40002441406</ele>
        <time>2020-08-05T10:57:09.000Z</time>
      </trkpt>
      <trkpt lat="46.17515" lon="6.46752">
        <ele>988</ele>
        <time>2020-08-05T10:57:16.000Z</time>
      </trkpt>
      <trkpt lat="46.17529" lon="6.46764">
        <ele>989.59997558594</ele>
        <time>2020-08-05T10:57:21.000Z</time>
      </trkpt>
      <trkpt lat="46.17552" lon="6.46784">
        <ele>992</ele>
        <time>2020-08-05T10:57:28.000Z</time>
      </trkpt>
      <trkpt lat="46.17559" lon="6.4679">
        <ele>992.79998779297</ele>
        <time>2020-08-05T10:57:30.000Z</time>
      </trkpt>
      <trkpt lat="46.1757" lon="6.46811">
        <ele>993</ele>
        <time>2020-08-05T10:57:34.000Z</time>
      </trkpt>
      <trkpt lat="46.17573" lon="6.46817">
        <ele>993</ele>
        <time>2020-08-05T10:57:35.000Z</time>
      </trkpt>
      <trkpt lat="46.17586" lon="6.46841">
        <ele>990.79998779297</ele>
        <time>2020-08-05T10:57:40.000Z</time>
      </trkpt>
      <trkpt lat="46.17601" lon="6.46859">
        <ele>992.79998779297</ele>
        <time>2020-08-05T10:57:46.000Z</time>
      </trkpt>
      <trkpt lat="46.17616" lon="6.46875">
        <ele>994.79998779297</ele>
        <time>2020-08-05T10:57:53.000Z</time>
      </trkpt>
      <trkpt lat="46.17632" lon="6.46893">
        <ele>997</ele>
        <time>2020-08-05T10:58:02.000Z</time>
      </trkpt>
      <trkpt lat="46.17644" lon="6.46907">
        <ele>998.20001220703</ele>
        <time>2020-08-05T10:58:09.000Z</time>
      </trkpt>
      <trkpt lat="46.17657" lon="6.46921">
        <ele>997.20001220703</ele>
        <time>2020-08-05T10:58:16.000Z</time>
      </trkpt>
      <trkpt lat="46.1767" lon="6.46935">
        <ele>996.20001220703</ele>
        <time>2020-08-05T10:58:23.000Z</time>
      </trkpt>
      <trkpt lat="46.17683" lon="6.46951">
        <ele>995.20001220703</ele>
        <time>2020-08-05T10:58:30.000Z</time>
      </trkpt>
      <trkpt lat="46.17702" lon="6.46958">
        <ele>996.79998779297</ele>
        <time>2020-08-05T10:58:37.000Z</time>
      </trkpt>
      <trkpt lat="46.17718" lon="6.46964">
        <ele>1000.5999755859</ele>
        <time>2020-08-05T10:58:44.000Z</time>
      </trkpt>
      <trkpt lat="46.17734" lon="6.46969">
        <ele>1003.5999755859</ele>
        <time>2020-08-05T10:58:51.000Z</time>
      </trkpt>
      <trkpt lat="46.17748" lon="6.46974">
        <ele>1004.4000244141</ele>
        <time>2020-08-05T10:58:57.000Z</time>
      </trkpt>
      <trkpt lat="46.17757" lon="6.46977">
        <ele>1004.799987793</ele>
        <time>2020-08-05T10:59:01.000Z</time>
      </trkpt>
      <trkpt lat="46.17771" lon="6.46981">
        <ele>1005.5999755859</ele>
        <time>2020-08-05T10:59:07.000Z</time>
      </trkpt>
      <trkpt lat="46.17773" lon="6.46982">
        <ele>1005.799987793</ele>
        <time>2020-08-05T10:59:08.000Z</time>
      </trkpt>
      <trkpt lat="46.17782" lon="6.46985">
        <ele>1006.799987793</ele>
        <time>2020-08-05T10:59:12.000Z</time>
      </trkpt>
      <trkpt lat="46.17793" lon="6.46988">
        <ele>1008.200012207</ele>
        <time>2020-08-05T10:59:17.000Z</time>
      </trkpt>
      <trkpt lat="46.17807" lon="6.46993">
        <ele>1010.200012207</ele>
        <time>2020-08-05T10:59:22.000Z</time>
      </trkpt>
      <trkpt lat="46.17818" lon="6.47006">
        <ele>1010</ele>
        <time>2020-08-05T10:59:28.000Z</time>
      </trkpt>
      <trkpt lat="46.1783" lon="6.47033">
        <ele>1007.200012207</ele>
        <time>2020-08-05T10:59:36.000Z</time>
      </trkpt>
      <trkpt lat="46.17841" lon="6.47058">
        <ele>1004.5999755859</ele>
        <time>2020-08-05T10:59:44.000Z</time>
      </trkpt>
      <trkpt lat="46.17856" lon="6.47077">
        <ele>1005.200012207</ele>
        <time>2020-08-05T10:59:52.000Z</time>
      </trkpt>
      <trkpt lat="46.17872" lon="6.47091">
        <ele>1007.5999755859</ele>
        <time>2020-08-05T11:00:00.000Z</time>
      </trkpt>
      <trkpt lat="46.1789" lon="6.47106">
        <ele>1010.200012207</ele>
        <time>2020-08-05T11:00:09.000Z</time>
      </trkpt>
      <trkpt lat="46.17907" lon="6.47113">
        <ele>1012.200012207</ele>
        <time>2020-08-05T11:00:17.000Z</time>
      </trkpt>
      <trkpt lat="46.17925" lon="6.47117">
        <ele>1014.4000244141</ele>
        <time>2020-08-05T11:00:25.000Z</time>
      </trkpt>
      <trkpt lat="46.17944" lon="6.47122">
        <ele>1016.4000244141</ele>
        <time>2020-08-05T11:00:33.000Z</time>
      </trkpt>
      <trkpt lat="46.17957" lon="6.47125">
        <ele>1018</ele>
        <time>2020-08-05T11:00:39.000Z</time>
      </trkpt>
      <trkpt lat="46.17972" lon="6.47129">
        <ele>1019.799987793</ele>
        <time>2020-08-05T11:00:46.000Z</time>
      </trkpt>
      <trkpt lat="46.17988" lon="6.47132">
        <ele>1024</ele>
        <time>2020-08-05T11:00:53.000Z</time>
      </trkpt>
      <trkpt lat="46.17996" lon="6.47134">
        <ele>1027</ele>
        <time>2020-08-05T11:00:57.000Z</time>
      </trkpt>
      <trkpt lat="46.17999" lon="6.47135">
        <ele>1028.4000244141</ele>
        <time>2020-08-05T11:00:59.000Z</time>
      </trkpt>
      <trkpt lat="46.18006" lon="6.47137">
        <ele>1030.8000488281</ele>
        <time>2020-08-05T11:01:02.000Z</time>
      </trkpt>
      <trkpt lat="46.18017" lon="6.4714">
        <ele>1035.1999511719</ele>
        <time>2020-08-05T11:01:08.000Z</time>
      </trkpt>
      <trkpt lat="46.18035" lon="6.47148">
        <ele>1041.5999755859</ele>
        <time>2020-08-05T11:01:15.000Z</time>
      </trkpt>
      <trkpt lat="46.18045" lon="6.47163">
        <ele>1047.8000488281</ele>
        <time>2020-08-05T11:01:22.000Z</time>
      </trkpt>
      <trkpt lat="46.18048" lon="6.47184">
        <ele>1052.5999755859</ele>
        <time>2020-08-05T11:01:28.000Z</time>
      </trkpt>
      <trkpt lat="46.18047" lon="6.47212">
        <ele>1056.8000488281</ele>
        <time>2020-08-05T11:01:36.000Z</time>
      </trkpt>
      <trkpt lat="46.18044" lon="6.47233">
        <ele>1055.1999511719</ele>
        <time>2020-08-05T11:01:43.000Z</time>
      </trkpt>
      <trkpt lat="46.18042" lon="6.47254">
        <ele>1057</ele>
        <time>2020-08-05T11:01:50.000Z</time>
      </trkpt>
      <trkpt lat="46.18039" lon="6.47275">
        <ele>1058.5999755859</ele>
        <time>2020-08-05T11:01:57.000Z</time>
      </trkpt>
      <trkpt lat="46.18034" lon="6.47299">
        <ele>1059.5999755859</ele>
        <time>2020-08-05T11:02:05.000Z</time>
      </trkpt>
      <trkpt lat="46.18028" lon="6.47319">
        <ele>1060.8000488281</ele>
        <time>2020-08-05T11:02:12.000Z</time>
      </trkpt>
      <trkpt lat="46.18021" lon="6.47346">
        <ele>1064.8000488281</ele>
        <time>2020-08-05T11:02:21.000Z</time>
      </trkpt>
      <trkpt lat="46.18017" lon="6.47365">
        <ele>1067</ele>
        <time>2020-08-05T11:02:28.000Z</time>
      </trkpt>
      <trkpt lat="46.1801" lon="6.47389">
        <ele>1068.1999511719</ele>
        <time>2020-08-05T11:02:37.000Z</time>
      </trkpt>
      <trkpt lat="46.18009" lon="6.47393">
        <ele>1068.1999511719</ele>
        <time>2020-08-05T11:02:39.000Z</time>
      </trkpt>
      <trkpt lat="46.18007" lon="6.474">
        <ele>1068</ele>
        <time>2020-08-05T11:02:42.000Z</time>
      </trkpt>
      <trkpt lat="46.18001" lon="6.47414">
        <ele>1067</ele>
        <time>2020-08-05T11:02:48.000Z</time>
      </trkpt>
      <trkpt lat="46.17995" lon="6.47429">
        <ele>1065.5999755859</ele>
        <time>2020-08-05T11:02:54.000Z</time>
      </trkpt>
      <trkpt lat="46.17987" lon="6.47448">
        <ele>1063.1999511719</ele>
        <time>2020-08-05T11:03:01.000Z</time>
      </trkpt>
      <trkpt lat="46.17979" lon="6.47469">
        <ele>1060.5999755859</ele>
        <time>2020-08-05T11:03:09.000Z</time>
      </trkpt>
      <trkpt lat="46.17973" lon="6.47484">
        <ele>1059.4000244141</ele>
        <time>2020-08-05T11:03:15.000Z</time>
      </trkpt>
      <trkpt lat="46.17968" lon="6.47498">
        <ele>1057.4000244141</ele>
        <time>2020-08-05T11:03:21.000Z</time>
      </trkpt>
      <trkpt lat="46.1797" lon="6.47512">
        <ele>1059.8000488281</ele>
        <time>2020-08-05T11:03:27.000Z</time>
      </trkpt>
      <trkpt lat="46.17972" lon="6.47528">
        <ele>1062.5999755859</ele>
        <time>2020-08-05T11:03:33.000Z</time>
      </trkpt>
      <trkpt lat="46.17974" lon="6.47536">
        <ele>1064</ele>
        <time>2020-08-05T11:03:36.000Z</time>
      </trkpt>
      <trkpt lat="46.17974" lon="6.47541">
        <ele>1064.8000488281</ele>
        <time>2020-08-05T11:03:38.000Z</time>
      </trkpt>
      <trkpt lat="46.17977" lon="6.47558">
        <ele>1067.8000488281</ele>
        <time>2020-08-05T11:03:44.000Z</time>
      </trkpt>
      <trkpt lat="46.17981" lon="6.47581">
        <ele>1070.5999755859</ele>
        <time>2020-08-05T11:03:52.000Z</time>
      </trkpt>
      <trkpt lat="46.17984" lon="6.476">
        <ele>1072.4000244141</ele>
        <time>2020-08-05T11:03:59.000Z</time>
      </trkpt>
      <trkpt lat="46.17986" lon="6.47617">
        <ele>1073.8000488281</ele>
        <time>2020-08-05T11:04:05.000Z</time>
      </trkpt>
      <trkpt lat="46.17989" lon="6.47633">
        <ele>1075.4000244141</ele>
        <time>2020-08-05T11:04:11.000Z</time>
      </trkpt>
      <trkpt lat="46.17992" lon="6.47653">
        <ele>1077.5999755859</ele>
        <time>2020-08-05T11:04:18.000Z</time>
      </trkpt>
      <trkpt lat="46.17992" lon="6.47661">
        <ele>1078.8000488281</ele>
        <time>2020-08-05T11:04:21.000Z</time>
      </trkpt>
      <trkpt lat="46.1799" lon="6.47669">
        <ele>1080</ele>
        <time>2020-08-05T11:04:24.000Z</time>
      </trkpt>
      <trkpt lat="46.17986" lon="6.47689">
        <ele>1083.4000244141</ele>
        <time>2020-08-05T11:04:30.000Z</time>
      </trkpt>
      <trkpt lat="46.17979" lon="6.47705">
        <ele>1084.5999755859</ele>
        <time>2020-08-05T11:04:37.000Z</time>
      </trkpt>
      <trkpt lat="46.17969" lon="6.47714">
        <ele>1084.8000488281</ele>
        <time>2020-08-05T11:04:43.000Z</time>
      </trkpt>
      <trkpt lat="46.17957" lon="6.47725">
        <ele>1085</ele>
        <time>2020-08-05T11:04:49.000Z</time>
      </trkpt>
      <trkpt lat="46.17948" lon="6.47726">
        <ele>1083.1999511719</ele>
        <time>2020-08-05T11:04:55.000Z</time>
      </trkpt>
      <trkpt lat="46.17939" lon="6.47726">
        <ele>1081.4000244141</ele>
        <time>2020-08-05T11:05:00.000Z</time>
      </trkpt>
      <trkpt lat="46.17932" lon="6.47726">
        <ele>1080</ele>
        <time>2020-08-05T11:05:04.000Z</time>
      </trkpt>
      <trkpt lat="46.1793" lon="6.47726">
        <ele>1079.5999755859</ele>
        <time>2020-08-05T11:05:05.000Z</time>
      </trkpt>
      <trkpt lat="46.17917" lon="6.47727">
        <ele>1077</ele>
        <time>2020-08-05T11:05:12.000Z</time>
      </trkpt>
      <trkpt lat="46.17906" lon="6.47737">
        <ele>1077</ele>
        <time>2020-08-05T11:05:17.000Z</time>
      </trkpt>
      <trkpt lat="46.179" lon="6.4775">
        <ele>1077.4000244141</ele>
        <time>2020-08-05T11:05:22.000Z</time>
      </trkpt>
      <trkpt lat="46.17897" lon="6.47776">
        <ele>1079.1999511719</ele>
        <time>2020-08-05T11:05:30.000Z</time>
      </trkpt>
      <trkpt lat="46.17905" lon="6.47797">
        <ele>1083.8000488281</ele>
        <time>2020-08-05T11:05:37.000Z</time>
      </trkpt>
      <trkpt lat="46.17912" lon="6.47825">
        <ele>1087.8000488281</ele>
        <time>2020-08-05T11:05:46.000Z</time>
      </trkpt>
      <trkpt lat="46.17917" lon="6.47845">
        <ele>1088.8000488281</ele>
        <time>2020-08-05T11:05:52.000Z</time>
      </trkpt>
      <trkpt lat="46.1792" lon="6.4786">
        <ele>1089.1999511719</ele>
        <time>2020-08-05T11:05:57.000Z</time>
      </trkpt>
      <trkpt lat="46.17925" lon="6.47881">
        <ele>1089.8000488281</ele>
        <time>2020-08-05T11:06:04.000Z</time>
      </trkpt>
      <trkpt lat="46.17932" lon="6.47906">
        <ele>1090.4000244141</ele>
        <time>2020-08-05T11:06:12.000Z</time>
      </trkpt>
      <trkpt lat="46.17938" lon="6.47923">
        <ele>1091.5999755859</ele>
        <time>2020-08-05T11:06:18.000Z</time>
      </trkpt>
      <trkpt lat="46.17942" lon="6.4793">
        <ele>1092.4000244141</ele>
        <time>2020-08-05T11:06:21.000Z</time>
      </trkpt>
      <trkpt lat="46.17947" lon="6.47937">
        <ele>1093.5999755859</ele>
        <time>2020-08-05T11:06:24.000Z</time>
      </trkpt>
      <trkpt lat="46.17957" lon="6.47942">
        <ele>1096.5999755859</ele>
        <time>2020-08-05T11:06:29.000Z</time>
      </trkpt>
      <trkpt lat="46.17971" lon="6.47949">
        <ele>1100.8000488281</ele>
        <time>2020-08-05T11:06:36.000Z</time>
      </trkpt>
      <trkpt lat="46.17982" lon="6.47956">
        <ele>1104.4000244141</ele>
        <time>2020-08-05T11:06:42.000Z</time>
      </trkpt>
      <trkpt lat="46.17989" lon="6.47967">
        <ele>1106.4000244141</ele>
        <time>2020-08-05T11:06:48.000Z</time>
      </trkpt>
      <trkpt lat="46.17993" lon="6.47988">
        <ele>1106.4000244141</ele>
        <time>2020-08-05T11:06:55.000Z</time>
      </trkpt>
      <trkpt lat="46.17998" lon="6.48013">
        <ele>1106.4000244141</ele>
        <time>2020-08-05T11:07:03.000Z</time>
      </trkpt>
      <trkpt lat="46.18005" lon="6.48017">
        <ele>1108.8000488281</ele>
        <time>2020-08-05T11:07:08.000Z</time>
      </trkpt>
      <trkpt lat="46.18012" lon="6.48011">
        <ele>1112.5999755859</ele>
        <time>2020-08-05T11:07:13.000Z</time>
      </trkpt>
      <trkpt lat="46.18014" lon="6.48">
        <ele>1113.8000488281</ele>
        <time>2020-08-05T11:07:18.000Z</time>
      </trkpt>
      <trkpt lat="46.18015" lon="6.47985">
        <ele>1115</ele>
        <time>2020-08-05T11:07:23.000Z</time>
      </trkpt>
      <trkpt lat="46.18015" lon="6.47982">
        <ele>1115.1999511719</ele>
        <time>2020-08-05T11:07:24.000Z</time>
      </trkpt>
      <trkpt lat="46.18015" lon="6.47973">
        <ele>1115.8000488281</ele>
        <time>2020-08-05T11:07:27.000Z</time>
      </trkpt>
      <trkpt lat="46.18015" lon="6.47968">
        <ele>1116.4000244141</ele>
        <time>2020-08-05T11:07:29.000Z</time>
      </trkpt>
      <trkpt lat="46.18016" lon="6.47955">
        <ele>1117.4000244141</ele>
        <time>2020-08-05T11:07:34.000Z</time>
      </trkpt>
      <trkpt lat="46.18016" lon="6.47943">
        <ele>1118.4000244141</ele>
        <time>2020-08-05T11:07:38.000Z</time>
      </trkpt>
      <trkpt lat="46.18016" lon="6.4794">
        <ele>1118.5999755859</ele>
        <time>2020-08-05T11:07:39.000Z</time>
      </trkpt>
      <trkpt lat="46.18016" lon="6.47934">
        <ele>1119</ele>
        <time>2020-08-05T11:07:41.000Z</time>
      </trkpt>
      <trkpt lat="46.18013" lon="6.47922">
        <ele>1118.5999755859</ele>
        <time>2020-08-05T11:07:44.000Z</time>
      </trkpt>
      <trkpt lat="46.18002" lon="6.47897">
        <ele>1115.8000488281</ele>
        <time>2020-08-05T11:07:51.000Z</time>
      </trkpt>
      <trkpt lat="46.17993" lon="6.4788">
        <ele>1112.4000244141</ele>
        <time>2020-08-05T11:07:57.000Z</time>
      </trkpt>
      <trkpt lat="46.17987" lon="6.4786">
        <ele>1110.1999511719</ele>
        <time>2020-08-05T11:08:04.000Z</time>
      </trkpt>
      <trkpt lat="46.17992" lon="6.4785">
        <ele>1111.8000488281</ele>
        <time>2020-08-05T11:08:08.000Z</time>
      </trkpt>
      <trkpt lat="46.17993" lon="6.47846">
        <ele>1112.4000244141</ele>
        <time>2020-08-05T11:08:09.000Z</time>
      </trkpt>
      <trkpt lat="46.18004" lon="6.47837">
        <ele>1116.4000244141</ele>
        <time>2020-08-05T11:08:16.000Z</time>
      </trkpt>
      <trkpt lat="46.18014" lon="6.47839">
        <ele>1120.4000244141</ele>
        <time>2020-08-05T11:08:20.000Z</time>
      </trkpt>
      <trkpt lat="46.18023" lon="6.47844">
        <ele>1124.1999511719</ele>
        <time>2020-08-05T11:08:25.000Z</time>
      </trkpt>
      <trkpt lat="46.18029" lon="6.4786">
        <ele>1125.8000488281</ele>
        <time>2020-08-05T11:08:31.000Z</time>
      </trkpt>
      <trkpt lat="46.18035" lon="6.47877">
        <ele>1127.5999755859</ele>
        <time>2020-08-05T11:08:38.000Z</time>
      </trkpt>
      <trkpt lat="46.1804" lon="6.4789">
        <ele>1129.1999511719</ele>
        <time>2020-08-05T11:08:43.000Z</time>
      </trkpt>
      <trkpt lat="46.18046" lon="6.47907">
        <ele>1131</ele>
        <time>2020-08-05T11:08:49.000Z</time>
      </trkpt>
      <trkpt lat="46.18046" lon="6.47909">
        <ele>1131.1999511719</ele>
        <time>2020-08-05T11:08:50.000Z</time>
      </trkpt>
      <trkpt lat="46.18048" lon="6.47916">
        <ele>1131.4000244141</ele>
        <time>2020-08-05T11:08:53.000Z</time>
      </trkpt>
      <trkpt lat="46.18049" lon="6.47921">
        <ele>1131.5999755859</ele>
        <time>2020-08-05T11:08:55.000Z</time>
      </trkpt>
      <trkpt lat="46.1805" lon="6.47925">
        <ele>1131.8000488281</ele>
        <time>2020-08-05T11:08:57.000Z</time>
      </trkpt>
      <trkpt lat="46.18052" lon="6.47933">
        <ele>1132</ele>
        <time>2020-08-05T11:09:00.000Z</time>
      </trkpt>
      <trkpt lat="46.18053" lon="6.47938">
        <ele>1132.1999511719</ele>
        <time>2020-08-05T11:09:02.000Z</time>
      </trkpt>
      <trkpt lat="46.18055" lon="6.47946">
        <ele>1132.4000244141</ele>
        <time>2020-08-05T11:09:05.000Z</time>
      </trkpt>
      <trkpt lat="46.18056" lon="6.47951">
        <ele>1132.5999755859</ele>
        <time>2020-08-05T11:09:07.000Z</time>
      </trkpt>
      <trkpt lat="46.18057" lon="6.47956">
        <ele>1132.8000488281</ele>
        <time>2020-08-05T11:09:09.000Z</time>
      </trkpt>
      <trkpt lat="46.18059" lon="6.47961">
        <ele>1133</ele>
        <time>2020-08-05T11:09:11.000Z</time>
      </trkpt>
      <trkpt lat="46.18059" lon="6.47964">
        <ele>1133</ele>
        <time>2020-08-05T11:09:12.000Z</time>
      </trkpt>
      <trkpt lat="46.18061" lon="6.47974">
        <ele>1133.4000244141</ele>
        <time>2020-08-05T11:09:16.000Z</time>
      </trkpt>
      <trkpt lat="46.18064" lon="6.47987">
        <ele>1134.1999511719</ele>
        <time>2020-08-05T11:09:21.000Z</time>
      </trkpt>
      <trkpt lat="46.18066" lon="6.47995">
        <ele>1134.5999755859</ele>
        <time>2020-08-05T11:09:24.000Z</time>
      </trkpt>
      <trkpt lat="46.18068" lon="6.48001">
        <ele>1134.8000488281</ele>
        <time>2020-08-05T11:09:26.000Z</time>
      </trkpt>
      <trkpt lat="46.18068" lon="6.48003">
        <ele>1135</ele>
        <time>2020-08-05T11:09:27.000Z</time>
      </trkpt>
      <trkpt lat="46.1807" lon="6.48013">
        <ele>1135.4000244141</ele>
        <time>2020-08-05T11:09:31.000Z</time>
      </trkpt>
      <trkpt lat="46.18071" lon="6.48015">
        <ele>1135.5999755859</ele>
        <time>2020-08-05T11:09:32.000Z</time>
      </trkpt>
      <trkpt lat="46.18073" lon="6.48023">
        <ele>1136</ele>
        <time>2020-08-05T11:09:35.000Z</time>
      </trkpt>
      <trkpt lat="46.18075" lon="6.48033">
        <ele>1136.4000244141</ele>
        <time>2020-08-05T11:09:39.000Z</time>
      </trkpt>
      <trkpt lat="46.18076" lon="6.48035">
        <ele>1136.5999755859</ele>
        <time>2020-08-05T11:09:40.000Z</time>
      </trkpt>
      <trkpt lat="46.18077" lon="6.48043">
        <ele>1136.8000488281</ele>
        <time>2020-08-05T11:09:43.000Z</time>
      </trkpt>
      <trkpt lat="46.18078" lon="6.48045">
        <ele>1137</ele>
        <time>2020-08-05T11:09:44.000Z</time>
      </trkpt>
      <trkpt lat="46.18082" lon="6.48064">
        <ele>1137.8000488281</ele>
        <time>2020-08-05T11:09:51.000Z</time>
      </trkpt>
      <trkpt lat="46.18087" lon="6.48081">
        <ele>1139</ele>
        <time>2020-08-05T11:09:57.000Z</time>
      </trkpt>
      <trkpt lat="46.18099" lon="6.48092">
        <ele>1144</ele>
        <time>2020-08-05T11:10:04.000Z</time>
      </trkpt>
      <trkpt lat="46.18105" lon="6.48091">
        <ele>1146.8000488281</ele>
        <time>2020-08-05T11:10:07.000Z</time>
      </trkpt>
      <trkpt lat="46.18106" lon="6.48084">
        <ele>1148</ele>
        <time>2020-08-05T11:10:09.000Z</time>
      </trkpt>
      <trkpt lat="46.18108" lon="6.48075">
        <ele>1149.4000244141</ele>
        <time>2020-08-05T11:10:14.000Z</time>
      </trkpt>
      <trkpt lat="46.18107" lon="6.48072">
        <ele>1149</ele>
        <time>2020-08-05T11:10:15.000Z</time>
      </trkpt>
      <trkpt lat="46.18102" lon="6.48056">
        <ele>1147.4000244141</ele>
        <time>2020-08-05T11:10:20.000Z</time>
      </trkpt>
      <trkpt lat="46.18096" lon="6.48041">
        <ele>1145.8000488281</ele>
        <time>2020-08-05T11:10:25.000Z</time>
      </trkpt>
      <trkpt lat="46.1809" lon="6.48022">
        <ele>1143.8000488281</ele>
        <time>2020-08-05T11:10:32.000Z</time>
      </trkpt>
      <trkpt lat="46.18091" lon="6.48012">
        <ele>1145</ele>
        <time>2020-08-05T11:10:36.000Z</time>
      </trkpt>
      <trkpt lat="46.18091" lon="6.48006">
        <ele>1145.8000488281</ele>
        <time>2020-08-05T11:10:38.000Z</time>
      </trkpt>
      <trkpt lat="46.18094" lon="6.47989">
        <ele>1148</ele>
        <time>2020-08-05T11:10:45.000Z</time>
      </trkpt>
      <trkpt lat="46.18096" lon="6.47977">
        <ele>1149.5999755859</ele>
        <time>2020-08-05T11:10:50.000Z</time>
      </trkpt>
      <trkpt lat="46.18097" lon="6.47974">
        <ele>1150</ele>
        <time>2020-08-05T11:10:51.000Z</time>
      </trkpt>
      <trkpt lat="46.181" lon="6.47956">
        <ele>1152.1999511719</ele>
        <time>2020-08-05T11:10:58.000Z</time>
      </trkpt>
      <trkpt lat="46.18101" lon="6.47945">
        <ele>1153.5999755859</ele>
        <time>2020-08-05T11:11:03.000Z</time>
      </trkpt>
      <trkpt lat="46.18102" lon="6.47942">
        <ele>1153.8000488281</ele>
        <time>2020-08-05T11:11:04.000Z</time>
      </trkpt>
      <trkpt lat="46.1811" lon="6.47926">
        <ele>1156.8000488281</ele>
        <time>2020-08-05T11:11:11.000Z</time>
      </trkpt>
      <trkpt lat="46.18118" lon="6.47916">
        <ele>1159.8000488281</ele>
        <time>2020-08-05T11:11:17.000Z</time>
      </trkpt>
      <trkpt lat="46.18126" lon="6.47907">
        <ele>1162.5999755859</ele>
        <time>2020-08-05T11:11:23.000Z</time>
      </trkpt>
      <trkpt lat="46.18133" lon="6.47895">
        <ele>1165.4000244141</ele>
        <time>2020-08-05T11:11:30.000Z</time>
      </trkpt>
      <trkpt lat="46.18133" lon="6.47893">
        <ele>1165.8000488281</ele>
        <time>2020-08-05T11:11:31.000Z</time>
      </trkpt>
      <trkpt lat="46.18136" lon="6.47887">
        <ele>1166.5999755859</ele>
        <time>2020-08-05T11:11:34.000Z</time>
      </trkpt>
      <trkpt lat="46.1814" lon="6.47876">
        <ele>1167.4000244141</ele>
        <time>2020-08-05T11:11:40.000Z</time>
      </trkpt>
      <trkpt lat="46.18141" lon="6.47875">
        <ele>1167.5999755859</ele>
        <time>2020-08-05T11:11:41.000Z</time>
      </trkpt>
      <trkpt lat="46.18143" lon="6.47869">
        <ele>1168</ele>
        <time>2020-08-05T11:11:44.000Z</time>
      </trkpt>
      <trkpt lat="46.18144" lon="6.47867">
        <ele>1168.1999511719</ele>
        <time>2020-08-05T11:11:45.000Z</time>
      </trkpt>
      <trkpt lat="46.18146" lon="6.47862">
        <ele>1168.8000488281</ele>
        <time>2020-08-05T11:11:47.000Z</time>
      </trkpt>
      <trkpt lat="46.18147" lon="6.4786">
        <ele>1169</ele>
        <time>2020-08-05T11:11:48.000Z</time>
      </trkpt>
      <trkpt lat="46.18148" lon="6.47858">
        <ele>1169.4000244141</ele>
        <time>2020-08-05T11:11:49.000Z</time>
      </trkpt>
      <trkpt lat="46.18151" lon="6.4785">
        <ele>1170.4000244141</ele>
        <time>2020-08-05T11:11:53.000Z</time>
      </trkpt>
      <trkpt lat="46.18154" lon="6.47841">
        <ele>1171.8000488281</ele>
        <time>2020-08-05T11:11:58.000Z</time>
      </trkpt>
      <trkpt lat="46.18159" lon="6.47831">
        <ele>1173.1999511719</ele>
        <time>2020-08-05T11:12:03.000Z</time>
      </trkpt>
      <trkpt lat="46.18164" lon="6.47817">
        <ele>1174.4000244141</ele>
        <time>2020-08-05T11:12:10.000Z</time>
      </trkpt>
      <trkpt lat="46.18175" lon="6.47808">
        <ele>1177.1999511719</ele>
        <time>2020-08-05T11:12:17.000Z</time>
      </trkpt>
      <trkpt lat="46.18183" lon="6.47802">
        <ele>1179.5999755859</ele>
        <time>2020-08-05T11:12:23.000Z</time>
      </trkpt>
      <trkpt lat="46.18192" lon="6.47796">
        <ele>1182.4000244141</ele>
        <time>2020-08-05T11:12:30.000Z</time>
      </trkpt>
      <trkpt lat="46.18203" lon="6.47788">
        <ele>1185.5999755859</ele>
        <time>2020-08-05T11:12:37.000Z</time>
      </trkpt>
      <trkpt lat="46.18212" lon="6.47781">
        <ele>1188.1999511719</ele>
        <time>2020-08-05T11:12:43.000Z</time>
      </trkpt>
      <trkpt lat="46.18218" lon="6.47771">
        <ele>1189.1999511719</ele>
        <time>2020-08-05T11:12:49.000Z</time>
      </trkpt>
      <trkpt lat="46.18225" lon="6.47761">
        <ele>1190.4000244141</ele>
        <time>2020-08-05T11:12:55.000Z</time>
      </trkpt>
      <trkpt lat="46.18228" lon="6.47756">
        <ele>1191</ele>
        <time>2020-08-05T11:12:58.000Z</time>
      </trkpt>
      <trkpt lat="46.1823" lon="6.47753">
        <ele>1192</ele>
        <time>2020-08-05T11:13:00.000Z</time>
      </trkpt>
      <trkpt lat="46.18237" lon="6.4774">
        <ele>1193.8000488281</ele>
        <time>2020-08-05T11:13:07.000Z</time>
      </trkpt>
      <trkpt lat="46.18244" lon="6.47725">
        <ele>1194.5999755859</ele>
        <time>2020-08-05T11:13:15.000Z</time>
      </trkpt>
      <trkpt lat="46.1825" lon="6.47712">
        <ele>1196</ele>
        <time>2020-08-05T11:13:22.000Z</time>
      </trkpt>
      <trkpt lat="46.18259" lon="6.47696">
        <ele>1198</ele>
        <time>2020-08-05T11:13:31.000Z</time>
      </trkpt>
      <trkpt lat="46.18263" lon="6.47686">
        <ele>1199.1999511719</ele>
        <time>2020-08-05T11:13:36.000Z</time>
      </trkpt>
      <trkpt lat="46.1827" lon="6.47671">
        <ele>1199</ele>
        <time>2020-08-05T11:13:44.000Z</time>
      </trkpt>
      <trkpt lat="46.18277" lon="6.47657">
        <ele>1198.5999755859</ele>
        <time>2020-08-05T11:13:52.000Z</time>
      </trkpt>
      <trkpt lat="46.18283" lon="6.47646">
        <ele>1199.8000488281</ele>
        <time>2020-08-05T11:13:58.000Z</time>
      </trkpt>
      <trkpt lat="46.18289" lon="6.47633">
        <ele>1204</ele>
        <time>2020-08-05T11:14:05.000Z</time>
      </trkpt>
      <trkpt lat="46.18298" lon="6.47614">
        <ele>1204.5999755859</ele>
        <time>2020-08-05T11:14:15.000Z</time>
      </trkpt>
      <trkpt lat="46.18302" lon="6.47607">
        <ele>1204.4000244141</ele>
        <time>2020-08-05T11:14:19.000Z</time>
      </trkpt>
      <trkpt lat="46.18304" lon="6.47603">
        <ele>1204.1999511719</ele>
        <time>2020-08-05T11:14:21.000Z</time>
      </trkpt>
      <trkpt lat="46.1831" lon="6.47589">
        <ele>1203.8000488281</ele>
        <time>2020-08-05T11:14:28.000Z</time>
      </trkpt>
      <trkpt lat="46.18313" lon="6.47584">
        <ele>1204.4000244141</ele>
        <time>2020-08-05T11:14:31.000Z</time>
      </trkpt>
      <trkpt lat="46.18315" lon="6.4758">
        <ele>1205</ele>
        <time>2020-08-05T11:14:33.000Z</time>
      </trkpt>
      <trkpt lat="46.18321" lon="6.47568">
        <ele>1206</ele>
        <time>2020-08-05T11:14:39.000Z</time>
      </trkpt>
      <trkpt lat="46.18327" lon="6.47556">
        <ele>1207.8000488281</ele>
        <time>2020-08-05T11:14:45.000Z</time>
      </trkpt>
      <trkpt lat="46.18334" lon="6.47542">
        <ele>1210.1999511719</ele>
        <time>2020-08-05T11:14:52.000Z</time>
      </trkpt>
      <trkpt lat="46.1834" lon="6.47528">
        <ele>1212.5999755859</ele>
        <time>2020-08-05T11:14:59.000Z</time>
      </trkpt>
      <trkpt lat="46.18342" lon="6.47524">
        <ele>1213.4000244141</ele>
        <time>2020-08-05T11:15:01.000Z</time>
      </trkpt>
      <trkpt lat="46.18345" lon="6.47518">
        <ele>1214.4000244141</ele>
        <time>2020-08-05T11:15:04.000Z</time>
      </trkpt>
      <trkpt lat="46.1835" lon="6.47508">
        <ele>1214.4000244141</ele>
        <time>2020-08-05T11:15:09.000Z</time>
      </trkpt>
      <trkpt lat="46.18355" lon="6.47491">
        <ele>1212.8000488281</ele>
        <time>2020-08-05T11:15:16.000Z</time>
      </trkpt>
      <trkpt lat="46.18356" lon="6.47486">
        <ele>1212.1999511719</ele>
        <time>2020-08-05T11:15:18.000Z</time>
      </trkpt>
      <trkpt lat="46.18358" lon="6.47476">
        <ele>1212.4000244141</ele>
        <time>2020-08-05T11:15:22.000Z</time>
      </trkpt>
      <trkpt lat="46.18362" lon="6.47458">
        <ele>1214.1999511719</ele>
        <time>2020-08-05T11:15:29.000Z</time>
      </trkpt>
      <trkpt lat="46.18364" lon="6.47446">
        <ele>1215</ele>
        <time>2020-08-05T11:15:34.000Z</time>
      </trkpt>
      <trkpt lat="46.18365" lon="6.47444">
        <ele>1215</ele>
        <time>2020-08-05T11:15:35.000Z</time>
      </trkpt>
      <trkpt lat="46.18365" lon="6.47442">
        <ele>1215</ele>
        <time>2020-08-05T11:15:36.000Z</time>
      </trkpt>
      <trkpt lat="46.18366" lon="6.47435">
        <ele>1215.4000244141</ele>
        <time>2020-08-05T11:15:39.000Z</time>
      </trkpt>
      <trkpt lat="46.18369" lon="6.47423">
        <ele>1215.8000488281</ele>
        <time>2020-08-05T11:15:44.000Z</time>
      </trkpt>
      <trkpt lat="46.18372" lon="6.47405">
        <ele>1216.4000244141</ele>
        <time>2020-08-05T11:15:51.000Z</time>
      </trkpt>
      <trkpt lat="46.18373" lon="6.47403">
        <ele>1216.4000244141</ele>
        <time>2020-08-05T11:15:52.000Z</time>
      </trkpt>
      <trkpt lat="46.18373" lon="6.47399">
        <ele>1216.5999755859</ele>
        <time>2020-08-05T11:15:55.000Z</time>
      </trkpt>
      <trkpt lat="46.18374" lon="6.47394">
        <ele>1217.4000244141</ele>
        <time>2020-08-05T11:15:57.000Z</time>
      </trkpt>
      <trkpt lat="46.18374" lon="6.47383">
        <ele>1219</ele>
        <time>2020-08-05T11:16:00.000Z</time>
      </trkpt>
      <trkpt lat="46.18376" lon="6.47355">
        <ele>1220.8000488281</ele>
        <time>2020-08-05T11:16:08.000Z</time>
      </trkpt>
      <trkpt lat="46.18376" lon="6.47343">
        <ele>1221.4000244141</ele>
        <time>2020-08-05T11:16:12.000Z</time>
      </trkpt>
      <trkpt lat="46.18377" lon="6.47325">
        <ele>1222.1999511719</ele>
        <time>2020-08-05T11:16:17.000Z</time>
      </trkpt>
      <trkpt lat="46.18379" lon="6.47304">
        <ele>1226</ele>
        <time>2020-08-05T11:16:24.000Z</time>
      </trkpt>
      <trkpt lat="46.18379" lon="6.47302">
        <ele>1226.5999755859</ele>
        <time>2020-08-05T11:16:25.000Z</time>
      </trkpt>
      <trkpt lat="46.18379" lon="6.47291">
        <ele>1227.5999755859</ele>
        <time>2020-08-05T11:16:29.000Z</time>
      </trkpt>
      <trkpt lat="46.1838" lon="6.47277">
        <ele>1228.5999755859</ele>
        <time>2020-08-05T11:16:34.000Z</time>
      </trkpt>
      <trkpt lat="46.1838" lon="6.47274">
        <ele>1228.8000488281</ele>
        <time>2020-08-05T11:16:35.000Z</time>
      </trkpt>
      <trkpt lat="46.18381" lon="6.47267">
        <ele>1229.4000244141</ele>
        <time>2020-08-05T11:16:38.000Z</time>
      </trkpt>
      <trkpt lat="46.18381" lon="6.47262">
        <ele>1229.8000488281</ele>
        <time>2020-08-05T11:16:40.000Z</time>
      </trkpt>
      <trkpt lat="46.18381" lon="6.47259">
        <ele>1230</ele>
        <time>2020-08-05T11:16:41.000Z</time>
      </trkpt>
      <trkpt lat="46.18382" lon="6.47249">
        <ele>1230.8000488281</ele>
        <time>2020-08-05T11:16:45.000Z</time>
      </trkpt>
      <trkpt lat="46.18382" lon="6.47242">
        <ele>1231.1999511719</ele>
        <time>2020-08-05T11:16:46.000Z</time>
      </trkpt>
      <trkpt lat="46.18382" lon="6.47242">
        <ele>1231.1999511719</ele>
        <time>2020-08-05T11:16:49.000Z</time>
      </trkpt>
      <trkpt lat="46.18383" lon="6.4724">
        <ele>1231.4000244141</ele>
        <time>2020-08-05T11:16:50.000Z</time>
      </trkpt>
      <trkpt lat="46.18386" lon="6.47234">
        <ele>1231.8000488281</ele>
        <time>2020-08-05T11:16:53.000Z</time>
      </trkpt>
      <trkpt lat="46.18391" lon="6.47226">
        <ele>1233</ele>
        <time>2020-08-05T11:16:58.000Z</time>
      </trkpt>
      <trkpt lat="46.18392" lon="6.47225">
        <ele>1232.8000488281</ele>
        <time>2020-08-05T11:16:59.000Z</time>
      </trkpt>
      <trkpt lat="46.18395" lon="6.4722">
        <ele>1233</ele>
        <time>2020-08-05T11:17:02.000Z</time>
      </trkpt>
      <trkpt lat="46.18401" lon="6.4721">
        <ele>1235.8000488281</ele>
        <time>2020-08-05T11:17:08.000Z</time>
      </trkpt>
      <trkpt lat="46.18409" lon="6.47197">
        <ele>1239.4000244141</ele>
        <time>2020-08-05T11:17:15.000Z</time>
      </trkpt>
      <trkpt lat="46.18411" lon="6.47194">
        <ele>1240.4000244141</ele>
        <time>2020-08-05T11:17:17.000Z</time>
      </trkpt>
      <trkpt lat="46.18413" lon="6.47189">
        <ele>1241.8000488281</ele>
        <time>2020-08-05T11:17:20.000Z</time>
      </trkpt>
      <trkpt lat="46.18418" lon="6.47182">
        <ele>1243.8000488281</ele>
        <time>2020-08-05T11:17:24.000Z</time>
      </trkpt>
      <trkpt lat="46.18425" lon="6.4717">
        <ele>1245.5999755859</ele>
        <time>2020-08-05T11:17:31.000Z</time>
      </trkpt>
      <trkpt lat="46.18432" lon="6.47159">
        <ele>1245.4000244141</ele>
        <time>2020-08-05T11:17:38.000Z</time>
      </trkpt>
      <trkpt lat="46.1844" lon="6.47145">
        <ele>1246.8000488281</ele>
        <time>2020-08-05T11:17:46.000Z</time>
      </trkpt>
      <trkpt lat="46.18448" lon="6.47131">
        <ele>1252</ele>
        <time>2020-08-05T11:17:54.000Z</time>
      </trkpt>
      <trkpt lat="46.18456" lon="6.47117">
        <ele>1253.5999755859</ele>
        <time>2020-08-05T11:18:02.000Z</time>
      </trkpt>
      <trkpt lat="46.18465" lon="6.47109">
        <ele>1251.4000244141</ele>
        <time>2020-08-05T11:18:09.000Z</time>
      </trkpt>
      <trkpt lat="46.18474" lon="6.47101">
        <ele>1249</ele>
        <time>2020-08-05T11:18:16.000Z</time>
      </trkpt>
      <trkpt lat="46.18486" lon="6.47093">
        <ele>1249.4000244141</ele>
        <time>2020-08-05T11:18:24.000Z</time>
      </trkpt>
      <trkpt lat="46.18498" lon="6.47083">
        <ele>1250.8000488281</ele>
        <time>2020-08-05T11:18:32.000Z</time>
      </trkpt>
      <trkpt lat="46.18506" lon="6.4707">
        <ele>1249.4000244141</ele>
        <time>2020-08-05T11:18:38.000Z</time>
      </trkpt>
      <trkpt lat="46.18508" lon="6.47066">
        <ele>1249</ele>
        <time>2020-08-05T11:18:40.000Z</time>
      </trkpt>
      <trkpt lat="46.18512" lon="6.4706">
        <ele>1249</ele>
        <time>2020-08-05T11:18:43.000Z</time>
      </trkpt>
      <trkpt lat="46.18516" lon="6.47052">
        <ele>1249.1999511719</ele>
        <time>2020-08-05T11:18:48.000Z</time>
      </trkpt>
      <trkpt lat="46.18526" lon="6.47037">
        <ele>1249.5999755859</ele>
        <time>2020-08-05T11:18:57.000Z</time>
      </trkpt>
      <trkpt lat="46.18533" lon="6.47025">
        <ele>1248.8000488281</ele>
        <time>2020-08-05T11:19:03.000Z</time>
      </trkpt>
      <trkpt lat="46.18544" lon="6.47011">
        <ele>1247.5999755859</ele>
        <time>2020-08-05T11:19:11.000Z</time>
      </trkpt>
      <trkpt lat="46.18548" lon="6.47006">
        <ele>1247.1999511719</ele>
        <time>2020-08-05T11:19:14.000Z</time>
      </trkpt>
      <trkpt lat="46.18563" lon="6.4699">
        <ele>1245.5999755859</ele>
        <time>2020-08-05T11:19:23.000Z</time>
      </trkpt>
      <trkpt lat="46.18583" lon="6.4698">
        <ele>1243.1999511719</ele>
        <time>2020-08-05T11:19:31.000Z</time>
      </trkpt>
      <trkpt lat="46.18601" lon="6.46969">
        <ele>1242</ele>
        <time>2020-08-05T11:19:37.000Z</time>
      </trkpt>
      <trkpt lat="46.18608" lon="6.46964">
        <ele>1241.5999755859</ele>
        <time>2020-08-05T11:19:39.000Z</time>
      </trkpt>
      <trkpt lat="46.18612" lon="6.46961">
        <ele>1241.1999511719</ele>
        <time>2020-08-05T11:19:40.000Z</time>
      </trkpt>
      <trkpt lat="46.18617" lon="6.46958">
        <ele>1241</ele>
        <time>2020-08-05T11:19:41.000Z</time>
      </trkpt>
      <trkpt lat="46.18626" lon="6.46951">
        <ele>1240.8000488281</ele>
        <time>2020-08-05T11:19:43.000Z</time>
      </trkpt>
      <trkpt lat="46.18631" lon="6.46948">
        <ele>1240.8000488281</ele>
        <time>2020-08-05T11:19:44.000Z</time>
      </trkpt>
      <trkpt lat="46.1867" lon="6.46919">
        <ele>1239</ele>
        <time>2020-08-05T11:19:52.000Z</time>
      </trkpt>
      <trkpt lat="46.18673" lon="6.46917">
        <ele>1239</ele>
        <time>2020-08-05T11:19:53.000Z</time>
      </trkpt>
      <trkpt lat="46.18686" lon="6.46908">
        <ele>1239.1999511719</ele>
        <time>2020-08-05T11:19:57.000Z</time>
      </trkpt>
      <trkpt lat="46.18704" lon="6.46894">
        <ele>1240.1999511719</ele>
        <time>2020-08-05T11:20:04.000Z</time>
      </trkpt>
      <trkpt lat="46.18732" lon="6.46876">
        <ele>1242.5999755859</ele>
        <time>2020-08-05T11:20:14.000Z</time>
      </trkpt>
      <trkpt lat="46.18752" lon="6.46864">
        <ele>1244.5999755859</ele>
        <time>2020-08-05T11:20:21.000Z</time>
      </trkpt>
      <trkpt lat="46.18769" lon="6.46859">
        <ele>1245.1999511719</ele>
        <time>2020-08-05T11:20:27.000Z</time>
      </trkpt>
      <trkpt lat="46.18791" lon="6.46855">
        <ele>1243.8000488281</ele>
        <time>2020-08-05T11:20:34.000Z</time>
      </trkpt>
      <trkpt lat="46.18811" lon="6.46855">
        <ele>1241.5999755859</ele>
        <time>2020-08-05T11:20:39.000Z</time>
      </trkpt>
      <trkpt lat="46.18836" lon="6.46856">
        <ele>1241.8000488281</ele>
        <time>2020-08-05T11:20:44.000Z</time>
      </trkpt>
      <trkpt lat="46.18875" lon="6.46857">
        <ele>1241</ele>
        <time>2020-08-05T11:20:50.000Z</time>
      </trkpt>
      <trkpt lat="46.18921" lon="6.46859">
        <ele>1239.5999755859</ele>
        <time>2020-08-05T11:20:57.000Z</time>
      </trkpt>
      <trkpt lat="46.18971" lon="6.46861">
        <ele>1236.5999755859</ele>
        <time>2020-08-05T11:21:04.000Z</time>
      </trkpt>
      <trkpt lat="46.19028" lon="6.46862">
        <ele>1240</ele>
        <time>2020-08-05T11:21:11.000Z</time>
      </trkpt>
      <trkpt lat="46.19072" lon="6.46862">
        <ele>1242</ele>
        <time>2020-08-05T11:21:17.000Z</time>
      </trkpt>
      <trkpt lat="46.191" lon="6.46862">
        <ele>1243.4000244141</ele>
        <time>2020-08-05T11:21:22.000Z</time>
      </trkpt>
      <trkpt lat="46.19129" lon="6.46863">
        <ele>1245.5999755859</ele>
        <time>2020-08-05T11:21:29.000Z</time>
      </trkpt>
      <trkpt lat="46.1915" lon="6.46863">
        <ele>1247</ele>
        <time>2020-08-05T11:21:36.000Z</time>
      </trkpt>
      <trkpt lat="46.1917" lon="6.46863">
        <ele>1247.4000244141</ele>
        <time>2020-08-05T11:21:43.000Z</time>
      </trkpt>
      <trkpt lat="46.19191" lon="6.46871">
        <ele>1247.8000488281</ele>
        <time>2020-08-05T11:21:50.000Z</time>
      </trkpt>
      <trkpt lat="46.19216" lon="6.46882">
        <ele>1248.8000488281</ele>
        <time>2020-08-05T11:21:59.000Z</time>
      </trkpt>
      <trkpt lat="46.19241" lon="6.46898">
        <ele>1248.4000244141</ele>
        <time>2020-08-05T11:22:08.000Z</time>
      </trkpt>
      <trkpt lat="46.1927" lon="6.46918">
        <ele>1247.5999755859</ele>
        <time>2020-08-05T11:22:17.000Z</time>
      </trkpt>
      <trkpt lat="46.19293" lon="6.46927">
        <ele>1247.5999755859</ele>
        <time>2020-08-05T11:22:23.000Z</time>
      </trkpt>
      <trkpt lat="46.19314" lon="6.46933">
        <ele>1248</ele>
        <time>2020-08-05T11:22:28.000Z</time>
      </trkpt>
      <trkpt lat="46.19323" lon="6.46934">
        <ele>1249</ele>
        <time>2020-08-05T11:22:30.000Z</time>
      </trkpt>
      <trkpt lat="46.19344" lon="6.46935">
        <ele>1251.8000488281</ele>
        <time>2020-08-05T11:22:35.000Z</time>
      </trkpt>
      <trkpt lat="46.19375" lon="6.46938">
        <ele>1252.5999755859</ele>
        <time>2020-08-05T11:22:42.000Z</time>
      </trkpt>
      <trkpt lat="46.1941" lon="6.4694">
        <ele>1256</ele>
        <time>2020-08-05T11:22:51.000Z</time>
      </trkpt>
      <trkpt lat="46.1944" lon="6.46942">
        <ele>1261.1999511719</ele>
        <time>2020-08-05T11:22:58.000Z</time>
      </trkpt>
      <trkpt lat="46.19468" lon="6.46929">
        <ele>1259</ele>
        <time>2020-08-05T11:23:04.000Z</time>
      </trkpt>
      <trkpt lat="46.19505" lon="6.46912">
        <ele>1254.8000488281</ele>
        <time>2020-08-05T11:23:10.000Z</time>
      </trkpt>
      <trkpt lat="46.19549" lon="6.46891">
        <ele>1246.8000488281</ele>
        <time>2020-08-05T11:23:16.000Z</time>
      </trkpt>
      <trkpt lat="46.19603" lon="6.4688">
        <ele>1245</ele>
        <time>2020-08-05T11:23:22.000Z</time>
      </trkpt>
      <trkpt lat="46.19612" lon="6.46878">
        <ele>1244.8000488281</ele>
        <time>2020-08-05T11:23:23.000Z</time>
      </trkpt>
      <trkpt lat="46.19654" lon="6.46864">
        <ele>1245.8000488281</ele>
        <time>2020-08-05T11:23:28.000Z</time>
      </trkpt>
      <trkpt lat="46.19661" lon="6.4686">
        <ele>1245.8000488281</ele>
        <time>2020-08-05T11:23:29.000Z</time>
      </trkpt>
      <trkpt lat="46.19682" lon="6.46837">
        <ele>1245.1999511719</ele>
        <time>2020-08-05T11:23:33.000Z</time>
      </trkpt>
      <trkpt lat="46.19696" lon="6.46813">
        <ele>1245.1999511719</ele>
        <time>2020-08-05T11:23:37.000Z</time>
      </trkpt>
      <trkpt lat="46.19698" lon="6.46806">
        <ele>1245.4000244141</ele>
        <time>2020-08-05T11:23:38.000Z</time>
      </trkpt>
      <trkpt lat="46.197" lon="6.468">
        <ele>1245.4000244141</ele>
        <time>2020-08-05T11:23:39.000Z</time>
      </trkpt>
      <trkpt lat="46.19706" lon="6.4677">
        <ele>1246.8000488281</ele>
        <time>2020-08-05T11:23:44.000Z</time>
      </trkpt>
      <trkpt lat="46.19711" lon="6.46721">
        <ele>1249.1999511719</ele>
        <time>2020-08-05T11:23:52.000Z</time>
      </trkpt>
      <trkpt lat="46.19712" lon="6.46715">
        <ele>1249.4000244141</ele>
        <time>2020-08-05T11:23:53.000Z</time>
      </trkpt>
      <trkpt lat="46.19715" lon="6.46679">
        <ele>1251.1999511719</ele>
        <time>2020-08-05T11:23:59.000Z</time>
      </trkpt>
      <trkpt lat="46.19723" lon="6.46627">
        <ele>1253.1999511719</ele>
        <time>2020-08-05T11:24:08.000Z</time>
      </trkpt>
      <trkpt lat="46.19728" lon="6.46598">
        <ele>1253.4000244141</ele>
        <time>2020-08-05T11:24:13.000Z</time>
      </trkpt>
      <trkpt lat="46.19731" lon="6.46581">
        <ele>1253.5999755859</ele>
        <time>2020-08-05T11:24:16.000Z</time>
      </trkpt>
      <trkpt lat="46.19732" lon="6.46575">
        <ele>1253.5999755859</ele>
        <time>2020-08-05T11:24:17.000Z</time>
      </trkpt>
      <trkpt lat="46.19738" lon="6.46536">
        <ele>1253.5999755859</ele>
        <time>2020-08-05T11:24:23.000Z</time>
      </trkpt>
      <trkpt lat="46.19749" lon="6.46475">
        <ele>1252.1999511719</ele>
        <time>2020-08-05T11:24:32.000Z</time>
      </trkpt>
      <trkpt lat="46.19758" lon="6.4642">
        <ele>1251</ele>
        <time>2020-08-05T11:24:40.000Z</time>
      </trkpt>
      <trkpt lat="46.19769" lon="6.46357">
        <ele>1250.4000244141</ele>
        <time>2020-08-05T11:24:49.000Z</time>
      </trkpt>
      <trkpt lat="46.19772" lon="6.46338">
        <ele>1251</ele>
        <time>2020-08-05T11:24:52.000Z</time>
      </trkpt>
      <trkpt lat="46.19774" lon="6.46325">
        <ele>1251.4000244141</ele>
        <time>2020-08-05T11:24:54.000Z</time>
      </trkpt>
      <trkpt lat="46.19775" lon="6.46319">
        <ele>1251.5999755859</ele>
        <time>2020-08-05T11:24:55.000Z</time>
      </trkpt>
      <trkpt lat="46.19782" lon="6.46277">
        <ele>1252.4000244141</ele>
        <time>2020-08-05T11:25:02.000Z</time>
      </trkpt>
      <trkpt lat="46.19783" lon="6.46272">
        <ele>1252.5999755859</ele>
        <time>2020-08-05T11:25:03.000Z</time>
      </trkpt>
      <trkpt lat="46.19784" lon="6.46266">
        <ele>1252.5999755859</ele>
        <time>2020-08-05T11:25:04.000Z</time>
      </trkpt>
      <trkpt lat="46.19778" lon="6.46257">
        <ele>1252.4000244141</ele>
        <time>2020-08-05T11:25:06.000Z</time>
      </trkpt>
      <trkpt lat="46.19774" lon="6.46252">
        <ele>1252.4000244141</ele>
        <time>2020-08-05T11:25:07.000Z</time>
      </trkpt>
      <trkpt lat="46.19771" lon="6.46248">
        <ele>1252.4000244141</ele>
        <time>2020-08-05T11:25:08.000Z</time>
      </trkpt>
      <trkpt lat="46.19756" lon="6.46228">
        <ele>1251.8000488281</ele>
        <time>2020-08-05T11:25:12.000Z</time>
      </trkpt>
      <trkpt lat="46.1974" lon="6.46206">
        <ele>1250.4000244141</ele>
        <time>2020-08-05T11:25:16.000Z</time>
      </trkpt>
      <trkpt lat="46.19737" lon="6.46198">
        <ele>1250</ele>
        <time>2020-08-05T11:25:17.000Z</time>
      </trkpt>
      <trkpt lat="46.19736" lon="6.46188">
        <ele>1249.5999755859</ele>
        <time>2020-08-05T11:25:18.000Z</time>
      </trkpt>
      <trkpt lat="46.19738" lon="6.46169">
        <ele>1249</ele>
        <time>2020-08-05T11:25:20.000Z</time>
      </trkpt>
      <trkpt lat="46.19743" lon="6.46109">
        <ele>1247.5999755859</ele>
        <time>2020-08-05T11:25:26.000Z</time>
      </trkpt>
      <trkpt lat="46.19747" lon="6.46061">
        <ele>1247.8000488281</ele>
        <time>2020-08-05T11:25:32.000Z</time>
      </trkpt>
      <trkpt lat="46.19747" lon="6.46055">
        <ele>1248</ele>
        <time>2020-08-05T11:25:33.000Z</time>
      </trkpt>
      <trkpt lat="46.19746" lon="6.46046">
        <ele>1248.4000244141</ele>
        <time>2020-08-05T11:25:35.000Z</time>
      </trkpt>
      <trkpt lat="46.19742" lon="6.46037">
        <ele>1248.5999755859</ele>
        <time>2020-08-05T11:25:37.000Z</time>
      </trkpt>
      <trkpt lat="46.19734" lon="6.46021">
        <ele>1248.8000488281</ele>
        <time>2020-08-05T11:25:40.000Z</time>
      </trkpt>
      <trkpt lat="46.19729" lon="6.46011">
        <ele>1249</ele>
        <time>2020-08-05T11:25:42.000Z</time>
      </trkpt>
      <trkpt lat="46.19724" lon="6.46001">
        <ele>1249.5999755859</ele>
        <time>2020-08-05T11:25:44.000Z</time>
      </trkpt>
      <trkpt lat="46.19709" lon="6.45975">
        <ele>1250</ele>
        <time>2020-08-05T11:25:49.000Z</time>
      </trkpt>
      <trkpt lat="46.19688" lon="6.45943">
        <ele>1248.1999511719</ele>
        <time>2020-08-05T11:25:54.000Z</time>
      </trkpt>
      <trkpt lat="46.19654" lon="6.45895">
        <ele>1246.4000244141</ele>
        <time>2020-08-05T11:26:00.000Z</time>
      </trkpt>
      <trkpt lat="46.19613" lon="6.45833">
        <ele>1246</ele>
        <time>2020-08-05T11:26:07.000Z</time>
      </trkpt>
      <trkpt lat="46.19606" lon="6.45824">
        <ele>1246</ele>
        <time>2020-08-05T11:26:08.000Z</time>
      </trkpt>
      <trkpt lat="46.19594" lon="6.45807">
        <ele>1245.4000244141</ele>
        <time>2020-08-05T11:26:10.000Z</time>
      </trkpt>
      <trkpt lat="46.19578" lon="6.45796">
        <ele>1244.8000488281</ele>
        <time>2020-08-05T11:26:12.000Z</time>
      </trkpt>
      <trkpt lat="46.19541" lon="6.45782">
        <ele>1245.1999511719</ele>
        <time>2020-08-05T11:26:16.000Z</time>
      </trkpt>
      <trkpt lat="46.19531" lon="6.45778">
        <ele>1245.5999755859</ele>
        <time>2020-08-05T11:26:17.000Z</time>
      </trkpt>
      <trkpt lat="46.19503" lon="6.45758">
        <ele>1246.1999511719</ele>
        <time>2020-08-05T11:26:20.000Z</time>
      </trkpt>
      <trkpt lat="46.19453" lon="6.45714">
        <ele>1245.1999511719</ele>
        <time>2020-08-05T11:26:26.000Z</time>
      </trkpt>
      <trkpt lat="46.19446" lon="6.45708">
        <ele>1244.8000488281</ele>
        <time>2020-08-05T11:26:27.000Z</time>
      </trkpt>
      <trkpt lat="46.19411" lon="6.45676">
        <ele>1243</ele>
        <time>2020-08-05T11:26:32.000Z</time>
      </trkpt>
      <trkpt lat="46.19405" lon="6.45671">
        <ele>1242.5999755859</ele>
        <time>2020-08-05T11:26:33.000Z</time>
      </trkpt>
      <trkpt lat="46.19392" lon="6.45659">
        <ele>1242</ele>
        <time>2020-08-05T11:26:35.000Z</time>
      </trkpt>
      <trkpt lat="46.19373" lon="6.45638">
        <ele>1240.8000488281</ele>
        <time>2020-08-05T11:26:38.000Z</time>
      </trkpt>
      <trkpt lat="46.19361" lon="6.4562">
        <ele>1239.4000244141</ele>
        <time>2020-08-05T11:26:40.000Z</time>
      </trkpt>
      <trkpt lat="46.19325" lon="6.45566">
        <ele>1235.8000488281</ele>
        <time>2020-08-05T11:26:46.000Z</time>
      </trkpt>
      <trkpt lat="46.19286" lon="6.45509">
        <ele>1230</ele>
        <time>2020-08-05T11:26:53.000Z</time>
      </trkpt>
      <trkpt lat="46.19275" lon="6.45493">
        <ele>1228.1999511719</ele>
        <time>2020-08-05T11:26:55.000Z</time>
      </trkpt>
      <trkpt lat="46.1924" lon="6.45441">
        <ele>1226.5999755859</ele>
        <time>2020-08-05T11:27:02.000Z</time>
      </trkpt>
      <trkpt lat="46.19206" lon="6.45401">
        <ele>1226.1999511719</ele>
        <time>2020-08-05T11:27:09.000Z</time>
      </trkpt>
      <trkpt lat="46.19175" lon="6.45373">
        <ele>1224</ele>
        <time>2020-08-05T11:27:14.000Z</time>
      </trkpt>
      <trkpt lat="46.19138" lon="6.45338">
        <ele>1221</ele>
        <time>2020-08-05T11:27:19.000Z</time>
      </trkpt>
      <trkpt lat="46.19089" lon="6.45294">
        <ele>1215</ele>
        <time>2020-08-05T11:27:25.000Z</time>
      </trkpt>
      <trkpt lat="46.1908" lon="6.45285">
        <ele>1213.5999755859</ele>
        <time>2020-08-05T11:27:26.000Z</time>
      </trkpt>
      <trkpt lat="46.1903" lon="6.45239">
        <ele>1207.1999511719</ele>
        <time>2020-08-05T11:27:32.000Z</time>
      </trkpt>
      <trkpt lat="46.19007" lon="6.4522">
        <ele>1204.8000488281</ele>
        <time>2020-08-05T11:27:35.000Z</time>
      </trkpt>
      <trkpt lat="46.18999" lon="6.45218">
        <ele>1204.8000488281</ele>
        <time>2020-08-05T11:27:36.000Z</time>
      </trkpt>
      <trkpt lat="46.18992" lon="6.45221">
        <ele>1205.4000244141</ele>
        <time>2020-08-05T11:27:37.000Z</time>
      </trkpt>
      <trkpt lat="46.18975" lon="6.45227">
        <ele>1207</ele>
        <time>2020-08-05T11:27:39.000Z</time>
      </trkpt>
      <trkpt lat="46.18958" lon="6.45233">
        <ele>1210</ele>
        <time>2020-08-05T11:27:41.000Z</time>
      </trkpt>
      <trkpt lat="46.18943" lon="6.45238">
        <ele>1212.1999511719</ele>
        <time>2020-08-05T11:27:43.000Z</time>
      </trkpt>
      <trkpt lat="46.18936" lon="6.45241">
        <ele>1213.1999511719</ele>
        <time>2020-08-05T11:27:45.000Z</time>
      </trkpt>
      <trkpt lat="46.18932" lon="6.45235">
        <ele>1212.8000488281</ele>
        <time>2020-08-05T11:27:46.000Z</time>
      </trkpt>
      <trkpt lat="46.18928" lon="6.45229">
        <ele>1211.5999755859</ele>
        <time>2020-08-05T11:27:48.000Z</time>
      </trkpt>
      <trkpt lat="46.18932" lon="6.45221">
        <ele>1209</ele>
        <time>2020-08-05T11:27:49.000Z</time>
      </trkpt>
      <trkpt lat="46.18942" lon="6.45212">
        <ele>1205.4000244141</ele>
        <time>2020-08-05T11:27:51.000Z</time>
      </trkpt>
      <trkpt lat="46.18948" lon="6.45207">
        <ele>1203.1999511719</ele>
        <time>2020-08-05T11:27:52.000Z</time>
      </trkpt>
      <trkpt lat="46.18957" lon="6.45189">
        <ele>1199.5999755859</ele>
        <time>2020-08-05T11:27:54.000Z</time>
      </trkpt>
      <trkpt lat="46.1897" lon="6.4516">
        <ele>1194.8000488281</ele>
        <time>2020-08-05T11:27:57.000Z</time>
      </trkpt>
      <trkpt lat="46.18983" lon="6.45144">
        <ele>1192</ele>
        <time>2020-08-05T11:27:59.000Z</time>
      </trkpt>
      <trkpt lat="46.19021" lon="6.45118">
        <ele>1187</ele>
        <time>2020-08-05T11:28:04.000Z</time>
      </trkpt>
      <trkpt lat="46.19071" lon="6.45086">
        <ele>1181.8000488281</ele>
        <time>2020-08-05T11:28:10.000Z</time>
      </trkpt>
      <trkpt lat="46.19088" lon="6.45076">
        <ele>1181.1999511719</ele>
        <time>2020-08-05T11:28:12.000Z</time>
      </trkpt>
      <trkpt lat="46.19127" lon="6.45057">
        <ele>1181</ele>
        <time>2020-08-05T11:28:17.000Z</time>
      </trkpt>
      <trkpt lat="46.19138" lon="6.45051">
        <ele>1181.5999755859</ele>
        <time>2020-08-05T11:28:19.000Z</time>
      </trkpt>
      <trkpt lat="46.19141" lon="6.45049">
        <ele>1181.8000488281</ele>
        <time>2020-08-05T11:28:20.000Z</time>
      </trkpt>
      <trkpt lat="46.19145" lon="6.45044">
        <ele>1182.1999511719</ele>
        <time>2020-08-05T11:28:21.000Z</time>
      </trkpt>
      <trkpt lat="46.19151" lon="6.45036">
        <ele>1182.1999511719</ele>
        <time>2020-08-05T11:28:23.000Z</time>
      </trkpt>
      <trkpt lat="46.19148" lon="6.45022">
        <ele>1180.5999755859</ele>
        <time>2020-08-05T11:28:25.000Z</time>
      </trkpt>
      <trkpt lat="46.19144" lon="6.45014">
        <ele>1179.4000244141</ele>
        <time>2020-08-05T11:28:26.000Z</time>
      </trkpt>
      <trkpt lat="46.19138" lon="6.45007">
        <ele>1178</ele>
        <time>2020-08-05T11:28:27.000Z</time>
      </trkpt>
      <trkpt lat="46.19126" lon="6.44993">
        <ele>1174.4000244141</ele>
        <time>2020-08-05T11:28:29.000Z</time>
      </trkpt>
      <trkpt lat="46.19111" lon="6.44977">
        <ele>1170.8000488281</ele>
        <time>2020-08-05T11:28:31.000Z</time>
      </trkpt>
      <trkpt lat="46.19099" lon="6.44954">
        <ele>1168</ele>
        <time>2020-08-05T11:28:33.000Z</time>
      </trkpt>
      <trkpt lat="46.19074" lon="6.44903">
        <ele>1162.4000244141</ele>
        <time>2020-08-05T11:28:38.000Z</time>
      </trkpt>
      <trkpt lat="46.19072" lon="6.44894">
        <ele>1161.8000488281</ele>
        <time>2020-08-05T11:28:39.000Z</time>
      </trkpt>
      <trkpt lat="46.1907" lon="6.44875">
        <ele>1160</ele>
        <time>2020-08-05T11:28:41.000Z</time>
      </trkpt>
      <trkpt lat="46.19073" lon="6.44857">
        <ele>1159.1999511719</ele>
        <time>2020-08-05T11:28:43.000Z</time>
      </trkpt>
      <trkpt lat="46.19075" lon="6.44847">
        <ele>1159</ele>
        <time>2020-08-05T11:28:44.000Z</time>
      </trkpt>
      <trkpt lat="46.1908" lon="6.44839">
        <ele>1159.4000244141</ele>
        <time>2020-08-05T11:28:45.000Z</time>
      </trkpt>
      <trkpt lat="46.1909" lon="6.44821">
        <ele>1159.4000244141</ele>
        <time>2020-08-05T11:28:47.000Z</time>
      </trkpt>
      <trkpt lat="46.19096" lon="6.44812">
        <ele>1159</ele>
        <time>2020-08-05T11:28:48.000Z</time>
      </trkpt>
      <trkpt lat="46.19136" lon="6.44744">
        <ele>1152.5999755859</ele>
        <time>2020-08-05T11:28:55.000Z</time>
      </trkpt>
      <trkpt lat="46.19159" lon="6.44711">
        <ele>1150.8000488281</ele>
        <time>2020-08-05T11:28:59.000Z</time>
      </trkpt>
      <trkpt lat="46.19166" lon="6.44704">
        <ele>1150.5999755859</ele>
        <time>2020-08-05T11:29:00.000Z</time>
      </trkpt>
      <trkpt lat="46.19173" lon="6.44697">
        <ele>1150.5999755859</ele>
        <time>2020-08-05T11:29:01.000Z</time>
      </trkpt>
      <trkpt lat="46.19193" lon="6.44676">
        <ele>1149.1999511719</ele>
        <time>2020-08-05T11:29:04.000Z</time>
      </trkpt>
      <trkpt lat="46.19216" lon="6.44652">
        <ele>1146.1999511719</ele>
        <time>2020-08-05T11:29:08.000Z</time>
      </trkpt>
      <trkpt lat="46.19252" lon="6.44613">
        <ele>1145.8000488281</ele>
        <time>2020-08-05T11:29:14.000Z</time>
      </trkpt>
      <trkpt lat="46.19267" lon="6.44593">
        <ele>1144.5999755859</ele>
        <time>2020-08-05T11:29:17.000Z</time>
      </trkpt>
      <trkpt lat="46.19271" lon="6.44585">
        <ele>1143</ele>
        <time>2020-08-05T11:29:18.000Z</time>
      </trkpt>
      <trkpt lat="46.19275" lon="6.44577">
        <ele>1141.4000244141</ele>
        <time>2020-08-05T11:29:19.000Z</time>
      </trkpt>
      <trkpt lat="46.19283" lon="6.4456">
        <ele>1138</ele>
        <time>2020-08-05T11:29:21.000Z</time>
      </trkpt>
      <trkpt lat="46.19287" lon="6.44552">
        <ele>1136.8000488281</ele>
        <time>2020-08-05T11:29:22.000Z</time>
      </trkpt>
      <trkpt lat="46.19296" lon="6.44534">
        <ele>1134.1999511719</ele>
        <time>2020-08-05T11:29:24.000Z</time>
      </trkpt>
      <trkpt lat="46.19305" lon="6.44515">
        <ele>1131.5999755859</ele>
        <time>2020-08-05T11:29:26.000Z</time>
      </trkpt>
      <trkpt lat="46.19332" lon="6.44466">
        <ele>1127.8000488281</ele>
        <time>2020-08-05T11:29:31.000Z</time>
      </trkpt>
      <trkpt lat="46.19338" lon="6.44457">
        <ele>1127.8000488281</ele>
        <time>2020-08-05T11:29:32.000Z</time>
      </trkpt>
      <trkpt lat="46.19371" lon="6.44412">
        <ele>1126.5999755859</ele>
        <time>2020-08-05T11:29:38.000Z</time>
      </trkpt>
      <trkpt lat="46.19375" lon="6.44404">
        <ele>1126.1999511719</ele>
        <time>2020-08-05T11:29:39.000Z</time>
      </trkpt>
      <trkpt lat="46.19377" lon="6.44387">
        <ele>1124</ele>
        <time>2020-08-05T11:29:41.000Z</time>
      </trkpt>
      <trkpt lat="46.19374" lon="6.44377">
        <ele>1122</ele>
        <time>2020-08-05T11:29:43.000Z</time>
      </trkpt>
      <trkpt lat="46.19363" lon="6.44375">
        <ele>1119.5999755859</ele>
        <time>2020-08-05T11:29:45.000Z</time>
      </trkpt>
      <trkpt lat="46.19353" lon="6.44386">
        <ele>1119.1999511719</ele>
        <time>2020-08-05T11:29:47.000Z</time>
      </trkpt>
      <trkpt lat="46.19348" lon="6.44392">
        <ele>1119</ele>
        <time>2020-08-05T11:29:48.000Z</time>
      </trkpt>
      <trkpt lat="46.19342" lon="6.44399">
        <ele>1118.8000488281</ele>
        <time>2020-08-05T11:29:49.000Z</time>
      </trkpt>
      <trkpt lat="46.19328" lon="6.44411">
        <ele>1118.4000244141</ele>
        <time>2020-08-05T11:29:51.000Z</time>
      </trkpt>
      <trkpt lat="46.19289" lon="6.4443">
        <ele>1114.5999755859</ele>
        <time>2020-08-05T11:29:56.000Z</time>
      </trkpt>
      <trkpt lat="46.1923" lon="6.44458">
        <ele>1110.4000244141</ele>
        <time>2020-08-05T11:30:03.000Z</time>
      </trkpt>
      <trkpt lat="46.19221" lon="6.44462">
        <ele>1110.1999511719</ele>
        <time>2020-08-05T11:30:04.000Z</time>
      </trkpt>
      <trkpt lat="46.19204" lon="6.44463">
        <ele>1108.8000488281</ele>
        <time>2020-08-05T11:30:06.000Z</time>
      </trkpt>
      <trkpt lat="46.19189" lon="6.44462">
        <ele>1107.4000244141</ele>
        <time>2020-08-05T11:30:08.000Z</time>
      </trkpt>
      <trkpt lat="46.19174" lon="6.44458">
        <ele>1105.5999755859</ele>
        <time>2020-08-05T11:30:10.000Z</time>
      </trkpt>
      <trkpt lat="46.1916" lon="6.44447">
        <ele>1102.8000488281</ele>
        <time>2020-08-05T11:30:12.000Z</time>
      </trkpt>
      <trkpt lat="46.19134" lon="6.44422">
        <ele>1098</ele>
        <time>2020-08-05T11:30:16.000Z</time>
      </trkpt>
      <trkpt lat="46.19096" lon="6.44388">
        <ele>1094</ele>
        <time>2020-08-05T11:30:21.000Z</time>
      </trkpt>
      <trkpt lat="46.19069" lon="6.44367">
        <ele>1091.1999511719</ele>
        <time>2020-08-05T11:30:25.000Z</time>
      </trkpt>
      <trkpt lat="46.19062" lon="6.44366">
        <ele>1091.1999511719</ele>
        <time>2020-08-05T11:30:26.000Z</time>
      </trkpt>
      <trkpt lat="46.19055" lon="6.44365">
        <ele>1091.4000244141</ele>
        <time>2020-08-05T11:30:27.000Z</time>
      </trkpt>
      <trkpt lat="46.19039" lon="6.44362">
        <ele>1091.8000488281</ele>
        <time>2020-08-05T11:30:29.000Z</time>
      </trkpt>
      <trkpt lat="46.19033" lon="6.44361">
        <ele>1092</ele>
        <time>2020-08-05T11:30:30.000Z</time>
      </trkpt>
      <trkpt lat="46.19027" lon="6.44357">
        <ele>1091.5999755859</ele>
        <time>2020-08-05T11:30:31.000Z</time>
      </trkpt>
      <trkpt lat="46.1902" lon="6.44343">
        <ele>1089</ele>
        <time>2020-08-05T11:30:33.000Z</time>
      </trkpt>
      <trkpt lat="46.19018" lon="6.44327">
        <ele>1086</ele>
        <time>2020-08-05T11:30:35.000Z</time>
      </trkpt>
      <trkpt lat="46.1902" lon="6.44319">
        <ele>1084.1999511719</ele>
        <time>2020-08-05T11:30:36.000Z</time>
      </trkpt>
      <trkpt lat="46.19022" lon="6.44311">
        <ele>1083</ele>
        <time>2020-08-05T11:30:37.000Z</time>
      </trkpt>
      <trkpt lat="46.19034" lon="6.44303">
        <ele>1081.8000488281</ele>
        <time>2020-08-05T11:30:39.000Z</time>
      </trkpt>
      <trkpt lat="46.19048" lon="6.44299">
        <ele>1080.4000244141</ele>
        <time>2020-08-05T11:30:41.000Z</time>
      </trkpt>
      <trkpt lat="46.19054" lon="6.44303">
        <ele>1080.1999511719</ele>
        <time>2020-08-05T11:30:42.000Z</time>
      </trkpt>
      <trkpt lat="46.19081" lon="6.44321">
        <ele>1081.4000244141</ele>
        <time>2020-08-05T11:30:46.000Z</time>
      </trkpt>
      <trkpt lat="46.19088" lon="6.44325">
        <ele>1081.8000488281</ele>
        <time>2020-08-05T11:30:47.000Z</time>
      </trkpt>
      <trkpt lat="46.19095" lon="6.44325">
        <ele>1081.5999755859</ele>
        <time>2020-08-05T11:30:48.000Z</time>
      </trkpt>
      <trkpt lat="46.19111" lon="6.44322">
        <ele>1080.4000244141</ele>
        <time>2020-08-05T11:30:50.000Z</time>
      </trkpt>
      <trkpt lat="46.19153" lon="6.44306">
        <ele>1077.1999511719</ele>
        <time>2020-08-05T11:30:55.000Z</time>
      </trkpt>
      <trkpt lat="46.19176" lon="6.44292">
        <ele>1077</ele>
        <time>2020-08-05T11:30:58.000Z</time>
      </trkpt>
      <trkpt lat="46.19182" lon="6.44284">
        <ele>1076.4000244141</ele>
        <time>2020-08-05T11:30:59.000Z</time>
      </trkpt>
      <trkpt lat="46.19215" lon="6.44244">
        <ele>1072.5999755859</ele>
        <time>2020-08-05T11:31:04.000Z</time>
      </trkpt>
      <trkpt lat="46.19249" lon="6.44194">
        <ele>1070.4000244141</ele>
        <time>2020-08-05T11:31:10.000Z</time>
      </trkpt>
      <trkpt lat="46.19264" lon="6.44153">
        <ele>1066.1999511719</ele>
        <time>2020-08-05T11:31:14.000Z</time>
      </trkpt>
      <trkpt lat="46.19275" lon="6.44095">
        <ele>1061.1999511719</ele>
        <time>2020-08-05T11:31:19.000Z</time>
      </trkpt>
      <trkpt lat="46.19275" lon="6.44047">
        <ele>1054.5999755859</ele>
        <time>2020-08-05T11:31:23.000Z</time>
      </trkpt>
      <trkpt lat="46.19282" lon="6.44017">
        <ele>1052.4000244141</ele>
        <time>2020-08-05T11:31:26.000Z</time>
      </trkpt>
      <trkpt lat="46.19296" lon="6.43965">
        <ele>1048.4000244141</ele>
        <time>2020-08-05T11:31:31.000Z</time>
      </trkpt>
      <trkpt lat="46.19301" lon="6.43956">
        <ele>1047.8000488281</ele>
        <time>2020-08-05T11:31:32.000Z</time>
      </trkpt>
      <trkpt lat="46.19306" lon="6.43946">
        <ele>1047.1999511719</ele>
        <time>2020-08-05T11:31:33.000Z</time>
      </trkpt>
      <trkpt lat="46.1932" lon="6.43932">
        <ele>1046.8000488281</ele>
        <time>2020-08-05T11:31:35.000Z</time>
      </trkpt>
      <trkpt lat="46.19328" lon="6.43926">
        <ele>1046.5999755859</ele>
        <time>2020-08-05T11:31:36.000Z</time>
      </trkpt>
      <trkpt lat="46.19375" lon="6.43887">
        <ele>1038.8000488281</ele>
        <time>2020-08-05T11:31:42.000Z</time>
      </trkpt>
      <trkpt lat="46.19425" lon="6.43856">
        <ele>1035</ele>
        <time>2020-08-05T11:31:48.000Z</time>
      </trkpt>
      <trkpt lat="46.19434" lon="6.43853">
        <ele>1035</ele>
        <time>2020-08-05T11:31:49.000Z</time>
      </trkpt>
      <trkpt lat="46.19443" lon="6.43851">
        <ele>1034</ele>
        <time>2020-08-05T11:31:50.000Z</time>
      </trkpt>
      <trkpt lat="46.19471" lon="6.43846">
        <ele>1031.5999755859</ele>
        <time>2020-08-05T11:31:53.000Z</time>
      </trkpt>
      <trkpt lat="46.1953" lon="6.43846">
        <ele>1030.8000488281</ele>
        <time>2020-08-05T11:31:59.000Z</time>
      </trkpt>
      <trkpt lat="46.1954" lon="6.43846">
        <ele>1030.5999755859</ele>
        <time>2020-08-05T11:32:00.000Z</time>
      </trkpt>
      <trkpt lat="46.19599" lon="6.43846">
        <ele>1025.4000244141</ele>
        <time>2020-08-05T11:32:06.000Z</time>
      </trkpt>
      <trkpt lat="46.19609" lon="6.43846">
        <ele>1024</ele>
        <time>2020-08-05T11:32:07.000Z</time>
      </trkpt>
      <trkpt lat="46.19667" lon="6.4385">
        <ele>1019.200012207</ele>
        <time>2020-08-05T11:32:13.000Z</time>
      </trkpt>
      <trkpt lat="46.19724" lon="6.43854">
        <ele>1018.200012207</ele>
        <time>2020-08-05T11:32:19.000Z</time>
      </trkpt>
      <trkpt lat="46.19734" lon="6.43855">
        <ele>1017.200012207</ele>
        <time>2020-08-05T11:32:20.000Z</time>
      </trkpt>
      <trkpt lat="46.1976" lon="6.43857">
        <ele>1013</ele>
        <time>2020-08-05T11:32:23.000Z</time>
      </trkpt>
      <trkpt lat="46.19777" lon="6.43859">
        <ele>1010.5999755859</ele>
        <time>2020-08-05T11:32:25.000Z</time>
      </trkpt>
      <trkpt lat="46.19794" lon="6.4386">
        <ele>1009.5999755859</ele>
        <time>2020-08-05T11:32:27.000Z</time>
      </trkpt>
      <trkpt lat="46.19816" lon="6.43868">
        <ele>1009</ele>
        <time>2020-08-05T11:32:30.000Z</time>
      </trkpt>
      <trkpt lat="46.19822" lon="6.4387">
        <ele>1008.200012207</ele>
        <time>2020-08-05T11:32:31.000Z</time>
      </trkpt>
      <trkpt lat="46.19829" lon="6.43869">
        <ele>1006.799987793</ele>
        <time>2020-08-05T11:32:32.000Z</time>
      </trkpt>
      <trkpt lat="46.19834" lon="6.43862">
        <ele>1004</ele>
        <time>2020-08-05T11:32:33.000Z</time>
      </trkpt>
      <trkpt lat="46.19836" lon="6.43853">
        <ele>1001.5999755859</ele>
        <time>2020-08-05T11:32:34.000Z</time>
      </trkpt>
      <trkpt lat="46.19836" lon="6.43843">
        <ele>999.20001220703</ele>
        <time>2020-08-05T11:32:35.000Z</time>
      </trkpt>
      <trkpt lat="46.19832" lon="6.43837">
        <ele>998.59997558594</ele>
        <time>2020-08-05T11:32:36.000Z</time>
      </trkpt>
      <trkpt lat="46.19827" lon="6.43829">
        <ele>998</ele>
        <time>2020-08-05T11:32:37.000Z</time>
      </trkpt>
      <trkpt lat="46.1982" lon="6.43824">
        <ele>998.20001220703</ele>
        <time>2020-08-05T11:32:38.000Z</time>
      </trkpt>
      <trkpt lat="46.19798" lon="6.43809">
        <ele>998.40002441406</ele>
        <time>2020-08-05T11:32:41.000Z</time>
      </trkpt>
      <trkpt lat="46.19783" lon="6.43797">
        <ele>998</ele>
        <time>2020-08-05T11:32:43.000Z</time>
      </trkpt>
      <trkpt lat="46.19774" lon="6.4378">
        <ele>996.40002441406</ele>
        <time>2020-08-05T11:32:45.000Z</time>
      </trkpt>
      <trkpt lat="46.19769" lon="6.43759">
        <ele>994.20001220703</ele>
        <time>2020-08-05T11:32:47.000Z</time>
      </trkpt>
      <trkpt lat="46.1977" lon="6.43748">
        <ele>992.59997558594</ele>
        <time>2020-08-05T11:32:48.000Z</time>
      </trkpt>
      <trkpt lat="46.1977" lon="6.43712">
        <ele>988.20001220703</ele>
        <time>2020-08-05T11:32:51.000Z</time>
      </trkpt>
      <trkpt lat="46.19772" lon="6.437">
        <ele>986.79998779297</ele>
        <time>2020-08-05T11:32:52.000Z</time>
      </trkpt>
      <trkpt lat="46.19782" lon="6.4364">
        <ele>984.20001220703</ele>
        <time>2020-08-05T11:32:57.000Z</time>
      </trkpt>
      <trkpt lat="46.19787" lon="6.43607">
        <ele>983.79998779297</ele>
        <time>2020-08-05T11:33:00.000Z</time>
      </trkpt>
      <trkpt lat="46.19784" lon="6.43584">
        <ele>983.59997558594</ele>
        <time>2020-08-05T11:33:02.000Z</time>
      </trkpt>
      <trkpt lat="46.1978" lon="6.43564">
        <ele>983.59997558594</ele>
        <time>2020-08-05T11:33:04.000Z</time>
      </trkpt>
      <trkpt lat="46.19775" lon="6.43556">
        <ele>983.40002441406</ele>
        <time>2020-08-05T11:33:05.000Z</time>
      </trkpt>
      <trkpt lat="46.1977" lon="6.43547">
        <ele>983</ele>
        <time>2020-08-05T11:33:06.000Z</time>
      </trkpt>
      <trkpt lat="46.19758" lon="6.43533">
        <ele>982.59997558594</ele>
        <time>2020-08-05T11:33:08.000Z</time>
      </trkpt>
      <trkpt lat="46.19733" lon="6.43519">
        <ele>982</ele>
        <time>2020-08-05T11:33:11.000Z</time>
      </trkpt>
      <trkpt lat="46.19726" lon="6.4351">
        <ele>981.59997558594</ele>
        <time>2020-08-05T11:33:12.000Z</time>
      </trkpt>
      <trkpt lat="46.1972" lon="6.43501">
        <ele>980.79998779297</ele>
        <time>2020-08-05T11:33:13.000Z</time>
      </trkpt>
      <trkpt lat="46.197" lon="6.43473">
        <ele>978.59997558594</ele>
        <time>2020-08-05T11:33:16.000Z</time>
      </trkpt>
      <trkpt lat="46.19667" lon="6.43425">
        <ele>975.79998779297</ele>
        <time>2020-08-05T11:33:21.000Z</time>
      </trkpt>
      <trkpt lat="46.19654" lon="6.43412">
        <ele>974.79998779297</ele>
        <time>2020-08-05T11:33:23.000Z</time>
      </trkpt>
      <trkpt lat="46.19647" lon="6.43408">
        <ele>974.20001220703</ele>
        <time>2020-08-05T11:33:24.000Z</time>
      </trkpt>
      <trkpt lat="46.19643" lon="6.43407">
        <ele>973.59997558594</ele>
        <time>2020-08-05T11:33:25.000Z</time>
      </trkpt>
      <trkpt lat="46.19633" lon="6.43412">
        <ele>972</ele>
        <time>2020-08-05T11:33:27.000Z</time>
      </trkpt>
      <trkpt lat="46.19629" lon="6.43428">
        <ele>971.59997558594</ele>
        <time>2020-08-05T11:33:29.000Z</time>
      </trkpt>
      <trkpt lat="46.19631" lon="6.43462">
        <ele>971.79998779297</ele>
        <time>2020-08-05T11:33:32.000Z</time>
      </trkpt>
      <trkpt lat="46.19633" lon="6.43484">
        <ele>972.40002441406</ele>
        <time>2020-08-05T11:33:34.000Z</time>
      </trkpt>
      <trkpt lat="46.19629" lon="6.43493">
        <ele>972</ele>
        <time>2020-08-05T11:33:35.000Z</time>
      </trkpt>
      <trkpt lat="46.19625" lon="6.43501">
        <ele>971.79998779297</ele>
        <time>2020-08-05T11:33:36.000Z</time>
      </trkpt>
      <trkpt lat="46.1962" lon="6.43509">
        <ele>971.40002441406</ele>
        <time>2020-08-05T11:33:37.000Z</time>
      </trkpt>
      <trkpt lat="46.19613" lon="6.43512">
        <ele>970.40002441406</ele>
        <time>2020-08-05T11:33:38.000Z</time>
      </trkpt>
      <trkpt lat="46.19598" lon="6.43518">
        <ele>968.40002441406</ele>
        <time>2020-08-05T11:33:40.000Z</time>
      </trkpt>
      <trkpt lat="46.19581" lon="6.43525">
        <ele>968.79998779297</ele>
        <time>2020-08-05T11:33:42.000Z</time>
      </trkpt>
      <trkpt lat="46.19566" lon="6.43532">
        <ele>969.40002441406</ele>
        <time>2020-08-05T11:33:44.000Z</time>
      </trkpt>
      <trkpt lat="46.19553" lon="6.43537">
        <ele>971</ele>
        <time>2020-08-05T11:33:46.000Z</time>
      </trkpt>
      <trkpt lat="46.19548" lon="6.43537">
        <ele>971.79998779297</ele>
        <time>2020-08-05T11:33:47.000Z</time>
      </trkpt>
      <trkpt lat="46.19543" lon="6.43535">
        <ele>972.20001220703</ele>
        <time>2020-08-05T11:33:48.000Z</time>
      </trkpt>
      <trkpt lat="46.1954" lon="6.43529">
        <ele>971.59997558594</ele>
        <time>2020-08-05T11:33:49.000Z</time>
      </trkpt>
      <trkpt lat="46.19539" lon="6.43522">
        <ele>970.59997558594</ele>
        <time>2020-08-05T11:33:50.000Z</time>
      </trkpt>
      <trkpt lat="46.19538" lon="6.43515">
        <ele>969.79998779297</ele>
        <time>2020-08-05T11:33:51.000Z</time>
      </trkpt>
      <trkpt lat="46.19541" lon="6.43504">
        <ele>967.79998779297</ele>
        <time>2020-08-05T11:33:52.000Z</time>
      </trkpt>
      <trkpt lat="46.19554" lon="6.4348">
        <ele>962.79998779297</ele>
        <time>2020-08-05T11:33:55.000Z</time>
      </trkpt>
      <trkpt lat="46.19555" lon="6.43464">
        <ele>962</ele>
        <time>2020-08-05T11:33:57.000Z</time>
      </trkpt>
      <trkpt lat="46.19553" lon="6.43445">
        <ele>961.79998779297</ele>
        <time>2020-08-05T11:33:59.000Z</time>
      </trkpt>
      <trkpt lat="46.19549" lon="6.43437">
        <ele>962</ele>
        <time>2020-08-05T11:34:00.000Z</time>
      </trkpt>
      <trkpt lat="46.19522" lon="6.43394">
        <ele>961.79998779297</ele>
        <time>2020-08-05T11:34:05.000Z</time>
      </trkpt>
      <trkpt lat="46.19497" lon="6.43356">
        <ele>958.20001220703</ele>
        <time>2020-08-05T11:34:10.000Z</time>
      </trkpt>
      <trkpt lat="46.19483" lon="6.43333">
        <ele>956</ele>
        <time>2020-08-05T11:34:13.000Z</time>
      </trkpt>
      <trkpt lat="46.19478" lon="6.43326">
        <ele>955.20001220703</ele>
        <time>2020-08-05T11:34:14.000Z</time>
      </trkpt>
      <trkpt lat="46.19474" lon="6.43319">
        <ele>955</ele>
        <time>2020-08-05T11:34:15.000Z</time>
      </trkpt>
      <trkpt lat="46.19464" lon="6.43295">
        <ele>953</ele>
        <time>2020-08-05T11:34:18.000Z</time>
      </trkpt>
      <trkpt lat="46.19455" lon="6.43272">
        <ele>951.20001220703</ele>
        <time>2020-08-05T11:34:21.000Z</time>
      </trkpt>
      <trkpt lat="46.19446" lon="6.43249">
        <ele>949.59997558594</ele>
        <time>2020-08-05T11:34:24.000Z</time>
      </trkpt>
      <trkpt lat="46.19441" lon="6.43232">
        <ele>948.20001220703</ele>
        <time>2020-08-05T11:34:26.000Z</time>
      </trkpt>
      <trkpt lat="46.19437" lon="6.43209">
        <ele>946.40002441406</ele>
        <time>2020-08-05T11:34:29.000Z</time>
      </trkpt>
      <trkpt lat="46.19431" lon="6.43176">
        <ele>944.40002441406</ele>
        <time>2020-08-05T11:34:33.000Z</time>
      </trkpt>
      <trkpt lat="46.19428" lon="6.43157">
        <ele>943.59997558594</ele>
        <time>2020-08-05T11:34:35.000Z</time>
      </trkpt>
      <trkpt lat="46.19425" lon="6.43139">
        <ele>942.59997558594</ele>
        <time>2020-08-05T11:34:37.000Z</time>
      </trkpt>
      <trkpt lat="46.19418" lon="6.43122">
        <ele>942</ele>
        <time>2020-08-05T11:34:39.000Z</time>
      </trkpt>
      <trkpt lat="46.19414" lon="6.43113">
        <ele>941.79998779297</ele>
        <time>2020-08-05T11:34:40.000Z</time>
      </trkpt>
      <trkpt lat="46.19394" lon="6.43068">
        <ele>940.20001220703</ele>
        <time>2020-08-05T11:34:45.000Z</time>
      </trkpt>
      <trkpt lat="46.19362" lon="6.43009">
        <ele>934.59997558594</ele>
        <time>2020-08-05T11:34:52.000Z</time>
      </trkpt>
      <trkpt lat="46.19353" lon="6.42994">
        <ele>933.20001220703</ele>
        <time>2020-08-05T11:34:54.000Z</time>
      </trkpt>
      <trkpt lat="46.19342" lon="6.42981">
        <ele>932.40002441406</ele>
        <time>2020-08-05T11:34:56.000Z</time>
      </trkpt>
      <trkpt lat="46.19318" lon="6.42966">
        <ele>932.20001220703</ele>
        <time>2020-08-05T11:35:01.000Z</time>
      </trkpt>
      <trkpt lat="46.19308" lon="6.42954">
        <ele>931</ele>
        <time>2020-08-05T11:35:04.000Z</time>
      </trkpt>
      <trkpt lat="46.19309" lon="6.4295">
        <ele>930.40002441406</ele>
        <time>2020-08-05T11:35:05.000Z</time>
      </trkpt>
      <trkpt lat="46.1932" lon="6.42935">
        <ele>927.59997558594</ele>
        <time>2020-08-05T11:35:07.000Z</time>
      </trkpt>
      <trkpt lat="46.19323" lon="6.42937">
        <ele>927.40002441406</ele>
        <time>2020-08-05T11:35:08.000Z</time>
      </trkpt>
      <trkpt lat="46.19327" lon="6.42939">
        <ele>927.40002441406</ele>
        <time>2020-08-05T11:35:09.000Z</time>
      </trkpt>
      <trkpt lat="46.19335" lon="6.42942">
        <ele>927.40002441406</ele>
        <time>2020-08-05T11:35:11.000Z</time>
      </trkpt>
      <trkpt lat="46.19338" lon="6.42944">
        <ele>927.20001220703</ele>
        <time>2020-08-05T11:35:12.000Z</time>
      </trkpt>
      <trkpt lat="46.19346" lon="6.42952">
        <ele>927.79998779297</ele>
        <time>2020-08-05T11:35:14.000Z</time>
      </trkpt>
      <trkpt lat="46.19352" lon="6.42959">
        <ele>928.20001220703</ele>
        <time>2020-08-05T11:35:16.000Z</time>
      </trkpt>
      <trkpt lat="46.19368" lon="6.42979">
        <ele>929.79998779297</ele>
        <time>2020-08-05T11:35:22.000Z</time>
      </trkpt>
      <trkpt lat="46.19385" lon="6.43005">
        <ele>932</ele>
        <time>2020-08-05T11:35:29.000Z</time>
      </trkpt>
      <trkpt lat="46.19401" lon="6.4303">
        <ele>934.59997558594</ele>
        <time>2020-08-05T11:35:36.000Z</time>
      </trkpt>
      <trkpt lat="46.1942" lon="6.43061">
        <ele>937.79998779297</ele>
        <time>2020-08-05T11:35:45.000Z</time>
      </trkpt>
      <trkpt lat="46.19435" lon="6.43086">
        <ele>938.79998779297</ele>
        <time>2020-08-05T11:35:52.000Z</time>
      </trkpt>
      <trkpt lat="46.19438" lon="6.43106">
        <ele>939.79998779297</ele>
        <time>2020-08-05T11:35:57.000Z</time>
      </trkpt>
      <trkpt lat="46.19441" lon="6.4313">
        <ele>941</ele>
        <time>2020-08-05T11:36:03.000Z</time>
      </trkpt>
      <trkpt lat="46.19444" lon="6.43155">
        <ele>942.40002441406</ele>
        <time>2020-08-05T11:36:09.000Z</time>
      </trkpt>
      <trkpt lat="46.19454" lon="6.4319">
        <ele>944</ele>
        <time>2020-08-05T11:36:17.000Z</time>
      </trkpt>
      <trkpt lat="46.19462" lon="6.43217">
        <ele>945</ele>
        <time>2020-08-05T11:36:24.000Z</time>
      </trkpt>
      <trkpt lat="46.19472" lon="6.43249">
        <ele>947.40002441406</ele>
        <time>2020-08-05T11:36:32.000Z</time>
      </trkpt>
      <trkpt lat="46.19482" lon="6.43271">
        <ele>949.40002441406</ele>
        <time>2020-08-05T11:36:39.000Z</time>
      </trkpt>
      <trkpt lat="46.19492" lon="6.43276">
        <ele>950.79998779297</ele>
        <time>2020-08-05T11:36:43.000Z</time>
      </trkpt>
      <trkpt lat="46.19506" lon="6.43279">
        <ele>952.40002441406</ele>
        <time>2020-08-05T11:36:47.000Z</time>
      </trkpt>
      <trkpt lat="46.19522" lon="6.43264">
        <ele>953</ele>
        <time>2020-08-05T11:36:52.000Z</time>
      </trkpt>
      <trkpt lat="46.19535" lon="6.43234">
        <ele>954</ele>
        <time>2020-08-05T11:36:59.000Z</time>
      </trkpt>
      <trkpt lat="46.19551" lon="6.43193">
        <ele>953.40002441406</ele>
        <time>2020-08-05T11:37:08.000Z</time>
      </trkpt>
      <trkpt lat="46.19568" lon="6.43165">
        <ele>953.40002441406</ele>
        <time>2020-08-05T11:37:15.000Z</time>
      </trkpt>
      <trkpt lat="46.19591" lon="6.43138">
        <ele>955.20001220703</ele>
        <time>2020-08-05T11:37:24.000Z</time>
      </trkpt>
      <trkpt lat="46.19609" lon="6.43117">
        <ele>956.59997558594</ele>
        <time>2020-08-05T11:37:31.000Z</time>
      </trkpt>
      <trkpt lat="46.19626" lon="6.43089">
        <ele>957.40002441406</ele>
        <time>2020-08-05T11:37:39.000Z</time>
      </trkpt>
      <trkpt lat="46.1963" lon="6.43068">
        <ele>956.59997558594</ele>
        <time>2020-08-05T11:37:44.000Z</time>
      </trkpt>
      <trkpt lat="46.19634" lon="6.43039">
        <ele>957.40002441406</ele>
        <time>2020-08-05T11:37:50.000Z</time>
      </trkpt>
      <trkpt lat="46.19637" lon="6.43016">
        <ele>959</ele>
        <time>2020-08-05T11:37:55.000Z</time>
      </trkpt>
      <trkpt lat="46.19647" lon="6.42984">
        <ele>962.40002441406</ele>
        <time>2020-08-05T11:38:02.000Z</time>
      </trkpt>
      <trkpt lat="46.19663" lon="6.42954">
        <ele>962.40002441406</ele>
        <time>2020-08-05T11:38:10.000Z</time>
      </trkpt>
      <trkpt lat="46.19689" lon="6.42915">
        <ele>963.59997558594</ele>
        <time>2020-08-05T11:38:21.000Z</time>
      </trkpt>
      <trkpt lat="46.19713" lon="6.42886">
        <ele>967.40002441406</ele>
        <time>2020-08-05T11:38:30.000Z</time>
      </trkpt>
      <trkpt lat="46.19738" lon="6.42862">
        <ele>970.59997558594</ele>
        <time>2020-08-05T11:38:39.000Z</time>
      </trkpt>
      <trkpt lat="46.1976" lon="6.4284">
        <ele>972.20001220703</ele>
        <time>2020-08-05T11:38:47.000Z</time>
      </trkpt>
      <trkpt lat="46.19781" lon="6.4282">
        <ele>971.20001220703</ele>
        <time>2020-08-05T11:38:55.000Z</time>
      </trkpt>
      <trkpt lat="46.19798" lon="6.4281">
        <ele>972.20001220703</ele>
        <time>2020-08-05T11:39:00.000Z</time>
      </trkpt>
      <trkpt lat="46.19822" lon="6.42804">
        <ele>971.20001220703</ele>
        <time>2020-08-05T11:39:07.000Z</time>
      </trkpt>
      <trkpt lat="46.1985" lon="6.42803">
        <ele>968.20001220703</ele>
        <time>2020-08-05T11:39:12.000Z</time>
      </trkpt>
      <trkpt lat="46.19892" lon="6.42805">
        <ele>963.79998779297</ele>
        <time>2020-08-05T11:39:18.000Z</time>
      </trkpt>
      <trkpt lat="46.19939" lon="6.42823">
        <ele>961</ele>
        <time>2020-08-05T11:39:24.000Z</time>
      </trkpt>
      <trkpt lat="46.19992" lon="6.4284">
        <ele>959.20001220703</ele>
        <time>2020-08-05T11:39:31.000Z</time>
      </trkpt>
      <trkpt lat="46.2002" lon="6.42832">
        <ele>959</ele>
        <time>2020-08-05T11:39:35.000Z</time>
      </trkpt>
      <trkpt lat="46.2008" lon="6.42811">
        <ele>957.20001220703</ele>
        <time>2020-08-05T11:39:43.000Z</time>
      </trkpt>
      <trkpt lat="46.20088" lon="6.4281">
        <ele>956.59997558594</ele>
        <time>2020-08-05T11:39:44.000Z</time>
      </trkpt>
      <trkpt lat="46.20131" lon="6.42809">
        <ele>953</ele>
        <time>2020-08-05T11:39:49.000Z</time>
      </trkpt>
      <trkpt lat="46.20166" lon="6.42817">
        <ele>950.59997558594</ele>
        <time>2020-08-05T11:39:53.000Z</time>
      </trkpt>
      <trkpt lat="46.20216" lon="6.42844">
        <ele>946.59997558594</ele>
        <time>2020-08-05T11:39:59.000Z</time>
      </trkpt>
      <trkpt lat="46.20225" lon="6.42849">
        <ele>945.79998779297</ele>
        <time>2020-08-05T11:40:00.000Z</time>
      </trkpt>
      <trkpt lat="46.20242" lon="6.42859">
        <ele>944</ele>
        <time>2020-08-05T11:40:02.000Z</time>
      </trkpt>
      <trkpt lat="46.20255" lon="6.42878">
        <ele>942.40002441406</ele>
        <time>2020-08-05T11:40:04.000Z</time>
      </trkpt>
      <trkpt lat="46.20262" lon="6.42888">
        <ele>941.59997558594</ele>
        <time>2020-08-05T11:40:05.000Z</time>
      </trkpt>
      <trkpt lat="46.20282" lon="6.42918">
        <ele>940.59997558594</ele>
        <time>2020-08-05T11:40:08.000Z</time>
      </trkpt>
      <trkpt lat="46.20322" lon="6.4298">
        <ele>939</ele>
        <time>2020-08-05T11:40:14.000Z</time>
      </trkpt>
      <trkpt lat="46.2036" lon="6.43026">
        <ele>932.40002441406</ele>
        <time>2020-08-05T11:40:19.000Z</time>
      </trkpt>
      <trkpt lat="46.20411" lon="6.43069">
        <ele>924.20001220703</ele>
        <time>2020-08-05T11:40:25.000Z</time>
      </trkpt>
      <trkpt lat="46.20419" lon="6.43076">
        <ele>923.79998779297</ele>
        <time>2020-08-05T11:40:26.000Z</time>
      </trkpt>
      <trkpt lat="46.20472" lon="6.43107">
        <ele>920.40002441406</ele>
        <time>2020-08-05T11:40:32.000Z</time>
      </trkpt>
      <trkpt lat="46.20515" lon="6.43128">
        <ele>913.59997558594</ele>
        <time>2020-08-05T11:40:37.000Z</time>
      </trkpt>
      <trkpt lat="46.20564" lon="6.43164">
        <ele>907.59997558594</ele>
        <time>2020-08-05T11:40:43.000Z</time>
      </trkpt>
      <trkpt lat="46.2058" lon="6.43176">
        <ele>905.40002441406</ele>
        <time>2020-08-05T11:40:45.000Z</time>
      </trkpt>
      <trkpt lat="46.20627" lon="6.43214">
        <ele>899.59997558594</ele>
        <time>2020-08-05T11:40:51.000Z</time>
      </trkpt>
      <trkpt lat="46.20642" lon="6.4323">
        <ele>898.40002441406</ele>
        <time>2020-08-05T11:40:53.000Z</time>
      </trkpt>
      <trkpt lat="46.20649" lon="6.43237">
        <ele>897.59997558594</ele>
        <time>2020-08-05T11:40:54.000Z</time>
      </trkpt>
      <trkpt lat="46.20669" lon="6.43266">
        <ele>896.20001220703</ele>
        <time>2020-08-05T11:40:57.000Z</time>
      </trkpt>
      <trkpt lat="46.2071" lon="6.43332">
        <ele>892.59997558594</ele>
        <time>2020-08-05T11:41:04.000Z</time>
      </trkpt>
      <trkpt lat="46.20745" lon="6.43389">
        <ele>887</ele>
        <time>2020-08-05T11:41:10.000Z</time>
      </trkpt>
      <trkpt lat="46.2075" lon="6.43414">
        <ele>886.79998779297</ele>
        <time>2020-08-05T11:41:12.000Z</time>
      </trkpt>
      <trkpt lat="46.20752" lon="6.43426">
        <ele>886.59997558594</ele>
        <time>2020-08-05T11:41:13.000Z</time>
      </trkpt>
      <trkpt lat="46.20763" lon="6.43492">
        <ele>884.59997558594</ele>
        <time>2020-08-05T11:41:18.000Z</time>
      </trkpt>
      <trkpt lat="46.20765" lon="6.43504">
        <ele>884.59997558594</ele>
        <time>2020-08-05T11:41:19.000Z</time>
      </trkpt>
      <trkpt lat="46.20777" lon="6.43537">
        <ele>883.79998779297</ele>
        <time>2020-08-05T11:41:22.000Z</time>
      </trkpt>
      <trkpt lat="46.20797" lon="6.4361">
        <ele>881.20001220703</ele>
        <time>2020-08-05T11:41:28.000Z</time>
      </trkpt>
      <trkpt lat="46.20801" lon="6.43634">
        <ele>880.40002441406</ele>
        <time>2020-08-05T11:41:30.000Z</time>
      </trkpt>
      <trkpt lat="46.20802" lon="6.43659">
        <ele>880.59997558594</ele>
        <time>2020-08-05T11:41:32.000Z</time>
      </trkpt>
      <trkpt lat="46.208" lon="6.43685">
        <ele>881</ele>
        <time>2020-08-05T11:41:34.000Z</time>
      </trkpt>
      <trkpt lat="46.20797" lon="6.43696">
        <ele>881.59997558594</ele>
        <time>2020-08-05T11:41:35.000Z</time>
      </trkpt>
      <trkpt lat="46.20787" lon="6.43729">
        <ele>882.59997558594</ele>
        <time>2020-08-05T11:41:38.000Z</time>
      </trkpt>
      <trkpt lat="46.20786" lon="6.43748">
        <ele>882.40002441406</ele>
        <time>2020-08-05T11:41:40.000Z</time>
      </trkpt>
      <trkpt lat="46.20791" lon="6.43767">
        <ele>881.59997558594</ele>
        <time>2020-08-05T11:41:42.000Z</time>
      </trkpt>
      <trkpt lat="46.20795" lon="6.43775">
        <ele>880.79998779297</ele>
        <time>2020-08-05T11:41:43.000Z</time>
      </trkpt>
      <trkpt lat="46.20801" lon="6.4378">
        <ele>880</ele>
        <time>2020-08-05T11:41:44.000Z</time>
      </trkpt>
      <trkpt lat="46.20816" lon="6.43786">
        <ele>877.79998779297</ele>
        <time>2020-08-05T11:41:46.000Z</time>
      </trkpt>
      <trkpt lat="46.2084" lon="6.43797">
        <ele>874.79998779297</ele>
        <time>2020-08-05T11:41:49.000Z</time>
      </trkpt>
      <trkpt lat="46.20857" lon="6.43804">
        <ele>872.59997558594</ele>
        <time>2020-08-05T11:41:51.000Z</time>
      </trkpt>
      <trkpt lat="46.20908" lon="6.43827">
        <ele>867.40002441406</ele>
        <time>2020-08-05T11:41:57.000Z</time>
      </trkpt>
      <trkpt lat="46.20932" lon="6.43837">
        <ele>866.40002441406</ele>
        <time>2020-08-05T11:42:00.000Z</time>
      </trkpt>
      <trkpt lat="46.20949" lon="6.43829">
        <ele>865.20001220703</ele>
        <time>2020-08-05T11:42:02.000Z</time>
      </trkpt>
      <trkpt lat="46.20964" lon="6.43821">
        <ele>864</ele>
        <time>2020-08-05T11:42:04.000Z</time>
      </trkpt>
      <trkpt lat="46.20971" lon="6.43813">
        <ele>863.59997558594</ele>
        <time>2020-08-05T11:42:05.000Z</time>
      </trkpt>
      <trkpt lat="46.21009" lon="6.43763">
        <ele>857.40002441406</ele>
        <time>2020-08-05T11:42:11.000Z</time>
      </trkpt>
      <trkpt lat="46.21024" lon="6.43752">
        <ele>854.40002441406</ele>
        <time>2020-08-05T11:42:13.000Z</time>
      </trkpt>
      <trkpt lat="46.21031" lon="6.4375">
        <ele>853</ele>
        <time>2020-08-05T11:42:14.000Z</time>
      </trkpt>
      <trkpt lat="46.21038" lon="6.43751">
        <ele>851.79998779297</ele>
        <time>2020-08-05T11:42:15.000Z</time>
      </trkpt>
      <trkpt lat="46.21053" lon="6.43754">
        <ele>849.40002441406</ele>
        <time>2020-08-05T11:42:17.000Z</time>
      </trkpt>
      <trkpt lat="46.21063" lon="6.43769">
        <ele>848.40002441406</ele>
        <time>2020-08-05T11:42:19.000Z</time>
      </trkpt>
      <trkpt lat="46.21069" lon="6.43778">
        <ele>847.40002441406</ele>
        <time>2020-08-05T11:42:20.000Z</time>
      </trkpt>
      <trkpt lat="46.21086" lon="6.43806">
        <ele>844.40002441406</ele>
        <time>2020-08-05T11:42:23.000Z</time>
      </trkpt>
      <trkpt lat="46.21098" lon="6.43827">
        <ele>842</ele>
        <time>2020-08-05T11:42:25.000Z</time>
      </trkpt>
      <trkpt lat="46.211" lon="6.43852">
        <ele>841.79998779297</ele>
        <time>2020-08-05T11:42:27.000Z</time>
      </trkpt>
      <trkpt lat="46.21103" lon="6.43878">
        <ele>841.59997558594</ele>
        <time>2020-08-05T11:42:29.000Z</time>
      </trkpt>
      <trkpt lat="46.21105" lon="6.43904">
        <ele>841.40002441406</ele>
        <time>2020-08-05T11:42:31.000Z</time>
      </trkpt>
      <trkpt lat="46.21113" lon="6.43924">
        <ele>840.40002441406</ele>
        <time>2020-08-05T11:42:33.000Z</time>
      </trkpt>
      <trkpt lat="46.21126" lon="6.43957">
        <ele>838.59997558594</ele>
        <time>2020-08-05T11:42:36.000Z</time>
      </trkpt>
      <trkpt lat="46.2113" lon="6.43968">
        <ele>838</ele>
        <time>2020-08-05T11:42:37.000Z</time>
      </trkpt>
      <trkpt lat="46.21133" lon="6.43979">
        <ele>837.79998779297</ele>
        <time>2020-08-05T11:42:38.000Z</time>
      </trkpt>
      <trkpt lat="46.2114" lon="6.44014">
        <ele>838.79998779297</ele>
        <time>2020-08-05T11:42:41.000Z</time>
      </trkpt>
      <trkpt lat="46.21149" lon="6.44034">
        <ele>838.79998779297</ele>
        <time>2020-08-05T11:42:43.000Z</time>
      </trkpt>
      <trkpt lat="46.21156" lon="6.4404">
        <ele>838.20001220703</ele>
        <time>2020-08-05T11:42:44.000Z</time>
      </trkpt>
      <trkpt lat="46.21195" lon="6.44074">
        <ele>835.59997558594</ele>
        <time>2020-08-05T11:42:49.000Z</time>
      </trkpt>
      <trkpt lat="46.21236" lon="6.441">
        <ele>834</ele>
        <time>2020-08-05T11:42:54.000Z</time>
      </trkpt>
      <trkpt lat="46.21261" lon="6.44105">
        <ele>831.59997558594</ele>
        <time>2020-08-05T11:42:57.000Z</time>
      </trkpt>
      <trkpt lat="46.21296" lon="6.44108">
        <ele>829.79998779297</ele>
        <time>2020-08-05T11:43:01.000Z</time>
      </trkpt>
      <trkpt lat="46.21314" lon="6.441">
        <ele>828.40002441406</ele>
        <time>2020-08-05T11:43:03.000Z</time>
      </trkpt>
      <trkpt lat="46.21319" lon="6.44091">
        <ele>827.59997558594</ele>
        <time>2020-08-05T11:43:04.000Z</time>
      </trkpt>
      <trkpt lat="46.21325" lon="6.44082">
        <ele>826.79998779297</ele>
        <time>2020-08-05T11:43:05.000Z</time>
      </trkpt>
      <trkpt lat="46.21343" lon="6.44054">
        <ele>824.20001220703</ele>
        <time>2020-08-05T11:43:08.000Z</time>
      </trkpt>
      <trkpt lat="46.21359" lon="6.44044">
        <ele>823.40002441406</ele>
        <time>2020-08-05T11:43:10.000Z</time>
      </trkpt>
      <trkpt lat="46.21367" lon="6.44039">
        <ele>823.20001220703</ele>
        <time>2020-08-05T11:43:11.000Z</time>
      </trkpt>
      <trkpt lat="46.21389" lon="6.44025">
        <ele>822.79998779297</ele>
        <time>2020-08-05T11:43:14.000Z</time>
      </trkpt>
      <trkpt lat="46.21394" lon="6.44019">
        <ele>822.59997558594</ele>
        <time>2020-08-05T11:43:15.000Z</time>
      </trkpt>
      <trkpt lat="46.21398" lon="6.44011">
        <ele>822.20001220703</ele>
        <time>2020-08-05T11:43:16.000Z</time>
      </trkpt>
      <trkpt lat="46.214" lon="6.43996">
        <ele>821.20001220703</ele>
        <time>2020-08-05T11:43:18.000Z</time>
      </trkpt>
      <trkpt lat="46.21401" lon="6.43978">
        <ele>819.79998779297</ele>
        <time>2020-08-05T11:43:20.000Z</time>
      </trkpt>
      <trkpt lat="46.21401" lon="6.43974">
        <ele>819.40002441406</ele>
        <time>2020-08-05T11:43:21.000Z</time>
      </trkpt>
      <trkpt lat="46.21396" lon="6.43968">
        <ele>818.79998779297</ele>
        <time>2020-08-05T11:43:22.000Z</time>
      </trkpt>
      <trkpt lat="46.21385" lon="6.43955">
        <ele>817.59997558594</ele>
        <time>2020-08-05T11:43:24.000Z</time>
      </trkpt>
      <trkpt lat="46.21373" lon="6.43941">
        <ele>816.20001220703</ele>
        <time>2020-08-05T11:43:26.000Z</time>
      </trkpt>
      <trkpt lat="46.21368" lon="6.43934">
        <ele>815.59997558594</ele>
        <time>2020-08-05T11:43:27.000Z</time>
      </trkpt>
      <trkpt lat="46.21364" lon="6.43922">
        <ele>814.59997558594</ele>
        <time>2020-08-05T11:43:28.000Z</time>
      </trkpt>
      <trkpt lat="46.21366" lon="6.43901">
        <ele>812.79998779297</ele>
        <time>2020-08-05T11:43:30.000Z</time>
      </trkpt>
      <trkpt lat="46.21371" lon="6.43884">
        <ele>811.40002441406</ele>
        <time>2020-08-05T11:43:32.000Z</time>
      </trkpt>
      <trkpt lat="46.21387" lon="6.43875">
        <ele>810</ele>
        <time>2020-08-05T11:43:34.000Z</time>
      </trkpt>
      <trkpt lat="46.21394" lon="6.43874">
        <ele>809.79998779297</ele>
        <time>2020-08-05T11:43:35.000Z</time>
      </trkpt>
      <trkpt lat="46.2141" lon="6.43872">
        <ele>808.79998779297</ele>
        <time>2020-08-05T11:43:37.000Z</time>
      </trkpt>
      <trkpt lat="46.21426" lon="6.4387">
        <ele>807.79998779297</ele>
        <time>2020-08-05T11:43:39.000Z</time>
      </trkpt>
      <trkpt lat="46.21468" lon="6.43866">
        <ele>804.79998779297</ele>
        <time>2020-08-05T11:43:44.000Z</time>
      </trkpt>
      <trkpt lat="46.21498" lon="6.43862">
        <ele>803.20001220703</ele>
        <time>2020-08-05T11:43:48.000Z</time>
      </trkpt>
      <trkpt lat="46.21505" lon="6.43861">
        <ele>803</ele>
        <time>2020-08-05T11:43:49.000Z</time>
      </trkpt>
      <trkpt lat="46.21542" lon="6.43853">
        <ele>801.79998779297</ele>
        <time>2020-08-05T11:43:55.000Z</time>
      </trkpt>
      <trkpt lat="46.21549" lon="6.43847">
        <ele>801.20001220703</ele>
        <time>2020-08-05T11:43:58.000Z</time>
      </trkpt>
      <trkpt lat="46.21553" lon="6.43843">
        <ele>800.79998779297</ele>
        <time>2020-08-05T11:44:03.000Z</time>
      </trkpt>
      <trkpt lat="46.21553" lon="6.43843">
        <ele>800.79998779297</ele>
        <time>2020-08-05T11:44:06.000Z</time>
      </trkpt>
      <trkpt lat="46.21542" lon="6.43826">
        <ele>799</ele>
        <time>2020-08-05T11:44:10.000Z</time>
      </trkpt>
      <trkpt lat="46.21533" lon="6.43815">
        <ele>797.59997558594</ele>
        <time>2020-08-05T11:44:12.000Z</time>
      </trkpt>
      <trkpt lat="46.21524" lon="6.43803">
        <ele>796.79998779297</ele>
        <time>2020-08-05T11:44:14.000Z</time>
      </trkpt>
      <trkpt lat="46.21521" lon="6.43794">
        <ele>796.20001220703</ele>
        <time>2020-08-05T11:44:15.000Z</time>
      </trkpt>
      <trkpt lat="46.21518" lon="6.43774">
        <ele>795</ele>
        <time>2020-08-05T11:44:17.000Z</time>
      </trkpt>
      <trkpt lat="46.21519" lon="6.43754">
        <ele>793.40002441406</ele>
        <time>2020-08-05T11:44:19.000Z</time>
      </trkpt>
      <trkpt lat="46.21519" lon="6.43744">
        <ele>792.40002441406</ele>
        <time>2020-08-05T11:44:20.000Z</time>
      </trkpt>
      <trkpt lat="46.21517" lon="6.43734">
        <ele>791.59997558594</ele>
        <time>2020-08-05T11:44:21.000Z</time>
      </trkpt>
      <trkpt lat="46.2151" lon="6.43704">
        <ele>790.59997558594</ele>
        <time>2020-08-05T11:44:24.000Z</time>
      </trkpt>
      <trkpt lat="46.21494" lon="6.43642">
        <ele>788.20001220703</ele>
        <time>2020-08-05T11:44:30.000Z</time>
      </trkpt>
      <trkpt lat="46.2147" lon="6.43588">
        <ele>786.20001220703</ele>
        <time>2020-08-05T11:44:35.000Z</time>
      </trkpt>
      <trkpt lat="46.21436" lon="6.43514">
        <ele>784.20001220703</ele>
        <time>2020-08-05T11:44:42.000Z</time>
      </trkpt>
      <trkpt lat="46.21411" lon="6.43457">
        <ele>783</ele>
        <time>2020-08-05T11:44:49.000Z</time>
      </trkpt>
      <trkpt lat="46.21381" lon="6.43399">
        <ele>782.40002441406</ele>
        <time>2020-08-05T11:44:57.000Z</time>
      </trkpt>
      <trkpt lat="46.21345" lon="6.43347">
        <ele>781.40002441406</ele>
        <time>2020-08-05T11:45:05.000Z</time>
      </trkpt>
      <trkpt lat="46.21321" lon="6.43315">
        <ele>780.79998779297</ele>
        <time>2020-08-05T11:45:10.000Z</time>
      </trkpt>
      <trkpt lat="46.21317" lon="6.43308">
        <ele>780.79998779297</ele>
        <time>2020-08-05T11:45:11.000Z</time>
      </trkpt>
      <trkpt lat="46.21292" lon="6.4325">
        <ele>781.20001220703</ele>
        <time>2020-08-05T11:45:18.000Z</time>
      </trkpt>
      <trkpt lat="46.21265" lon="6.43181">
        <ele>779.20001220703</ele>
        <time>2020-08-05T11:45:25.000Z</time>
      </trkpt>
      <trkpt lat="46.21244" lon="6.43117">
        <ele>776.79998779297</ele>
        <time>2020-08-05T11:45:31.000Z</time>
      </trkpt>
      <trkpt lat="46.21231" lon="6.43057">
        <ele>775</ele>
        <time>2020-08-05T11:45:37.000Z</time>
      </trkpt>
      <trkpt lat="46.21213" lon="6.43008">
        <ele>776</ele>
        <time>2020-08-05T11:45:43.000Z</time>
      </trkpt>
      <trkpt lat="46.21187" lon="6.4297">
        <ele>778</ele>
        <time>2020-08-05T11:45:49.000Z</time>
      </trkpt>
      <trkpt lat="46.21151" lon="6.42934">
        <ele>780.59997558594</ele>
        <time>2020-08-05T11:45:56.000Z</time>
      </trkpt>
      <trkpt lat="46.21122" lon="6.429">
        <ele>782.20001220703</ele>
        <time>2020-08-05T11:46:02.000Z</time>
      </trkpt>
      <trkpt lat="46.21104" lon="6.42852">
        <ele>782.20001220703</ele>
        <time>2020-08-05T11:46:08.000Z</time>
      </trkpt>
      <trkpt lat="46.21081" lon="6.4278">
        <ele>781</ele>
        <time>2020-08-05T11:46:17.000Z</time>
      </trkpt>
      <trkpt lat="46.21068" lon="6.42722">
        <ele>780.79998779297</ele>
        <time>2020-08-05T11:46:24.000Z</time>
      </trkpt>
      <trkpt lat="46.21073" lon="6.42679">
        <ele>781.79998779297</ele>
        <time>2020-08-05T11:46:29.000Z</time>
      </trkpt>
      <trkpt lat="46.21077" lon="6.42663">
        <ele>782</ele>
        <time>2020-08-05T11:46:31.000Z</time>
      </trkpt>
      <trkpt lat="46.21082" lon="6.42638">
        <ele>781</ele>
        <time>2020-08-05T11:46:34.000Z</time>
      </trkpt>
      <trkpt lat="46.2109" lon="6.42594">
        <ele>779.40002441406</ele>
        <time>2020-08-05T11:46:39.000Z</time>
      </trkpt>
      <trkpt lat="46.21088" lon="6.42575">
        <ele>780</ele>
        <time>2020-08-05T11:46:41.000Z</time>
      </trkpt>
      <trkpt lat="46.21083" lon="6.42547">
        <ele>780.20001220703</ele>
        <time>2020-08-05T11:46:44.000Z</time>
      </trkpt>
      <trkpt lat="46.2108" lon="6.42537">
        <ele>780.40002441406</ele>
        <time>2020-08-05T11:46:45.000Z</time>
      </trkpt>
      <trkpt lat="46.21066" lon="6.42499">
        <ele>781</ele>
        <time>2020-08-05T11:46:49.000Z</time>
      </trkpt>
      <trkpt lat="46.21039" lon="6.42424">
        <ele>781.40002441406</ele>
        <time>2020-08-05T11:46:57.000Z</time>
      </trkpt>
      <trkpt lat="46.21017" lon="6.42362">
        <ele>782</ele>
        <time>2020-08-05T11:47:04.000Z</time>
      </trkpt>
      <trkpt lat="46.20993" lon="6.42293">
        <ele>783.40002441406</ele>
        <time>2020-08-05T11:47:12.000Z</time>
      </trkpt>
      <trkpt lat="46.20975" lon="6.4224">
        <ele>784.59997558594</ele>
        <time>2020-08-05T11:47:18.000Z</time>
      </trkpt>
      <trkpt lat="46.20967" lon="6.42189">
        <ele>787</ele>
        <time>2020-08-05T11:47:23.000Z</time>
      </trkpt>
      <trkpt lat="46.20968" lon="6.42137">
        <ele>786.40002441406</ele>
        <time>2020-08-05T11:47:28.000Z</time>
      </trkpt>
      <trkpt lat="46.2097" lon="6.42118">
        <ele>785.79998779297</ele>
        <time>2020-08-05T11:47:30.000Z</time>
      </trkpt>
      <trkpt lat="46.20972" lon="6.42087">
        <ele>785.20001220703</ele>
        <time>2020-08-05T11:47:33.000Z</time>
      </trkpt>
      <trkpt lat="46.20978" lon="6.42009">
        <ele>782</ele>
        <time>2020-08-05T11:47:41.000Z</time>
      </trkpt>
      <trkpt lat="46.20983" lon="6.41936">
        <ele>780.20001220703</ele>
        <time>2020-08-05T11:47:49.000Z</time>
      </trkpt>
      <trkpt lat="46.20988" lon="6.41873">
        <ele>778.59997558594</ele>
        <time>2020-08-05T11:47:55.000Z</time>
      </trkpt>
      <trkpt lat="46.20993" lon="6.4179">
        <ele>776.59997558594</ele>
        <time>2020-08-05T11:48:02.000Z</time>
      </trkpt>
      <trkpt lat="46.20998" lon="6.41704">
        <ele>774.79998779297</ele>
        <time>2020-08-05T11:48:09.000Z</time>
      </trkpt>
      <trkpt lat="46.20999" lon="6.41692">
        <ele>774.40002441406</ele>
        <time>2020-08-05T11:48:10.000Z</time>
      </trkpt>
      <trkpt lat="46.20993" lon="6.41658">
        <ele>773.59997558594</ele>
        <time>2020-08-05T11:48:13.000Z</time>
      </trkpt>
      <trkpt lat="46.20988" lon="6.41634">
        <ele>772.79998779297</ele>
        <time>2020-08-05T11:48:15.000Z</time>
      </trkpt>
      <trkpt lat="46.20975" lon="6.41558">
        <ele>767.79998779297</ele>
        <time>2020-08-05T11:48:21.000Z</time>
      </trkpt>
      <trkpt lat="46.20973" lon="6.41545">
        <ele>767.20001220703</ele>
        <time>2020-08-05T11:48:22.000Z</time>
      </trkpt>
      <trkpt lat="46.20957" lon="6.41466">
        <ele>763.40002441406</ele>
        <time>2020-08-05T11:48:28.000Z</time>
      </trkpt>
      <trkpt lat="46.20952" lon="6.41439">
        <ele>762</ele>
        <time>2020-08-05T11:48:30.000Z</time>
      </trkpt>
      <trkpt lat="46.20934" lon="6.41359">
        <ele>757.40002441406</ele>
        <time>2020-08-05T11:48:36.000Z</time>
      </trkpt>
      <trkpt lat="46.20927" lon="6.41332">
        <ele>755.40002441406</ele>
        <time>2020-08-05T11:48:38.000Z</time>
      </trkpt>
      <trkpt lat="46.20906" lon="6.41287">
        <ele>752.59997558594</ele>
        <time>2020-08-05T11:48:42.000Z</time>
      </trkpt>
      <trkpt lat="46.20875" lon="6.41221">
        <ele>749.59997558594</ele>
        <time>2020-08-05T11:48:48.000Z</time>
      </trkpt>
      <trkpt lat="46.20854" lon="6.41177">
        <ele>749.40002441406</ele>
        <time>2020-08-05T11:48:52.000Z</time>
      </trkpt>
      <trkpt lat="46.20824" lon="6.41113">
        <ele>747.40002441406</ele>
        <time>2020-08-05T11:48:58.000Z</time>
      </trkpt>
      <trkpt lat="46.20808" lon="6.41079">
        <ele>745.79998779297</ele>
        <time>2020-08-05T11:49:01.000Z</time>
      </trkpt>
      <trkpt lat="46.20775" lon="6.4101">
        <ele>742.20001220703</ele>
        <time>2020-08-05T11:49:07.000Z</time>
      </trkpt>
      <trkpt lat="46.20764" lon="6.40988">
        <ele>741.40002441406</ele>
        <time>2020-08-05T11:49:09.000Z</time>
      </trkpt>
      <trkpt lat="46.20728" lon="6.40917">
        <ele>739.79998779297</ele>
        <time>2020-08-05T11:49:16.000Z</time>
      </trkpt>
      <trkpt lat="46.20697" lon="6.40861">
        <ele>739.40002441406</ele>
        <time>2020-08-05T11:49:22.000Z</time>
      </trkpt>
      <trkpt lat="46.20688" lon="6.40844">
        <ele>739.40002441406</ele>
        <time>2020-08-05T11:49:24.000Z</time>
      </trkpt>
      <trkpt lat="46.20684" lon="6.40825">
        <ele>739.59997558594</ele>
        <time>2020-08-05T11:49:26.000Z</time>
      </trkpt>
      <trkpt lat="46.20683" lon="6.40806">
        <ele>739</ele>
        <time>2020-08-05T11:49:28.000Z</time>
      </trkpt>
      <trkpt lat="46.20686" lon="6.40797">
        <ele>738.40002441406</ele>
        <time>2020-08-05T11:49:29.000Z</time>
      </trkpt>
      <trkpt lat="46.20691" lon="6.4079">
        <ele>738</ele>
        <time>2020-08-05T11:49:30.000Z</time>
      </trkpt>
      <trkpt lat="46.207" lon="6.40775">
        <ele>737.20001220703</ele>
        <time>2020-08-05T11:49:32.000Z</time>
      </trkpt>
      <trkpt lat="46.20728" lon="6.40733">
        <ele>736</ele>
        <time>2020-08-05T11:49:38.000Z</time>
      </trkpt>
      <trkpt lat="46.2076" lon="6.40685">
        <ele>735.40002441406</ele>
        <time>2020-08-05T11:49:45.000Z</time>
      </trkpt>
      <trkpt lat="46.20784" lon="6.4065">
        <ele>735.59997558594</ele>
        <time>2020-08-05T11:49:51.000Z</time>
      </trkpt>
      <trkpt lat="46.20803" lon="6.40618">
        <ele>736.40002441406</ele>
        <time>2020-08-05T11:49:57.000Z</time>
      </trkpt>
      <trkpt lat="46.20817" lon="6.40598">
        <ele>737.59997558594</ele>
        <time>2020-08-05T11:50:01.000Z</time>
      </trkpt>
      <trkpt lat="46.2082" lon="6.40594">
        <ele>738</ele>
        <time>2020-08-05T11:50:02.000Z</time>
      </trkpt>
      <trkpt lat="46.20823" lon="6.40589">
        <ele>738.59997558594</ele>
        <time>2020-08-05T11:50:03.000Z</time>
      </trkpt>
      <trkpt lat="46.20833" lon="6.40576">
        <ele>739.59997558594</ele>
        <time>2020-08-05T11:50:06.000Z</time>
      </trkpt>
      <trkpt lat="46.20836" lon="6.40573">
        <ele>740</ele>
        <time>2020-08-05T11:50:07.000Z</time>
      </trkpt>
      <trkpt lat="46.20837" lon="6.40568">
        <ele>740</ele>
        <time>2020-08-05T11:50:08.000Z</time>
      </trkpt>
      <trkpt lat="46.20844" lon="6.40544">
        <ele>741</ele>
        <time>2020-08-05T11:50:13.000Z</time>
      </trkpt>
      <trkpt lat="46.20852" lon="6.40516">
        <ele>741.59997558594</ele>
        <time>2020-08-05T11:50:19.000Z</time>
      </trkpt>
      <trkpt lat="46.20867" lon="6.40488">
        <ele>741.20001220703</ele>
        <time>2020-08-05T11:50:25.000Z</time>
      </trkpt>
      <trkpt lat="46.20886" lon="6.40469">
        <ele>741.79998779297</ele>
        <time>2020-08-05T11:50:31.000Z</time>
      </trkpt>
      <trkpt lat="46.20909" lon="6.40436">
        <ele>740.79998779297</ele>
        <time>2020-08-05T11:50:38.000Z</time>
      </trkpt>
      <trkpt lat="46.20916" lon="6.40425">
        <ele>740.40002441406</ele>
        <time>2020-08-05T11:50:40.000Z</time>
      </trkpt>
      <trkpt lat="46.20923" lon="6.40414">
        <ele>740.40002441406</ele>
        <time>2020-08-05T11:50:42.000Z</time>
      </trkpt>
      <trkpt lat="46.20926" lon="6.40409">
        <ele>740.40002441406</ele>
        <time>2020-08-05T11:50:43.000Z</time>
      </trkpt>
      <trkpt lat="46.20932" lon="6.40399">
        <ele>740.40002441406</ele>
        <time>2020-08-05T11:50:45.000Z</time>
      </trkpt>
      <trkpt lat="46.20935" lon="6.40393">
        <ele>740.59997558594</ele>
        <time>2020-08-05T11:50:46.000Z</time>
      </trkpt>
      <trkpt lat="46.20938" lon="6.40386">
        <ele>740.59997558594</ele>
        <time>2020-08-05T11:50:47.000Z</time>
      </trkpt>
      <trkpt lat="46.20944" lon="6.40373">
        <ele>740.79998779297</ele>
        <time>2020-08-05T11:50:49.000Z</time>
      </trkpt>
      <trkpt lat="46.20949" lon="6.40361">
        <ele>741.20001220703</ele>
        <time>2020-08-05T11:50:51.000Z</time>
      </trkpt>
      <trkpt lat="46.20955" lon="6.40348">
        <ele>741.40002441406</ele>
        <time>2020-08-05T11:50:53.000Z</time>
      </trkpt>
      <trkpt lat="46.2096" lon="6.40333">
        <ele>741.59997558594</ele>
        <time>2020-08-05T11:50:55.000Z</time>
      </trkpt>
      <trkpt lat="46.20975" lon="6.40299">
        <ele>741.79998779297</ele>
        <time>2020-08-05T11:51:00.000Z</time>
      </trkpt>
      <trkpt lat="46.20982" lon="6.40286">
        <ele>741.59997558594</ele>
        <time>2020-08-05T11:51:02.000Z</time>
      </trkpt>
      <trkpt lat="46.2099" lon="6.40275">
        <ele>741.40002441406</ele>
        <time>2020-08-05T11:51:04.000Z</time>
      </trkpt>
      <trkpt lat="46.21025" lon="6.40223">
        <ele>740.79998779297</ele>
        <time>2020-08-05T11:51:13.000Z</time>
      </trkpt>
      <trkpt lat="46.21041" lon="6.40199">
        <ele>740.40002441406</ele>
        <time>2020-08-05T11:51:17.000Z</time>
      </trkpt>
      <trkpt lat="46.21049" lon="6.40188">
        <ele>739.79998779297</ele>
        <time>2020-08-05T11:51:19.000Z</time>
      </trkpt>
      <trkpt lat="46.21071" lon="6.40157">
        <ele>738.20001220703</ele>
        <time>2020-08-05T11:51:25.000Z</time>
      </trkpt>
      <trkpt lat="46.21098" lon="6.40117">
        <ele>738.79998779297</ele>
        <time>2020-08-05T11:51:32.000Z</time>
      </trkpt>
      <trkpt lat="46.21126" lon="6.40077">
        <ele>742</ele>
        <time>2020-08-05T11:51:39.000Z</time>
      </trkpt>
      <trkpt lat="46.21143" lon="6.40052">
        <ele>743.40002441406</ele>
        <time>2020-08-05T11:51:44.000Z</time>
      </trkpt>
      <trkpt lat="46.21165" lon="6.40019">
        <ele>742.20001220703</ele>
        <time>2020-08-05T11:51:51.000Z</time>
      </trkpt>
      <trkpt lat="46.21177" lon="6.40002">
        <ele>741.79998779297</ele>
        <time>2020-08-05T11:51:55.000Z</time>
      </trkpt>
      <trkpt lat="46.21183" lon="6.39993">
        <ele>741.79998779297</ele>
        <time>2020-08-05T11:51:57.000Z</time>
      </trkpt>
      <trkpt lat="46.21189" lon="6.39985">
        <ele>742</ele>
        <time>2020-08-05T11:51:59.000Z</time>
      </trkpt>
      <trkpt lat="46.21198" lon="6.39973">
        <ele>741.59997558594</ele>
        <time>2020-08-05T11:52:02.000Z</time>
      </trkpt>
      <trkpt lat="46.21216" lon="6.39946">
        <ele>742</ele>
        <time>2020-08-05T11:52:09.000Z</time>
      </trkpt>
      <trkpt lat="46.21231" lon="6.39925">
        <ele>743.59997558594</ele>
        <time>2020-08-05T11:52:16.000Z</time>
      </trkpt>
      <trkpt lat="46.21246" lon="6.39903">
        <ele>745.59997558594</ele>
        <time>2020-08-05T11:52:23.000Z</time>
      </trkpt>
      <trkpt lat="46.21263" lon="6.39878">
        <ele>747.79998779297</ele>
        <time>2020-08-05T11:52:30.000Z</time>
      </trkpt>
      <trkpt lat="46.21276" lon="6.39859">
        <ele>749.40002441406</ele>
        <time>2020-08-05T11:52:36.000Z</time>
      </trkpt>
      <trkpt lat="46.21296" lon="6.3983">
        <ele>752</ele>
        <time>2020-08-05T11:52:44.000Z</time>
      </trkpt>
      <trkpt lat="46.21312" lon="6.39808">
        <ele>754</ele>
        <time>2020-08-05T11:52:51.000Z</time>
      </trkpt>
      <trkpt lat="46.21331" lon="6.39785">
        <ele>755</ele>
        <time>2020-08-05T11:52:59.000Z</time>
      </trkpt>
      <trkpt lat="46.21345" lon="6.39768">
        <ele>755.79998779297</ele>
        <time>2020-08-05T11:53:05.000Z</time>
      </trkpt>
      <trkpt lat="46.21366" lon="6.39758">
        <ele>755.79998779297</ele>
        <time>2020-08-05T11:53:12.000Z</time>
      </trkpt>
      <trkpt lat="46.21381" lon="6.39754">
        <ele>756</ele>
        <time>2020-08-05T11:53:17.000Z</time>
      </trkpt>
      <trkpt lat="46.21403" lon="6.39761">
        <ele>756.79998779297</ele>
        <time>2020-08-05T11:53:24.000Z</time>
      </trkpt>
      <trkpt lat="46.21425" lon="6.39768">
        <ele>757.59997558594</ele>
        <time>2020-08-05T11:53:31.000Z</time>
      </trkpt>
      <trkpt lat="46.21455" lon="6.39778">
        <ele>758.20001220703</ele>
        <time>2020-08-05T11:53:40.000Z</time>
      </trkpt>
      <trkpt lat="46.21475" lon="6.39785">
        <ele>758.40002441406</ele>
        <time>2020-08-05T11:53:47.000Z</time>
      </trkpt>
      <trkpt lat="46.21495" lon="6.39791">
        <ele>760.40002441406</ele>
        <time>2020-08-05T11:53:54.000Z</time>
      </trkpt>
      <trkpt lat="46.21521" lon="6.398">
        <ele>763.40002441406</ele>
        <time>2020-08-05T11:54:02.000Z</time>
      </trkpt>
      <trkpt lat="46.21546" lon="6.39806">
        <ele>766</ele>
        <time>2020-08-05T11:54:10.000Z</time>
      </trkpt>
      <trkpt lat="46.21571" lon="6.39803">
        <ele>768</ele>
        <time>2020-08-05T11:54:18.000Z</time>
      </trkpt>
      <trkpt lat="46.21599" lon="6.398">
        <ele>772</ele>
        <time>2020-08-05T11:54:27.000Z</time>
      </trkpt>
      <trkpt lat="46.21626" lon="6.39797">
        <ele>775.79998779297</ele>
        <time>2020-08-05T11:54:35.000Z</time>
      </trkpt>
      <trkpt lat="46.2165" lon="6.39794">
        <ele>778.59997558594</ele>
        <time>2020-08-05T11:54:43.000Z</time>
      </trkpt>
      <trkpt lat="46.21672" lon="6.39792">
        <ele>784.59997558594</ele>
        <time>2020-08-05T11:54:51.000Z</time>
      </trkpt>
      <trkpt lat="46.21696" lon="6.39782">
        <ele>790</ele>
        <time>2020-08-05T11:54:59.000Z</time>
      </trkpt>
      <trkpt lat="46.21722" lon="6.39763">
        <ele>793</ele>
        <time>2020-08-05T11:55:08.000Z</time>
      </trkpt>
      <trkpt lat="46.21745" lon="6.39741">
        <ele>794.59997558594</ele>
        <time>2020-08-05T11:55:16.000Z</time>
      </trkpt>
      <trkpt lat="46.21759" lon="6.39727">
        <ele>795</ele>
        <time>2020-08-05T11:55:22.000Z</time>
      </trkpt>
      <trkpt lat="46.21772" lon="6.39715">
        <ele>795.20001220703</ele>
        <time>2020-08-05T11:55:28.000Z</time>
      </trkpt>
      <trkpt lat="46.21792" lon="6.39696">
        <ele>796</ele>
        <time>2020-08-05T11:55:36.000Z</time>
      </trkpt>
      <trkpt lat="46.21813" lon="6.39676">
        <ele>797.59997558594</ele>
        <time>2020-08-05T11:55:44.000Z</time>
      </trkpt>
      <trkpt lat="46.21832" lon="6.3966">
        <ele>798.79998779297</ele>
        <time>2020-08-05T11:55:51.000Z</time>
      </trkpt>
      <trkpt lat="46.21851" lon="6.39647">
        <ele>800.59997558594</ele>
        <time>2020-08-05T11:55:58.000Z</time>
      </trkpt>
      <trkpt lat="46.21878" lon="6.3963">
        <ele>802</ele>
        <time>2020-08-05T11:56:07.000Z</time>
      </trkpt>
      <trkpt lat="46.21898" lon="6.39617">
        <ele>803</ele>
        <time>2020-08-05T11:56:14.000Z</time>
      </trkpt>
      <trkpt lat="46.21923" lon="6.39601">
        <ele>798</ele>
        <time>2020-08-05T11:56:23.000Z</time>
      </trkpt>
      <trkpt lat="46.21942" lon="6.39588">
        <ele>798.40002441406</ele>
        <time>2020-08-05T11:56:30.000Z</time>
      </trkpt>
      <trkpt lat="46.21969" lon="6.39571">
        <ele>801</ele>
        <time>2020-08-05T11:56:39.000Z</time>
      </trkpt>
      <trkpt lat="46.21992" lon="6.39556">
        <ele>801</ele>
        <time>2020-08-05T11:56:47.000Z</time>
      </trkpt>
      <trkpt lat="46.22019" lon="6.39545">
        <ele>800</ele>
        <time>2020-08-05T11:56:56.000Z</time>
      </trkpt>
      <trkpt lat="46.22041" lon="6.39545">
        <ele>800</ele>
        <time>2020-08-05T11:57:03.000Z</time>
      </trkpt>
      <trkpt lat="46.22056" lon="6.39551">
        <ele>801</ele>
        <time>2020-08-05T11:57:09.000Z</time>
      </trkpt>
      <trkpt lat="46.22075" lon="6.3956">
        <ele>802.59997558594</ele>
        <time>2020-08-05T11:57:16.000Z</time>
      </trkpt>
      <trkpt lat="46.22093" lon="6.39552">
        <ele>802.20001220703</ele>
        <time>2020-08-05T11:57:22.000Z</time>
      </trkpt>
      <trkpt lat="46.2212" lon="6.39538">
        <ele>801</ele>
        <time>2020-08-05T11:57:31.000Z</time>
      </trkpt>
      <trkpt lat="46.22144" lon="6.39533">
        <ele>800.79998779297</ele>
        <time>2020-08-05T11:57:39.000Z</time>
      </trkpt>
      <trkpt lat="46.22173" lon="6.39534">
        <ele>804.20001220703</ele>
        <time>2020-08-05T11:57:48.000Z</time>
      </trkpt>
      <trkpt lat="46.222" lon="6.39535">
        <ele>807.20001220703</ele>
        <time>2020-08-05T11:57:56.000Z</time>
      </trkpt>
      <trkpt lat="46.22228" lon="6.39538">
        <ele>810.40002441406</ele>
        <time>2020-08-05T11:58:05.000Z</time>
      </trkpt>
      <trkpt lat="46.22251" lon="6.3954">
        <ele>810.79998779297</ele>
        <time>2020-08-05T11:58:13.000Z</time>
      </trkpt>
      <trkpt lat="46.22268" lon="6.39541">
        <ele>811</ele>
        <time>2020-08-05T11:58:19.000Z</time>
      </trkpt>
      <trkpt lat="46.22292" lon="6.39543">
        <ele>811.40002441406</ele>
        <time>2020-08-05T11:58:27.000Z</time>
      </trkpt>
      <trkpt lat="46.22312" lon="6.39545">
        <ele>812.40002441406</ele>
        <time>2020-08-05T11:58:34.000Z</time>
      </trkpt>
      <trkpt lat="46.22332" lon="6.39545">
        <ele>813.79998779297</ele>
        <time>2020-08-05T11:58:41.000Z</time>
      </trkpt>
      <trkpt lat="46.22355" lon="6.39545">
        <ele>815.40002441406</ele>
        <time>2020-08-05T11:58:48.000Z</time>
      </trkpt>
      <trkpt lat="46.2238" lon="6.39536">
        <ele>816</ele>
        <time>2020-08-05T11:58:57.000Z</time>
      </trkpt>
      <trkpt lat="46.22412" lon="6.39525">
        <ele>817.59997558594</ele>
        <time>2020-08-05T11:59:08.000Z</time>
      </trkpt>
      <trkpt lat="46.22432" lon="6.39518">
        <ele>819.40002441406</ele>
        <time>2020-08-05T11:59:15.000Z</time>
      </trkpt>
      <trkpt lat="46.22461" lon="6.39507">
        <ele>822.20001220703</ele>
        <time>2020-08-05T11:59:25.000Z</time>
      </trkpt>
      <trkpt lat="46.22486" lon="6.39498">
        <ele>824.40002441406</ele>
        <time>2020-08-05T11:59:33.000Z</time>
      </trkpt>
      <trkpt lat="46.22505" lon="6.39492">
        <ele>826</ele>
        <time>2020-08-05T11:59:39.000Z</time>
      </trkpt>
      <trkpt lat="46.22522" lon="6.39488">
        <ele>828</ele>
        <time>2020-08-05T11:59:45.000Z</time>
      </trkpt>
      <trkpt lat="46.22542" lon="6.39486">
        <ele>830.59997558594</ele>
        <time>2020-08-05T11:59:52.000Z</time>
      </trkpt>
      <trkpt lat="46.22555" lon="6.39489">
        <ele>832.79998779297</ele>
        <time>2020-08-05T11:59:57.000Z</time>
      </trkpt>
      <trkpt lat="46.22571" lon="6.39493">
        <ele>834.59997558594</ele>
        <time>2020-08-05T12:00:03.000Z</time>
      </trkpt>
      <trkpt lat="46.2259" lon="6.39493">
        <ele>835</ele>
        <time>2020-08-05T12:00:08.000Z</time>
      </trkpt>
      <trkpt lat="46.22606" lon="6.39474">
        <ele>831.79998779297</ele>
        <time>2020-08-05T12:00:14.000Z</time>
      </trkpt>
      <trkpt lat="46.22626" lon="6.39458">
        <ele>828.79998779297</ele>
        <time>2020-08-05T12:00:21.000Z</time>
      </trkpt>
      <trkpt lat="46.22647" lon="6.39453">
        <ele>829.20001220703</ele>
        <time>2020-08-05T12:00:28.000Z</time>
      </trkpt>
      <trkpt lat="46.2268" lon="6.39452">
        <ele>832.40002441406</ele>
        <time>2020-08-05T12:00:38.000Z</time>
      </trkpt>
      <trkpt lat="46.22706" lon="6.39452">
        <ele>835.20001220703</ele>
        <time>2020-08-05T12:00:46.000Z</time>
      </trkpt>
      <trkpt lat="46.22733" lon="6.39452">
        <ele>838.79998779297</ele>
        <time>2020-08-05T12:00:55.000Z</time>
      </trkpt>
      <trkpt lat="46.22749" lon="6.39451">
        <ele>840</ele>
        <time>2020-08-05T12:01:00.000Z</time>
      </trkpt>
      <trkpt lat="46.22772" lon="6.39451">
        <ele>842</ele>
        <time>2020-08-05T12:01:07.000Z</time>
      </trkpt>
      <trkpt lat="46.22795" lon="6.39451">
        <ele>843.79998779297</ele>
        <time>2020-08-05T12:01:14.000Z</time>
      </trkpt>
      <trkpt lat="46.22819" lon="6.39451">
        <ele>846</ele>
        <time>2020-08-05T12:01:22.000Z</time>
      </trkpt>
      <trkpt lat="46.22839" lon="6.3945">
        <ele>848.20001220703</ele>
        <time>2020-08-05T12:01:29.000Z</time>
      </trkpt>
      <trkpt lat="46.2286" lon="6.39455">
        <ele>850.79998779297</ele>
        <time>2020-08-05T12:01:36.000Z</time>
      </trkpt>
      <trkpt lat="46.2288" lon="6.3946">
        <ele>853.20001220703</ele>
        <time>2020-08-05T12:01:43.000Z</time>
      </trkpt>
      <trkpt lat="46.2289" lon="6.39463">
        <ele>854.20001220703</ele>
        <time>2020-08-05T12:01:47.000Z</time>
      </trkpt>
      <trkpt lat="46.22906" lon="6.39467">
        <ele>855</ele>
        <time>2020-08-05T12:01:53.000Z</time>
      </trkpt>
      <trkpt lat="46.22929" lon="6.39479">
        <ele>857.20001220703</ele>
        <time>2020-08-05T12:02:00.000Z</time>
      </trkpt>
      <trkpt lat="46.22948" lon="6.39491">
        <ele>859.20001220703</ele>
        <time>2020-08-05T12:02:06.000Z</time>
      </trkpt>
      <trkpt lat="46.22968" lon="6.395">
        <ele>860.59997558594</ele>
        <time>2020-08-05T12:02:12.000Z</time>
      </trkpt>
      <trkpt lat="46.22986" lon="6.39501">
        <ele>860.59997558594</ele>
        <time>2020-08-05T12:02:17.000Z</time>
      </trkpt>
      <trkpt lat="46.23008" lon="6.39502">
        <ele>860.59997558594</ele>
        <time>2020-08-05T12:02:23.000Z</time>
      </trkpt>
      <trkpt lat="46.23026" lon="6.39503">
        <ele>860.59997558594</ele>
        <time>2020-08-05T12:02:29.000Z</time>
      </trkpt>
      <trkpt lat="46.23044" lon="6.39512">
        <ele>862</ele>
        <time>2020-08-05T12:02:36.000Z</time>
      </trkpt>
      <trkpt lat="46.23068" lon="6.39525">
        <ele>864.79998779297</ele>
        <time>2020-08-05T12:02:44.000Z</time>
      </trkpt>
      <trkpt lat="46.23084" lon="6.39529">
        <ele>866.59997558594</ele>
        <time>2020-08-05T12:02:49.000Z</time>
      </trkpt>
      <trkpt lat="46.23099" lon="6.39517">
        <ele>865.40002441406</ele>
        <time>2020-08-05T12:02:54.000Z</time>
      </trkpt>
      <trkpt lat="46.23121" lon="6.39499">
        <ele>863</ele>
        <time>2020-08-05T12:03:02.000Z</time>
      </trkpt>
      <trkpt lat="46.23152" lon="6.39474">
        <ele>860.20001220703</ele>
        <time>2020-08-05T12:03:13.000Z</time>
      </trkpt>
      <trkpt lat="46.23171" lon="6.39459">
        <ele>858.79998779297</ele>
        <time>2020-08-05T12:03:20.000Z</time>
      </trkpt>
      <trkpt lat="46.23195" lon="6.3944">
        <ele>857.20001220703</ele>
        <time>2020-08-05T12:03:29.000Z</time>
      </trkpt>
      <trkpt lat="46.23214" lon="6.39429">
        <ele>856.40002441406</ele>
        <time>2020-08-05T12:03:36.000Z</time>
      </trkpt>
      <trkpt lat="46.23243" lon="6.39436">
        <ele>858</ele>
        <time>2020-08-05T12:03:45.000Z</time>
      </trkpt>
      <trkpt lat="46.2327" lon="6.39443">
        <ele>859.40002441406</ele>
        <time>2020-08-05T12:03:54.000Z</time>
      </trkpt>
      <trkpt lat="46.23289" lon="6.39451">
        <ele>861.40002441406</ele>
        <time>2020-08-05T12:04:01.000Z</time>
      </trkpt>
      <trkpt lat="46.23308" lon="6.39472">
        <ele>864.20001220703</ele>
        <time>2020-08-05T12:04:09.000Z</time>
      </trkpt>
      <trkpt lat="46.23325" lon="6.39493">
        <ele>866.59997558594</ele>
        <time>2020-08-05T12:04:17.000Z</time>
      </trkpt>
      <trkpt lat="46.23346" lon="6.39512">
        <ele>869.40002441406</ele>
        <time>2020-08-05T12:04:25.000Z</time>
      </trkpt>
      <trkpt lat="46.23372" lon="6.39521">
        <ele>870.59997558594</ele>
        <time>2020-08-05T12:04:33.000Z</time>
      </trkpt>
      <trkpt lat="46.23399" lon="6.3953">
        <ele>872.40002441406</ele>
        <time>2020-08-05T12:04:41.000Z</time>
      </trkpt>
      <trkpt lat="46.2342" lon="6.3953">
        <ele>875.20001220703</ele>
        <time>2020-08-05T12:04:48.000Z</time>
      </trkpt>
      <trkpt lat="46.23444" lon="6.3953">
        <ele>878.20001220703</ele>
        <time>2020-08-05T12:04:56.000Z</time>
      </trkpt>
      <trkpt lat="46.23467" lon="6.39529">
        <ele>881.79998779297</ele>
        <time>2020-08-05T12:05:04.000Z</time>
      </trkpt>
      <trkpt lat="46.23485" lon="6.39529">
        <ele>884.40002441406</ele>
        <time>2020-08-05T12:05:10.000Z</time>
      </trkpt>
      <trkpt lat="46.23508" lon="6.3952">
        <ele>886.40002441406</ele>
        <time>2020-08-05T12:05:18.000Z</time>
      </trkpt>
      <trkpt lat="46.23519" lon="6.39505">
        <ele>886</ele>
        <time>2020-08-05T12:05:23.000Z</time>
      </trkpt>
      <trkpt lat="46.2353" lon="6.39477">
        <ele>883.79998779297</ele>
        <time>2020-08-05T12:05:30.000Z</time>
      </trkpt>
      <trkpt lat="46.23547" lon="6.39461">
        <ele>884.40002441406</ele>
        <time>2020-08-05T12:05:37.000Z</time>
      </trkpt>
      <trkpt lat="46.23567" lon="6.39459">
        <ele>884.20001220703</ele>
        <time>2020-08-05T12:05:44.000Z</time>
      </trkpt>
      <trkpt lat="46.23591" lon="6.39467">
        <ele>885.59997558594</ele>
        <time>2020-08-05T12:05:52.000Z</time>
      </trkpt>
      <trkpt lat="46.23614" lon="6.39474">
        <ele>886.79998779297</ele>
        <time>2020-08-05T12:06:00.000Z</time>
      </trkpt>
      <trkpt lat="46.2364" lon="6.39482">
        <ele>888.20001220703</ele>
        <time>2020-08-05T12:06:09.000Z</time>
      </trkpt>
      <trkpt lat="46.23652" lon="6.39485">
        <ele>889.20001220703</ele>
        <time>2020-08-05T12:06:14.000Z</time>
      </trkpt>
      <trkpt lat="46.23677" lon="6.39479">
        <ele>890.59997558594</ele>
        <time>2020-08-05T12:06:22.000Z</time>
      </trkpt>
      <trkpt lat="46.23702" lon="6.39472">
        <ele>892</ele>
        <time>2020-08-05T12:06:31.000Z</time>
      </trkpt>
      <trkpt lat="46.23719" lon="6.39467">
        <ele>892.79998779297</ele>
        <time>2020-08-05T12:06:37.000Z</time>
      </trkpt>
      <trkpt lat="46.23743" lon="6.3946">
        <ele>893.40002441406</ele>
        <time>2020-08-05T12:06:46.000Z</time>
      </trkpt>
      <trkpt lat="46.23766" lon="6.39454">
        <ele>894</ele>
        <time>2020-08-05T12:06:54.000Z</time>
      </trkpt>
      <trkpt lat="46.2379" lon="6.39448">
        <ele>895.20001220703</ele>
        <time>2020-08-05T12:07:03.000Z</time>
      </trkpt>
      <trkpt lat="46.23811" lon="6.39442">
        <ele>897</ele>
        <time>2020-08-05T12:07:11.000Z</time>
      </trkpt>
      <trkpt lat="46.2383" lon="6.39438">
        <ele>896.59997558594</ele>
        <time>2020-08-05T12:07:18.000Z</time>
      </trkpt>
      <trkpt lat="46.23851" lon="6.39441">
        <ele>896.59997558594</ele>
        <time>2020-08-05T12:07:25.000Z</time>
      </trkpt>
      <trkpt lat="46.2387" lon="6.39451">
        <ele>897.59997558594</ele>
        <time>2020-08-05T12:07:32.000Z</time>
      </trkpt>
      <trkpt lat="46.23894" lon="6.39471">
        <ele>899.59997558594</ele>
        <time>2020-08-05T12:07:41.000Z</time>
      </trkpt>
      <trkpt lat="46.23917" lon="6.39491">
        <ele>900.20001220703</ele>
        <time>2020-08-05T12:07:50.000Z</time>
      </trkpt>
      <trkpt lat="46.23935" lon="6.39513">
        <ele>901.59997558594</ele>
        <time>2020-08-05T12:07:58.000Z</time>
      </trkpt>
      <trkpt lat="46.23942" lon="6.39536">
        <ele>904.59997558594</ele>
        <time>2020-08-05T12:08:04.000Z</time>
      </trkpt>
      <trkpt lat="46.23951" lon="6.39563">
        <ele>908.20001220703</ele>
        <time>2020-08-05T12:08:11.000Z</time>
      </trkpt>
      <trkpt lat="46.23958" lon="6.39582">
        <ele>910.59997558594</ele>
        <time>2020-08-05T12:08:17.000Z</time>
      </trkpt>
      <trkpt lat="46.23969" lon="6.39599">
        <ele>912.20001220703</ele>
        <time>2020-08-05T12:08:23.000Z</time>
      </trkpt>
      <trkpt lat="46.23987" lon="6.39605">
        <ele>911.59997558594</ele>
        <time>2020-08-05T12:08:29.000Z</time>
      </trkpt>
      <trkpt lat="46.24016" lon="6.39615">
        <ele>911.40002441406</ele>
        <time>2020-08-05T12:08:38.000Z</time>
      </trkpt>
      <trkpt lat="46.24049" lon="6.39626">
        <ele>911.40002441406</ele>
        <time>2020-08-05T12:08:49.000Z</time>
      </trkpt>
      <trkpt lat="46.24069" lon="6.39633">
        <ele>912</ele>
        <time>2020-08-05T12:08:56.000Z</time>
      </trkpt>
      <trkpt lat="46.24096" lon="6.39642">
        <ele>913.20001220703</ele>
        <time>2020-08-05T12:09:06.000Z</time>
      </trkpt>
      <trkpt lat="46.24115" lon="6.39649">
        <ele>914.20001220703</ele>
        <time>2020-08-05T12:09:13.000Z</time>
      </trkpt>
      <trkpt lat="46.24135" lon="6.39655">
        <ele>915.20001220703</ele>
        <time>2020-08-05T12:09:20.000Z</time>
      </trkpt>
      <trkpt lat="46.24167" lon="6.39667">
        <ele>917.79998779297</ele>
        <time>2020-08-05T12:09:31.000Z</time>
      </trkpt>
      <trkpt lat="46.24188" lon="6.39678">
        <ele>920.40002441406</ele>
        <time>2020-08-05T12:09:39.000Z</time>
      </trkpt>
      <trkpt lat="46.24208" lon="6.3969">
        <ele>923</ele>
        <time>2020-08-05T12:09:47.000Z</time>
      </trkpt>
      <trkpt lat="46.24236" lon="6.39703">
        <ele>926.40002441406</ele>
        <time>2020-08-05T12:09:56.000Z</time>
      </trkpt>
      <trkpt lat="46.24254" lon="6.39696">
        <ele>927</ele>
        <time>2020-08-05T12:10:02.000Z</time>
      </trkpt>
      <trkpt lat="46.24271" lon="6.39679">
        <ele>926</ele>
        <time>2020-08-05T12:10:09.000Z</time>
      </trkpt>
      <trkpt lat="46.24289" lon="6.39663">
        <ele>926.40002441406</ele>
        <time>2020-08-05T12:10:16.000Z</time>
      </trkpt>
      <trkpt lat="46.24307" lon="6.39659">
        <ele>928.59997558594</ele>
        <time>2020-08-05T12:10:22.000Z</time>
      </trkpt>
      <trkpt lat="46.24327" lon="6.3966">
        <ele>930.59997558594</ele>
        <time>2020-08-05T12:10:29.000Z</time>
      </trkpt>
      <trkpt lat="46.24338" lon="6.39662">
        <ele>931.40002441406</ele>
        <time>2020-08-05T12:10:33.000Z</time>
      </trkpt>
      <trkpt lat="46.24352" lon="6.39664">
        <ele>932.40002441406</ele>
        <time>2020-08-05T12:10:38.000Z</time>
      </trkpt>
      <trkpt lat="46.24371" lon="6.39668">
        <ele>933.79998779297</ele>
        <time>2020-08-05T12:10:45.000Z</time>
      </trkpt>
      <trkpt lat="46.24392" lon="6.39672">
        <ele>935.40002441406</ele>
        <time>2020-08-05T12:10:52.000Z</time>
      </trkpt>
      <trkpt lat="46.24419" lon="6.39676">
        <ele>935.20001220703</ele>
        <time>2020-08-05T12:11:00.000Z</time>
      </trkpt>
      <trkpt lat="46.24444" lon="6.39681">
        <ele>935.79998779297</ele>
        <time>2020-08-05T12:11:08.000Z</time>
      </trkpt>
      <trkpt lat="46.24473" lon="6.39688">
        <ele>937.20001220703</ele>
        <time>2020-08-05T12:11:17.000Z</time>
      </trkpt>
      <trkpt lat="46.24502" lon="6.39697">
        <ele>938.40002441406</ele>
        <time>2020-08-05T12:11:26.000Z</time>
      </trkpt>
      <trkpt lat="46.24533" lon="6.39707">
        <ele>939.59997558594</ele>
        <time>2020-08-05T12:11:35.000Z</time>
      </trkpt>
      <trkpt lat="46.24558" lon="6.39714">
        <ele>941.59997558594</ele>
        <time>2020-08-05T12:11:43.000Z</time>
      </trkpt>
      <trkpt lat="46.24578" lon="6.3972">
        <ele>942.59997558594</ele>
        <time>2020-08-05T12:11:49.000Z</time>
      </trkpt>
      <trkpt lat="46.2461" lon="6.39729">
        <ele>943.79998779297</ele>
        <time>2020-08-05T12:11:58.000Z</time>
      </trkpt>
      <trkpt lat="46.2464" lon="6.39737">
        <ele>945.20001220703</ele>
        <time>2020-08-05T12:12:07.000Z</time>
      </trkpt>
      <trkpt lat="46.24665" lon="6.39745">
        <ele>945.59997558594</ele>
        <time>2020-08-05T12:12:15.000Z</time>
      </trkpt>
      <trkpt lat="46.24707" lon="6.39756">
        <ele>946.59997558594</ele>
        <time>2020-08-05T12:12:27.000Z</time>
      </trkpt>
      <trkpt lat="46.24736" lon="6.39764">
        <ele>946.79998779297</ele>
        <time>2020-08-05T12:12:35.000Z</time>
      </trkpt>
      <trkpt lat="46.24758" lon="6.3977">
        <ele>946</ele>
        <time>2020-08-05T12:12:42.000Z</time>
      </trkpt>
      <trkpt lat="46.24778" lon="6.39779">
        <ele>945.59997558594</ele>
        <time>2020-08-05T12:12:49.000Z</time>
      </trkpt>
      <trkpt lat="46.24794" lon="6.3979">
        <ele>945.59997558594</ele>
        <time>2020-08-05T12:12:56.000Z</time>
      </trkpt>
      <trkpt lat="46.24799" lon="6.39793">
        <ele>945.59997558594</ele>
        <time>2020-08-05T12:13:00.000Z</time>
      </trkpt>
      <trkpt lat="46.24799" lon="6.39793">
        <ele>945.59997558594</ele>
        <time>2020-08-05T12:15:05.000Z</time>
      </trkpt>
      <trkpt lat="46.24813" lon="6.39802">
        <ele>945.59997558594</ele>
        <time>2020-08-05T12:15:10.000Z</time>
      </trkpt>
      <trkpt lat="46.24834" lon="6.39817">
        <ele>944.59997558594</ele>
        <time>2020-08-05T12:15:17.000Z</time>
      </trkpt>
      <trkpt lat="46.24867" lon="6.39839">
        <ele>945.20001220703</ele>
        <time>2020-08-05T12:15:25.000Z</time>
      </trkpt>
      <trkpt lat="46.24907" lon="6.39866">
        <ele>944.79998779297</ele>
        <time>2020-08-05T12:15:34.000Z</time>
      </trkpt>
      <trkpt lat="46.24917" lon="6.39882">
        <ele>944.59997558594</ele>
        <time>2020-08-05T12:15:37.000Z</time>
      </trkpt>
      <trkpt lat="46.24924" lon="6.39893">
        <ele>944.59997558594</ele>
        <time>2020-08-05T12:15:39.000Z</time>
      </trkpt>
      <trkpt lat="46.24931" lon="6.39905">
        <ele>944.40002441406</ele>
        <time>2020-08-05T12:15:41.000Z</time>
      </trkpt>
      <trkpt lat="46.24938" lon="6.39917">
        <ele>944.20001220703</ele>
        <time>2020-08-05T12:15:43.000Z</time>
      </trkpt>
      <trkpt lat="46.24941" lon="6.39923">
        <ele>944</ele>
        <time>2020-08-05T12:15:44.000Z</time>
      </trkpt>
      <trkpt lat="46.24963" lon="6.3996">
        <ele>943</ele>
        <time>2020-08-05T12:15:50.000Z</time>
      </trkpt>
      <trkpt lat="46.24966" lon="6.39966">
        <ele>942.79998779297</ele>
        <time>2020-08-05T12:15:51.000Z</time>
      </trkpt>
      <trkpt lat="46.2498" lon="6.39979">
        <ele>941.79998779297</ele>
        <time>2020-08-05T12:15:54.000Z</time>
      </trkpt>
      <trkpt lat="46.25005" lon="6.40002">
        <ele>940.79998779297</ele>
        <time>2020-08-05T12:15:58.000Z</time>
      </trkpt>
      <trkpt lat="46.25038" lon="6.4003">
        <ele>939.20001220703</ele>
        <time>2020-08-05T12:16:02.000Z</time>
      </trkpt>
      <trkpt lat="46.2508" lon="6.40058">
        <ele>935.79998779297</ele>
        <time>2020-08-05T12:16:07.000Z</time>
      </trkpt>
      <trkpt lat="46.25137" lon="6.40093">
        <ele>930.79998779297</ele>
        <time>2020-08-05T12:16:14.000Z</time>
      </trkpt>
      <trkpt lat="46.2518" lon="6.40135">
        <ele>928.40002441406</ele>
        <time>2020-08-05T12:16:20.000Z</time>
      </trkpt>
      <trkpt lat="46.25215" lon="6.40187">
        <ele>927.40002441406</ele>
        <time>2020-08-05T12:16:26.000Z</time>
      </trkpt>
      <trkpt lat="46.25237" lon="6.40222">
        <ele>926.79998779297</ele>
        <time>2020-08-05T12:16:30.000Z</time>
      </trkpt>
      <trkpt lat="46.25265" lon="6.40267">
        <ele>926.79998779297</ele>
        <time>2020-08-05T12:16:35.000Z</time>
      </trkpt>
      <trkpt lat="46.25311" lon="6.40327">
        <ele>925.40002441406</ele>
        <time>2020-08-05T12:16:42.000Z</time>
      </trkpt>
      <trkpt lat="46.25351" lon="6.40381">
        <ele>921.59997558594</ele>
        <time>2020-08-05T12:16:48.000Z</time>
      </trkpt>
      <trkpt lat="46.25355" lon="6.40392">
        <ele>921.79998779297</ele>
        <time>2020-08-05T12:16:49.000Z</time>
      </trkpt>
      <trkpt lat="46.25363" lon="6.40415">
        <ele>921.20001220703</ele>
        <time>2020-08-05T12:16:51.000Z</time>
      </trkpt>
      <trkpt lat="46.25368" lon="6.40426">
        <ele>920.79998779297</ele>
        <time>2020-08-05T12:16:52.000Z</time>
      </trkpt>
      <trkpt lat="46.25384" lon="6.40471">
        <ele>919</ele>
        <time>2020-08-05T12:16:56.000Z</time>
      </trkpt>
      <trkpt lat="46.25393" lon="6.40496">
        <ele>919.20001220703</ele>
        <time>2020-08-05T12:16:59.000Z</time>
      </trkpt>
      <trkpt lat="46.25398" lon="6.40502">
        <ele>919.20001220703</ele>
        <time>2020-08-05T12:17:00.000Z</time>
      </trkpt>
      <trkpt lat="46.25406" lon="6.40507">
        <ele>918.59997558594</ele>
        <time>2020-08-05T12:17:02.000Z</time>
      </trkpt>
      <trkpt lat="46.25418" lon="6.40506">
        <ele>916.40002441406</ele>
        <time>2020-08-05T12:17:04.000Z</time>
      </trkpt>
      <trkpt lat="46.25424" lon="6.40506">
        <ele>915.59997558594</ele>
        <time>2020-08-05T12:17:05.000Z</time>
      </trkpt>
      <trkpt lat="46.25428" lon="6.40499">
        <ele>914.59997558594</ele>
        <time>2020-08-05T12:17:06.000Z</time>
      </trkpt>
      <trkpt lat="46.25433" lon="6.40482">
        <ele>912.59997558594</ele>
        <time>2020-08-05T12:17:08.000Z</time>
      </trkpt>
      <trkpt lat="46.25428" lon="6.40465">
        <ele>912.59997558594</ele>
        <time>2020-08-05T12:17:10.000Z</time>
      </trkpt>
      <trkpt lat="46.25406" lon="6.40419">
        <ele>913.59997558594</ele>
        <time>2020-08-05T12:17:15.000Z</time>
      </trkpt>
      <trkpt lat="46.25384" lon="6.40372">
        <ele>914.40002441406</ele>
        <time>2020-08-05T12:17:20.000Z</time>
      </trkpt>
      <trkpt lat="46.2538" lon="6.40361">
        <ele>914.20001220703</ele>
        <time>2020-08-05T12:17:21.000Z</time>
      </trkpt>
      <trkpt lat="46.2538" lon="6.4035">
        <ele>913.59997558594</ele>
        <time>2020-08-05T12:17:22.000Z</time>
      </trkpt>
      <trkpt lat="46.25379" lon="6.40326">
        <ele>912</ele>
        <time>2020-08-05T12:17:24.000Z</time>
      </trkpt>
      <trkpt lat="46.25379" lon="6.40293">
        <ele>909</ele>
        <time>2020-08-05T12:17:27.000Z</time>
      </trkpt>
      <trkpt lat="46.25378" lon="6.40282">
        <ele>908</ele>
        <time>2020-08-05T12:17:28.000Z</time>
      </trkpt>
      <trkpt lat="46.25373" lon="6.40274">
        <ele>908</ele>
        <time>2020-08-05T12:17:29.000Z</time>
      </trkpt>
      <trkpt lat="46.25365" lon="6.40259">
        <ele>907.79998779297</ele>
        <time>2020-08-05T12:17:31.000Z</time>
      </trkpt>
      <trkpt lat="46.25357" lon="6.40244">
        <ele>907.79998779297</ele>
        <time>2020-08-05T12:17:33.000Z</time>
      </trkpt>
      <trkpt lat="46.25351" lon="6.40229">
        <ele>907.20001220703</ele>
        <time>2020-08-05T12:17:35.000Z</time>
      </trkpt>
      <trkpt lat="46.25339" lon="6.40192">
        <ele>904.20001220703</ele>
        <time>2020-08-05T12:17:39.000Z</time>
      </trkpt>
      <trkpt lat="46.25326" lon="6.40153">
        <ele>900.40002441406</ele>
        <time>2020-08-05T12:17:43.000Z</time>
      </trkpt>
      <trkpt lat="46.2532" lon="6.40134">
        <ele>901</ele>
        <time>2020-08-05T12:17:45.000Z</time>
      </trkpt>
      <trkpt lat="46.25317" lon="6.40125">
        <ele>901.59997558594</ele>
        <time>2020-08-05T12:17:46.000Z</time>
      </trkpt>
      <trkpt lat="46.25316" lon="6.40113">
        <ele>901.59997558594</ele>
        <time>2020-08-05T12:17:47.000Z</time>
      </trkpt>
      <trkpt lat="46.2532" lon="6.40089">
        <ele>900.40002441406</ele>
        <time>2020-08-05T12:17:49.000Z</time>
      </trkpt>
      <trkpt lat="46.25334" lon="6.40064">
        <ele>891</ele>
        <time>2020-08-05T12:17:52.000Z</time>
      </trkpt>
      <trkpt lat="46.25339" lon="6.40055">
        <ele>888.20001220703</ele>
        <time>2020-08-05T12:17:53.000Z</time>
      </trkpt>
      <trkpt lat="46.25342" lon="6.40046">
        <ele>886.59997558594</ele>
        <time>2020-08-05T12:17:54.000Z</time>
      </trkpt>
      <trkpt lat="46.25337" lon="6.40023">
        <ele>888.59997558594</ele>
        <time>2020-08-05T12:17:56.000Z</time>
      </trkpt>
      <trkpt lat="46.25332" lon="6.39999">
        <ele>890.40002441406</ele>
        <time>2020-08-05T12:17:58.000Z</time>
      </trkpt>
      <trkpt lat="46.25332" lon="6.39976">
        <ele>889</ele>
        <time>2020-08-05T12:18:00.000Z</time>
      </trkpt>
      <trkpt lat="46.25332" lon="6.3994">
        <ele>890.20001220703</ele>
        <time>2020-08-05T12:18:03.000Z</time>
      </trkpt>
      <trkpt lat="46.25338" lon="6.39918">
        <ele>887.79998779297</ele>
        <time>2020-08-05T12:18:05.000Z</time>
      </trkpt>
      <trkpt lat="46.25343" lon="6.39897">
        <ele>884.79998779297</ele>
        <time>2020-08-05T12:18:07.000Z</time>
      </trkpt>
      <trkpt lat="46.25347" lon="6.39865">
        <ele>882.59997558594</ele>
        <time>2020-08-05T12:18:10.000Z</time>
      </trkpt>
      <trkpt lat="46.25345" lon="6.39844">
        <ele>883.40002441406</ele>
        <time>2020-08-05T12:18:12.000Z</time>
      </trkpt>
      <trkpt lat="46.25343" lon="6.39831">
        <ele>884.40002441406</ele>
        <time>2020-08-05T12:18:13.000Z</time>
      </trkpt>
      <trkpt lat="46.2534" lon="6.39806">
        <ele>885.59997558594</ele>
        <time>2020-08-05T12:18:15.000Z</time>
      </trkpt>
      <trkpt lat="46.25336" lon="6.39783">
        <ele>884.59997558594</ele>
        <time>2020-08-05T12:18:17.000Z</time>
      </trkpt>
      <trkpt lat="46.2533" lon="6.39744">
        <ele>883.59997558594</ele>
        <time>2020-08-05T12:18:20.000Z</time>
      </trkpt>
      <trkpt lat="46.25322" lon="6.3972">
        <ele>885.20001220703</ele>
        <time>2020-08-05T12:18:22.000Z</time>
      </trkpt>
      <trkpt lat="46.25317" lon="6.39711">
        <ele>886.59997558594</ele>
        <time>2020-08-05T12:18:23.000Z</time>
      </trkpt>
      <trkpt lat="46.25306" lon="6.39692">
        <ele>889</ele>
        <time>2020-08-05T12:18:25.000Z</time>
      </trkpt>
      <trkpt lat="46.253" lon="6.39681">
        <ele>890.20001220703</ele>
        <time>2020-08-05T12:18:26.000Z</time>
      </trkpt>
      <trkpt lat="46.2527" lon="6.39633">
        <ele>894.59997558594</ele>
        <time>2020-08-05T12:18:31.000Z</time>
      </trkpt>
      <trkpt lat="46.25238" lon="6.39592">
        <ele>896.59997558594</ele>
        <time>2020-08-05T12:18:36.000Z</time>
      </trkpt>
      <trkpt lat="46.25229" lon="6.39572">
        <ele>894.20001220703</ele>
        <time>2020-08-05T12:18:38.000Z</time>
      </trkpt>
      <trkpt lat="46.25227" lon="6.3956">
        <ele>892.59997558594</ele>
        <time>2020-08-05T12:18:39.000Z</time>
      </trkpt>
      <trkpt lat="46.25228" lon="6.39549">
        <ele>890.79998779297</ele>
        <time>2020-08-05T12:18:40.000Z</time>
      </trkpt>
      <trkpt lat="46.2523" lon="6.39527">
        <ele>887.79998779297</ele>
        <time>2020-08-05T12:18:42.000Z</time>
      </trkpt>
      <trkpt lat="46.25231" lon="6.39507">
        <ele>885.20001220703</ele>
        <time>2020-08-05T12:18:44.000Z</time>
      </trkpt>
      <trkpt lat="46.25234" lon="6.39472">
        <ele>880.59997558594</ele>
        <time>2020-08-05T12:18:47.000Z</time>
      </trkpt>
      <trkpt lat="46.2523" lon="6.39413">
        <ele>878.59997558594</ele>
        <time>2020-08-05T12:18:52.000Z</time>
      </trkpt>
      <trkpt lat="46.25225" lon="6.39373">
        <ele>879.20001220703</ele>
        <time>2020-08-05T12:18:55.000Z</time>
      </trkpt>
      <trkpt lat="46.25227" lon="6.3936">
        <ele>878.40002441406</ele>
        <time>2020-08-05T12:18:56.000Z</time>
      </trkpt>
      <trkpt lat="46.25228" lon="6.39347">
        <ele>877.79998779297</ele>
        <time>2020-08-05T12:18:57.000Z</time>
      </trkpt>
      <trkpt lat="46.25231" lon="6.39321">
        <ele>876.40002441406</ele>
        <time>2020-08-05T12:18:59.000Z</time>
      </trkpt>
      <trkpt lat="46.25235" lon="6.39284">
        <ele>874.40002441406</ele>
        <time>2020-08-05T12:19:02.000Z</time>
      </trkpt>
      <trkpt lat="46.25236" lon="6.39271">
        <ele>873.79998779297</ele>
        <time>2020-08-05T12:19:03.000Z</time>
      </trkpt>
      <trkpt lat="46.25237" lon="6.39248">
        <ele>873.40002441406</ele>
        <time>2020-08-05T12:19:05.000Z</time>
      </trkpt>
      <trkpt lat="46.25235" lon="6.39224">
        <ele>874</ele>
        <time>2020-08-05T12:19:07.000Z</time>
      </trkpt>
      <trkpt lat="46.25233" lon="6.39211">
        <ele>874.40002441406</ele>
        <time>2020-08-05T12:19:08.000Z</time>
      </trkpt>
      <trkpt lat="46.2523" lon="6.39172">
        <ele>875.40002441406</ele>
        <time>2020-08-05T12:19:11.000Z</time>
      </trkpt>
      <trkpt lat="46.25228" lon="6.39159">
        <ele>875.59997558594</ele>
        <time>2020-08-05T12:19:12.000Z</time>
      </trkpt>
      <trkpt lat="46.25233" lon="6.39136">
        <ele>873.59997558594</ele>
        <time>2020-08-05T12:19:14.000Z</time>
      </trkpt>
      <trkpt lat="46.25244" lon="6.39085">
        <ele>869</ele>
        <time>2020-08-05T12:19:18.000Z</time>
      </trkpt>
      <trkpt lat="46.25247" lon="6.39072">
        <ele>868.40002441406</ele>
        <time>2020-08-05T12:19:19.000Z</time>
      </trkpt>
      <trkpt lat="46.25247" lon="6.39047">
        <ele>866.79998779297</ele>
        <time>2020-08-05T12:19:21.000Z</time>
      </trkpt>
      <trkpt lat="46.25239" lon="6.38994">
        <ele>864.40002441406</ele>
        <time>2020-08-05T12:19:25.000Z</time>
      </trkpt>
      <trkpt lat="46.25222" lon="6.38945">
        <ele>860.79998779297</ele>
        <time>2020-08-05T12:19:29.000Z</time>
      </trkpt>
      <trkpt lat="46.25217" lon="6.38934">
        <ele>860.20001220703</ele>
        <time>2020-08-05T12:19:30.000Z</time>
      </trkpt>
      <trkpt lat="46.25213" lon="6.38922">
        <ele>859.79998779297</ele>
        <time>2020-08-05T12:19:31.000Z</time>
      </trkpt>
      <trkpt lat="46.25205" lon="6.38902">
        <ele>858.59997558594</ele>
        <time>2020-08-05T12:19:33.000Z</time>
      </trkpt>
      <trkpt lat="46.25188" lon="6.3886">
        <ele>855.20001220703</ele>
        <time>2020-08-05T12:19:37.000Z</time>
      </trkpt>
      <trkpt lat="46.25173" lon="6.38826">
        <ele>852.40002441406</ele>
        <time>2020-08-05T12:19:40.000Z</time>
      </trkpt>
      <trkpt lat="46.25168" lon="6.38816">
        <ele>852.20001220703</ele>
        <time>2020-08-05T12:19:41.000Z</time>
      </trkpt>
      <trkpt lat="46.25133" lon="6.38755">
        <ele>850.20001220703</ele>
        <time>2020-08-05T12:19:47.000Z</time>
      </trkpt>
      <trkpt lat="46.25127" lon="6.38744">
        <ele>850</ele>
        <time>2020-08-05T12:19:48.000Z</time>
      </trkpt>
      <trkpt lat="46.25091" lon="6.38681">
        <ele>849.40002441406</ele>
        <time>2020-08-05T12:19:54.000Z</time>
      </trkpt>
      <trkpt lat="46.25079" lon="6.38659">
        <ele>849.40002441406</ele>
        <time>2020-08-05T12:19:56.000Z</time>
      </trkpt>
      <trkpt lat="46.25066" lon="6.38624">
        <ele>844.79998779297</ele>
        <time>2020-08-05T12:19:59.000Z</time>
      </trkpt>
      <trkpt lat="46.25047" lon="6.38571">
        <ele>838.79998779297</ele>
        <time>2020-08-05T12:20:04.000Z</time>
      </trkpt>
      <trkpt lat="46.25029" lon="6.38522">
        <ele>834.79998779297</ele>
        <time>2020-08-05T12:20:08.000Z</time>
      </trkpt>
      <trkpt lat="46.25023" lon="6.38511">
        <ele>835.59997558594</ele>
        <time>2020-08-05T12:20:09.000Z</time>
      </trkpt>
      <trkpt lat="46.25009" lon="6.38492">
        <ele>839</ele>
        <time>2020-08-05T12:20:11.000Z</time>
      </trkpt>
      <trkpt lat="46.24976" lon="6.38471">
        <ele>850</ele>
        <time>2020-08-05T12:20:15.000Z</time>
      </trkpt>
      <trkpt lat="46.24962" lon="6.38458">
        <ele>851</ele>
        <time>2020-08-05T12:20:17.000Z</time>
      </trkpt>
      <trkpt lat="46.24949" lon="6.38441">
        <ele>850.40002441406</ele>
        <time>2020-08-05T12:20:19.000Z</time>
      </trkpt>
      <trkpt lat="46.24944" lon="6.38418">
        <ele>845</ele>
        <time>2020-08-05T12:20:21.000Z</time>
      </trkpt>
      <trkpt lat="46.24942" lon="6.38407">
        <ele>842.59997558594</ele>
        <time>2020-08-05T12:20:22.000Z</time>
      </trkpt>
      <trkpt lat="46.2494" lon="6.38395">
        <ele>840.40002441406</ele>
        <time>2020-08-05T12:20:23.000Z</time>
      </trkpt>
      <trkpt lat="46.24933" lon="6.38373">
        <ele>839.20001220703</ele>
        <time>2020-08-05T12:20:25.000Z</time>
      </trkpt>
      <trkpt lat="46.24916" lon="6.38326">
        <ele>837.20001220703</ele>
        <time>2020-08-05T12:20:29.000Z</time>
      </trkpt>
      <trkpt lat="46.24904" lon="6.38291">
        <ele>834.59997558594</ele>
        <time>2020-08-05T12:20:32.000Z</time>
      </trkpt>
      <trkpt lat="46.24881" lon="6.38234">
        <ele>832.20001220703</ele>
        <time>2020-08-05T12:20:37.000Z</time>
      </trkpt>
      <trkpt lat="46.24875" lon="6.38224">
        <ele>833</ele>
        <time>2020-08-05T12:20:38.000Z</time>
      </trkpt>
      <trkpt lat="46.24868" lon="6.38214">
        <ele>834.20001220703</ele>
        <time>2020-08-05T12:20:39.000Z</time>
      </trkpt>
      <trkpt lat="46.24859" lon="6.38197">
        <ele>835.20001220703</ele>
        <time>2020-08-05T12:20:41.000Z</time>
      </trkpt>
      <trkpt lat="46.24852" lon="6.38182">
        <ele>836</ele>
        <time>2020-08-05T12:20:43.000Z</time>
      </trkpt>
      <trkpt lat="46.24853" lon="6.38165">
        <ele>833.79998779297</ele>
        <time>2020-08-05T12:20:45.000Z</time>
      </trkpt>
      <trkpt lat="46.24855" lon="6.38155">
        <ele>831.79998779297</ele>
        <time>2020-08-05T12:20:46.000Z</time>
      </trkpt>
      <trkpt lat="46.24857" lon="6.38145">
        <ele>829.79998779297</ele>
        <time>2020-08-05T12:20:47.000Z</time>
      </trkpt>
      <trkpt lat="46.24861" lon="6.38123">
        <ele>825.20001220703</ele>
        <time>2020-08-05T12:20:49.000Z</time>
      </trkpt>
      <trkpt lat="46.2486" lon="6.38112">
        <ele>824</ele>
        <time>2020-08-05T12:20:50.000Z</time>
      </trkpt>
      <trkpt lat="46.24858" lon="6.38102">
        <ele>823.20001220703</ele>
        <time>2020-08-05T12:20:51.000Z</time>
      </trkpt>
      <trkpt lat="46.24855" lon="6.38076">
        <ele>821.79998779297</ele>
        <time>2020-08-05T12:20:53.000Z</time>
      </trkpt>
      <trkpt lat="46.24843" lon="6.38059">
        <ele>823</ele>
        <time>2020-08-05T12:20:55.000Z</time>
      </trkpt>
      <trkpt lat="46.24829" lon="6.3804">
        <ele>822.40002441406</ele>
        <time>2020-08-05T12:20:57.000Z</time>
      </trkpt>
      <trkpt lat="46.24816" lon="6.38022">
        <ele>821.59997558594</ele>
        <time>2020-08-05T12:20:59.000Z</time>
      </trkpt>
      <trkpt lat="46.24803" lon="6.38004">
        <ele>821.40002441406</ele>
        <time>2020-08-05T12:21:01.000Z</time>
      </trkpt>
      <trkpt lat="46.24791" lon="6.37986">
        <ele>820.79998779297</ele>
        <time>2020-08-05T12:21:03.000Z</time>
      </trkpt>
      <trkpt lat="46.24789" lon="6.37973">
        <ele>818.79998779297</ele>
        <time>2020-08-05T12:21:04.000Z</time>
      </trkpt>
      <trkpt lat="46.24787" lon="6.3796">
        <ele>817.59997558594</ele>
        <time>2020-08-05T12:21:05.000Z</time>
      </trkpt>
      <trkpt lat="46.24783" lon="6.37937">
        <ele>815.40002441406</ele>
        <time>2020-08-05T12:21:07.000Z</time>
      </trkpt>
      <trkpt lat="46.2478" lon="6.37915">
        <ele>813.59997558594</ele>
        <time>2020-08-05T12:21:09.000Z</time>
      </trkpt>
      <trkpt lat="46.24778" lon="6.37903">
        <ele>812.40002441406</ele>
        <time>2020-08-05T12:21:10.000Z</time>
      </trkpt>
      <trkpt lat="46.24773" lon="6.37882">
        <ele>811.59997558594</ele>
        <time>2020-08-05T12:21:12.000Z</time>
      </trkpt>
      <trkpt lat="46.2477" lon="6.37872">
        <ele>811.59997558594</ele>
        <time>2020-08-05T12:21:13.000Z</time>
      </trkpt>
      <trkpt lat="46.24764" lon="6.37862">
        <ele>812.20001220703</ele>
        <time>2020-08-05T12:21:14.000Z</time>
      </trkpt>
      <trkpt lat="46.24752" lon="6.37845">
        <ele>814.40002441406</ele>
        <time>2020-08-05T12:21:16.000Z</time>
      </trkpt>
      <trkpt lat="46.24747" lon="6.37837">
        <ele>815.40002441406</ele>
        <time>2020-08-05T12:21:17.000Z</time>
      </trkpt>
      <trkpt lat="46.24743" lon="6.37819">
        <ele>814.59997558594</ele>
        <time>2020-08-05T12:21:19.000Z</time>
      </trkpt>
      <trkpt lat="46.24746" lon="6.37798">
        <ele>813.20001220703</ele>
        <time>2020-08-05T12:21:21.000Z</time>
      </trkpt>
      <trkpt lat="46.2475" lon="6.3779">
        <ele>812</ele>
        <time>2020-08-05T12:21:22.000Z</time>
      </trkpt>
      <trkpt lat="46.24754" lon="6.37783">
        <ele>810.79998779297</ele>
        <time>2020-08-05T12:21:23.000Z</time>
      </trkpt>
      <trkpt lat="46.24761" lon="6.37768">
        <ele>808.59997558594</ele>
        <time>2020-08-05T12:21:25.000Z</time>
      </trkpt>
      <trkpt lat="46.24777" lon="6.37745">
        <ele>802.79998779297</ele>
        <time>2020-08-05T12:21:28.000Z</time>
      </trkpt>
      <trkpt lat="46.24783" lon="6.37737">
        <ele>800.59997558594</ele>
        <time>2020-08-05T12:21:29.000Z</time>
      </trkpt>
      <trkpt lat="46.24816" lon="6.37696">
        <ele>793.40002441406</ele>
        <time>2020-08-05T12:21:34.000Z</time>
      </trkpt>
      <trkpt lat="46.24826" lon="6.37675">
        <ele>792.79998779297</ele>
        <time>2020-08-05T12:21:36.000Z</time>
      </trkpt>
      <trkpt lat="46.24831" lon="6.37652">
        <ele>793.20001220703</ele>
        <time>2020-08-05T12:21:38.000Z</time>
      </trkpt>
      <trkpt lat="46.24841" lon="6.37582">
        <ele>789.40002441406</ele>
        <time>2020-08-05T12:21:44.000Z</time>
      </trkpt>
      <trkpt lat="46.24841" lon="6.37571">
        <ele>789.59997558594</ele>
        <time>2020-08-05T12:21:45.000Z</time>
      </trkpt>
      <trkpt lat="46.24839" lon="6.37549">
        <ele>789.59997558594</ele>
        <time>2020-08-05T12:21:47.000Z</time>
      </trkpt>
      <trkpt lat="46.2483" lon="6.37528">
        <ele>792</ele>
        <time>2020-08-05T12:21:49.000Z</time>
      </trkpt>
      <trkpt lat="46.24826" lon="6.37518">
        <ele>793</ele>
        <time>2020-08-05T12:21:50.000Z</time>
      </trkpt>
      <trkpt lat="46.24821" lon="6.37508">
        <ele>794.20001220703</ele>
        <time>2020-08-05T12:21:51.000Z</time>
      </trkpt>
      <trkpt lat="46.24812" lon="6.37488">
        <ele>796.40002441406</ele>
        <time>2020-08-05T12:21:53.000Z</time>
      </trkpt>
      <trkpt lat="46.24808" lon="6.37477">
        <ele>797.40002441406</ele>
        <time>2020-08-05T12:21:54.000Z</time>
      </trkpt>
      <trkpt lat="46.24806" lon="6.37466">
        <ele>796.59997558594</ele>
        <time>2020-08-05T12:21:55.000Z</time>
      </trkpt>
      <trkpt lat="46.24804" lon="6.37443">
        <ele>794.20001220703</ele>
        <time>2020-08-05T12:21:57.000Z</time>
      </trkpt>
      <trkpt lat="46.2481" lon="6.37407">
        <ele>786.20001220703</ele>
        <time>2020-08-05T12:22:00.000Z</time>
      </trkpt>
      <trkpt lat="46.24827" lon="6.37367">
        <ele>779.79998779297</ele>
        <time>2020-08-05T12:22:04.000Z</time>
      </trkpt>
      <trkpt lat="46.24834" lon="6.37348">
        <ele>777.59997558594</ele>
        <time>2020-08-05T12:22:06.000Z</time>
      </trkpt>
      <trkpt lat="46.24833" lon="6.37337">
        <ele>777.59997558594</ele>
        <time>2020-08-05T12:22:07.000Z</time>
      </trkpt>
      <trkpt lat="46.24832" lon="6.37325">
        <ele>777.59997558594</ele>
        <time>2020-08-05T12:22:08.000Z</time>
      </trkpt>
      <trkpt lat="46.24829" lon="6.373">
        <ele>778.40002441406</ele>
        <time>2020-08-05T12:22:10.000Z</time>
      </trkpt>
      <trkpt lat="46.24826" lon="6.37275">
        <ele>779.79998779297</ele>
        <time>2020-08-05T12:22:12.000Z</time>
      </trkpt>
      <trkpt lat="46.24827" lon="6.37254">
        <ele>780</ele>
        <time>2020-08-05T12:22:14.000Z</time>
      </trkpt>
      <trkpt lat="46.2483" lon="6.37245">
        <ele>780</ele>
        <time>2020-08-05T12:22:15.000Z</time>
      </trkpt>
      <trkpt lat="46.24836" lon="6.37226">
        <ele>782</ele>
        <time>2020-08-05T12:22:17.000Z</time>
      </trkpt>
      <trkpt lat="46.2485" lon="6.37216">
        <ele>782</ele>
        <time>2020-08-05T12:22:19.000Z</time>
      </trkpt>
      <trkpt lat="46.24856" lon="6.37217">
        <ele>781</ele>
        <time>2020-08-05T12:22:20.000Z</time>
      </trkpt>
      <trkpt lat="46.24863" lon="6.37217">
        <ele>780</ele>
        <time>2020-08-05T12:22:21.000Z</time>
      </trkpt>
      <trkpt lat="46.24886" lon="6.37228">
        <ele>774.79998779297</ele>
        <time>2020-08-05T12:22:24.000Z</time>
      </trkpt>
      <trkpt lat="46.24901" lon="6.37237">
        <ele>771.59997558594</ele>
        <time>2020-08-05T12:22:26.000Z</time>
      </trkpt>
      <trkpt lat="46.24919" lon="6.37237">
        <ele>768.40002441406</ele>
        <time>2020-08-05T12:22:28.000Z</time>
      </trkpt>
      <trkpt lat="46.24936" lon="6.37231">
        <ele>765.79998779297</ele>
        <time>2020-08-05T12:22:30.000Z</time>
      </trkpt>
      <trkpt lat="46.2495" lon="6.37215">
        <ele>765.20001220703</ele>
        <time>2020-08-05T12:22:32.000Z</time>
      </trkpt>
      <trkpt lat="46.24962" lon="6.37196">
        <ele>764</ele>
        <time>2020-08-05T12:22:34.000Z</time>
      </trkpt>
      <trkpt lat="46.24968" lon="6.37185">
        <ele>763</ele>
        <time>2020-08-05T12:22:35.000Z</time>
      </trkpt>
      <trkpt lat="46.24991" lon="6.37123">
        <ele>759.79998779297</ele>
        <time>2020-08-05T12:22:40.000Z</time>
      </trkpt>
      <trkpt lat="46.25017" lon="6.37047">
        <ele>757.59997558594</ele>
        <time>2020-08-05T12:22:46.000Z</time>
      </trkpt>
      <trkpt lat="46.25022" lon="6.37034">
        <ele>757.59997558594</ele>
        <time>2020-08-05T12:22:47.000Z</time>
      </trkpt>
      <trkpt lat="46.25026" lon="6.37021">
        <ele>757.40002441406</ele>
        <time>2020-08-05T12:22:48.000Z</time>
      </trkpt>
      <trkpt lat="46.25037" lon="6.36996">
        <ele>756.20001220703</ele>
        <time>2020-08-05T12:22:50.000Z</time>
      </trkpt>
      <trkpt lat="46.25051" lon="6.36976">
        <ele>753.79998779297</ele>
        <time>2020-08-05T12:22:52.000Z</time>
      </trkpt>
      <trkpt lat="46.25098" lon="6.36919">
        <ele>751.20001220703</ele>
        <time>2020-08-05T12:22:58.000Z</time>
      </trkpt>
      <trkpt lat="46.25136" lon="6.3687">
        <ele>748</ele>
        <time>2020-08-05T12:23:03.000Z</time>
      </trkpt>
      <trkpt lat="46.25142" lon="6.36858">
        <ele>747.20001220703</ele>
        <time>2020-08-05T12:23:04.000Z</time>
      </trkpt>
      <trkpt lat="46.25152" lon="6.36833">
        <ele>746.20001220703</ele>
        <time>2020-08-05T12:23:06.000Z</time>
      </trkpt>
      <trkpt lat="46.25158" lon="6.36803">
        <ele>746</ele>
        <time>2020-08-05T12:23:08.000Z</time>
      </trkpt>
      <trkpt lat="46.25159" lon="6.36789">
        <ele>746.20001220703</ele>
        <time>2020-08-05T12:23:09.000Z</time>
      </trkpt>
      <trkpt lat="46.25159" lon="6.36775">
        <ele>746.79998779297</ele>
        <time>2020-08-05T12:23:10.000Z</time>
      </trkpt>
      <trkpt lat="46.25159" lon="6.3675">
        <ele>747.79998779297</ele>
        <time>2020-08-05T12:23:12.000Z</time>
      </trkpt>
      <trkpt lat="46.25159" lon="6.36728">
        <ele>747.40002441406</ele>
        <time>2020-08-05T12:23:14.000Z</time>
      </trkpt>
      <trkpt lat="46.25165" lon="6.36708">
        <ele>745.79998779297</ele>
        <time>2020-08-05T12:23:16.000Z</time>
      </trkpt>
      <trkpt lat="46.25173" lon="6.36696">
        <ele>743.40002441406</ele>
        <time>2020-08-05T12:23:18.000Z</time>
      </trkpt>
      <trkpt lat="46.2518" lon="6.36691">
        <ele>741.59997558594</ele>
        <time>2020-08-05T12:23:19.000Z</time>
      </trkpt>
      <trkpt lat="46.25187" lon="6.36687">
        <ele>739.79998779297</ele>
        <time>2020-08-05T12:23:20.000Z</time>
      </trkpt>
      <trkpt lat="46.25195" lon="6.36691">
        <ele>737.79998779297</ele>
        <time>2020-08-05T12:23:21.000Z</time>
      </trkpt>
      <trkpt lat="46.25202" lon="6.36695">
        <ele>735.79998779297</ele>
        <time>2020-08-05T12:23:22.000Z</time>
      </trkpt>
      <trkpt lat="46.25214" lon="6.3671">
        <ele>732.79998779297</ele>
        <time>2020-08-05T12:23:24.000Z</time>
      </trkpt>
      <trkpt lat="46.2522" lon="6.36732">
        <ele>731.40002441406</ele>
        <time>2020-08-05T12:23:26.000Z</time>
      </trkpt>
      <trkpt lat="46.25221" lon="6.36745">
        <ele>731.59997558594</ele>
        <time>2020-08-05T12:23:27.000Z</time>
      </trkpt>
      <trkpt lat="46.25224" lon="6.36834">
        <ele>731.79998779297</ele>
        <time>2020-08-05T12:23:34.000Z</time>
      </trkpt>
      <trkpt lat="46.25227" lon="6.36916">
        <ele>729.59997558594</ele>
        <time>2020-08-05T12:23:40.000Z</time>
      </trkpt>
      <trkpt lat="46.25228" lon="6.36945">
        <ele>728</ele>
        <time>2020-08-05T12:23:42.000Z</time>
      </trkpt>
      <trkpt lat="46.25231" lon="6.37032">
        <ele>722.79998779297</ele>
        <time>2020-08-05T12:23:48.000Z</time>
      </trkpt>
      <trkpt lat="46.25231" lon="6.37047">
        <ele>721.79998779297</ele>
        <time>2020-08-05T12:23:49.000Z</time>
      </trkpt>
      <trkpt lat="46.25222" lon="6.37107">
        <ele>719.59997558594</ele>
        <time>2020-08-05T12:23:53.000Z</time>
      </trkpt>
      <trkpt lat="46.25202" lon="6.37193">
        <ele>717.20001220703</ele>
        <time>2020-08-05T12:23:59.000Z</time>
      </trkpt>
      <trkpt lat="46.25199" lon="6.37207">
        <ele>716.59997558594</ele>
        <time>2020-08-05T12:24:00.000Z</time>
      </trkpt>
      <trkpt lat="46.2518" lon="6.37285">
        <ele>713</ele>
        <time>2020-08-05T12:24:06.000Z</time>
      </trkpt>
      <trkpt lat="46.25174" lon="6.3731">
        <ele>712.20001220703</ele>
        <time>2020-08-05T12:24:08.000Z</time>
      </trkpt>
      <trkpt lat="46.25155" lon="6.37385">
        <ele>708.59997558594</ele>
        <time>2020-08-05T12:24:14.000Z</time>
      </trkpt>
      <trkpt lat="46.25146" lon="6.37423">
        <ele>707.79998779297</ele>
        <time>2020-08-05T12:24:17.000Z</time>
      </trkpt>
      <trkpt lat="46.25131" lon="6.37494">
        <ele>707.79998779297</ele>
        <time>2020-08-05T12:24:23.000Z</time>
      </trkpt>
      <trkpt lat="46.25129" lon="6.37505">
        <ele>707.79998779297</ele>
        <time>2020-08-05T12:24:24.000Z</time>
      </trkpt>
      <trkpt lat="46.2513" lon="6.37528">
        <ele>706.40002441406</ele>
        <time>2020-08-05T12:24:26.000Z</time>
      </trkpt>
      <trkpt lat="46.25135" lon="6.37602">
        <ele>703</ele>
        <time>2020-08-05T12:24:32.000Z</time>
      </trkpt>
      <trkpt lat="46.2514" lon="6.37665">
        <ele>701.79998779297</ele>
        <time>2020-08-05T12:24:37.000Z</time>
      </trkpt>
      <trkpt lat="46.25147" lon="6.37743">
        <ele>701.79998779297</ele>
        <time>2020-08-05T12:24:43.000Z</time>
      </trkpt>
      <trkpt lat="46.25152" lon="6.37769">
        <ele>700.40002441406</ele>
        <time>2020-08-05T12:24:45.000Z</time>
      </trkpt>
      <trkpt lat="46.25158" lon="6.37794">
        <ele>698.79998779297</ele>
        <time>2020-08-05T12:24:47.000Z</time>
      </trkpt>
      <trkpt lat="46.25178" lon="6.37855">
        <ele>694.20001220703</ele>
        <time>2020-08-05T12:24:52.000Z</time>
      </trkpt>
      <trkpt lat="46.25204" lon="6.37934">
        <ele>691.20001220703</ele>
        <time>2020-08-05T12:24:58.000Z</time>
      </trkpt>
      <trkpt lat="46.25213" lon="6.3796">
        <ele>691.40002441406</ele>
        <time>2020-08-05T12:25:00.000Z</time>
      </trkpt>
      <trkpt lat="46.2523" lon="6.38013">
        <ele>691.59997558594</ele>
        <time>2020-08-05T12:25:04.000Z</time>
      </trkpt>
      <trkpt lat="46.25243" lon="6.38071">
        <ele>692</ele>
        <time>2020-08-05T12:25:08.000Z</time>
      </trkpt>
      <trkpt lat="46.2524" lon="6.38115">
        <ele>691.59997558594</ele>
        <time>2020-08-05T12:25:11.000Z</time>
      </trkpt>
      <trkpt lat="46.25245" lon="6.38151">
        <ele>689.79998779297</ele>
        <time>2020-08-05T12:25:14.000Z</time>
      </trkpt>
      <trkpt lat="46.25249" lon="6.38162">
        <ele>689.59997558594</ele>
        <time>2020-08-05T12:25:15.000Z</time>
      </trkpt>
      <trkpt lat="46.25252" lon="6.38173">
        <ele>689.40002441406</ele>
        <time>2020-08-05T12:25:16.000Z</time>
      </trkpt>
      <trkpt lat="46.25264" lon="6.38189">
        <ele>688</ele>
        <time>2020-08-05T12:25:18.000Z</time>
      </trkpt>
      <trkpt lat="46.25307" lon="6.38234">
        <ele>681.40002441406</ele>
        <time>2020-08-05T12:25:23.000Z</time>
      </trkpt>
      <trkpt lat="46.25324" lon="6.38251">
        <ele>679</ele>
        <time>2020-08-05T12:25:25.000Z</time>
      </trkpt>
      <trkpt lat="46.25332" lon="6.3826">
        <ele>678</ele>
        <time>2020-08-05T12:25:26.000Z</time>
      </trkpt>
      <trkpt lat="46.25336" lon="6.38272">
        <ele>678.20001220703</ele>
        <time>2020-08-05T12:25:27.000Z</time>
      </trkpt>
      <trkpt lat="46.25344" lon="6.38298">
        <ele>678.40002441406</ele>
        <time>2020-08-05T12:25:29.000Z</time>
      </trkpt>
      <trkpt lat="46.25356" lon="6.38335">
        <ele>678.59997558594</ele>
        <time>2020-08-05T12:25:32.000Z</time>
      </trkpt>
      <trkpt lat="46.2536" lon="6.38347">
        <ele>678.40002441406</ele>
        <time>2020-08-05T12:25:33.000Z</time>
      </trkpt>
      <trkpt lat="46.25365" lon="6.38358">
        <ele>678</ele>
        <time>2020-08-05T12:25:34.000Z</time>
      </trkpt>
      <trkpt lat="46.25377" lon="6.3838">
        <ele>677</ele>
        <time>2020-08-05T12:25:36.000Z</time>
      </trkpt>
      <trkpt lat="46.25406" lon="6.38434">
        <ele>677.79998779297</ele>
        <time>2020-08-05T12:25:41.000Z</time>
      </trkpt>
      <trkpt lat="46.25431" lon="6.3848">
        <ele>678.59997558594</ele>
        <time>2020-08-05T12:25:45.000Z</time>
      </trkpt>
      <trkpt lat="46.25437" lon="6.38492">
        <ele>678</ele>
        <time>2020-08-05T12:25:46.000Z</time>
      </trkpt>
      <trkpt lat="46.25446" lon="6.38516">
        <ele>677.59997558594</ele>
        <time>2020-08-05T12:25:48.000Z</time>
      </trkpt>
      <trkpt lat="46.25475" lon="6.38586">
        <ele>676.20001220703</ele>
        <time>2020-08-05T12:25:54.000Z</time>
      </trkpt>
      <trkpt lat="46.25482" lon="6.38603">
        <ele>675.59997558594</ele>
        <time>2020-08-05T12:25:56.000Z</time>
      </trkpt>
      <trkpt lat="46.25487" lon="6.3861">
        <ele>675</ele>
        <time>2020-08-05T12:25:57.000Z</time>
      </trkpt>
      <trkpt lat="46.25491" lon="6.38613">
        <ele>674.20001220703</ele>
        <time>2020-08-05T12:25:58.000Z</time>
      </trkpt>
      <trkpt lat="46.25507" lon="6.38623">
        <ele>671.20001220703</ele>
        <time>2020-08-05T12:26:00.000Z</time>
      </trkpt>
      <trkpt lat="46.25527" lon="6.38609">
        <ele>664.79998779297</ele>
        <time>2020-08-05T12:26:02.000Z</time>
      </trkpt>
      <trkpt lat="46.25532" lon="6.38601">
        <ele>663</ele>
        <time>2020-08-05T12:26:03.000Z</time>
      </trkpt>
      <trkpt lat="46.25534" lon="6.38589">
        <ele>661.59997558594</ele>
        <time>2020-08-05T12:26:04.000Z</time>
      </trkpt>
      <trkpt lat="46.25536" lon="6.38569">
        <ele>659.59997558594</ele>
        <time>2020-08-05T12:26:06.000Z</time>
      </trkpt>
      <trkpt lat="46.25532" lon="6.38493">
        <ele>654.40002441406</ele>
        <time>2020-08-05T12:26:12.000Z</time>
      </trkpt>
      <trkpt lat="46.25527" lon="6.38408">
        <ele>651.59997558594</ele>
        <time>2020-08-05T12:26:18.000Z</time>
      </trkpt>
      <trkpt lat="46.25526" lon="6.38378">
        <ele>650.79998779297</ele>
        <time>2020-08-05T12:26:20.000Z</time>
      </trkpt>
      <trkpt lat="46.25521" lon="6.38291">
        <ele>648.20001220703</ele>
        <time>2020-08-05T12:26:26.000Z</time>
      </trkpt>
      <trkpt lat="46.2552" lon="6.38276">
        <ele>648</ele>
        <time>2020-08-05T12:26:27.000Z</time>
      </trkpt>
      <trkpt lat="46.25517" lon="6.38221">
        <ele>646.59997558594</ele>
        <time>2020-08-05T12:26:31.000Z</time>
      </trkpt>
      <trkpt lat="46.25515" lon="6.38179">
        <ele>646</ele>
        <time>2020-08-05T12:26:34.000Z</time>
      </trkpt>
      <trkpt lat="46.25518" lon="6.38151">
        <ele>644</ele>
        <time>2020-08-05T12:26:36.000Z</time>
      </trkpt>
      <trkpt lat="46.25533" lon="6.38098">
        <ele>640</ele>
        <time>2020-08-05T12:26:40.000Z</time>
      </trkpt>
      <trkpt lat="46.25566" lon="6.38032">
        <ele>636.59997558594</ele>
        <time>2020-08-05T12:26:46.000Z</time>
      </trkpt>
      <trkpt lat="46.256" lon="6.37965">
        <ele>632</ele>
        <time>2020-08-05T12:26:52.000Z</time>
      </trkpt>
      <trkpt lat="46.25605" lon="6.37953">
        <ele>631</ele>
        <time>2020-08-05T12:26:53.000Z</time>
      </trkpt>
      <trkpt lat="46.25639" lon="6.37884">
        <ele>627.59997558594</ele>
        <time>2020-08-05T12:26:59.000Z</time>
      </trkpt>
      <trkpt lat="46.2565" lon="6.37862">
        <ele>626.59997558594</ele>
        <time>2020-08-05T12:27:01.000Z</time>
      </trkpt>
      <trkpt lat="46.25683" lon="6.37796">
        <ele>623.59997558594</ele>
        <time>2020-08-05T12:27:07.000Z</time>
      </trkpt>
      <trkpt lat="46.25688" lon="6.37785">
        <ele>623.40002441406</ele>
        <time>2020-08-05T12:27:08.000Z</time>
      </trkpt>
      <trkpt lat="46.2572" lon="6.37721">
        <ele>619.79998779297</ele>
        <time>2020-08-05T12:27:14.000Z</time>
      </trkpt>
      <trkpt lat="46.25731" lon="6.37699">
        <ele>619</ele>
        <time>2020-08-05T12:27:16.000Z</time>
      </trkpt>
      <trkpt lat="46.25764" lon="6.37634">
        <ele>616.20001220703</ele>
        <time>2020-08-05T12:27:22.000Z</time>
      </trkpt>
      <trkpt lat="46.2578" lon="6.37601">
        <ele>615.40002441406</ele>
        <time>2020-08-05T12:27:25.000Z</time>
      </trkpt>
      <trkpt lat="46.25813" lon="6.37535">
        <ele>614.59997558594</ele>
        <time>2020-08-05T12:27:31.000Z</time>
      </trkpt>
      <trkpt lat="46.25824" lon="6.37513">
        <ele>615</ele>
        <time>2020-08-05T12:27:33.000Z</time>
      </trkpt>
      <trkpt lat="46.25843" lon="6.37485">
        <ele>614.59997558594</ele>
        <time>2020-08-05T12:27:36.000Z</time>
      </trkpt>
      <trkpt lat="46.2585" lon="6.37477">
        <ele>614.20001220703</ele>
        <time>2020-08-05T12:27:37.000Z</time>
      </trkpt>
      <trkpt lat="46.25857" lon="6.37468">
        <ele>613.79998779297</ele>
        <time>2020-08-05T12:27:38.000Z</time>
      </trkpt>
      <trkpt lat="46.25875" lon="6.37468">
        <ele>612.79998779297</ele>
        <time>2020-08-05T12:27:40.000Z</time>
      </trkpt>
      <trkpt lat="46.25893" lon="6.37468">
        <ele>611.79998779297</ele>
        <time>2020-08-05T12:27:42.000Z</time>
      </trkpt>
      <trkpt lat="46.25902" lon="6.37468">
        <ele>611.20001220703</ele>
        <time>2020-08-05T12:27:43.000Z</time>
      </trkpt>
      <trkpt lat="46.25958" lon="6.37469">
        <ele>607.79998779297</ele>
        <time>2020-08-05T12:27:49.000Z</time>
      </trkpt>
      <trkpt lat="46.25966" lon="6.37469">
        <ele>607.40002441406</ele>
        <time>2020-08-05T12:27:50.000Z</time>
      </trkpt>
      <trkpt lat="46.25975" lon="6.37465">
        <ele>606.79998779297</ele>
        <time>2020-08-05T12:27:51.000Z</time>
      </trkpt>
      <trkpt lat="46.25999" lon="6.37451">
        <ele>605</ele>
        <time>2020-08-05T12:27:54.000Z</time>
      </trkpt>
      <trkpt lat="46.26049" lon="6.3742">
        <ele>602.40002441406</ele>
        <time>2020-08-05T12:28:00.000Z</time>
      </trkpt>
      <trkpt lat="46.26058" lon="6.37415">
        <ele>602.20001220703</ele>
        <time>2020-08-05T12:28:01.000Z</time>
      </trkpt>
      <trkpt lat="46.26084" lon="6.37389">
        <ele>600</ele>
        <time>2020-08-05T12:28:05.000Z</time>
      </trkpt>
      <trkpt lat="46.26107" lon="6.37355">
        <ele>596.79998779297</ele>
        <time>2020-08-05T12:28:09.000Z</time>
      </trkpt>
      <trkpt lat="46.26118" lon="6.37323">
        <ele>596.20001220703</ele>
        <time>2020-08-05T12:28:12.000Z</time>
      </trkpt>
      <trkpt lat="46.26121" lon="6.37312">
        <ele>595.79998779297</ele>
        <time>2020-08-05T12:28:13.000Z</time>
      </trkpt>
      <trkpt lat="46.26124" lon="6.373">
        <ele>595.40002441406</ele>
        <time>2020-08-05T12:28:14.000Z</time>
      </trkpt>
      <trkpt lat="46.26123" lon="6.37275">
        <ele>594.59997558594</ele>
        <time>2020-08-05T12:28:16.000Z</time>
      </trkpt>
      <trkpt lat="46.26117" lon="6.37193">
        <ele>592.40002441406</ele>
        <time>2020-08-05T12:28:23.000Z</time>
      </trkpt>
      <trkpt lat="46.26115" lon="6.37165">
        <ele>591</ele>
        <time>2020-08-05T12:28:25.000Z</time>
      </trkpt>
      <trkpt lat="46.2611" lon="6.3709">
        <ele>588.20001220703</ele>
        <time>2020-08-05T12:28:31.000Z</time>
      </trkpt>
      <trkpt lat="46.26109" lon="6.37067">
        <ele>587.79998779297</ele>
        <time>2020-08-05T12:28:33.000Z</time>
      </trkpt>
      <trkpt lat="46.26112" lon="6.37047">
        <ele>587</ele>
        <time>2020-08-05T12:28:35.000Z</time>
      </trkpt>
      <trkpt lat="46.2612" lon="6.37029">
        <ele>586</ele>
        <time>2020-08-05T12:28:37.000Z</time>
      </trkpt>
      <trkpt lat="46.26125" lon="6.37022">
        <ele>585.20001220703</ele>
        <time>2020-08-05T12:28:38.000Z</time>
      </trkpt>
      <trkpt lat="46.26133" lon="6.37017">
        <ele>584.40002441406</ele>
        <time>2020-08-05T12:28:39.000Z</time>
      </trkpt>
      <trkpt lat="46.26148" lon="6.37015">
        <ele>583</ele>
        <time>2020-08-05T12:28:41.000Z</time>
      </trkpt>
      <trkpt lat="46.26163" lon="6.37022">
        <ele>581.20001220703</ele>
        <time>2020-08-05T12:28:43.000Z</time>
      </trkpt>
      <trkpt lat="46.2617" lon="6.37025">
        <ele>580.40002441406</ele>
        <time>2020-08-05T12:28:44.000Z</time>
      </trkpt>
      <trkpt lat="46.26176" lon="6.37032">
        <ele>579.79998779297</ele>
        <time>2020-08-05T12:28:45.000Z</time>
      </trkpt>
      <trkpt lat="46.26185" lon="6.3705">
        <ele>579.40002441406</ele>
        <time>2020-08-05T12:28:47.000Z</time>
      </trkpt>
      <trkpt lat="46.26204" lon="6.37089">
        <ele>578</ele>
        <time>2020-08-05T12:28:51.000Z</time>
      </trkpt>
      <trkpt lat="46.26209" lon="6.37098">
        <ele>577.59997558594</ele>
        <time>2020-08-05T12:28:52.000Z</time>
      </trkpt>
      <trkpt lat="46.26215" lon="6.37106">
        <ele>577</ele>
        <time>2020-08-05T12:28:53.000Z</time>
      </trkpt>
      <trkpt lat="46.26229" lon="6.37114">
        <ele>575.20001220703</ele>
        <time>2020-08-05T12:28:55.000Z</time>
      </trkpt>
      <trkpt lat="46.26241" lon="6.37115">
        <ele>574.59997558594</ele>
        <time>2020-08-05T12:28:57.000Z</time>
      </trkpt>
      <trkpt lat="46.26246" lon="6.37115">
        <ele>574.20001220703</ele>
        <time>2020-08-05T12:28:58.000Z</time>
      </trkpt>
      <trkpt lat="46.2625" lon="6.37115">
        <ele>574</ele>
        <time>2020-08-05T12:28:59.000Z</time>
      </trkpt>
      <trkpt lat="46.26254" lon="6.37103">
        <ele>573.40002441406</ele>
        <time>2020-08-05T12:29:01.000Z</time>
      </trkpt>
      <trkpt lat="46.26251" lon="6.37087">
        <ele>573.20001220703</ele>
        <time>2020-08-05T12:29:03.000Z</time>
      </trkpt>
      <trkpt lat="46.26249" lon="6.37078">
        <ele>573.20001220703</ele>
        <time>2020-08-05T12:29:04.000Z</time>
      </trkpt>
      <trkpt lat="46.26241" lon="6.37037">
        <ele>573.40002441406</ele>
        <time>2020-08-05T12:29:09.000Z</time>
      </trkpt>
      <trkpt lat="46.2624" lon="6.37029">
        <ele>573.59997558594</ele>
        <time>2020-08-05T12:29:10.000Z</time>
      </trkpt>
      <trkpt lat="46.2624" lon="6.37004">
        <ele>573.40002441406</ele>
        <time>2020-08-05T12:29:13.000Z</time>
      </trkpt>
      <trkpt lat="46.26244" lon="6.36989">
        <ele>573.40002441406</ele>
        <time>2020-08-05T12:29:15.000Z</time>
      </trkpt>
      <trkpt lat="46.26251" lon="6.36967">
        <ele>572.79998779297</ele>
        <time>2020-08-05T12:29:18.000Z</time>
      </trkpt>
      <trkpt lat="46.26255" lon="6.36956">
        <ele>572.40002441406</ele>
        <time>2020-08-05T12:29:20.000Z</time>
      </trkpt>
      <trkpt lat="46.26258" lon="6.36949">
        <ele>572.20001220703</ele>
        <time>2020-08-05T12:29:21.000Z</time>
      </trkpt>
      <trkpt lat="46.26265" lon="6.36947">
        <ele>572</ele>
        <time>2020-08-05T12:29:23.000Z</time>
      </trkpt>
      <trkpt lat="46.26289" lon="6.3694">
        <ele>571</ele>
        <time>2020-08-05T12:29:28.000Z</time>
      </trkpt>
      <trkpt lat="46.26299" lon="6.36937">
        <ele>570.79998779297</ele>
        <time>2020-08-05T12:29:30.000Z</time>
      </trkpt>
      <trkpt lat="46.26307" lon="6.3693">
        <ele>570.59997558594</ele>
        <time>2020-08-05T12:29:32.000Z</time>
      </trkpt>
      <trkpt lat="46.26327" lon="6.36892">
        <ele>569.59997558594</ele>
        <time>2020-08-05T12:29:38.000Z</time>
      </trkpt>
      <trkpt lat="46.26355" lon="6.36837">
        <ele>568.79998779297</ele>
        <time>2020-08-05T12:29:46.000Z</time>
      </trkpt>
      <trkpt lat="46.2637" lon="6.36808">
        <ele>569</ele>
        <time>2020-08-05T12:29:51.000Z</time>
      </trkpt>
      <trkpt lat="46.26378" lon="6.36791">
        <ele>568.79998779297</ele>
        <time>2020-08-05T12:29:56.000Z</time>
      </trkpt>
      <trkpt lat="46.26379" lon="6.36788">
        <ele>568.79998779297</ele>
        <time>2020-08-05T12:29:57.000Z</time>
      </trkpt>
      <trkpt lat="46.26375" lon="6.36777">
        <ele>568.59997558594</ele>
        <time>2020-08-05T12:29:59.000Z</time>
      </trkpt>
      <trkpt lat="46.26366" lon="6.36749">
        <ele>568.20001220703</ele>
        <time>2020-08-05T12:30:03.000Z</time>
      </trkpt>
      <trkpt lat="46.26363" lon="6.36741">
        <ele>568</ele>
        <time>2020-08-05T12:30:04.000Z</time>
      </trkpt>
      <trkpt lat="46.26354" lon="6.3669">
        <ele>569</ele>
        <time>2020-08-05T12:30:10.000Z</time>
      </trkpt>
      <trkpt lat="46.26346" lon="6.36617">
        <ele>567.79998779297</ele>
        <time>2020-08-05T12:30:18.000Z</time>
      </trkpt>
      <trkpt lat="46.26345" lon="6.36608">
        <ele>567.79998779297</ele>
        <time>2020-08-05T12:30:19.000Z</time>
      </trkpt>
      <trkpt lat="46.26342" lon="6.36572">
        <ele>567.40002441406</ele>
        <time>2020-08-05T12:30:23.000Z</time>
      </trkpt>
      <trkpt lat="46.26336" lon="6.36513">
        <ele>567.59997558594</ele>
        <time>2020-08-05T12:30:30.000Z</time>
      </trkpt>
      <trkpt lat="46.26334" lon="6.36497">
        <ele>567.79998779297</ele>
        <time>2020-08-05T12:30:32.000Z</time>
      </trkpt>
      <trkpt lat="46.26345" lon="6.36486">
        <ele>567</ele>
        <time>2020-08-05T12:30:33.000Z</time>
      </trkpt>
      <trkpt lat="46.2635" lon="6.36485">
        <ele>566.79998779297</ele>
        <time>2020-08-05T12:30:34.000Z</time>
      </trkpt>
      <trkpt lat="46.26361" lon="6.36482">
        <ele>566.20001220703</ele>
        <time>2020-08-05T12:30:36.000Z</time>
      </trkpt>
      <trkpt lat="46.26366" lon="6.36477">
        <ele>566</ele>
        <time>2020-08-05T12:30:37.000Z</time>
      </trkpt>
      <trkpt lat="46.2637" lon="6.36471">
        <ele>565.79998779297</ele>
        <time>2020-08-05T12:30:38.000Z</time>
      </trkpt>
      <trkpt lat="46.2638" lon="6.3646">
        <ele>565.40002441406</ele>
        <time>2020-08-05T12:30:40.000Z</time>
      </trkpt>
      <trkpt lat="46.26386" lon="6.36456">
        <ele>565.20001220703</ele>
        <time>2020-08-05T12:30:41.000Z</time>
      </trkpt>
      <trkpt lat="46.26391" lon="6.36453">
        <ele>565</ele>
        <time>2020-08-05T12:30:42.000Z</time>
      </trkpt>
      <trkpt lat="46.26402" lon="6.36453">
        <ele>564.40002441406</ele>
        <time>2020-08-05T12:30:44.000Z</time>
      </trkpt>
      <trkpt lat="46.26406" lon="6.36454">
        <ele>564</ele>
        <time>2020-08-05T12:30:45.000Z</time>
      </trkpt>
      <trkpt lat="46.26418" lon="6.36445">
        <ele>563.59997558594</ele>
        <time>2020-08-05T12:30:49.000Z</time>
      </trkpt>
      <trkpt lat="46.26423" lon="6.36436">
        <ele>563.40002441406</ele>
        <time>2020-08-05T12:30:51.000Z</time>
      </trkpt>
      <trkpt lat="46.26425" lon="6.36432">
        <ele>563.40002441406</ele>
        <time>2020-08-05T12:30:52.000Z</time>
      </trkpt>
      <trkpt lat="46.26428" lon="6.36427">
        <ele>563.40002441406</ele>
        <time>2020-08-05T12:30:53.000Z</time>
      </trkpt>
      <trkpt lat="46.26436" lon="6.36412">
        <ele>564.20001220703</ele>
        <time>2020-08-05T12:30:56.000Z</time>
      </trkpt>
      <trkpt lat="46.26453" lon="6.36381">
        <ele>564.59997558594</ele>
        <time>2020-08-05T12:31:02.000Z</time>
      </trkpt>
      <trkpt lat="46.26475" lon="6.36339">
        <ele>565.40002441406</ele>
        <time>2020-08-05T12:31:09.000Z</time>
      </trkpt>
      <trkpt lat="46.26497" lon="6.36292">
        <ele>565</ele>
        <time>2020-08-05T12:31:16.000Z</time>
      </trkpt>
      <trkpt lat="46.26521" lon="6.36234">
        <ele>565.40002441406</ele>
        <time>2020-08-05T12:31:24.000Z</time>
      </trkpt>
      <trkpt lat="46.26527" lon="6.36219">
        <ele>565.59997558594</ele>
        <time>2020-08-05T12:31:26.000Z</time>
      </trkpt>
      <trkpt lat="46.26539" lon="6.36189">
        <ele>565.79998779297</ele>
        <time>2020-08-05T12:31:30.000Z</time>
      </trkpt>
      <trkpt lat="46.26564" lon="6.36126">
        <ele>566.20001220703</ele>
        <time>2020-08-05T12:31:38.000Z</time>
      </trkpt>
      <trkpt lat="46.2657" lon="6.361">
        <ele>566</ele>
        <time>2020-08-05T12:31:41.000Z</time>
      </trkpt>
      <trkpt lat="46.26573" lon="6.36083">
        <ele>565.79998779297</ele>
        <time>2020-08-05T12:31:43.000Z</time>
      </trkpt>
      <trkpt lat="46.26574" lon="6.36067">
        <ele>566</ele>
        <time>2020-08-05T12:31:45.000Z</time>
      </trkpt>
      <trkpt lat="46.26573" lon="6.36043">
        <ele>566.20001220703</ele>
        <time>2020-08-05T12:31:48.000Z</time>
      </trkpt>
      <trkpt lat="46.26573" lon="6.36035">
        <ele>566.20001220703</ele>
        <time>2020-08-05T12:31:49.000Z</time>
      </trkpt>
      <trkpt lat="46.26571" lon="6.35999">
        <ele>566.40002441406</ele>
        <time>2020-08-05T12:31:54.000Z</time>
      </trkpt>
      <trkpt lat="46.2657" lon="6.35972">
        <ele>566.79998779297</ele>
        <time>2020-08-05T12:31:58.000Z</time>
      </trkpt>
      <trkpt lat="46.2657" lon="6.35967">
        <ele>567</ele>
        <time>2020-08-05T12:31:59.000Z</time>
      </trkpt>
      <trkpt lat="46.26568" lon="6.35947">
        <ele>567.40002441406</ele>
        <time>2020-08-05T12:32:03.000Z</time>
      </trkpt>
      <trkpt lat="46.26567" lon="6.35941">
        <ele>567.59997558594</ele>
        <time>2020-08-05T12:32:04.000Z</time>
      </trkpt>
      <trkpt lat="46.26567" lon="6.35935">
        <ele>567.79998779297</ele>
        <time>2020-08-05T12:32:05.000Z</time>
      </trkpt>
      <trkpt lat="46.26562" lon="6.35903">
        <ele>568.79998779297</ele>
        <time>2020-08-05T12:32:10.000Z</time>
      </trkpt>
      <trkpt lat="46.2655" lon="6.35867">
        <ele>569.59997558594</ele>
        <time>2020-08-05T12:32:16.000Z</time>
      </trkpt>
      <trkpt lat="46.26548" lon="6.35862">
        <ele>569.79998779297</ele>
        <time>2020-08-05T12:32:17.000Z</time>
      </trkpt>
      <trkpt lat="46.26538" lon="6.35842">
        <ele>570.20001220703</ele>
        <time>2020-08-05T12:32:21.000Z</time>
      </trkpt>
      <trkpt lat="46.2653" lon="6.35827">
        <ele>570.59997558594</ele>
        <time>2020-08-05T12:32:24.000Z</time>
      </trkpt>
      <trkpt lat="46.26516" lon="6.358">
        <ele>572</ele>
        <time>2020-08-05T12:32:30.000Z</time>
      </trkpt>
      <trkpt lat="46.26503" lon="6.35774">
        <ele>573.79998779297</ele>
        <time>2020-08-05T12:32:36.000Z</time>
      </trkpt>
      <trkpt lat="46.26498" lon="6.35764">
        <ele>574.59997558594</ele>
        <time>2020-08-05T12:32:38.000Z</time>
      </trkpt>
      <trkpt lat="46.2649" lon="6.35748">
        <ele>575.79998779297</ele>
        <time>2020-08-05T12:32:41.000Z</time>
      </trkpt>
      <trkpt lat="46.26481" lon="6.35734">
        <ele>576.79998779297</ele>
        <time>2020-08-05T12:32:44.000Z</time>
      </trkpt>
      <trkpt lat="46.26471" lon="6.35722">
        <ele>577</ele>
        <time>2020-08-05T12:32:47.000Z</time>
      </trkpt>
      <trkpt lat="46.26453" lon="6.35701">
        <ele>577</ele>
        <time>2020-08-05T12:32:52.000Z</time>
      </trkpt>
      <trkpt lat="46.26449" lon="6.35698">
        <ele>577</ele>
        <time>2020-08-05T12:32:53.000Z</time>
      </trkpt>
      <trkpt lat="46.26439" lon="6.35692">
        <ele>577</ele>
        <time>2020-08-05T12:32:55.000Z</time>
      </trkpt>
      <trkpt lat="46.26423" lon="6.35681">
        <ele>576.40002441406</ele>
        <time>2020-08-05T12:32:58.000Z</time>
      </trkpt>
      <trkpt lat="46.26397" lon="6.35665">
        <ele>575.59997558594</ele>
        <time>2020-08-05T12:33:02.000Z</time>
      </trkpt>
      <trkpt lat="46.26363" lon="6.35658">
        <ele>573</ele>
        <time>2020-08-05T12:33:07.000Z</time>
      </trkpt>
      <trkpt lat="46.26356" lon="6.35657">
        <ele>572.40002441406</ele>
        <time>2020-08-05T12:33:08.000Z</time>
      </trkpt>
      <trkpt lat="46.26335" lon="6.35662">
        <ele>570</ele>
        <time>2020-08-05T12:33:11.000Z</time>
      </trkpt>
      <trkpt lat="46.26299" lon="6.35674">
        <ele>568.79998779297</ele>
        <time>2020-08-05T12:33:16.000Z</time>
      </trkpt>
      <trkpt lat="46.26292" lon="6.35673">
        <ele>569</ele>
        <time>2020-08-05T12:33:17.000Z</time>
      </trkpt>
      <trkpt lat="46.26285" lon="6.35672">
        <ele>569</ele>
        <time>2020-08-05T12:33:18.000Z</time>
      </trkpt>
      <trkpt lat="46.26275" lon="6.35665">
        <ele>569.20001220703</ele>
        <time>2020-08-05T12:33:20.000Z</time>
      </trkpt>
      <trkpt lat="46.26258" lon="6.35643">
        <ele>569.79998779297</ele>
        <time>2020-08-05T12:33:24.000Z</time>
      </trkpt>
      <trkpt lat="46.26228" lon="6.35606">
        <ele>570.59997558594</ele>
        <time>2020-08-05T12:33:32.000Z</time>
      </trkpt>
      <trkpt lat="46.26217" lon="6.35597">
        <ele>571.79998779297</ele>
        <time>2020-08-05T12:33:35.000Z</time>
      </trkpt>
      <trkpt lat="46.26209" lon="6.35579">
        <ele>572.79998779297</ele>
        <time>2020-08-05T12:33:38.000Z</time>
      </trkpt>
      <trkpt lat="46.26211" lon="6.3557">
        <ele>572.59997558594</ele>
        <time>2020-08-05T12:33:40.000Z</time>
      </trkpt>
      <trkpt lat="46.26215" lon="6.35558">
        <ele>572</ele>
        <time>2020-08-05T12:33:42.000Z</time>
      </trkpt>
      <trkpt lat="46.26227" lon="6.35517">
        <ele>571.59997558594</ele>
        <time>2020-08-05T12:33:47.000Z</time>
      </trkpt>
      <trkpt lat="46.26246" lon="6.35452">
        <ele>572.79998779297</ele>
        <time>2020-08-05T12:33:54.000Z</time>
      </trkpt>
      <trkpt lat="46.26262" lon="6.35396">
        <ele>571.40002441406</ele>
        <time>2020-08-05T12:33:59.000Z</time>
      </trkpt>
      <trkpt lat="46.26273" lon="6.35373">
        <ele>570.59997558594</ele>
        <time>2020-08-05T12:34:01.000Z</time>
      </trkpt>
      <trkpt lat="46.26287" lon="6.35354">
        <ele>569</ele>
        <time>2020-08-05T12:34:03.000Z</time>
      </trkpt>
      <trkpt lat="46.26331" lon="6.35292">
        <ele>564.59997558594</ele>
        <time>2020-08-05T12:34:09.000Z</time>
      </trkpt>
      <trkpt lat="46.2638" lon="6.35237">
        <ele>562.40002441406</ele>
        <time>2020-08-05T12:34:15.000Z</time>
      </trkpt>
      <trkpt lat="46.2643" lon="6.35195">
        <ele>561</ele>
        <time>2020-08-05T12:34:21.000Z</time>
      </trkpt>
      <trkpt lat="46.26438" lon="6.35188">
        <ele>560.79998779297</ele>
        <time>2020-08-05T12:34:22.000Z</time>
      </trkpt>
      <trkpt lat="46.2646" lon="6.35162">
        <ele>556.59997558594</ele>
        <time>2020-08-05T12:34:25.000Z</time>
      </trkpt>
      <trkpt lat="46.26467" lon="6.35153">
        <ele>555</ele>
        <time>2020-08-05T12:34:26.000Z</time>
      </trkpt>
      <trkpt lat="46.26474" lon="6.35143">
        <ele>554.40002441406</ele>
        <time>2020-08-05T12:34:27.000Z</time>
      </trkpt>
      <trkpt lat="46.26482" lon="6.35118">
        <ele>552.20001220703</ele>
        <time>2020-08-05T12:34:29.000Z</time>
      </trkpt>
      <trkpt lat="46.26507" lon="6.35041">
        <ele>546</ele>
        <time>2020-08-05T12:34:35.000Z</time>
      </trkpt>
      <trkpt lat="46.2651" lon="6.35029">
        <ele>545</ele>
        <time>2020-08-05T12:34:36.000Z</time>
      </trkpt>
      <trkpt lat="46.26533" lon="6.34953">
        <ele>541.40002441406</ele>
        <time>2020-08-05T12:34:42.000Z</time>
      </trkpt>
      <trkpt lat="46.26536" lon="6.34941">
        <ele>541.40002441406</ele>
        <time>2020-08-05T12:34:43.000Z</time>
      </trkpt>
      <trkpt lat="46.26556" lon="6.34872">
        <ele>542</ele>
        <time>2020-08-05T12:34:49.000Z</time>
      </trkpt>
      <trkpt lat="46.26557" lon="6.34861">
        <ele>542</ele>
        <time>2020-08-05T12:34:50.000Z</time>
      </trkpt>
      <trkpt lat="46.26558" lon="6.34827">
        <ele>542.59997558594</ele>
        <time>2020-08-05T12:34:53.000Z</time>
      </trkpt>
      <trkpt lat="46.26559" lon="6.34806">
        <ele>542.79998779297</ele>
        <time>2020-08-05T12:34:55.000Z</time>
      </trkpt>
      <trkpt lat="46.2656" lon="6.34787">
        <ele>542.59997558594</ele>
        <time>2020-08-05T12:34:57.000Z</time>
      </trkpt>
      <trkpt lat="46.26561" lon="6.34778">
        <ele>542.40002441406</ele>
        <time>2020-08-05T12:34:58.000Z</time>
      </trkpt>
      <trkpt lat="46.26566" lon="6.34763">
        <ele>542.40002441406</ele>
        <time>2020-08-05T12:35:00.000Z</time>
      </trkpt>
      <trkpt lat="46.26571" lon="6.34749">
        <ele>542.20001220703</ele>
        <time>2020-08-05T12:35:02.000Z</time>
      </trkpt>
      <trkpt lat="46.2659" lon="6.34706">
        <ele>544.79998779297</ele>
        <time>2020-08-05T12:35:09.000Z</time>
      </trkpt>
      <trkpt lat="46.26597" lon="6.34699">
        <ele>545.59997558594</ele>
        <time>2020-08-05T12:35:11.000Z</time>
      </trkpt>
      <trkpt lat="46.26604" lon="6.34694">
        <ele>546.20001220703</ele>
        <time>2020-08-05T12:35:13.000Z</time>
      </trkpt>
      <trkpt lat="46.26626" lon="6.34696">
        <ele>548</ele>
        <time>2020-08-05T12:35:19.000Z</time>
      </trkpt>
      <trkpt lat="46.26651" lon="6.34706">
        <ele>549.20001220703</ele>
        <time>2020-08-05T12:35:26.000Z</time>
      </trkpt>
      <trkpt lat="46.26678" lon="6.34718">
        <ele>549</ele>
        <time>2020-08-05T12:35:34.000Z</time>
      </trkpt>
      <trkpt lat="46.26705" lon="6.34723">
        <ele>549</ele>
        <time>2020-08-05T12:35:41.000Z</time>
      </trkpt>
      <trkpt lat="46.26712" lon="6.34721">
        <ele>549.20001220703</ele>
        <time>2020-08-05T12:35:43.000Z</time>
      </trkpt>
      <trkpt lat="46.26719" lon="6.34717">
        <ele>549.59997558594</ele>
        <time>2020-08-05T12:35:45.000Z</time>
      </trkpt>
      <trkpt lat="46.26723" lon="6.34715">
        <ele>549.79998779297</ele>
        <time>2020-08-05T12:35:46.000Z</time>
      </trkpt>
      <trkpt lat="46.26731" lon="6.34703">
        <ele>550.59997558594</ele>
        <time>2020-08-05T12:35:49.000Z</time>
      </trkpt>
      <trkpt lat="46.2674" lon="6.34691">
        <ele>550.59997558594</ele>
        <time>2020-08-05T12:35:52.000Z</time>
      </trkpt>
      <trkpt lat="46.26764" lon="6.34657">
        <ele>550.40002441406</ele>
        <time>2020-08-05T12:36:00.000Z</time>
      </trkpt>
      <trkpt lat="46.26781" lon="6.3463">
        <ele>550.59997558594</ele>
        <time>2020-08-05T12:36:06.000Z</time>
      </trkpt>
      <trkpt lat="46.26787" lon="6.34621">
        <ele>550.79998779297</ele>
        <time>2020-08-05T12:36:08.000Z</time>
      </trkpt>
      <trkpt lat="46.26788" lon="6.34609">
        <ele>551.79998779297</ele>
        <time>2020-08-05T12:36:10.000Z</time>
      </trkpt>
      <trkpt lat="46.26789" lon="6.34597">
        <ele>552.79998779297</ele>
        <time>2020-08-05T12:36:12.000Z</time>
      </trkpt>
      <trkpt lat="46.26788" lon="6.34587">
        <ele>554</ele>
        <time>2020-08-05T12:36:14.000Z</time>
      </trkpt>
      <trkpt lat="46.26783" lon="6.34577">
        <ele>555.20001220703</ele>
        <time>2020-08-05T12:36:16.000Z</time>
      </trkpt>
      <trkpt lat="46.26768" lon="6.34555">
        <ele>558</ele>
        <time>2020-08-05T12:36:22.000Z</time>
      </trkpt>
      <trkpt lat="46.26741" lon="6.34532">
        <ele>560.79998779297</ele>
        <time>2020-08-05T12:36:31.000Z</time>
      </trkpt>
      <trkpt lat="46.2672" lon="6.3452">
        <ele>562.59997558594</ele>
        <time>2020-08-05T12:36:38.000Z</time>
      </trkpt>
      <trkpt lat="46.26696" lon="6.34516">
        <ele>563.79998779297</ele>
        <time>2020-08-05T12:36:46.000Z</time>
      </trkpt>
      <trkpt lat="46.26678" lon="6.34512">
        <ele>564.79998779297</ele>
        <time>2020-08-05T12:36:52.000Z</time>
      </trkpt>
      <trkpt lat="46.26665" lon="6.34498">
        <ele>565.59997558594</ele>
        <time>2020-08-05T12:36:57.000Z</time>
      </trkpt>
      <trkpt lat="46.26656" lon="6.34478">
        <ele>566.59997558594</ele>
        <time>2020-08-05T12:37:02.000Z</time>
      </trkpt>
      <trkpt lat="46.26644" lon="6.34445">
        <ele>568.79998779297</ele>
        <time>2020-08-05T12:37:10.000Z</time>
      </trkpt>
      <trkpt lat="46.26631" lon="6.34413">
        <ele>570.40002441406</ele>
        <time>2020-08-05T12:37:18.000Z</time>
      </trkpt>
      <trkpt lat="46.26615" lon="6.34381">
        <ele>571.59997558594</ele>
        <time>2020-08-05T12:37:26.000Z</time>
      </trkpt>
      <trkpt lat="46.26599" lon="6.34361">
        <ele>572</ele>
        <time>2020-08-05T12:37:32.000Z</time>
      </trkpt>
      <trkpt lat="46.26587" lon="6.34346">
        <ele>572.40002441406</ele>
        <time>2020-08-05T12:37:36.000Z</time>
      </trkpt>
      <trkpt lat="46.26576" lon="6.34334">
        <ele>572.59997558594</ele>
        <time>2020-08-05T12:37:39.000Z</time>
      </trkpt>
      <trkpt lat="46.26549" lon="6.34295">
        <ele>573.40002441406</ele>
        <time>2020-08-05T12:37:47.000Z</time>
      </trkpt>
      <trkpt lat="46.26538" lon="6.34265">
        <ele>573.59997558594</ele>
        <time>2020-08-05T12:37:52.000Z</time>
      </trkpt>
      <trkpt lat="46.26527" lon="6.34219">
        <ele>573.79998779297</ele>
        <time>2020-08-05T12:37:59.000Z</time>
      </trkpt>
      <trkpt lat="46.26514" lon="6.34179">
        <ele>574.20001220703</ele>
        <time>2020-08-05T12:38:05.000Z</time>
      </trkpt>
      <trkpt lat="46.26491" lon="6.34136">
        <ele>574.79998779297</ele>
        <time>2020-08-05T12:38:12.000Z</time>
      </trkpt>
      <trkpt lat="46.2647" lon="6.34092">
        <ele>575.40002441406</ele>
        <time>2020-08-05T12:38:19.000Z</time>
      </trkpt>
      <trkpt lat="46.26442" lon="6.3405">
        <ele>574.79998779297</ele>
        <time>2020-08-05T12:38:26.000Z</time>
      </trkpt>
      <trkpt lat="46.26411" lon="6.34004">
        <ele>574.20001220703</ele>
        <time>2020-08-05T12:38:33.000Z</time>
      </trkpt>
      <trkpt lat="46.2639" lon="6.33966">
        <ele>573.40002441406</ele>
        <time>2020-08-05T12:38:38.000Z</time>
      </trkpt>
      <trkpt lat="46.26388" lon="6.33957">
        <ele>573</ele>
        <time>2020-08-05T12:38:39.000Z</time>
      </trkpt>
      <trkpt lat="46.26385" lon="6.33948">
        <ele>572.59997558594</ele>
        <time>2020-08-05T12:38:40.000Z</time>
      </trkpt>
      <trkpt lat="46.26382" lon="6.33928">
        <ele>572.20001220703</ele>
        <time>2020-08-05T12:38:42.000Z</time>
      </trkpt>
      <trkpt lat="46.26383" lon="6.33918">
        <ele>572.20001220703</ele>
        <time>2020-08-05T12:38:43.000Z</time>
      </trkpt>
      <trkpt lat="46.26384" lon="6.33908">
        <ele>572</ele>
        <time>2020-08-05T12:38:44.000Z</time>
      </trkpt>
      <trkpt lat="46.26387" lon="6.33878">
        <ele>572.20001220703</ele>
        <time>2020-08-05T12:38:47.000Z</time>
      </trkpt>
      <trkpt lat="46.26398" lon="6.33809">
        <ele>573</ele>
        <time>2020-08-05T12:38:55.000Z</time>
      </trkpt>
      <trkpt lat="46.26407" lon="6.33756">
        <ele>572.59997558594</ele>
        <time>2020-08-05T12:39:02.000Z</time>
      </trkpt>
      <trkpt lat="46.26419" lon="6.33687">
        <ele>570.20001220703</ele>
        <time>2020-08-05T12:39:10.000Z</time>
      </trkpt>
      <trkpt lat="46.26433" lon="6.33605">
        <ele>570</ele>
        <time>2020-08-05T12:39:19.000Z</time>
      </trkpt>
      <trkpt lat="46.26443" lon="6.33542">
        <ele>570</ele>
        <time>2020-08-05T12:39:26.000Z</time>
      </trkpt>
      <trkpt lat="46.26455" lon="6.33468">
        <ele>570.20001220703</ele>
        <time>2020-08-05T12:39:34.000Z</time>
      </trkpt>
      <trkpt lat="46.26467" lon="6.33397">
        <ele>570.40002441406</ele>
        <time>2020-08-05T12:39:42.000Z</time>
      </trkpt>
      <trkpt lat="46.26469" lon="6.33389">
        <ele>570.59997558594</ele>
        <time>2020-08-05T12:39:43.000Z</time>
      </trkpt>
      <trkpt lat="46.26467" lon="6.3337">
        <ele>570.59997558594</ele>
        <time>2020-08-05T12:39:45.000Z</time>
      </trkpt>
      <trkpt lat="46.26451" lon="6.33329">
        <ele>568.59997558594</ele>
        <time>2020-08-05T12:39:50.000Z</time>
      </trkpt>
      <trkpt lat="46.26425" lon="6.33266">
        <ele>568.40002441406</ele>
        <time>2020-08-05T12:39:57.000Z</time>
      </trkpt>
      <trkpt lat="46.26383" lon="6.33204">
        <ele>567</ele>
        <time>2020-08-05T12:40:05.000Z</time>
      </trkpt>
      <trkpt lat="46.26343" lon="6.3315">
        <ele>566</ele>
        <time>2020-08-05T12:40:12.000Z</time>
      </trkpt>
      <trkpt lat="46.26302" lon="6.33095">
        <ele>565.59997558594</ele>
        <time>2020-08-05T12:40:19.000Z</time>
      </trkpt>
      <trkpt lat="46.26296" lon="6.33087">
        <ele>565.40002441406</ele>
        <time>2020-08-05T12:40:20.000Z</time>
      </trkpt>
      <trkpt lat="46.2626" lon="6.33054">
        <ele>564</ele>
        <time>2020-08-05T12:40:25.000Z</time>
      </trkpt>
      <trkpt lat="46.26216" lon="6.33027">
        <ele>562</ele>
        <time>2020-08-05T12:40:30.000Z</time>
      </trkpt>
      <trkpt lat="46.26156" lon="6.32998">
        <ele>559.40002441406</ele>
        <time>2020-08-05T12:40:36.000Z</time>
      </trkpt>
      <trkpt lat="46.26096" lon="6.32968">
        <ele>558</ele>
        <time>2020-08-05T12:40:42.000Z</time>
      </trkpt>
      <trkpt lat="46.26077" lon="6.32954">
        <ele>557.59997558594</ele>
        <time>2020-08-05T12:40:44.000Z</time>
      </trkpt>
      <trkpt lat="46.26033" lon="6.32917">
        <ele>556.79998779297</ele>
        <time>2020-08-05T12:40:49.000Z</time>
      </trkpt>
      <trkpt lat="46.2601" lon="6.32895">
        <ele>556.40002441406</ele>
        <time>2020-08-05T12:40:52.000Z</time>
      </trkpt>
      <trkpt lat="46.25994" lon="6.32878">
        <ele>555.79998779297</ele>
        <time>2020-08-05T12:40:54.000Z</time>
      </trkpt>
      <trkpt lat="46.25962" lon="6.32821">
        <ele>554.20001220703</ele>
        <time>2020-08-05T12:40:59.000Z</time>
      </trkpt>
      <trkpt lat="46.25957" lon="6.32808">
        <ele>553.79998779297</ele>
        <time>2020-08-05T12:41:00.000Z</time>
      </trkpt>
      <trkpt lat="46.25954" lon="6.32796">
        <ele>553.59997558594</ele>
        <time>2020-08-05T12:41:01.000Z</time>
      </trkpt>
      <trkpt lat="46.25949" lon="6.32772">
        <ele>553</ele>
        <time>2020-08-05T12:41:03.000Z</time>
      </trkpt>
      <trkpt lat="46.25947" lon="6.32761">
        <ele>552.79998779297</ele>
        <time>2020-08-05T12:41:04.000Z</time>
      </trkpt>
      <trkpt lat="46.25938" lon="6.32746">
        <ele>552.20001220703</ele>
        <time>2020-08-05T12:41:06.000Z</time>
      </trkpt>
      <trkpt lat="46.25909" lon="6.32726">
        <ele>550.59997558594</ele>
        <time>2020-08-05T12:41:10.000Z</time>
      </trkpt>
      <trkpt lat="46.25858" lon="6.32688">
        <ele>550</ele>
        <time>2020-08-05T12:41:17.000Z</time>
      </trkpt>
      <trkpt lat="46.25851" lon="6.32682">
        <ele>550</ele>
        <time>2020-08-05T12:41:18.000Z</time>
      </trkpt>
      <trkpt lat="46.258" lon="6.32638">
        <ele>549.20001220703</ele>
        <time>2020-08-05T12:41:25.000Z</time>
      </trkpt>
      <trkpt lat="46.25763" lon="6.326">
        <ele>546.40002441406</ele>
        <time>2020-08-05T12:41:31.000Z</time>
      </trkpt>
      <trkpt lat="46.25755" lon="6.32587">
        <ele>545.79998779297</ele>
        <time>2020-08-05T12:41:33.000Z</time>
      </trkpt>
      <trkpt lat="46.25751" lon="6.3257">
        <ele>544.79998779297</ele>
        <time>2020-08-05T12:41:35.000Z</time>
      </trkpt>
      <trkpt lat="46.25742" lon="6.32555">
        <ele>544.20001220703</ele>
        <time>2020-08-05T12:41:37.000Z</time>
      </trkpt>
      <trkpt lat="46.25733" lon="6.3254">
        <ele>543.59997558594</ele>
        <time>2020-08-05T12:41:39.000Z</time>
      </trkpt>
      <trkpt lat="46.25696" lon="6.32495">
        <ele>542</ele>
        <time>2020-08-05T12:41:45.000Z</time>
      </trkpt>
      <trkpt lat="46.25661" lon="6.32464">
        <ele>540.59997558594</ele>
        <time>2020-08-05T12:41:50.000Z</time>
      </trkpt>
      <trkpt lat="46.25629" lon="6.32451">
        <ele>540.20001220703</ele>
        <time>2020-08-05T12:41:54.000Z</time>
      </trkpt>
      <trkpt lat="46.25621" lon="6.32451">
        <ele>540.20001220703</ele>
        <time>2020-08-05T12:41:55.000Z</time>
      </trkpt>
      <trkpt lat="46.25598" lon="6.3245">
        <ele>539.20001220703</ele>
        <time>2020-08-05T12:41:58.000Z</time>
      </trkpt>
      <trkpt lat="46.25557" lon="6.32452">
        <ele>537</ele>
        <time>2020-08-05T12:42:04.000Z</time>
      </trkpt>
      <trkpt lat="46.25544" lon="6.32457">
        <ele>536.59997558594</ele>
        <time>2020-08-05T12:42:08.000Z</time>
      </trkpt>
      <trkpt lat="46.25517" lon="6.32467">
        <ele>536.40002441406</ele>
        <time>2020-08-05T12:42:14.000Z</time>
      </trkpt>
      <trkpt lat="46.25507" lon="6.32472">
        <ele>536.20001220703</ele>
        <time>2020-08-05T12:42:16.000Z</time>
      </trkpt>
      <trkpt lat="46.25479" lon="6.3248">
        <ele>536</ele>
        <time>2020-08-05T12:42:21.000Z</time>
      </trkpt>
      <trkpt lat="46.25454" lon="6.32486">
        <ele>535.59997558594</ele>
        <time>2020-08-05T12:42:26.000Z</time>
      </trkpt>
      <trkpt lat="46.25451" lon="6.32487">
        <ele>535.59997558594</ele>
        <time>2020-08-05T12:42:27.000Z</time>
      </trkpt>
      <trkpt lat="46.25434" lon="6.32491">
        <ele>535.20001220703</ele>
        <time>2020-08-05T12:42:32.000Z</time>
      </trkpt>
      <trkpt lat="46.25425" lon="6.32509">
        <ele>534</ele>
        <time>2020-08-05T12:42:35.000Z</time>
      </trkpt>
      <trkpt lat="46.25422" lon="6.32516">
        <ele>534</ele>
        <time>2020-08-05T12:42:36.000Z</time>
      </trkpt>
      <trkpt lat="46.25398" lon="6.32578">
        <ele>533</ele>
        <time>2020-08-05T12:42:44.000Z</time>
      </trkpt>
      <trkpt lat="46.25391" lon="6.32595">
        <ele>532.20001220703</ele>
        <time>2020-08-05T12:42:46.000Z</time>
      </trkpt>
      <trkpt lat="46.25377" lon="6.32618">
        <ele>531.20001220703</ele>
        <time>2020-08-05T12:42:49.000Z</time>
      </trkpt>
      <trkpt lat="46.25364" lon="6.32629">
        <ele>531</ele>
        <time>2020-08-05T12:42:51.000Z</time>
      </trkpt>
      <trkpt lat="46.25351" lon="6.3264">
        <ele>531</ele>
        <time>2020-08-05T12:42:53.000Z</time>
      </trkpt>
      <trkpt lat="46.25304" lon="6.32679">
        <ele>531</ele>
        <time>2020-08-05T12:43:00.000Z</time>
      </trkpt>
      <trkpt lat="46.2529" lon="6.3269">
        <ele>531</ele>
        <time>2020-08-05T12:43:02.000Z</time>
      </trkpt>
      <trkpt lat="46.25252" lon="6.32721">
        <ele>530.20001220703</ele>
        <time>2020-08-05T12:43:08.000Z</time>
      </trkpt>
      <trkpt lat="46.25206" lon="6.32755">
        <ele>529.59997558594</ele>
        <time>2020-08-05T12:43:15.000Z</time>
      </trkpt>
      <trkpt lat="46.25171" lon="6.32774">
        <ele>529.40002441406</ele>
        <time>2020-08-05T12:43:20.000Z</time>
      </trkpt>
      <trkpt lat="46.25154" lon="6.32783">
        <ele>528.59997558594</ele>
        <time>2020-08-05T12:43:23.000Z</time>
      </trkpt>
      <trkpt lat="46.25146" lon="6.32784">
        <ele>528.40002441406</ele>
        <time>2020-08-05T12:43:24.000Z</time>
      </trkpt>
      <trkpt lat="46.25135" lon="6.32782">
        <ele>528.40002441406</ele>
        <time>2020-08-05T12:43:26.000Z</time>
      </trkpt>
      <trkpt lat="46.25118" lon="6.32777">
        <ele>528.40002441406</ele>
        <time>2020-08-05T12:43:29.000Z</time>
      </trkpt>
      <trkpt lat="46.25101" lon="6.3277">
        <ele>528.59997558594</ele>
        <time>2020-08-05T12:43:32.000Z</time>
      </trkpt>
      <trkpt lat="46.25085" lon="6.32764">
        <ele>528.79998779297</ele>
        <time>2020-08-05T12:43:35.000Z</time>
      </trkpt>
      <trkpt lat="46.25047" lon="6.32741">
        <ele>529.20001220703</ele>
        <time>2020-08-05T12:43:42.000Z</time>
      </trkpt>
      <trkpt lat="46.25017" lon="6.32718">
        <ele>528.40002441406</ele>
        <time>2020-08-05T12:43:48.000Z</time>
      </trkpt>
      <trkpt lat="46.25007" lon="6.32711">
        <ele>528</ele>
        <time>2020-08-05T12:43:50.000Z</time>
      </trkpt>
      <trkpt lat="46.24997" lon="6.32702">
        <ele>527.59997558594</ele>
        <time>2020-08-05T12:43:52.000Z</time>
      </trkpt>
      <trkpt lat="46.24993" lon="6.32696">
        <ele>527.59997558594</ele>
        <time>2020-08-05T12:43:53.000Z</time>
      </trkpt>
      <trkpt lat="46.2499" lon="6.32689">
        <ele>527.79998779297</ele>
        <time>2020-08-05T12:43:54.000Z</time>
      </trkpt>
      <trkpt lat="46.24978" lon="6.32655">
        <ele>528.59997558594</ele>
        <time>2020-08-05T12:43:58.000Z</time>
      </trkpt>
      <trkpt lat="46.24975" lon="6.32635">
        <ele>528.59997558594</ele>
        <time>2020-08-05T12:44:00.000Z</time>
      </trkpt>
      <trkpt lat="46.24972" lon="6.32615">
        <ele>528.40002441406</ele>
        <time>2020-08-05T12:44:02.000Z</time>
      </trkpt>
      <trkpt lat="46.24973" lon="6.32605">
        <ele>528.59997558594</ele>
        <time>2020-08-05T12:44:03.000Z</time>
      </trkpt>
      <trkpt lat="46.24976" lon="6.32585">
        <ele>528.79998779297</ele>
        <time>2020-08-05T12:44:05.000Z</time>
      </trkpt>
      <trkpt lat="46.24977" lon="6.32575">
        <ele>528.79998779297</ele>
        <time>2020-08-05T12:44:06.000Z</time>
      </trkpt>
      <trkpt lat="46.24986" lon="6.32534">
        <ele>530.40002441406</ele>
        <time>2020-08-05T12:44:11.000Z</time>
      </trkpt>
      <trkpt lat="46.2499" lon="6.32516">
        <ele>531.20001220703</ele>
        <time>2020-08-05T12:44:14.000Z</time>
      </trkpt>
      <trkpt lat="46.24992" lon="6.32506">
        <ele>531.59997558594</ele>
        <time>2020-08-05T12:44:16.000Z</time>
      </trkpt>
      <trkpt lat="46.24991" lon="6.32494">
        <ele>531.79998779297</ele>
        <time>2020-08-05T12:44:18.000Z</time>
      </trkpt>
      <trkpt lat="46.2499" lon="6.32483">
        <ele>531.79998779297</ele>
        <time>2020-08-05T12:44:20.000Z</time>
      </trkpt>
      <trkpt lat="46.24989" lon="6.32478">
        <ele>532</ele>
        <time>2020-08-05T12:44:21.000Z</time>
      </trkpt>
      <trkpt lat="46.24987" lon="6.32451">
        <ele>533</ele>
        <time>2020-08-05T12:44:26.000Z</time>
      </trkpt>
      <trkpt lat="46.24983" lon="6.32437">
        <ele>533.40002441406</ele>
        <time>2020-08-05T12:44:29.000Z</time>
      </trkpt>
      <trkpt lat="46.2498" lon="6.32425">
        <ele>533.59997558594</ele>
        <time>2020-08-05T12:44:31.000Z</time>
      </trkpt>
      <trkpt lat="46.2497" lon="6.32395">
        <ele>534.20001220703</ele>
        <time>2020-08-05T12:44:36.000Z</time>
      </trkpt>
      <trkpt lat="46.24956" lon="6.32356">
        <ele>533</ele>
        <time>2020-08-05T12:44:42.000Z</time>
      </trkpt>
      <trkpt lat="46.2494" lon="6.32309">
        <ele>531.79998779297</ele>
        <time>2020-08-05T12:44:48.000Z</time>
      </trkpt>
      <trkpt lat="46.24927" lon="6.32273">
        <ele>531.20001220703</ele>
        <time>2020-08-05T12:44:52.000Z</time>
      </trkpt>
      <trkpt lat="46.24924" lon="6.32251">
        <ele>530.79998779297</ele>
        <time>2020-08-05T12:44:54.000Z</time>
      </trkpt>
      <trkpt lat="46.24921" lon="6.32193">
        <ele>529.40002441406</ele>
        <time>2020-08-05T12:44:59.000Z</time>
      </trkpt>
      <trkpt lat="46.24918" lon="6.32121">
        <ele>529.59997558594</ele>
        <time>2020-08-05T12:45:06.000Z</time>
      </trkpt>
      <trkpt lat="46.24917" lon="6.32093">
        <ele>530</ele>
        <time>2020-08-05T12:45:09.000Z</time>
      </trkpt>
      <trkpt lat="46.24913" lon="6.32056">
        <ele>530.20001220703</ele>
        <time>2020-08-05T12:45:13.000Z</time>
      </trkpt>
      <trkpt lat="46.24892" lon="6.31976">
        <ele>530.59997558594</ele>
        <time>2020-08-05T12:45:22.000Z</time>
      </trkpt>
      <trkpt lat="46.24876" lon="6.31915">
        <ele>528.79998779297</ele>
        <time>2020-08-05T12:45:29.000Z</time>
      </trkpt>
      <trkpt lat="46.24852" lon="6.31839">
        <ele>528</ele>
        <time>2020-08-05T12:45:37.000Z</time>
      </trkpt>
      <trkpt lat="46.24827" lon="6.31768">
        <ele>527.40002441406</ele>
        <time>2020-08-05T12:45:44.000Z</time>
      </trkpt>
      <trkpt lat="46.24802" lon="6.31699">
        <ele>525.40002441406</ele>
        <time>2020-08-05T12:45:50.000Z</time>
      </trkpt>
      <trkpt lat="46.24776" lon="6.31623">
        <ele>522.20001220703</ele>
        <time>2020-08-05T12:45:56.000Z</time>
      </trkpt>
      <trkpt lat="46.24766" lon="6.31596">
        <ele>521.59997558594</ele>
        <time>2020-08-05T12:45:58.000Z</time>
      </trkpt>
      <trkpt lat="46.24738" lon="6.31533">
        <ele>519.79998779297</ele>
        <time>2020-08-05T12:46:03.000Z</time>
      </trkpt>
      <trkpt lat="46.24701" lon="6.31472">
        <ele>518.59997558594</ele>
        <time>2020-08-05T12:46:09.000Z</time>
      </trkpt>
      <trkpt lat="46.24666" lon="6.31417">
        <ele>517.20001220703</ele>
        <time>2020-08-05T12:46:15.000Z</time>
      </trkpt>
      <trkpt lat="46.24629" lon="6.31356">
        <ele>516.40002441406</ele>
        <time>2020-08-05T12:46:22.000Z</time>
      </trkpt>
      <trkpt lat="46.24618" lon="6.31339">
        <ele>516.40002441406</ele>
        <time>2020-08-05T12:46:24.000Z</time>
      </trkpt>
      <trkpt lat="46.24596" lon="6.31306">
        <ele>516.59997558594</ele>
        <time>2020-08-05T12:46:28.000Z</time>
      </trkpt>
      <trkpt lat="46.24583" lon="6.31295">
        <ele>516.59997558594</ele>
        <time>2020-08-05T12:46:30.000Z</time>
      </trkpt>
      <trkpt lat="46.24533" lon="6.31257">
        <ele>516.20001220703</ele>
        <time>2020-08-05T12:46:37.000Z</time>
      </trkpt>
      <trkpt lat="46.24518" lon="6.31246">
        <ele>516.20001220703</ele>
        <time>2020-08-05T12:46:39.000Z</time>
      </trkpt>
      <trkpt lat="46.24505" lon="6.3123">
        <ele>516.20001220703</ele>
        <time>2020-08-05T12:46:41.000Z</time>
      </trkpt>
      <trkpt lat="46.24486" lon="6.31201">
        <ele>515.59997558594</ele>
        <time>2020-08-05T12:46:44.000Z</time>
      </trkpt>
      <trkpt lat="46.24474" lon="6.3118">
        <ele>515.59997558594</ele>
        <time>2020-08-05T12:46:46.000Z</time>
      </trkpt>
      <trkpt lat="46.24438" lon="6.31122">
        <ele>515.20001220703</ele>
        <time>2020-08-05T12:46:52.000Z</time>
      </trkpt>
      <trkpt lat="46.24403" lon="6.31063">
        <ele>514.20001220703</ele>
        <time>2020-08-05T12:46:58.000Z</time>
      </trkpt>
      <trkpt lat="46.24365" lon="6.31015">
        <ele>513.20001220703</ele>
        <time>2020-08-05T12:47:04.000Z</time>
      </trkpt>
      <trkpt lat="46.24324" lon="6.30982">
        <ele>513</ele>
        <time>2020-08-05T12:47:10.000Z</time>
      </trkpt>
      <trkpt lat="46.24281" lon="6.30954">
        <ele>514</ele>
        <time>2020-08-05T12:47:17.000Z</time>
      </trkpt>
      <trkpt lat="46.24271" lon="6.30947">
        <ele>514.40002441406</ele>
        <time>2020-08-05T12:47:19.000Z</time>
      </trkpt>
      <trkpt lat="46.24252" lon="6.30929">
        <ele>515</ele>
        <time>2020-08-05T12:47:23.000Z</time>
      </trkpt>
      <trkpt lat="46.24219" lon="6.309">
        <ele>516</ele>
        <time>2020-08-05T12:47:30.000Z</time>
      </trkpt>
      <trkpt lat="46.24204" lon="6.30888">
        <ele>516.20001220703</ele>
        <time>2020-08-05T12:47:33.000Z</time>
      </trkpt>
      <trkpt lat="46.24189" lon="6.30876">
        <ele>516.20001220703</ele>
        <time>2020-08-05T12:47:36.000Z</time>
      </trkpt>
      <trkpt lat="46.24162" lon="6.30845">
        <ele>516.20001220703</ele>
        <time>2020-08-05T12:47:42.000Z</time>
      </trkpt>
      <trkpt lat="46.24149" lon="6.30828">
        <ele>516.20001220703</ele>
        <time>2020-08-05T12:47:45.000Z</time>
      </trkpt>
      <trkpt lat="46.2414" lon="6.30816">
        <ele>516.20001220703</ele>
        <time>2020-08-05T12:47:47.000Z</time>
      </trkpt>
      <trkpt lat="46.24141" lon="6.30796">
        <ele>515.40002441406</ele>
        <time>2020-08-05T12:47:49.000Z</time>
      </trkpt>
      <trkpt lat="46.24143" lon="6.30787">
        <ele>515.20001220703</ele>
        <time>2020-08-05T12:47:50.000Z</time>
      </trkpt>
      <trkpt lat="46.24166" lon="6.30723">
        <ele>513</ele>
        <time>2020-08-05T12:47:57.000Z</time>
      </trkpt>
      <trkpt lat="46.24194" lon="6.30647">
        <ele>512</ele>
        <time>2020-08-05T12:48:05.000Z</time>
      </trkpt>
      <trkpt lat="46.24207" lon="6.30595">
        <ele>511.39999389648</ele>
        <time>2020-08-05T12:48:10.000Z</time>
      </trkpt>
      <trkpt lat="46.24221" lon="6.30516">
        <ele>510</ele>
        <time>2020-08-05T12:48:17.000Z</time>
      </trkpt>
      <trkpt lat="46.24225" lon="6.30494">
        <ele>509.39999389648</ele>
        <time>2020-08-05T12:48:19.000Z</time>
      </trkpt>
      <trkpt lat="46.24233" lon="6.3041">
        <ele>508.20001220703</ele>
        <time>2020-08-05T12:48:26.000Z</time>
      </trkpt>
      <trkpt lat="46.24234" lon="6.30398">
        <ele>508</ele>
        <time>2020-08-05T12:48:27.000Z</time>
      </trkpt>
      <trkpt lat="46.24241" lon="6.3031">
        <ele>506.79998779297</ele>
        <time>2020-08-05T12:48:34.000Z</time>
      </trkpt>
      <trkpt lat="46.24243" lon="6.30286">
        <ele>505.79998779297</ele>
        <time>2020-08-05T12:48:36.000Z</time>
      </trkpt>
      <trkpt lat="46.24249" lon="6.30202">
        <ele>503.60000610352</ele>
        <time>2020-08-05T12:48:43.000Z</time>
      </trkpt>
      <trkpt lat="46.2425" lon="6.3019">
        <ele>503.39999389648</ele>
        <time>2020-08-05T12:48:44.000Z</time>
      </trkpt>
      <trkpt lat="46.2425" lon="6.30099">
        <ele>500.39999389648</ele>
        <time>2020-08-05T12:48:51.000Z</time>
      </trkpt>
      <trkpt lat="46.2425" lon="6.30085">
        <ele>499.79998779297</ele>
        <time>2020-08-05T12:48:52.000Z</time>
      </trkpt>
      <trkpt lat="46.2425" lon="6.29999">
        <ele>500.39999389648</ele>
        <time>2020-08-05T12:48:58.000Z</time>
      </trkpt>
      <trkpt lat="46.2425" lon="6.29985">
        <ele>500.39999389648</ele>
        <time>2020-08-05T12:48:59.000Z</time>
      </trkpt>
      <trkpt lat="46.2425" lon="6.29902">
        <ele>502</ele>
        <time>2020-08-05T12:49:05.000Z</time>
      </trkpt>
      <trkpt lat="46.24249" lon="6.29888">
        <ele>501.79998779297</ele>
        <time>2020-08-05T12:49:06.000Z</time>
      </trkpt>
      <trkpt lat="46.24246" lon="6.29805">
        <ele>501</ele>
        <time>2020-08-05T12:49:12.000Z</time>
      </trkpt>
      <trkpt lat="46.24243" lon="6.29792">
        <ele>501</ele>
        <time>2020-08-05T12:49:13.000Z</time>
      </trkpt>
      <trkpt lat="46.24238" lon="6.29766">
        <ele>501</ele>
        <time>2020-08-05T12:49:15.000Z</time>
      </trkpt>
      <trkpt lat="46.24229" lon="6.29742">
        <ele>501.20001220703</ele>
        <time>2020-08-05T12:49:17.000Z</time>
      </trkpt>
      <trkpt lat="46.24216" lon="6.29724">
        <ele>500.39999389648</ele>
        <time>2020-08-05T12:49:19.000Z</time>
      </trkpt>
      <trkpt lat="46.24179" lon="6.29669">
        <ele>498</ele>
        <time>2020-08-05T12:49:25.000Z</time>
      </trkpt>
      <trkpt lat="46.24144" lon="6.29616">
        <ele>497.79998779297</ele>
        <time>2020-08-05T12:49:31.000Z</time>
      </trkpt>
      <trkpt lat="46.24114" lon="6.29559">
        <ele>500</ele>
        <time>2020-08-05T12:49:37.000Z</time>
      </trkpt>
      <trkpt lat="46.2409" lon="6.29513">
        <ele>499.79998779297</ele>
        <time>2020-08-05T12:49:42.000Z</time>
      </trkpt>
      <trkpt lat="46.2408" lon="6.29457">
        <ele>500</ele>
        <time>2020-08-05T12:49:47.000Z</time>
      </trkpt>
      <trkpt lat="46.2407" lon="6.29394">
        <ele>501</ele>
        <time>2020-08-05T12:49:53.000Z</time>
      </trkpt>
      <trkpt lat="46.24057" lon="6.29312">
        <ele>501.20001220703</ele>
        <time>2020-08-05T12:50:01.000Z</time>
      </trkpt>
      <trkpt lat="46.24055" lon="6.29302">
        <ele>501.20001220703</ele>
        <time>2020-08-05T12:50:02.000Z</time>
      </trkpt>
      <trkpt lat="46.24038" lon="6.2923">
        <ele>501.20001220703</ele>
        <time>2020-08-05T12:50:09.000Z</time>
      </trkpt>
      <trkpt lat="46.2402" lon="6.2915">
        <ele>500.20001220703</ele>
        <time>2020-08-05T12:50:17.000Z</time>
      </trkpt>
      <trkpt lat="46.24014" lon="6.29131">
        <ele>499.39999389648</ele>
        <time>2020-08-05T12:50:19.000Z</time>
      </trkpt>
      <trkpt lat="46.23993" lon="6.29076">
        <ele>497.20001220703</ele>
        <time>2020-08-05T12:50:25.000Z</time>
      </trkpt>
      <trkpt lat="46.2397" lon="6.29024">
        <ele>497.20001220703</ele>
        <time>2020-08-05T12:50:31.000Z</time>
      </trkpt>
      <trkpt lat="46.23962" lon="6.29006">
        <ele>497.20001220703</ele>
        <time>2020-08-05T12:50:33.000Z</time>
      </trkpt>
      <trkpt lat="46.23957" lon="6.28977">
        <ele>497.60000610352</ele>
        <time>2020-08-05T12:50:36.000Z</time>
      </trkpt>
      <trkpt lat="46.23952" lon="6.28915">
        <ele>499.39999389648</ele>
        <time>2020-08-05T12:50:42.000Z</time>
      </trkpt>
      <trkpt lat="46.23959" lon="6.28861">
        <ele>500</ele>
        <time>2020-08-05T12:50:47.000Z</time>
      </trkpt>
      <trkpt lat="46.23968" lon="6.28797">
        <ele>500.60000610352</ele>
        <time>2020-08-05T12:50:53.000Z</time>
      </trkpt>
      <trkpt lat="46.23971" lon="6.28765">
        <ele>499.39999389648</ele>
        <time>2020-08-05T12:50:56.000Z</time>
      </trkpt>
      <trkpt lat="46.23974" lon="6.28743">
        <ele>498.60000610352</ele>
        <time>2020-08-05T12:50:58.000Z</time>
      </trkpt>
      <trkpt lat="46.23978" lon="6.28699">
        <ele>497.60000610352</ele>
        <time>2020-08-05T12:51:02.000Z</time>
      </trkpt>
      <trkpt lat="46.2398" lon="6.28677">
        <ele>497.39999389648</ele>
        <time>2020-08-05T12:51:04.000Z</time>
      </trkpt>
      <trkpt lat="46.2398" lon="6.28597">
        <ele>495.79998779297</ele>
        <time>2020-08-05T12:51:11.000Z</time>
      </trkpt>
      <trkpt lat="46.2398" lon="6.28563">
        <ele>495</ele>
        <time>2020-08-05T12:51:14.000Z</time>
      </trkpt>
      <trkpt lat="46.23978" lon="6.28481">
        <ele>490</ele>
        <time>2020-08-05T12:51:21.000Z</time>
      </trkpt>
      <trkpt lat="46.23976" lon="6.28448">
        <ele>488.60000610352</ele>
        <time>2020-08-05T12:51:24.000Z</time>
      </trkpt>
      <trkpt lat="46.23963" lon="6.28393">
        <ele>486.39999389648</ele>
        <time>2020-08-05T12:51:29.000Z</time>
      </trkpt>
      <trkpt lat="46.23943" lon="6.28318">
        <ele>486</ele>
        <time>2020-08-05T12:51:36.000Z</time>
      </trkpt>
      <trkpt lat="46.23937" lon="6.28298">
        <ele>485.79998779297</ele>
        <time>2020-08-05T12:51:38.000Z</time>
      </trkpt>
      <trkpt lat="46.23916" lon="6.28225">
        <ele>485.60000610352</ele>
        <time>2020-08-05T12:51:45.000Z</time>
      </trkpt>
      <trkpt lat="46.23913" lon="6.28214">
        <ele>485.60000610352</ele>
        <time>2020-08-05T12:51:46.000Z</time>
      </trkpt>
      <trkpt lat="46.23891" lon="6.28138">
        <ele>484.79998779297</ele>
        <time>2020-08-05T12:51:53.000Z</time>
      </trkpt>
      <trkpt lat="46.23885" lon="6.28116">
        <ele>484.60000610352</ele>
        <time>2020-08-05T12:51:55.000Z</time>
      </trkpt>
      <trkpt lat="46.23863" lon="6.28038">
        <ele>483.60000610352</ele>
        <time>2020-08-05T12:52:02.000Z</time>
      </trkpt>
      <trkpt lat="46.23856" lon="6.28015">
        <ele>483.39999389648</ele>
        <time>2020-08-05T12:52:04.000Z</time>
      </trkpt>
      <trkpt lat="46.2383" lon="6.27939">
        <ele>483.39999389648</ele>
        <time>2020-08-05T12:52:11.000Z</time>
      </trkpt>
      <trkpt lat="46.23823" lon="6.27918">
        <ele>483.79998779297</ele>
        <time>2020-08-05T12:52:13.000Z</time>
      </trkpt>
      <trkpt lat="46.23799" lon="6.2784">
        <ele>483.79998779297</ele>
        <time>2020-08-05T12:52:20.000Z</time>
      </trkpt>
      <trkpt lat="46.23787" lon="6.27772">
        <ele>483.79998779297</ele>
        <time>2020-08-05T12:52:26.000Z</time>
      </trkpt>
      <trkpt lat="46.23776" lon="6.27693">
        <ele>482.60000610352</ele>
        <time>2020-08-05T12:52:33.000Z</time>
      </trkpt>
      <trkpt lat="46.23775" lon="6.27681">
        <ele>482.20001220703</ele>
        <time>2020-08-05T12:52:34.000Z</time>
      </trkpt>
      <trkpt lat="46.23773" lon="6.2761">
        <ele>481.39999389648</ele>
        <time>2020-08-05T12:52:40.000Z</time>
      </trkpt>
      <trkpt lat="46.23781" lon="6.27537">
        <ele>481.20001220703</ele>
        <time>2020-08-05T12:52:46.000Z</time>
      </trkpt>
      <trkpt lat="46.23785" lon="6.27489">
        <ele>481.60000610352</ele>
        <time>2020-08-05T12:52:50.000Z</time>
      </trkpt>
      <trkpt lat="46.23785" lon="6.27476">
        <ele>481.60000610352</ele>
        <time>2020-08-05T12:52:51.000Z</time>
      </trkpt>
      <trkpt lat="46.23776" lon="6.27403">
        <ele>481.39999389648</ele>
        <time>2020-08-05T12:52:57.000Z</time>
      </trkpt>
      <trkpt lat="46.23771" lon="6.27379">
        <ele>480.79998779297</ele>
        <time>2020-08-05T12:52:59.000Z</time>
      </trkpt>
      <trkpt lat="46.23766" lon="6.27372">
        <ele>480.79998779297</ele>
        <time>2020-08-05T12:53:00.000Z</time>
      </trkpt>
      <trkpt lat="46.23759" lon="6.27366">
        <ele>480.79998779297</ele>
        <time>2020-08-05T12:53:01.000Z</time>
      </trkpt>
      <trkpt lat="46.23743" lon="6.27354">
        <ele>481</ele>
        <time>2020-08-05T12:53:03.000Z</time>
      </trkpt>
      <trkpt lat="46.23696" lon="6.27313">
        <ele>479.20001220703</ele>
        <time>2020-08-05T12:53:09.000Z</time>
      </trkpt>
      <trkpt lat="46.23683" lon="6.27292">
        <ele>479</ele>
        <time>2020-08-05T12:53:11.000Z</time>
      </trkpt>
      <trkpt lat="46.23679" lon="6.2728">
        <ele>478.79998779297</ele>
        <time>2020-08-05T12:53:12.000Z</time>
      </trkpt>
      <trkpt lat="46.2367" lon="6.27256">
        <ele>478.60000610352</ele>
        <time>2020-08-05T12:53:14.000Z</time>
      </trkpt>
      <trkpt lat="46.23664" lon="6.27231">
        <ele>478.39999389648</ele>
        <time>2020-08-05T12:53:16.000Z</time>
      </trkpt>
      <trkpt lat="46.23657" lon="6.2718">
        <ele>477.60000610352</ele>
        <time>2020-08-05T12:53:20.000Z</time>
      </trkpt>
      <trkpt lat="46.23657" lon="6.27168">
        <ele>477.60000610352</ele>
        <time>2020-08-05T12:53:21.000Z</time>
      </trkpt>
      <trkpt lat="46.2366" lon="6.27156">
        <ele>477.60000610352</ele>
        <time>2020-08-05T12:53:22.000Z</time>
      </trkpt>
      <trkpt lat="46.23665" lon="6.27147">
        <ele>478.39999389648</ele>
        <time>2020-08-05T12:53:23.000Z</time>
      </trkpt>
      <trkpt lat="46.23671" lon="6.27139">
        <ele>478.60000610352</ele>
        <time>2020-08-05T12:53:24.000Z</time>
      </trkpt>
      <trkpt lat="46.23684" lon="6.27129">
        <ele>479.39999389648</ele>
        <time>2020-08-05T12:53:26.000Z</time>
      </trkpt>
      <trkpt lat="46.23713" lon="6.27107">
        <ele>481</ele>
        <time>2020-08-05T12:53:31.000Z</time>
      </trkpt>
      <trkpt lat="46.23745" lon="6.27084">
        <ele>481</ele>
        <time>2020-08-05T12:53:38.000Z</time>
      </trkpt>
      <trkpt lat="46.23746" lon="6.2708">
        <ele>480.79998779297</ele>
        <time>2020-08-05T12:53:40.000Z</time>
      </trkpt>
      <trkpt lat="46.23744" lon="6.27075">
        <ele>480.79998779297</ele>
        <time>2020-08-05T12:53:41.000Z</time>
      </trkpt>
      <trkpt lat="46.23742" lon="6.27069">
        <ele>480.60000610352</ele>
        <time>2020-08-05T12:53:42.000Z</time>
      </trkpt>
      <trkpt lat="46.23733" lon="6.27043">
        <ele>479.79998779297</ele>
        <time>2020-08-05T12:53:46.000Z</time>
      </trkpt>
      <trkpt lat="46.23711" lon="6.26998">
        <ele>477.20001220703</ele>
        <time>2020-08-05T12:53:52.000Z</time>
      </trkpt>
      <trkpt lat="46.23678" lon="6.26924">
        <ele>475</ele>
        <time>2020-08-05T12:54:01.000Z</time>
      </trkpt>
      <trkpt lat="46.23659" lon="6.2688">
        <ele>473.20001220703</ele>
        <time>2020-08-05T12:54:06.000Z</time>
      </trkpt>
      <trkpt lat="46.23631" lon="6.26814">
        <ele>471.20001220703</ele>
        <time>2020-08-05T12:54:13.000Z</time>
      </trkpt>
      <trkpt lat="46.23627" lon="6.26805">
        <ele>471.39999389648</ele>
        <time>2020-08-05T12:54:14.000Z</time>
      </trkpt>
      <trkpt lat="46.23603" lon="6.26761">
        <ele>472</ele>
        <time>2020-08-05T12:54:19.000Z</time>
      </trkpt>
      <trkpt lat="46.23572" lon="6.26716">
        <ele>473</ele>
        <time>2020-08-05T12:54:25.000Z</time>
      </trkpt>
      <trkpt lat="46.23551" lon="6.26677">
        <ele>473.79998779297</ele>
        <time>2020-08-05T12:54:30.000Z</time>
      </trkpt>
      <trkpt lat="46.23548" lon="6.26669">
        <ele>474</ele>
        <time>2020-08-05T12:54:31.000Z</time>
      </trkpt>
      <trkpt lat="46.23539" lon="6.26644">
        <ele>474.20001220703</ele>
        <time>2020-08-05T12:54:34.000Z</time>
      </trkpt>
      <trkpt lat="46.23527" lon="6.26611">
        <ele>474.20001220703</ele>
        <time>2020-08-05T12:54:39.000Z</time>
      </trkpt>
      <trkpt lat="46.23525" lon="6.26605">
        <ele>474</ele>
        <time>2020-08-05T12:54:40.000Z</time>
      </trkpt>
      <trkpt lat="46.23516" lon="6.26581">
        <ele>473.79998779297</ele>
        <time>2020-08-05T12:54:43.000Z</time>
      </trkpt>
      <trkpt lat="46.23508" lon="6.26566">
        <ele>473.60000610352</ele>
        <time>2020-08-05T12:54:45.000Z</time>
      </trkpt>
      <trkpt lat="46.23497" lon="6.26554">
        <ele>473.39999389648</ele>
        <time>2020-08-05T12:54:47.000Z</time>
      </trkpt>
      <trkpt lat="46.23487" lon="6.26544">
        <ele>473</ele>
        <time>2020-08-05T12:54:49.000Z</time>
      </trkpt>
      <trkpt lat="46.23476" lon="6.26531">
        <ele>472.60000610352</ele>
        <time>2020-08-05T12:54:51.000Z</time>
      </trkpt>
      <trkpt lat="46.23477" lon="6.26515">
        <ele>472.39999389648</ele>
        <time>2020-08-05T12:54:53.000Z</time>
      </trkpt>
      <trkpt lat="46.23479" lon="6.26508">
        <ele>472.39999389648</ele>
        <time>2020-08-05T12:54:54.000Z</time>
      </trkpt>
      <trkpt lat="46.2349" lon="6.26454">
        <ele>471.79998779297</ele>
        <time>2020-08-05T12:55:00.000Z</time>
      </trkpt>
      <trkpt lat="46.23504" lon="6.26373">
        <ele>469.60000610352</ele>
        <time>2020-08-05T12:55:09.000Z</time>
      </trkpt>
      <trkpt lat="46.23508" lon="6.26336">
        <ele>468.20001220703</ele>
        <time>2020-08-05T12:55:13.000Z</time>
      </trkpt>
      <trkpt lat="46.23509" lon="6.26326">
        <ele>468</ele>
        <time>2020-08-05T12:55:14.000Z</time>
      </trkpt>
      <trkpt lat="46.23507" lon="6.26266">
        <ele>466</ele>
        <time>2020-08-05T12:55:20.000Z</time>
      </trkpt>
      <trkpt lat="46.23505" lon="6.26245">
        <ele>465.60000610352</ele>
        <time>2020-08-05T12:55:22.000Z</time>
      </trkpt>
      <trkpt lat="46.23503" lon="6.26224">
        <ele>465.60000610352</ele>
        <time>2020-08-05T12:55:24.000Z</time>
      </trkpt>
      <trkpt lat="46.23506" lon="6.26178">
        <ele>465</ele>
        <time>2020-08-05T12:55:28.000Z</time>
      </trkpt>
      <trkpt lat="46.23507" lon="6.26166">
        <ele>465</ele>
        <time>2020-08-05T12:55:29.000Z</time>
      </trkpt>
      <trkpt lat="46.23519" lon="6.26105">
        <ele>464</ele>
        <time>2020-08-05T12:55:34.000Z</time>
      </trkpt>
      <trkpt lat="46.2354" lon="6.26034">
        <ele>463.60000610352</ele>
        <time>2020-08-05T12:55:40.000Z</time>
      </trkpt>
      <trkpt lat="46.23543" lon="6.26022">
        <ele>463.60000610352</ele>
        <time>2020-08-05T12:55:41.000Z</time>
      </trkpt>
      <trkpt lat="46.23547" lon="6.26">
        <ele>463.20001220703</ele>
        <time>2020-08-05T12:55:43.000Z</time>
      </trkpt>
      <trkpt lat="46.23539" lon="6.25956">
        <ele>462.20001220703</ele>
        <time>2020-08-05T12:55:47.000Z</time>
      </trkpt>
      <trkpt lat="46.23535" lon="6.25936">
        <ele>462.20001220703</ele>
        <time>2020-08-05T12:55:49.000Z</time>
      </trkpt>
      <trkpt lat="46.23533" lon="6.25924">
        <ele>462.20001220703</ele>
        <time>2020-08-05T12:55:50.000Z</time>
      </trkpt>
      <trkpt lat="46.23516" lon="6.25847">
        <ele>463.20001220703</ele>
        <time>2020-08-05T12:55:57.000Z</time>
      </trkpt>
      <trkpt lat="46.23501" lon="6.25785">
        <ele>464.39999389648</ele>
        <time>2020-08-05T12:56:03.000Z</time>
      </trkpt>
      <trkpt lat="46.23499" lon="6.25775">
        <ele>464.39999389648</ele>
        <time>2020-08-05T12:56:04.000Z</time>
      </trkpt>
      <trkpt lat="46.23501" lon="6.25751">
        <ele>464.79998779297</ele>
        <time>2020-08-05T12:56:06.000Z</time>
      </trkpt>
      <trkpt lat="46.23505" lon="6.25699">
        <ele>465.60000610352</ele>
        <time>2020-08-05T12:56:10.000Z</time>
      </trkpt>
      <trkpt lat="46.23506" lon="6.25686">
        <ele>465.20001220703</ele>
        <time>2020-08-05T12:56:11.000Z</time>
      </trkpt>
      <trkpt lat="46.23504" lon="6.25673">
        <ele>464.60000610352</ele>
        <time>2020-08-05T12:56:12.000Z</time>
      </trkpt>
      <trkpt lat="46.23496" lon="6.25649">
        <ele>462.39999389648</ele>
        <time>2020-08-05T12:56:14.000Z</time>
      </trkpt>
      <trkpt lat="46.23472" lon="6.25573">
        <ele>456.39999389648</ele>
        <time>2020-08-05T12:56:20.000Z</time>
      </trkpt>
      <trkpt lat="46.23464" lon="6.25548">
        <ele>455.79998779297</ele>
        <time>2020-08-05T12:56:22.000Z</time>
      </trkpt>
      <trkpt lat="46.23452" lon="6.25482">
        <ele>454.39999389648</ele>
        <time>2020-08-05T12:56:27.000Z</time>
      </trkpt>
      <trkpt lat="46.23442" lon="6.25405">
        <ele>453.20001220703</ele>
        <time>2020-08-05T12:56:33.000Z</time>
      </trkpt>
      <trkpt lat="46.23432" lon="6.25326">
        <ele>449.39999389648</ele>
        <time>2020-08-05T12:56:39.000Z</time>
      </trkpt>
      <trkpt lat="46.23429" lon="6.253">
        <ele>448.60000610352</ele>
        <time>2020-08-05T12:56:41.000Z</time>
      </trkpt>
      <trkpt lat="46.23414" lon="6.25228">
        <ele>447.60000610352</ele>
        <time>2020-08-05T12:56:47.000Z</time>
      </trkpt>
      <trkpt lat="46.234" lon="6.25157">
        <ele>447.20001220703</ele>
        <time>2020-08-05T12:56:53.000Z</time>
      </trkpt>
      <trkpt lat="46.2339" lon="6.25106">
        <ele>446.20001220703</ele>
        <time>2020-08-05T12:56:58.000Z</time>
      </trkpt>
      <trkpt lat="46.23397" lon="6.25088">
        <ele>446.39999389648</ele>
        <time>2020-08-05T12:57:00.000Z</time>
      </trkpt>
      <trkpt lat="46.23395" lon="6.25082">
        <ele>446.20001220703</ele>
        <time>2020-08-05T12:57:01.000Z</time>
      </trkpt>
      <trkpt lat="46.23393" lon="6.25076">
        <ele>446</ele>
        <time>2020-08-05T12:57:02.000Z</time>
      </trkpt>
      <trkpt lat="46.23387" lon="6.25073">
        <ele>445.79998779297</ele>
        <time>2020-08-05T12:57:03.000Z</time>
      </trkpt>
      <trkpt lat="46.23382" lon="6.25076">
        <ele>445.60000610352</ele>
        <time>2020-08-05T12:57:04.000Z</time>
      </trkpt>
      <trkpt lat="46.23366" lon="6.25073">
        <ele>444.60000610352</ele>
        <time>2020-08-05T12:57:06.000Z</time>
      </trkpt>
      <trkpt lat="46.23336" lon="6.25057">
        <ele>443.20001220703</ele>
        <time>2020-08-05T12:57:10.000Z</time>
      </trkpt>
      <trkpt lat="46.2328" lon="6.25027">
        <ele>442.79998779297</ele>
        <time>2020-08-05T12:57:17.000Z</time>
      </trkpt>
      <trkpt lat="46.23226" lon="6.24999">
        <ele>443.79998779297</ele>
        <time>2020-08-05T12:57:24.000Z</time>
      </trkpt>
      <trkpt lat="46.23211" lon="6.24991">
        <ele>443.60000610352</ele>
        <time>2020-08-05T12:57:26.000Z</time>
      </trkpt>
      <trkpt lat="46.23167" lon="6.24963">
        <ele>442.60000610352</ele>
        <time>2020-08-05T12:57:32.000Z</time>
      </trkpt>
      <trkpt lat="46.23114" lon="6.24929">
        <ele>441.60000610352</ele>
        <time>2020-08-05T12:57:39.000Z</time>
      </trkpt>
      <trkpt lat="46.23092" lon="6.24913">
        <ele>441.20001220703</ele>
        <time>2020-08-05T12:57:42.000Z</time>
      </trkpt>
      <trkpt lat="46.23041" lon="6.24875">
        <ele>441.20001220703</ele>
        <time>2020-08-05T12:57:49.000Z</time>
      </trkpt>
      <trkpt lat="46.2302" lon="6.24859">
        <ele>441.60000610352</ele>
        <time>2020-08-05T12:57:52.000Z</time>
      </trkpt>
      <trkpt lat="46.22969" lon="6.24823">
        <ele>442.20001220703</ele>
        <time>2020-08-05T12:57:59.000Z</time>
      </trkpt>
      <trkpt lat="46.22953" lon="6.24813">
        <ele>442.39999389648</ele>
        <time>2020-08-05T12:58:01.000Z</time>
      </trkpt>
      <trkpt lat="46.22905" lon="6.24784">
        <ele>442.20001220703</ele>
        <time>2020-08-05T12:58:07.000Z</time>
      </trkpt>
      <trkpt lat="46.22854" lon="6.24755">
        <ele>442.20001220703</ele>
        <time>2020-08-05T12:58:13.000Z</time>
      </trkpt>
      <trkpt lat="46.22846" lon="6.2475">
        <ele>442</ele>
        <time>2020-08-05T12:58:14.000Z</time>
      </trkpt>
      <trkpt lat="46.22795" lon="6.24721">
        <ele>441.79998779297</ele>
        <time>2020-08-05T12:58:20.000Z</time>
      </trkpt>
      <trkpt lat="46.22761" lon="6.247">
        <ele>441.39999389648</ele>
        <time>2020-08-05T12:58:24.000Z</time>
      </trkpt>
      <trkpt lat="46.22729" lon="6.2468">
        <ele>440.79998779297</ele>
        <time>2020-08-05T12:58:28.000Z</time>
      </trkpt>
      <trkpt lat="46.22722" lon="6.24675">
        <ele>440.60000610352</ele>
        <time>2020-08-05T12:58:29.000Z</time>
      </trkpt>
      <trkpt lat="46.22716" lon="6.24672">
        <ele>440.39999389648</ele>
        <time>2020-08-05T12:58:30.000Z</time>
      </trkpt>
      <trkpt lat="46.22711" lon="6.24653">
        <ele>440</ele>
        <time>2020-08-05T12:58:32.000Z</time>
      </trkpt>
      <trkpt lat="46.227" lon="6.24654">
        <ele>439.79998779297</ele>
        <time>2020-08-05T12:58:34.000Z</time>
      </trkpt>
      <trkpt lat="46.22695" lon="6.24663">
        <ele>440</ele>
        <time>2020-08-05T12:58:36.000Z</time>
      </trkpt>
      <trkpt lat="46.22698" lon="6.24678">
        <ele>440.39999389648</ele>
        <time>2020-08-05T12:58:38.000Z</time>
      </trkpt>
      <trkpt lat="46.22694" lon="6.24689">
        <ele>440.60000610352</ele>
        <time>2020-08-05T12:58:39.000Z</time>
      </trkpt>
      <trkpt lat="46.22691" lon="6.24696">
        <ele>440.60000610352</ele>
        <time>2020-08-05T12:58:40.000Z</time>
      </trkpt>
      <trkpt lat="46.22682" lon="6.24719">
        <ele>440.79998779297</ele>
        <time>2020-08-05T12:58:43.000Z</time>
      </trkpt>
      <trkpt lat="46.22654" lon="6.24789">
        <ele>441.60000610352</ele>
        <time>2020-08-05T12:58:52.000Z</time>
      </trkpt>
      <trkpt lat="46.22645" lon="6.24812">
        <ele>442</ele>
        <time>2020-08-05T12:58:55.000Z</time>
      </trkpt>
      <trkpt lat="46.22617" lon="6.24859">
        <ele>444.20001220703</ele>
        <time>2020-08-05T12:59:02.000Z</time>
      </trkpt>
      <trkpt lat="46.22582" lon="6.249">
        <ele>445.60000610352</ele>
        <time>2020-08-05T12:59:09.000Z</time>
      </trkpt>
      <trkpt lat="46.22552" lon="6.24921">
        <ele>445.79998779297</ele>
        <time>2020-08-05T12:59:14.000Z</time>
      </trkpt>
      <trkpt lat="46.22501" lon="6.24954">
        <ele>445.79998779297</ele>
        <time>2020-08-05T12:59:22.000Z</time>
      </trkpt>
      <trkpt lat="46.22458" lon="6.24983">
        <ele>446.60000610352</ele>
        <time>2020-08-05T12:59:29.000Z</time>
      </trkpt>
      <trkpt lat="46.22428" lon="6.25003">
        <ele>447.79998779297</ele>
        <time>2020-08-05T12:59:34.000Z</time>
      </trkpt>
      <trkpt lat="46.2239" lon="6.25029">
        <ele>447.39999389648</ele>
        <time>2020-08-05T12:59:40.000Z</time>
      </trkpt>
      <trkpt lat="46.22339" lon="6.25063">
        <ele>446.39999389648</ele>
        <time>2020-08-05T12:59:48.000Z</time>
      </trkpt>
      <trkpt lat="46.22294" lon="6.25093">
        <ele>446.39999389648</ele>
        <time>2020-08-05T12:59:55.000Z</time>
      </trkpt>
      <trkpt lat="46.22241" lon="6.25127">
        <ele>446.79998779297</ele>
        <time>2020-08-05T13:00:03.000Z</time>
      </trkpt>
      <trkpt lat="46.22235" lon="6.25132">
        <ele>446.79998779297</ele>
        <time>2020-08-05T13:00:04.000Z</time>
      </trkpt>
      <trkpt lat="46.22188" lon="6.25163">
        <ele>447</ele>
        <time>2020-08-05T13:00:11.000Z</time>
      </trkpt>
      <trkpt lat="46.2214" lon="6.25196">
        <ele>449</ele>
        <time>2020-08-05T13:00:18.000Z</time>
      </trkpt>
      <trkpt lat="46.22097" lon="6.25225">
        <ele>449.39999389648</ele>
        <time>2020-08-05T13:00:25.000Z</time>
      </trkpt>
      <trkpt lat="46.22053" lon="6.25255">
        <ele>449.60000610352</ele>
        <time>2020-08-05T13:00:33.000Z</time>
      </trkpt>
      <trkpt lat="46.2201" lon="6.25284">
        <ele>450</ele>
        <time>2020-08-05T13:00:41.000Z</time>
      </trkpt>
      <trkpt lat="46.21962" lon="6.25316">
        <ele>450.39999389648</ele>
        <time>2020-08-05T13:00:50.000Z</time>
      </trkpt>
      <trkpt lat="46.21929" lon="6.25339">
        <ele>451.79998779297</ele>
        <time>2020-08-05T13:00:56.000Z</time>
      </trkpt>
      <trkpt lat="46.21893" lon="6.25353">
        <ele>453.39999389648</ele>
        <time>2020-08-05T13:01:02.000Z</time>
      </trkpt>
      <trkpt lat="46.2188" lon="6.25354">
        <ele>453.79998779297</ele>
        <time>2020-08-05T13:01:04.000Z</time>
      </trkpt>
      <trkpt lat="46.21867" lon="6.25354">
        <ele>454.20001220703</ele>
        <time>2020-08-05T13:01:06.000Z</time>
      </trkpt>
      <trkpt lat="46.2186" lon="6.25353">
        <ele>454.20001220703</ele>
        <time>2020-08-05T13:01:07.000Z</time>
      </trkpt>
      <trkpt lat="46.21854" lon="6.2535">
        <ele>454.39999389648</ele>
        <time>2020-08-05T13:01:08.000Z</time>
      </trkpt>
      <trkpt lat="46.21827" lon="6.2534">
        <ele>454.79998779297</ele>
        <time>2020-08-05T13:01:12.000Z</time>
      </trkpt>
      <trkpt lat="46.21799" lon="6.2533">
        <ele>455</ele>
        <time>2020-08-05T13:01:16.000Z</time>
      </trkpt>
      <trkpt lat="46.21785" lon="6.25324">
        <ele>454.79998779297</ele>
        <time>2020-08-05T13:01:18.000Z</time>
      </trkpt>
      <trkpt lat="46.21752" lon="6.25306">
        <ele>454.39999389648</ele>
        <time>2020-08-05T13:01:23.000Z</time>
      </trkpt>
      <trkpt lat="46.21698" lon="6.25271">
        <ele>453</ele>
        <time>2020-08-05T13:01:31.000Z</time>
      </trkpt>
      <trkpt lat="46.21693" lon="6.25265">
        <ele>452.79998779297</ele>
        <time>2020-08-05T13:01:32.000Z</time>
      </trkpt>
      <trkpt lat="46.21664" lon="6.25232">
        <ele>451.20001220703</ele>
        <time>2020-08-05T13:01:37.000Z</time>
      </trkpt>
      <trkpt lat="46.2163" lon="6.25191">
        <ele>450</ele>
        <time>2020-08-05T13:01:43.000Z</time>
      </trkpt>
      <trkpt lat="46.21601" lon="6.25155">
        <ele>449.20001220703</ele>
        <time>2020-08-05T13:01:48.000Z</time>
      </trkpt>
      <trkpt lat="46.21569" lon="6.25122">
        <ele>448.39999389648</ele>
        <time>2020-08-05T13:01:53.000Z</time>
      </trkpt>
      <trkpt lat="46.21524" lon="6.25077">
        <ele>448.20001220703</ele>
        <time>2020-08-05T13:02:00.000Z</time>
      </trkpt>
      <trkpt lat="46.21505" lon="6.25058">
        <ele>448.20001220703</ele>
        <time>2020-08-05T13:02:03.000Z</time>
      </trkpt>
      <trkpt lat="46.21493" lon="6.25047">
        <ele>448.20001220703</ele>
        <time>2020-08-05T13:02:05.000Z</time>
      </trkpt>
      <trkpt lat="46.21489" lon="6.25028">
        <ele>448</ele>
        <time>2020-08-05T13:02:07.000Z</time>
      </trkpt>
      <trkpt lat="46.21492" lon="6.24997">
        <ele>447.20001220703</ele>
        <time>2020-08-05T13:02:10.000Z</time>
      </trkpt>
      <trkpt lat="46.21508" lon="6.24948">
        <ele>445.20001220703</ele>
        <time>2020-08-05T13:02:15.000Z</time>
      </trkpt>
      <trkpt lat="46.21512" lon="6.24939">
        <ele>444.79998779297</ele>
        <time>2020-08-05T13:02:16.000Z</time>
      </trkpt>
      <trkpt lat="46.21542" lon="6.24872">
        <ele>441.60000610352</ele>
        <time>2020-08-05T13:02:23.000Z</time>
      </trkpt>
      <trkpt lat="46.21546" lon="6.24863">
        <ele>441.39999389648</ele>
        <time>2020-08-05T13:02:24.000Z</time>
      </trkpt>
      <trkpt lat="46.21566" lon="6.24818">
        <ele>440.20001220703</ele>
        <time>2020-08-05T13:02:29.000Z</time>
      </trkpt>
      <trkpt lat="46.21568" lon="6.24808">
        <ele>440</ele>
        <time>2020-08-05T13:02:30.000Z</time>
      </trkpt>
      <trkpt lat="46.21568" lon="6.24799">
        <ele>439.79998779297</ele>
        <time>2020-08-05T13:02:31.000Z</time>
      </trkpt>
      <trkpt lat="46.21568" lon="6.24781">
        <ele>439.60000610352</ele>
        <time>2020-08-05T13:02:33.000Z</time>
      </trkpt>
      <trkpt lat="46.2156" lon="6.24767">
        <ele>439.39999389648</ele>
        <time>2020-08-05T13:02:35.000Z</time>
      </trkpt>
      <trkpt lat="46.21556" lon="6.24759">
        <ele>439.60000610352</ele>
        <time>2020-08-05T13:02:36.000Z</time>
      </trkpt>
      <trkpt lat="46.21505" lon="6.24724">
        <ele>440.39999389648</ele>
        <time>2020-08-05T13:02:44.000Z</time>
      </trkpt>
      <trkpt lat="46.21455" lon="6.24689">
        <ele>441.20001220703</ele>
        <time>2020-08-05T13:02:52.000Z</time>
      </trkpt>
      <trkpt lat="46.21406" lon="6.24654">
        <ele>441.79998779297</ele>
        <time>2020-08-05T13:02:59.000Z</time>
      </trkpt>
      <trkpt lat="46.21362" lon="6.24623">
        <ele>441</ele>
        <time>2020-08-05T13:03:05.000Z</time>
      </trkpt>
      <trkpt lat="46.2131" lon="6.24585">
        <ele>439.39999389648</ele>
        <time>2020-08-05T13:03:12.000Z</time>
      </trkpt>
      <trkpt lat="46.21289" lon="6.2457">
        <ele>439.60000610352</ele>
        <time>2020-08-05T13:03:15.000Z</time>
      </trkpt>
      <trkpt lat="46.21248" lon="6.24532">
        <ele>440.20001220703</ele>
        <time>2020-08-05T13:03:21.000Z</time>
      </trkpt>
      <trkpt lat="46.21219" lon="6.24489">
        <ele>440.20001220703</ele>
        <time>2020-08-05T13:03:26.000Z</time>
      </trkpt>
      <trkpt lat="46.21178" lon="6.24427">
        <ele>440</ele>
        <time>2020-08-05T13:03:33.000Z</time>
      </trkpt>
      <trkpt lat="46.21166" lon="6.24409">
        <ele>440</ele>
        <time>2020-08-05T13:03:35.000Z</time>
      </trkpt>
      <trkpt lat="46.21124" lon="6.24346">
        <ele>438.79998779297</ele>
        <time>2020-08-05T13:03:42.000Z</time>
      </trkpt>
      <trkpt lat="46.21118" lon="6.24337">
        <ele>438.60000610352</ele>
        <time>2020-08-05T13:03:43.000Z</time>
      </trkpt>
      <trkpt lat="46.21075" lon="6.24272">
        <ele>437</ele>
        <time>2020-08-05T13:03:50.000Z</time>
      </trkpt>
      <trkpt lat="46.21069" lon="6.24262">
        <ele>436.79998779297</ele>
        <time>2020-08-05T13:03:51.000Z</time>
      </trkpt>
      <trkpt lat="46.21026" lon="6.24198">
        <ele>437.20001220703</ele>
        <time>2020-08-05T13:03:58.000Z</time>
      </trkpt>
      <trkpt lat="46.2102" lon="6.24189">
        <ele>437.39999389648</ele>
        <time>2020-08-05T13:03:59.000Z</time>
      </trkpt>
      <trkpt lat="46.20981" lon="6.24129">
        <ele>438.60000610352</ele>
        <time>2020-08-05T13:04:06.000Z</time>
      </trkpt>
      <trkpt lat="46.20966" lon="6.2412">
        <ele>438.60000610352</ele>
        <time>2020-08-05T13:04:08.000Z</time>
      </trkpt>
      <trkpt lat="46.2096" lon="6.24116">
        <ele>438.60000610352</ele>
        <time>2020-08-05T13:04:09.000Z</time>
      </trkpt>
      <trkpt lat="46.20952" lon="6.24114">
        <ele>438.60000610352</ele>
        <time>2020-08-05T13:04:10.000Z</time>
      </trkpt>
      <trkpt lat="46.20922" lon="6.24112">
        <ele>438.39999389648</ele>
        <time>2020-08-05T13:04:14.000Z</time>
      </trkpt>
      <trkpt lat="46.20886" lon="6.24108">
        <ele>438</ele>
        <time>2020-08-05T13:04:19.000Z</time>
      </trkpt>
      <trkpt lat="46.20873" lon="6.24103">
        <ele>438</ele>
        <time>2020-08-05T13:04:21.000Z</time>
      </trkpt>
      <trkpt lat="46.20862" lon="6.24097">
        <ele>438</ele>
        <time>2020-08-05T13:04:23.000Z</time>
      </trkpt>
      <trkpt lat="46.20858" lon="6.2409">
        <ele>438</ele>
        <time>2020-08-05T13:04:24.000Z</time>
      </trkpt>
      <trkpt lat="46.2085" lon="6.24078">
        <ele>438</ele>
        <time>2020-08-05T13:04:26.000Z</time>
      </trkpt>
      <trkpt lat="46.20846" lon="6.24073">
        <ele>438</ele>
        <time>2020-08-05T13:04:27.000Z</time>
      </trkpt>
      <trkpt lat="46.20838" lon="6.24061">
        <ele>438</ele>
        <time>2020-08-05T13:04:29.000Z</time>
      </trkpt>
      <trkpt lat="46.20827" lon="6.24057">
        <ele>438</ele>
        <time>2020-08-05T13:04:31.000Z</time>
      </trkpt>
      <trkpt lat="46.20821" lon="6.24054">
        <ele>438</ele>
        <time>2020-08-05T13:04:32.000Z</time>
      </trkpt>
      <trkpt lat="46.20815" lon="6.24052">
        <ele>437.79998779297</ele>
        <time>2020-08-05T13:04:33.000Z</time>
      </trkpt>
      <trkpt lat="46.20796" lon="6.24048">
        <ele>437.79998779297</ele>
        <time>2020-08-05T13:04:36.000Z</time>
      </trkpt>
      <trkpt lat="46.2079" lon="6.24048">
        <ele>437.79998779297</ele>
        <time>2020-08-05T13:04:37.000Z</time>
      </trkpt>
      <trkpt lat="46.20766" lon="6.24037">
        <ele>437.39999389648</ele>
        <time>2020-08-05T13:04:41.000Z</time>
      </trkpt>
      <trkpt lat="46.20716" lon="6.24014">
        <ele>436.79998779297</ele>
        <time>2020-08-05T13:04:49.000Z</time>
      </trkpt>
      <trkpt lat="46.20672" lon="6.24005">
        <ele>435.60000610352</ele>
        <time>2020-08-05T13:04:55.000Z</time>
      </trkpt>
      <trkpt lat="46.20627" lon="6.23993">
        <ele>435.20001220703</ele>
        <time>2020-08-05T13:05:01.000Z</time>
      </trkpt>
      <trkpt lat="46.20572" lon="6.23973">
        <ele>435</ele>
        <time>2020-08-05T13:05:09.000Z</time>
      </trkpt>
      <trkpt lat="46.20543" lon="6.23958">
        <ele>435.20001220703</ele>
        <time>2020-08-05T13:05:14.000Z</time>
      </trkpt>
      <trkpt lat="46.20517" lon="6.23945">
        <ele>435.79998779297</ele>
        <time>2020-08-05T13:05:20.000Z</time>
      </trkpt>
      <trkpt lat="46.20497" lon="6.23939">
        <ele>436.39999389648</ele>
        <time>2020-08-05T13:05:25.000Z</time>
      </trkpt>
      <trkpt lat="46.20492" lon="6.23938">
        <ele>436.60000610352</ele>
        <time>2020-08-05T13:05:26.000Z</time>
      </trkpt>
      <trkpt lat="46.20475" lon="6.23932">
        <ele>437</ele>
        <time>2020-08-05T13:05:30.000Z</time>
      </trkpt>
      <trkpt lat="46.20468" lon="6.23929">
        <ele>437</ele>
        <time>2020-08-05T13:05:33.000Z</time>
      </trkpt>
      <trkpt lat="46.20464" lon="6.23928">
        <ele>437.20001220703</ele>
        <time>2020-08-05T13:05:34.000Z</time>
      </trkpt>
      <trkpt lat="46.20461" lon="6.23942">
        <ele>437.60000610352</ele>
        <time>2020-08-05T13:05:37.000Z</time>
      </trkpt>
      <trkpt lat="46.2046" lon="6.23948">
        <ele>437.79998779297</ele>
        <time>2020-08-05T13:05:38.000Z</time>
      </trkpt>
      <trkpt lat="46.20448" lon="6.2399">
        <ele>437.39999389648</ele>
        <time>2020-08-05T13:05:44.000Z</time>
      </trkpt>
      <trkpt lat="46.20432" lon="6.24043">
        <ele>436.60000610352</ele>
        <time>2020-08-05T13:05:51.000Z</time>
      </trkpt>
      <trkpt lat="46.20429" lon="6.24049">
        <ele>436.60000610352</ele>
        <time>2020-08-05T13:05:52.000Z</time>
      </trkpt>
      <trkpt lat="46.20422" lon="6.24058">
        <ele>436.39999389648</ele>
        <time>2020-08-05T13:05:54.000Z</time>
      </trkpt>
      <trkpt lat="46.20409" lon="6.24056">
        <ele>436.20001220703</ele>
        <time>2020-08-05T13:05:56.000Z</time>
      </trkpt>
      <trkpt lat="46.20405" lon="6.24061">
        <ele>436.20001220703</ele>
        <time>2020-08-05T13:05:57.000Z</time>
      </trkpt>
      <trkpt lat="46.20401" lon="6.24065">
        <ele>436.20001220703</ele>
        <time>2020-08-05T13:05:58.000Z</time>
      </trkpt>
      <trkpt lat="46.20404" lon="6.24079">
        <ele>436.39999389648</ele>
        <time>2020-08-05T13:05:59.000Z</time>
      </trkpt>
      <trkpt lat="46.20408" lon="6.24086">
        <ele>436.60000610352</ele>
        <time>2020-08-05T13:06:00.000Z</time>
      </trkpt>
      <trkpt lat="46.20413" lon="6.241">
        <ele>437.20001220703</ele>
        <time>2020-08-05T13:06:02.000Z</time>
      </trkpt>
      <trkpt lat="46.20418" lon="6.24114">
        <ele>437.60000610352</ele>
        <time>2020-08-05T13:06:04.000Z</time>
      </trkpt>
      <trkpt lat="46.20418" lon="6.2412">
        <ele>437.79998779297</ele>
        <time>2020-08-05T13:06:05.000Z</time>
      </trkpt>
      <trkpt lat="46.20413" lon="6.24185">
        <ele>439.20001220703</ele>
        <time>2020-08-05T13:06:13.000Z</time>
      </trkpt>
      <trkpt lat="46.20409" lon="6.24261">
        <ele>440</ele>
        <time>2020-08-05T13:06:23.000Z</time>
      </trkpt>
      <trkpt lat="46.20406" lon="6.24328">
        <ele>440.60000610352</ele>
        <time>2020-08-05T13:06:32.000Z</time>
      </trkpt>
      <trkpt lat="46.20401" lon="6.24396">
        <ele>440</ele>
        <time>2020-08-05T13:06:41.000Z</time>
      </trkpt>
      <trkpt lat="46.20399" lon="6.24403">
        <ele>440</ele>
        <time>2020-08-05T13:06:42.000Z</time>
      </trkpt>
      <trkpt lat="46.20396" lon="6.24415">
        <ele>439.79998779297</ele>
        <time>2020-08-05T13:06:44.000Z</time>
      </trkpt>
      <trkpt lat="46.20393" lon="6.2442">
        <ele>439.60000610352</ele>
        <time>2020-08-05T13:06:45.000Z</time>
      </trkpt>
      <trkpt lat="46.20387" lon="6.2443">
        <ele>439.39999389648</ele>
        <time>2020-08-05T13:06:47.000Z</time>
      </trkpt>
      <trkpt lat="46.20377" lon="6.24446">
        <ele>439.20001220703</ele>
        <time>2020-08-05T13:06:50.000Z</time>
      </trkpt>
      <trkpt lat="46.20373" lon="6.24447">
        <ele>439.20001220703</ele>
        <time>2020-08-05T13:06:51.000Z</time>
      </trkpt>
      <trkpt lat="46.20362" lon="6.24449">
        <ele>439</ele>
        <time>2020-08-05T13:06:53.000Z</time>
      </trkpt>
      <trkpt lat="46.20353" lon="6.24438">
        <ele>439</ele>
        <time>2020-08-05T13:06:55.000Z</time>
      </trkpt>
      <trkpt lat="46.20351" lon="6.2443">
        <ele>439</ele>
        <time>2020-08-05T13:06:56.000Z</time>
      </trkpt>
      <trkpt lat="46.20334" lon="6.24376">
        <ele>438.79998779297</ele>
        <time>2020-08-05T13:07:02.000Z</time>
      </trkpt>
      <trkpt lat="46.20319" lon="6.24324">
        <ele>437.39999389648</ele>
        <time>2020-08-05T13:07:07.000Z</time>
      </trkpt>
      <trkpt lat="46.20317" lon="6.24313">
        <ele>437.20001220703</ele>
        <time>2020-08-05T13:07:08.000Z</time>
      </trkpt>
      <trkpt lat="46.20309" lon="6.24308">
        <ele>437</ele>
        <time>2020-08-05T13:07:09.000Z</time>
      </trkpt>
      <trkpt lat="46.203" lon="6.24287">
        <ele>436.60000610352</ele>
        <time>2020-08-05T13:07:11.000Z</time>
      </trkpt>
      <trkpt lat="46.20274" lon="6.2428">
        <ele>436.60000610352</ele>
        <time>2020-08-05T13:07:14.000Z</time>
      </trkpt>
      <trkpt lat="46.20235" lon="6.24263">
        <ele>436.79998779297</ele>
        <time>2020-08-05T13:07:19.000Z</time>
      </trkpt>
      <trkpt lat="46.20228" lon="6.24258">
        <ele>436.79998779297</ele>
        <time>2020-08-05T13:07:20.000Z</time>
      </trkpt>
      <trkpt lat="46.20216" lon="6.24245">
        <ele>436.60000610352</ele>
        <time>2020-08-05T13:07:22.000Z</time>
      </trkpt>
      <trkpt lat="46.20183" lon="6.24191">
        <ele>436</ele>
        <time>2020-08-05T13:07:29.000Z</time>
      </trkpt>
      <trkpt lat="46.20157" lon="6.24144">
        <ele>435.79998779297</ele>
        <time>2020-08-05T13:07:35.000Z</time>
      </trkpt>
      <trkpt lat="46.20143" lon="6.24118">
        <ele>435.79998779297</ele>
        <time>2020-08-05T13:07:39.000Z</time>
      </trkpt>
      <trkpt lat="46.20135" lon="6.24104">
        <ele>435.60000610352</ele>
        <time>2020-08-05T13:07:43.000Z</time>
      </trkpt>
      <trkpt lat="46.20122" lon="6.24081">
        <ele>435.39999389648</ele>
        <time>2020-08-05T13:07:48.000Z</time>
      </trkpt>
      <trkpt lat="46.20101" lon="6.24043">
        <ele>435.60000610352</ele>
        <time>2020-08-05T13:07:54.000Z</time>
      </trkpt>
      <trkpt lat="46.20065" lon="6.23978">
        <ele>436</ele>
        <time>2020-08-05T13:08:03.000Z</time>
      </trkpt>
      <trkpt lat="46.20061" lon="6.23971">
        <ele>436</ele>
        <time>2020-08-05T13:08:04.000Z</time>
      </trkpt>
      <trkpt lat="46.20035" lon="6.23928">
        <ele>435.79998779297</ele>
        <time>2020-08-05T13:08:10.000Z</time>
      </trkpt>
      <trkpt lat="46.20027" lon="6.23914">
        <ele>435.60000610352</ele>
        <time>2020-08-05T13:08:12.000Z</time>
      </trkpt>
      <trkpt lat="46.20016" lon="6.23894">
        <ele>435.60000610352</ele>
        <time>2020-08-05T13:08:15.000Z</time>
      </trkpt>
      <trkpt lat="46.2001" lon="6.23888">
        <ele>435.60000610352</ele>
        <time>2020-08-05T13:08:16.000Z</time>
      </trkpt>
      <trkpt lat="46.20005" lon="6.23889">
        <ele>435.60000610352</ele>
        <time>2020-08-05T13:08:17.000Z</time>
      </trkpt>
      <trkpt lat="46.2" lon="6.2389">
        <ele>435.60000610352</ele>
        <time>2020-08-05T13:08:19.000Z</time>
      </trkpt>
      <trkpt lat="46.2" lon="6.2389">
        <ele>435.60000610352</ele>
        <time>2020-08-05T13:08:21.000Z</time>
      </trkpt>
    </trkseg>
  </trk>
</gpx>